<?xml version="1.0" encoding="UTF-8" standalone="no" ?>
<gpx xmlns="http://www.topografix.com/GPX/1/1" xmlns:xsi="http://www.w3.org/2001/XMLSchema-instance" xsi:schemaLocation="http://www.topografix.com/GPX/1/1 http://www.topografix.com/GPX/1/1/gpx.xsd" version="1.1" creator="VisuGPX - https://www.visugpx.com">
  <metadata>
    <name>2015-09-10 Walk from Saint-Etienne-la-Varenne</name>
    <desc><![CDATA[2015-09-10 Walk from Saint-Etienne-la-Varenne]]></desc>
  </metadata>
  <wpt lat="46.07727" lon="4.63125">
    <ele>427.9</ele>
    <name><![CDATA[2015-09-10 09:16 (Start)]]></name>
  </wpt>
  <wpt lat="46.07714" lon="4.63093">
    <ele>432.6</ele>
    <name><![CDATA[2015-09-10 09:16 (End)]]></name>
    <desc><![CDATA[Created by Google My Tracks on Android  Name: 2015-09-10 09:16 Activity type: walking Description: - Total distance: 25.48 km (15.8 mi) Total time: 7:23:34 Moving time: 6:13:03 Average speed: 3.45 km/h (2.1 mi/h) Average moving speed: 4.10 km/h (2.5 mi/h) Max speed: 5.49 km/h (3.4 mi/h) Average pace: 17:25 min/km (28:01 min/mi) Average moving pace: 14:38 min/km (23:34 min/mi) Fastest pace: 10:55 min/km (17:35 min/mi) Max elevation: 833 m (2733 ft) Min elevation: 329 m (1078 ft) Elevation gain: 1331 m (4366 ft) Max grade: 22 % Min grade: -26 % Recorded: 10/09/2015 09:16]]></desc>
  </wpt>
  <trk>
    <name><![CDATA[2015-09-10 09:16]]></name>
    <trkseg>
      <trkpt lat="46.07727" lon="4.63125">
        <ele>427.929229736</ele>
        <time>2015-09-10T07:16:29.515Z</time>
      </trkpt>
      <trkpt lat="46.07724" lon="4.6312">
        <ele>426.226531982</ele>
        <time>2015-09-10T07:18:09.29Z</time>
      </trkpt>
      <trkpt lat="46.07721" lon="4.63098">
        <ele>426.224517822</ele>
        <time>2015-09-10T07:18:10.232Z</time>
      </trkpt>
      <trkpt lat="46.07721" lon="4.63098">
        <ele>426.957122803</ele>
        <time>2015-09-10T07:20:01.283Z</time>
      </trkpt>
      <trkpt lat="46.07707" lon="4.63098">
        <ele>426.893218994</ele>
        <time>2015-09-10T07:20:02.24Z</time>
      </trkpt>
      <trkpt lat="46.07699" lon="4.63097">
        <ele>427.015106201</ele>
        <time>2015-09-10T07:20:12.279Z</time>
      </trkpt>
      <trkpt lat="46.07697" lon="4.63097">
        <ele>427.150604248</ele>
        <time>2015-09-10T07:20:13.253Z</time>
      </trkpt>
      <trkpt lat="46.07689" lon="4.63098">
        <ele>428.430175781</ele>
        <time>2015-09-10T07:20:22.273Z</time>
      </trkpt>
      <trkpt lat="46.07688" lon="4.63098">
        <ele>428.53036499</ele>
        <time>2015-09-10T07:20:23.242Z</time>
      </trkpt>
      <trkpt lat="46.07694" lon="4.63089">
        <ele>431.332092285</ele>
        <time>2015-09-10T07:24:05.292Z</time>
      </trkpt>
      <trkpt lat="46.07694" lon="4.63089">
        <ele>431.347717285</ele>
        <time>2015-09-10T07:24:06.236Z</time>
      </trkpt>
      <trkpt lat="46.07691" lon="4.63079">
        <ele>432.742279053</ele>
        <time>2015-09-10T07:28:07.244Z</time>
      </trkpt>
      <trkpt lat="46.0769" lon="4.63077">
        <ele>432.841552734</ele>
        <time>2015-09-10T07:28:08.234Z</time>
      </trkpt>
      <trkpt lat="46.07688" lon="4.63065">
        <ele>433.194885254</ele>
        <time>2015-09-10T07:28:15.243Z</time>
      </trkpt>
      <trkpt lat="46.07689" lon="4.63063">
        <ele>433.274597168</ele>
        <time>2015-09-10T07:28:16.238Z</time>
      </trkpt>
      <trkpt lat="46.07691" lon="4.63051">
        <ele>434.236968994</ele>
        <time>2015-09-10T07:28:25.278Z</time>
      </trkpt>
      <trkpt lat="46.07691" lon="4.63049">
        <ele>434.261352539</ele>
        <time>2015-09-10T07:28:26.242Z</time>
      </trkpt>
      <trkpt lat="46.07692" lon="4.63037">
        <ele>434.642547607</ele>
        <time>2015-09-10T07:28:33.267Z</time>
      </trkpt>
      <trkpt lat="46.07692" lon="4.63035">
        <ele>434.689361572</ele>
        <time>2015-09-10T07:28:34.242Z</time>
      </trkpt>
      <trkpt lat="46.07693" lon="4.63023">
        <ele>435.117523193</ele>
        <time>2015-09-10T07:28:44.246Z</time>
      </trkpt>
      <trkpt lat="46.07694" lon="4.6302">
        <ele>435.172912598</ele>
        <time>2015-09-10T07:28:45.229Z</time>
      </trkpt>
      <trkpt lat="46.07698" lon="4.6301">
        <ele>435.236938477</ele>
        <time>2015-09-10T07:28:50.298Z</time>
      </trkpt>
      <trkpt lat="46.07698" lon="4.63008">
        <ele>435.22076416</ele>
        <time>2015-09-10T07:28:51.232Z</time>
      </trkpt>
      <trkpt lat="46.07701" lon="4.62997">
        <ele>434.803375244</ele>
        <time>2015-09-10T07:29:08.256Z</time>
      </trkpt>
      <trkpt lat="46.07702" lon="4.62995">
        <ele>434.773925781</ele>
        <time>2015-09-10T07:29:09.245Z</time>
      </trkpt>
      <trkpt lat="46.07707" lon="4.62985">
        <ele>434.822631836</ele>
        <time>2015-09-10T07:29:17.356Z</time>
      </trkpt>
      <trkpt lat="46.07708" lon="4.62984">
        <ele>434.836334229</ele>
        <time>2015-09-10T07:29:18.239Z</time>
      </trkpt>
      <trkpt lat="46.07714" lon="4.62977">
        <ele>434.914886475</ele>
        <time>2015-09-10T07:29:24.246Z</time>
      </trkpt>
      <trkpt lat="46.07715" lon="4.62976">
        <ele>434.970977783</ele>
        <time>2015-09-10T07:29:25.238Z</time>
      </trkpt>
      <trkpt lat="46.07722" lon="4.62971">
        <ele>435.439544678</ele>
        <time>2015-09-10T07:29:30.301Z</time>
      </trkpt>
      <trkpt lat="46.07724" lon="4.62971">
        <ele>435.450836182</ele>
        <time>2015-09-10T07:29:31.245Z</time>
      </trkpt>
      <trkpt lat="46.07732" lon="4.6297">
        <ele>435.402099609</ele>
        <time>2015-09-10T07:29:37.269Z</time>
      </trkpt>
      <trkpt lat="46.07734" lon="4.62969">
        <ele>435.408874512</ele>
        <time>2015-09-10T07:29:38.231Z</time>
      </trkpt>
      <trkpt lat="46.07742" lon="4.62966">
        <ele>435.519622803</ele>
        <time>2015-09-10T07:29:45.268Z</time>
      </trkpt>
      <trkpt lat="46.07743" lon="4.62966">
        <ele>435.542053223</ele>
        <time>2015-09-10T07:29:46.234Z</time>
      </trkpt>
      <trkpt lat="46.07751" lon="4.62963">
        <ele>435.699554443</ele>
        <time>2015-09-10T07:29:52.264Z</time>
      </trkpt>
      <trkpt lat="46.07752" lon="4.62963">
        <ele>435.703125</ele>
        <time>2015-09-10T07:29:53.234Z</time>
      </trkpt>
      <trkpt lat="46.0776" lon="4.6296">
        <ele>435.67364502</ele>
        <time>2015-09-10T07:30:00.267Z</time>
      </trkpt>
      <trkpt lat="46.07761" lon="4.62959">
        <ele>435.698608398</ele>
        <time>2015-09-10T07:30:01.244Z</time>
      </trkpt>
      <trkpt lat="46.07769" lon="4.6296">
        <ele>435.713226318</ele>
        <time>2015-09-10T07:30:07.278Z</time>
      </trkpt>
      <trkpt lat="46.0777" lon="4.62959">
        <ele>435.690032959</ele>
        <time>2015-09-10T07:30:08.225Z</time>
      </trkpt>
      <trkpt lat="46.07777" lon="4.62958">
        <ele>435.250305176</ele>
        <time>2015-09-10T07:30:14.282Z</time>
      </trkpt>
      <trkpt lat="46.07779" lon="4.62957">
        <ele>435.133361816</ele>
        <time>2015-09-10T07:30:15.238Z</time>
      </trkpt>
      <trkpt lat="46.07786" lon="4.62955">
        <ele>434.452209473</ele>
        <time>2015-09-10T07:30:21.274Z</time>
      </trkpt>
      <trkpt lat="46.07788" lon="4.62955">
        <ele>434.33996582</ele>
        <time>2015-09-10T07:30:22.242Z</time>
      </trkpt>
      <trkpt lat="46.07796" lon="4.62954">
        <ele>433.603485107</ele>
        <time>2015-09-10T07:30:28.264Z</time>
      </trkpt>
      <trkpt lat="46.07797" lon="4.62953">
        <ele>433.465057373</ele>
        <time>2015-09-10T07:30:29.239Z</time>
      </trkpt>
      <trkpt lat="46.07805" lon="4.62952">
        <ele>432.915039062</ele>
        <time>2015-09-10T07:30:36.268Z</time>
      </trkpt>
      <trkpt lat="46.07807" lon="4.62951">
        <ele>432.843780518</ele>
        <time>2015-09-10T07:30:37.248Z</time>
      </trkpt>
      <trkpt lat="46.07814" lon="4.62949">
        <ele>432.303039551</ele>
        <time>2015-09-10T07:30:43.35Z</time>
      </trkpt>
      <trkpt lat="46.07816" lon="4.62949">
        <ele>432.210845947</ele>
        <time>2015-09-10T07:30:44.239Z</time>
      </trkpt>
      <trkpt lat="46.07824" lon="4.62947">
        <ele>431.619628906</ele>
        <time>2015-09-10T07:30:51.282Z</time>
      </trkpt>
      <trkpt lat="46.07825" lon="4.62947">
        <ele>431.54776001</ele>
        <time>2015-09-10T07:30:52.225Z</time>
      </trkpt>
      <trkpt lat="46.07833" lon="4.62945">
        <ele>431.006164551</ele>
        <time>2015-09-10T07:30:58.3Z</time>
      </trkpt>
      <trkpt lat="46.07835" lon="4.62945">
        <ele>430.911712646</ele>
        <time>2015-09-10T07:30:59.217Z</time>
      </trkpt>
      <trkpt lat="46.07843" lon="4.62942">
        <ele>430.287078857</ele>
        <time>2015-09-10T07:31:05.267Z</time>
      </trkpt>
      <trkpt lat="46.07844" lon="4.62942">
        <ele>430.195922852</ele>
        <time>2015-09-10T07:31:06.228Z</time>
      </trkpt>
      <trkpt lat="46.07852" lon="4.62941">
        <ele>429.61932373</ele>
        <time>2015-09-10T07:31:12.231Z</time>
      </trkpt>
      <trkpt lat="46.07853" lon="4.62941">
        <ele>429.521026611</ele>
        <time>2015-09-10T07:31:13.215Z</time>
      </trkpt>
      <trkpt lat="46.07861" lon="4.62939">
        <ele>428.96572876</ele>
        <time>2015-09-10T07:31:19.258Z</time>
      </trkpt>
      <trkpt lat="46.07863" lon="4.62939">
        <ele>428.879364014</ele>
        <time>2015-09-10T07:31:20.207Z</time>
      </trkpt>
      <trkpt lat="46.07871" lon="4.62937">
        <ele>428.345703125</ele>
        <time>2015-09-10T07:31:26.259Z</time>
      </trkpt>
      <trkpt lat="46.07872" lon="4.62937">
        <ele>428.243713379</ele>
        <time>2015-09-10T07:31:27.225Z</time>
      </trkpt>
      <trkpt lat="46.07879" lon="4.62935">
        <ele>427.681610107</ele>
        <time>2015-09-10T07:31:33.267Z</time>
      </trkpt>
      <trkpt lat="46.07881" lon="4.62935">
        <ele>427.602081299</ele>
        <time>2015-09-10T07:31:34.217Z</time>
      </trkpt>
      <trkpt lat="46.07889" lon="4.62934">
        <ele>427.185028076</ele>
        <time>2015-09-10T07:31:41.256Z</time>
      </trkpt>
      <trkpt lat="46.07891" lon="4.62933">
        <ele>427.125701904</ele>
        <time>2015-09-10T07:31:42.224Z</time>
      </trkpt>
      <trkpt lat="46.07899" lon="4.62933">
        <ele>426.77166748</ele>
        <time>2015-09-10T07:31:49.257Z</time>
      </trkpt>
      <trkpt lat="46.07901" lon="4.62932">
        <ele>426.716552734</ele>
        <time>2015-09-10T07:31:50.219Z</time>
      </trkpt>
      <trkpt lat="46.07909" lon="4.6293">
        <ele>426.412963867</ele>
        <time>2015-09-10T07:31:57.273Z</time>
      </trkpt>
      <trkpt lat="46.0791" lon="4.6293">
        <ele>426.3671875</ele>
        <time>2015-09-10T07:31:58.222Z</time>
      </trkpt>
      <trkpt lat="46.07918" lon="4.62928">
        <ele>426.130279541</ele>
        <time>2015-09-10T07:32:04.244Z</time>
      </trkpt>
      <trkpt lat="46.07919" lon="4.62928">
        <ele>426.103424072</ele>
        <time>2015-09-10T07:32:05.22Z</time>
      </trkpt>
      <trkpt lat="46.07927" lon="4.62927">
        <ele>425.966278076</ele>
        <time>2015-09-10T07:32:11.251Z</time>
      </trkpt>
      <trkpt lat="46.07929" lon="4.62926">
        <ele>425.934204102</ele>
        <time>2015-09-10T07:32:12.209Z</time>
      </trkpt>
      <trkpt lat="46.07937" lon="4.62926">
        <ele>425.976470947</ele>
        <time>2015-09-10T07:32:19.249Z</time>
      </trkpt>
      <trkpt lat="46.07939" lon="4.62926">
        <ele>425.982421875</ele>
        <time>2015-09-10T07:32:20.21Z</time>
      </trkpt>
      <trkpt lat="46.07947" lon="4.62923">
        <ele>425.821105957</ele>
        <time>2015-09-10T07:32:27.254Z</time>
      </trkpt>
      <trkpt lat="46.07948" lon="4.62923">
        <ele>425.743927002</ele>
        <time>2015-09-10T07:32:28.212Z</time>
      </trkpt>
      <trkpt lat="46.07956" lon="4.62918">
        <ele>424.940063477</ele>
        <time>2015-09-10T07:32:36.241Z</time>
      </trkpt>
      <trkpt lat="46.07957" lon="4.62917">
        <ele>424.767028809</ele>
        <time>2015-09-10T07:32:37.224Z</time>
      </trkpt>
      <trkpt lat="46.07965" lon="4.62915">
        <ele>423.4402771</ele>
        <time>2015-09-10T07:32:45.271Z</time>
      </trkpt>
      <trkpt lat="46.07966" lon="4.62916">
        <ele>423.460479736</ele>
        <time>2015-09-10T07:32:46.239Z</time>
      </trkpt>
      <trkpt lat="46.07975" lon="4.62912">
        <ele>423.926513672</ele>
        <time>2015-09-10T07:33:09.264Z</time>
      </trkpt>
      <trkpt lat="46.07975" lon="4.62912">
        <ele>423.930511475</ele>
        <time>2015-09-10T07:33:10.21Z</time>
      </trkpt>
      <trkpt lat="46.07979" lon="4.62923">
        <ele>426.346618652</ele>
        <time>2015-09-10T07:33:43.262Z</time>
      </trkpt>
      <trkpt lat="46.0798" lon="4.62923">
        <ele>426.484863281</ele>
        <time>2015-09-10T07:33:44.229Z</time>
      </trkpt>
      <trkpt lat="46.07987" lon="4.62928">
        <ele>427.330963135</ele>
        <time>2015-09-10T07:33:51.26Z</time>
      </trkpt>
      <trkpt lat="46.07988" lon="4.62929">
        <ele>427.438018799</ele>
        <time>2015-09-10T07:33:52.227Z</time>
      </trkpt>
      <trkpt lat="46.07996" lon="4.62932">
        <ele>428.013061523</ele>
        <time>2015-09-10T07:33:59.276Z</time>
      </trkpt>
      <trkpt lat="46.07997" lon="4.62933">
        <ele>428.083251953</ele>
        <time>2015-09-10T07:34:00.215Z</time>
      </trkpt>
      <trkpt lat="46.08006" lon="4.62938">
        <ele>428.694580078</ele>
        <time>2015-09-10T07:34:08.269Z</time>
      </trkpt>
      <trkpt lat="46.08007" lon="4.62938">
        <ele>428.763122559</ele>
        <time>2015-09-10T07:34:09.245Z</time>
      </trkpt>
      <trkpt lat="46.08014" lon="4.62942">
        <ele>429.24005127</ele>
        <time>2015-09-10T07:34:17.258Z</time>
      </trkpt>
      <trkpt lat="46.08015" lon="4.62943">
        <ele>429.319763184</ele>
        <time>2015-09-10T07:34:18.232Z</time>
      </trkpt>
      <trkpt lat="46.08024" lon="4.62947">
        <ele>429.925018311</ele>
        <time>2015-09-10T07:34:25.251Z</time>
      </trkpt>
      <trkpt lat="46.08025" lon="4.62948">
        <ele>430.001586914</ele>
        <time>2015-09-10T07:34:26.229Z</time>
      </trkpt>
      <trkpt lat="46.08033" lon="4.62953">
        <ele>430.736968994</ele>
        <time>2015-09-10T07:34:33.243Z</time>
      </trkpt>
      <trkpt lat="46.08034" lon="4.62954">
        <ele>430.825805664</ele>
        <time>2015-09-10T07:34:34.217Z</time>
      </trkpt>
      <trkpt lat="46.08042" lon="4.62958">
        <ele>431.339569092</ele>
        <time>2015-09-10T07:34:41.243Z</time>
      </trkpt>
      <trkpt lat="46.08043" lon="4.62958">
        <ele>431.415679932</ele>
        <time>2015-09-10T07:34:42.244Z</time>
      </trkpt>
      <trkpt lat="46.08051" lon="4.6296">
        <ele>431.959503174</ele>
        <time>2015-09-10T07:34:48.287Z</time>
      </trkpt>
      <trkpt lat="46.08052" lon="4.62961">
        <ele>432.033843994</ele>
        <time>2015-09-10T07:34:49.224Z</time>
      </trkpt>
      <trkpt lat="46.0806" lon="4.62965">
        <ele>432.505065918</ele>
        <time>2015-09-10T07:34:56.273Z</time>
      </trkpt>
      <trkpt lat="46.08061" lon="4.62966">
        <ele>432.565551758</ele>
        <time>2015-09-10T07:34:57.219Z</time>
      </trkpt>
      <trkpt lat="46.08069" lon="4.62969">
        <ele>432.923400879</ele>
        <time>2015-09-10T07:35:03.276Z</time>
      </trkpt>
      <trkpt lat="46.0807" lon="4.6297">
        <ele>432.982849121</ele>
        <time>2015-09-10T07:35:04.235Z</time>
      </trkpt>
      <trkpt lat="46.08078" lon="4.62974">
        <ele>433.403747559</ele>
        <time>2015-09-10T07:35:11.278Z</time>
      </trkpt>
      <trkpt lat="46.08079" lon="4.62974">
        <ele>433.461517334</ele>
        <time>2015-09-10T07:35:12.243Z</time>
      </trkpt>
      <trkpt lat="46.08087" lon="4.62978">
        <ele>433.91607666</ele>
        <time>2015-09-10T07:35:19.271Z</time>
      </trkpt>
      <trkpt lat="46.08089" lon="4.62979">
        <ele>433.981048584</ele>
        <time>2015-09-10T07:35:20.221Z</time>
      </trkpt>
      <trkpt lat="46.08097" lon="4.62982">
        <ele>434.440704346</ele>
        <time>2015-09-10T07:35:29.248Z</time>
      </trkpt>
      <trkpt lat="46.08098" lon="4.62982">
        <ele>434.498138428</ele>
        <time>2015-09-10T07:35:30.227Z</time>
      </trkpt>
      <trkpt lat="46.08105" lon="4.62987">
        <ele>434.90625</ele>
        <time>2015-09-10T07:35:37.255Z</time>
      </trkpt>
      <trkpt lat="46.08106" lon="4.62987">
        <ele>434.970397949</ele>
        <time>2015-09-10T07:35:38.238Z</time>
      </trkpt>
      <trkpt lat="46.08114" lon="4.62992">
        <ele>435.396728516</ele>
        <time>2015-09-10T07:35:44.283Z</time>
      </trkpt>
      <trkpt lat="46.08115" lon="4.62993">
        <ele>435.479705811</ele>
        <time>2015-09-10T07:35:45.226Z</time>
      </trkpt>
      <trkpt lat="46.08123" lon="4.62997">
        <ele>436.114318848</ele>
        <time>2015-09-10T07:35:52.309Z</time>
      </trkpt>
      <trkpt lat="46.08124" lon="4.62998">
        <ele>436.203613281</ele>
        <time>2015-09-10T07:35:53.223Z</time>
      </trkpt>
      <trkpt lat="46.08132" lon="4.63002">
        <ele>436.761688232</ele>
        <time>2015-09-10T07:36:00.258Z</time>
      </trkpt>
      <trkpt lat="46.08133" lon="4.63003">
        <ele>436.850036621</ele>
        <time>2015-09-10T07:36:01.223Z</time>
      </trkpt>
      <trkpt lat="46.08141" lon="4.63006">
        <ele>437.399017334</ele>
        <time>2015-09-10T07:36:07.29Z</time>
      </trkpt>
      <trkpt lat="46.08142" lon="4.63007">
        <ele>437.488220215</ele>
        <time>2015-09-10T07:36:08.241Z</time>
      </trkpt>
      <trkpt lat="46.0815" lon="4.63011">
        <ele>438.116363525</ele>
        <time>2015-09-10T07:36:15.264Z</time>
      </trkpt>
      <trkpt lat="46.08151" lon="4.63012">
        <ele>438.207855225</ele>
        <time>2015-09-10T07:36:16.23Z</time>
      </trkpt>
      <trkpt lat="46.0816" lon="4.63016">
        <ele>438.834625244</ele>
        <time>2015-09-10T07:36:23.266Z</time>
      </trkpt>
      <trkpt lat="46.08161" lon="4.63017">
        <ele>438.92767334</ele>
        <time>2015-09-10T07:36:24.22Z</time>
      </trkpt>
      <trkpt lat="46.08168" lon="4.63021">
        <ele>439.613922119</ele>
        <time>2015-09-10T07:36:31.248Z</time>
      </trkpt>
      <trkpt lat="46.08169" lon="4.63022">
        <ele>439.717895508</ele>
        <time>2015-09-10T07:36:32.255Z</time>
      </trkpt>
      <trkpt lat="46.08177" lon="4.63025">
        <ele>440.062133789</ele>
        <time>2015-09-10T07:36:38.279Z</time>
      </trkpt>
      <trkpt lat="46.08178" lon="4.63026">
        <ele>440.145172119</ele>
        <time>2015-09-10T07:36:39.228Z</time>
      </trkpt>
      <trkpt lat="46.08185" lon="4.6303">
        <ele>440.857055664</ele>
        <time>2015-09-10T07:36:46.246Z</time>
      </trkpt>
      <trkpt lat="46.08186" lon="4.63031">
        <ele>440.952606201</ele>
        <time>2015-09-10T07:36:47.233Z</time>
      </trkpt>
      <trkpt lat="46.08195" lon="4.63036">
        <ele>441.622467041</ele>
        <time>2015-09-10T07:36:54.265Z</time>
      </trkpt>
      <trkpt lat="46.08196" lon="4.63037">
        <ele>441.698120117</ele>
        <time>2015-09-10T07:36:55.206Z</time>
      </trkpt>
      <trkpt lat="46.08203" lon="4.6304">
        <ele>442.31942749</ele>
        <time>2015-09-10T07:37:02.253Z</time>
      </trkpt>
      <trkpt lat="46.08204" lon="4.63041">
        <ele>442.388793945</ele>
        <time>2015-09-10T07:37:03.224Z</time>
      </trkpt>
      <trkpt lat="46.08213" lon="4.63045">
        <ele>443.124328613</ele>
        <time>2015-09-10T07:37:10.235Z</time>
      </trkpt>
      <trkpt lat="46.08214" lon="4.63046">
        <ele>443.278198242</ele>
        <time>2015-09-10T07:37:11.232Z</time>
      </trkpt>
      <trkpt lat="46.08222" lon="4.63049">
        <ele>444.270965576</ele>
        <time>2015-09-10T07:37:18.274Z</time>
      </trkpt>
      <trkpt lat="46.08223" lon="4.63049">
        <ele>444.417175293</ele>
        <time>2015-09-10T07:37:19.22Z</time>
      </trkpt>
      <trkpt lat="46.08231" lon="4.63052">
        <ele>445.298706055</ele>
        <time>2015-09-10T07:37:26.247Z</time>
      </trkpt>
      <trkpt lat="46.08232" lon="4.63052">
        <ele>445.424804688</ele>
        <time>2015-09-10T07:37:27.221Z</time>
      </trkpt>
      <trkpt lat="46.0824" lon="4.63053">
        <ele>446.244262695</ele>
        <time>2015-09-10T07:37:34.273Z</time>
      </trkpt>
      <trkpt lat="46.08241" lon="4.63053">
        <ele>446.361450195</ele>
        <time>2015-09-10T07:37:35.232Z</time>
      </trkpt>
      <trkpt lat="46.0825" lon="4.63053">
        <ele>447.17578125</ele>
        <time>2015-09-10T07:37:42.262Z</time>
      </trkpt>
      <trkpt lat="46.08251" lon="4.63053">
        <ele>447.290893555</ele>
        <time>2015-09-10T07:37:43.225Z</time>
      </trkpt>
      <trkpt lat="46.0826" lon="4.63052">
        <ele>448.051269531</ele>
        <time>2015-09-10T07:37:50.23Z</time>
      </trkpt>
      <trkpt lat="46.08261" lon="4.63052">
        <ele>448.154296875</ele>
        <time>2015-09-10T07:37:51.227Z</time>
      </trkpt>
      <trkpt lat="46.08269" lon="4.63052">
        <ele>448.752563477</ele>
        <time>2015-09-10T07:37:57.249Z</time>
      </trkpt>
      <trkpt lat="46.08271" lon="4.63052">
        <ele>448.84161377</ele>
        <time>2015-09-10T07:37:58.235Z</time>
      </trkpt>
      <trkpt lat="46.08279" lon="4.63052">
        <ele>449.460906982</ele>
        <time>2015-09-10T07:38:05.238Z</time>
      </trkpt>
      <trkpt lat="46.0828" lon="4.63052">
        <ele>449.5574646</ele>
        <time>2015-09-10T07:38:06.224Z</time>
      </trkpt>
      <trkpt lat="46.08288" lon="4.63052">
        <ele>450.203948975</ele>
        <time>2015-09-10T07:38:13.244Z</time>
      </trkpt>
      <trkpt lat="46.0829" lon="4.63052">
        <ele>450.285675049</ele>
        <time>2015-09-10T07:38:14.232Z</time>
      </trkpt>
      <trkpt lat="46.08298" lon="4.63052">
        <ele>450.914916992</ele>
        <time>2015-09-10T07:38:21.25Z</time>
      </trkpt>
      <trkpt lat="46.08299" lon="4.63052">
        <ele>450.999206543</ele>
        <time>2015-09-10T07:38:22.226Z</time>
      </trkpt>
      <trkpt lat="46.08308" lon="4.63055">
        <ele>451.675598145</ele>
        <time>2015-09-10T07:38:29.276Z</time>
      </trkpt>
      <trkpt lat="46.08309" lon="4.63055">
        <ele>451.784118652</ele>
        <time>2015-09-10T07:38:30.229Z</time>
      </trkpt>
      <trkpt lat="46.08317" lon="4.63057">
        <ele>452.550689697</ele>
        <time>2015-09-10T07:38:37.25Z</time>
      </trkpt>
      <trkpt lat="46.08318" lon="4.63057">
        <ele>452.66796875</ele>
        <time>2015-09-10T07:38:38.235Z</time>
      </trkpt>
      <trkpt lat="46.08326" lon="4.6306">
        <ele>453.496002197</ele>
        <time>2015-09-10T07:38:45.241Z</time>
      </trkpt>
      <trkpt lat="46.08327" lon="4.6306">
        <ele>453.609924316</ele>
        <time>2015-09-10T07:38:46.243Z</time>
      </trkpt>
      <trkpt lat="46.08335" lon="4.63061">
        <ele>454.37878418</ele>
        <time>2015-09-10T07:38:53.24Z</time>
      </trkpt>
      <trkpt lat="46.08336" lon="4.63061">
        <ele>454.482330322</ele>
        <time>2015-09-10T07:38:54.228Z</time>
      </trkpt>
      <trkpt lat="46.08345" lon="4.63061">
        <ele>455.351593018</ele>
        <time>2015-09-10T07:39:02.282Z</time>
      </trkpt>
      <trkpt lat="46.08346" lon="4.63061">
        <ele>455.456787109</ele>
        <time>2015-09-10T07:39:03.239Z</time>
      </trkpt>
      <trkpt lat="46.08355" lon="4.6306">
        <ele>456.475891113</ele>
        <time>2015-09-10T07:39:11.262Z</time>
      </trkpt>
      <trkpt lat="46.08356" lon="4.6306">
        <ele>456.605133057</ele>
        <time>2015-09-10T07:39:12.228Z</time>
      </trkpt>
      <trkpt lat="46.08364" lon="4.63059">
        <ele>457.631958008</ele>
        <time>2015-09-10T07:39:20.267Z</time>
      </trkpt>
      <trkpt lat="46.08366" lon="4.63059">
        <ele>457.766448975</ele>
        <time>2015-09-10T07:39:21.222Z</time>
      </trkpt>
      <trkpt lat="46.08374" lon="4.63055">
        <ele>458.942840576</ele>
        <time>2015-09-10T07:39:28.398Z</time>
      </trkpt>
      <trkpt lat="46.08375" lon="4.63054">
        <ele>459.124969482</ele>
        <time>2015-09-10T07:39:29.218Z</time>
      </trkpt>
      <trkpt lat="46.08383" lon="4.63053">
        <ele>460.282897949</ele>
        <time>2015-09-10T07:39:37.279Z</time>
      </trkpt>
      <trkpt lat="46.08384" lon="4.63052">
        <ele>460.41027832</ele>
        <time>2015-09-10T07:39:38.242Z</time>
      </trkpt>
      <trkpt lat="46.08393" lon="4.63048">
        <ele>461.438018799</ele>
        <time>2015-09-10T07:39:46.286Z</time>
      </trkpt>
      <trkpt lat="46.08394" lon="4.63047">
        <ele>461.5887146</ele>
        <time>2015-09-10T07:39:47.243Z</time>
      </trkpt>
      <trkpt lat="46.08402" lon="4.63044">
        <ele>462.625823975</ele>
        <time>2015-09-10T07:39:54.274Z</time>
      </trkpt>
      <trkpt lat="46.08403" lon="4.63043">
        <ele>462.757629395</ele>
        <time>2015-09-10T07:39:55.218Z</time>
      </trkpt>
      <trkpt lat="46.08411" lon="4.63042">
        <ele>463.750366211</ele>
        <time>2015-09-10T07:40:03.282Z</time>
      </trkpt>
      <trkpt lat="46.08412" lon="4.63042">
        <ele>463.892181396</ele>
        <time>2015-09-10T07:40:04.237Z</time>
      </trkpt>
      <trkpt lat="46.08421" lon="4.63044">
        <ele>464.758728027</ele>
        <time>2015-09-10T07:40:12.29Z</time>
      </trkpt>
      <trkpt lat="46.08422" lon="4.63045">
        <ele>464.860870361</ele>
        <time>2015-09-10T07:40:13.222Z</time>
      </trkpt>
      <trkpt lat="46.08431" lon="4.63044">
        <ele>465.493103027</ele>
        <time>2015-09-10T07:40:20.281Z</time>
      </trkpt>
      <trkpt lat="46.08432" lon="4.63044">
        <ele>465.575317383</ele>
        <time>2015-09-10T07:40:21.22Z</time>
      </trkpt>
      <trkpt lat="46.08436" lon="4.63034">
        <ele>466.007415771</ele>
        <time>2015-09-10T07:40:29.245Z</time>
      </trkpt>
      <trkpt lat="46.08437" lon="4.63032">
        <ele>466.068359375</ele>
        <time>2015-09-10T07:40:30.243Z</time>
      </trkpt>
      <trkpt lat="46.0844" lon="4.63021">
        <ele>466.593414307</ele>
        <time>2015-09-10T07:40:37.272Z</time>
      </trkpt>
      <trkpt lat="46.0844" lon="4.6302">
        <ele>466.680511475</ele>
        <time>2015-09-10T07:40:38.238Z</time>
      </trkpt>
      <trkpt lat="46.08445" lon="4.63009">
        <ele>467.188262939</ele>
        <time>2015-09-10T07:40:44.285Z</time>
      </trkpt>
      <trkpt lat="46.08445" lon="4.63008">
        <ele>467.258026123</ele>
        <time>2015-09-10T07:40:45.219Z</time>
      </trkpt>
      <trkpt lat="46.0845" lon="4.62998">
        <ele>467.673492432</ele>
        <time>2015-09-10T07:40:51.289Z</time>
      </trkpt>
      <trkpt lat="46.08451" lon="4.62997">
        <ele>467.724975586</ele>
        <time>2015-09-10T07:40:52.244Z</time>
      </trkpt>
      <trkpt lat="46.08456" lon="4.62989">
        <ele>468.167633057</ele>
        <time>2015-09-10T07:40:58.278Z</time>
      </trkpt>
      <trkpt lat="46.08457" lon="4.62987">
        <ele>468.247406006</ele>
        <time>2015-09-10T07:40:59.237Z</time>
      </trkpt>
      <trkpt lat="46.08463" lon="4.62979">
        <ele>468.600341797</ele>
        <time>2015-09-10T07:41:07.329Z</time>
      </trkpt>
      <trkpt lat="46.08464" lon="4.62977">
        <ele>468.651275635</ele>
        <time>2015-09-10T07:41:08.239Z</time>
      </trkpt>
      <trkpt lat="46.0847" lon="4.6297">
        <ele>468.883972168</ele>
        <time>2015-09-10T07:41:13.255Z</time>
      </trkpt>
      <trkpt lat="46.08471" lon="4.62969">
        <ele>468.948547363</ele>
        <time>2015-09-10T07:41:14.253Z</time>
      </trkpt>
      <trkpt lat="46.08478" lon="4.62963">
        <ele>469.331695557</ele>
        <time>2015-09-10T07:41:19.417Z</time>
      </trkpt>
      <trkpt lat="46.08479" lon="4.62962">
        <ele>469.405670166</ele>
        <time>2015-09-10T07:41:20.223Z</time>
      </trkpt>
      <trkpt lat="46.08487" lon="4.62956">
        <ele>469.834625244</ele>
        <time>2015-09-10T07:41:27.441Z</time>
      </trkpt>
      <trkpt lat="46.08488" lon="4.62955">
        <ele>469.896118164</ele>
        <time>2015-09-10T07:41:28.244Z</time>
      </trkpt>
      <trkpt lat="46.08495" lon="4.62949">
        <ele>470.283233643</ele>
        <time>2015-09-10T07:41:34.25Z</time>
      </trkpt>
      <trkpt lat="46.08496" lon="4.62948">
        <ele>470.34753418</ele>
        <time>2015-09-10T07:41:35.224Z</time>
      </trkpt>
      <trkpt lat="46.08503" lon="4.62942">
        <ele>470.791442871</ele>
        <time>2015-09-10T07:41:42.266Z</time>
      </trkpt>
      <trkpt lat="46.08505" lon="4.62941">
        <ele>470.871398926</ele>
        <time>2015-09-10T07:41:43.216Z</time>
      </trkpt>
      <trkpt lat="46.08512" lon="4.62934">
        <ele>471.533111572</ele>
        <time>2015-09-10T07:41:49.261Z</time>
      </trkpt>
      <trkpt lat="46.08513" lon="4.62934">
        <ele>471.630371094</ele>
        <time>2015-09-10T07:41:50.26Z</time>
      </trkpt>
      <trkpt lat="46.0852" lon="4.62928">
        <ele>472.263214111</ele>
        <time>2015-09-10T07:41:57.238Z</time>
      </trkpt>
      <trkpt lat="46.08521" lon="4.62927">
        <ele>472.362243652</ele>
        <time>2015-09-10T07:41:58.221Z</time>
      </trkpt>
      <trkpt lat="46.08528" lon="4.62921">
        <ele>472.847045898</ele>
        <time>2015-09-10T07:42:05.246Z</time>
      </trkpt>
      <trkpt lat="46.08529" lon="4.6292">
        <ele>472.919769287</ele>
        <time>2015-09-10T07:42:06.222Z</time>
      </trkpt>
      <trkpt lat="46.08537" lon="4.62916">
        <ele>473.533203125</ele>
        <time>2015-09-10T07:42:14.286Z</time>
      </trkpt>
      <trkpt lat="46.08538" lon="4.62916">
        <ele>473.613830566</ele>
        <time>2015-09-10T07:42:15.216Z</time>
      </trkpt>
      <trkpt lat="46.08546" lon="4.62912">
        <ele>474.258117676</ele>
        <time>2015-09-10T07:42:22.224Z</time>
      </trkpt>
      <trkpt lat="46.08547" lon="4.62912">
        <ele>474.347351074</ele>
        <time>2015-09-10T07:42:23.22Z</time>
      </trkpt>
      <trkpt lat="46.08555" lon="4.62906">
        <ele>475.121490479</ele>
        <time>2015-09-10T07:42:31.261Z</time>
      </trkpt>
      <trkpt lat="46.08555" lon="4.62905">
        <ele>475.208831787</ele>
        <time>2015-09-10T07:42:32.219Z</time>
      </trkpt>
      <trkpt lat="46.08564" lon="4.62902">
        <ele>475.652191162</ele>
        <time>2015-09-10T07:42:39.282Z</time>
      </trkpt>
      <trkpt lat="46.08565" lon="4.62901">
        <ele>475.707885742</ele>
        <time>2015-09-10T07:42:40.239Z</time>
      </trkpt>
      <trkpt lat="46.08572" lon="4.62896">
        <ele>476.380249023</ele>
        <time>2015-09-10T07:42:48.263Z</time>
      </trkpt>
      <trkpt lat="46.08573" lon="4.62895">
        <ele>476.522186279</ele>
        <time>2015-09-10T07:42:49.205Z</time>
      </trkpt>
      <trkpt lat="46.08581" lon="4.62889">
        <ele>477.534820557</ele>
        <time>2015-09-10T07:42:57.246Z</time>
      </trkpt>
      <trkpt lat="46.08581" lon="4.62888">
        <ele>477.654724121</ele>
        <time>2015-09-10T07:42:58.233Z</time>
      </trkpt>
      <trkpt lat="46.08586" lon="4.62878">
        <ele>478.473144531</ele>
        <time>2015-09-10T07:43:06.268Z</time>
      </trkpt>
      <trkpt lat="46.08586" lon="4.62876">
        <ele>478.564453125</ele>
        <time>2015-09-10T07:43:07.231Z</time>
      </trkpt>
      <trkpt lat="46.08588" lon="4.62866">
        <ele>479.169891357</ele>
        <time>2015-09-10T07:43:14.264Z</time>
      </trkpt>
      <trkpt lat="46.08589" lon="4.62864">
        <ele>479.228027344</ele>
        <time>2015-09-10T07:43:15.225Z</time>
      </trkpt>
      <trkpt lat="46.08591" lon="4.62852">
        <ele>479.830627441</ele>
        <time>2015-09-10T07:43:22.303Z</time>
      </trkpt>
      <trkpt lat="46.08591" lon="4.62851">
        <ele>479.901367188</ele>
        <time>2015-09-10T07:43:23.225Z</time>
      </trkpt>
      <trkpt lat="46.08594" lon="4.62839">
        <ele>480.692901611</ele>
        <time>2015-09-10T07:43:31.256Z</time>
      </trkpt>
      <trkpt lat="46.08594" lon="4.62837">
        <ele>480.793701172</ele>
        <time>2015-09-10T07:43:32.222Z</time>
      </trkpt>
      <trkpt lat="46.08598" lon="4.62825">
        <ele>481.605895996</ele>
        <time>2015-09-10T07:43:40.356Z</time>
      </trkpt>
      <trkpt lat="46.08599" lon="4.62823">
        <ele>481.696746826</ele>
        <time>2015-09-10T07:43:41.21Z</time>
      </trkpt>
      <trkpt lat="46.08603" lon="4.62812">
        <ele>482.218536377</ele>
        <time>2015-09-10T07:43:48.265Z</time>
      </trkpt>
      <trkpt lat="46.08603" lon="4.62811">
        <ele>482.340911865</ele>
        <time>2015-09-10T07:43:49.209Z</time>
      </trkpt>
      <trkpt lat="46.08606" lon="4.62799">
        <ele>483.074676514</ele>
        <time>2015-09-10T07:43:56.281Z</time>
      </trkpt>
      <trkpt lat="46.08607" lon="4.62797">
        <ele>483.150787354</ele>
        <time>2015-09-10T07:43:57.21Z</time>
      </trkpt>
      <trkpt lat="46.08611" lon="4.62788">
        <ele>483.604827881</ele>
        <time>2015-09-10T07:44:02.289Z</time>
      </trkpt>
      <trkpt lat="46.08612" lon="4.62787">
        <ele>483.705383301</ele>
        <time>2015-09-10T07:44:03.241Z</time>
      </trkpt>
      <trkpt lat="46.08616" lon="4.62776">
        <ele>484.434295654</ele>
        <time>2015-09-10T07:44:11.277Z</time>
      </trkpt>
      <trkpt lat="46.08617" lon="4.62775">
        <ele>484.473449707</ele>
        <time>2015-09-10T07:44:12.229Z</time>
      </trkpt>
      <trkpt lat="46.08621" lon="4.62765">
        <ele>484.794342041</ele>
        <time>2015-09-10T07:44:18.266Z</time>
      </trkpt>
      <trkpt lat="46.08621" lon="4.62763">
        <ele>484.863372803</ele>
        <time>2015-09-10T07:44:19.228Z</time>
      </trkpt>
      <trkpt lat="46.08625" lon="4.62751">
        <ele>485.294128418</ele>
        <time>2015-09-10T07:44:24.266Z</time>
      </trkpt>
      <trkpt lat="46.08625" lon="4.6275">
        <ele>485.392822266</ele>
        <time>2015-09-10T07:44:25.214Z</time>
      </trkpt>
      <trkpt lat="46.08628" lon="4.62739">
        <ele>486.202056885</ele>
        <time>2015-09-10T07:44:33.268Z</time>
      </trkpt>
      <trkpt lat="46.08628" lon="4.62737">
        <ele>486.315124512</ele>
        <time>2015-09-10T07:44:34.234Z</time>
      </trkpt>
      <trkpt lat="46.08633" lon="4.62727">
        <ele>486.862609863</ele>
        <time>2015-09-10T07:44:42.279Z</time>
      </trkpt>
      <trkpt lat="46.08633" lon="4.62726">
        <ele>486.932739258</ele>
        <time>2015-09-10T07:44:43.23Z</time>
      </trkpt>
      <trkpt lat="46.08637" lon="4.62717">
        <ele>487.294403076</ele>
        <time>2015-09-10T07:44:50.34Z</time>
      </trkpt>
      <trkpt lat="46.08638" lon="4.62715">
        <ele>487.372314453</ele>
        <time>2015-09-10T07:44:51.23Z</time>
      </trkpt>
      <trkpt lat="46.08641" lon="4.62703">
        <ele>488.082977295</ele>
        <time>2015-09-10T07:44:59.268Z</time>
      </trkpt>
      <trkpt lat="46.08642" lon="4.62702">
        <ele>488.175231934</ele>
        <time>2015-09-10T07:45:00.248Z</time>
      </trkpt>
      <trkpt lat="46.08645" lon="4.62691">
        <ele>488.653106689</ele>
        <time>2015-09-10T07:45:06.304Z</time>
      </trkpt>
      <trkpt lat="46.08645" lon="4.6269">
        <ele>488.752685547</ele>
        <time>2015-09-10T07:45:07.244Z</time>
      </trkpt>
      <trkpt lat="46.0865" lon="4.62679">
        <ele>489.433807373</ele>
        <time>2015-09-10T07:45:15.273Z</time>
      </trkpt>
      <trkpt lat="46.0865" lon="4.62677">
        <ele>489.506347656</ele>
        <time>2015-09-10T07:45:16.251Z</time>
      </trkpt>
      <trkpt lat="46.08654" lon="4.62668">
        <ele>490.12713623</ele>
        <time>2015-09-10T07:45:23.297Z</time>
      </trkpt>
      <trkpt lat="46.08654" lon="4.62666">
        <ele>490.201873779</ele>
        <time>2015-09-10T07:45:24.245Z</time>
      </trkpt>
      <trkpt lat="46.08659" lon="4.62654">
        <ele>491.017883301</ele>
        <time>2015-09-10T07:45:32.292Z</time>
      </trkpt>
      <trkpt lat="46.08659" lon="4.62653">
        <ele>491.102508545</ele>
        <time>2015-09-10T07:45:33.22Z</time>
      </trkpt>
      <trkpt lat="46.08664" lon="4.62644">
        <ele>491.724609375</ele>
        <time>2015-09-10T07:45:41.273Z</time>
      </trkpt>
      <trkpt lat="46.08665" lon="4.62643">
        <ele>491.808013916</ele>
        <time>2015-09-10T07:45:42.218Z</time>
      </trkpt>
      <trkpt lat="46.08669" lon="4.62632">
        <ele>492.317138672</ele>
        <time>2015-09-10T07:45:49.248Z</time>
      </trkpt>
      <trkpt lat="46.0867" lon="4.6263">
        <ele>492.381347656</ele>
        <time>2015-09-10T07:45:50.248Z</time>
      </trkpt>
      <trkpt lat="46.08674" lon="4.62619">
        <ele>493.116516113</ele>
        <time>2015-09-10T07:45:59.29Z</time>
      </trkpt>
      <trkpt lat="46.08674" lon="4.62617">
        <ele>493.213043213</ele>
        <time>2015-09-10T07:46:00.236Z</time>
      </trkpt>
      <trkpt lat="46.0868" lon="4.62608">
        <ele>493.859130859</ele>
        <time>2015-09-10T07:46:08.289Z</time>
      </trkpt>
      <trkpt lat="46.08681" lon="4.62607">
        <ele>493.918762207</ele>
        <time>2015-09-10T07:46:09.225Z</time>
      </trkpt>
      <trkpt lat="46.08685" lon="4.62597">
        <ele>494.546325684</ele>
        <time>2015-09-10T07:46:16.301Z</time>
      </trkpt>
      <trkpt lat="46.08686" lon="4.62596">
        <ele>494.613586426</ele>
        <time>2015-09-10T07:46:17.224Z</time>
      </trkpt>
      <trkpt lat="46.08691" lon="4.62585">
        <ele>495.236633301</ele>
        <time>2015-09-10T07:46:25.249Z</time>
      </trkpt>
      <trkpt lat="46.08691" lon="4.62584">
        <ele>495.299407959</ele>
        <time>2015-09-10T07:46:26.235Z</time>
      </trkpt>
      <trkpt lat="46.08697" lon="4.62573">
        <ele>495.993713379</ele>
        <time>2015-09-10T07:46:35.279Z</time>
      </trkpt>
      <trkpt lat="46.08697" lon="4.62572">
        <ele>496.06942749</ele>
        <time>2015-09-10T07:46:36.222Z</time>
      </trkpt>
      <trkpt lat="46.08703" lon="4.62563">
        <ele>496.547637939</ele>
        <time>2015-09-10T07:46:43.296Z</time>
      </trkpt>
      <trkpt lat="46.08704" lon="4.62563">
        <ele>496.622253418</ele>
        <time>2015-09-10T07:46:44.236Z</time>
      </trkpt>
      <trkpt lat="46.08709" lon="4.62553">
        <ele>497.455627441</ele>
        <time>2015-09-10T07:46:54.412Z</time>
      </trkpt>
      <trkpt lat="46.0871" lon="4.62552">
        <ele>497.539245605</ele>
        <time>2015-09-10T07:46:55.197Z</time>
      </trkpt>
      <trkpt lat="46.08715" lon="4.62542">
        <ele>498.336425781</ele>
        <time>2015-09-10T07:47:15.255Z</time>
      </trkpt>
      <trkpt lat="46.08715" lon="4.62542">
        <ele>498.345916748</ele>
        <time>2015-09-10T07:47:16.214Z</time>
      </trkpt>
      <trkpt lat="46.08723" lon="4.62536">
        <ele>501.640136719</ele>
        <time>2015-09-10T07:47:43.26Z</time>
      </trkpt>
      <trkpt lat="46.08724" lon="4.62535">
        <ele>501.843048096</ele>
        <time>2015-09-10T07:47:44.228Z</time>
      </trkpt>
      <trkpt lat="46.08729" lon="4.62525">
        <ele>504.137542725</ele>
        <time>2015-09-10T07:47:54.238Z</time>
      </trkpt>
      <trkpt lat="46.0873" lon="4.62524">
        <ele>504.400939941</ele>
        <time>2015-09-10T07:47:55.203Z</time>
      </trkpt>
      <trkpt lat="46.08735" lon="4.62513">
        <ele>507.254669189</ele>
        <time>2015-09-10T07:48:07.236Z</time>
      </trkpt>
      <trkpt lat="46.08735" lon="4.62513">
        <ele>507.511352539</ele>
        <time>2015-09-10T07:48:08.216Z</time>
      </trkpt>
      <trkpt lat="46.0874" lon="4.62502">
        <ele>510.333709717</ele>
        <time>2015-09-10T07:48:20.251Z</time>
      </trkpt>
      <trkpt lat="46.0874" lon="4.62501">
        <ele>510.587280273</ele>
        <time>2015-09-10T07:48:21.226Z</time>
      </trkpt>
      <trkpt lat="46.08745" lon="4.62492">
        <ele>512.574523926</ele>
        <time>2015-09-10T07:48:29.273Z</time>
      </trkpt>
      <trkpt lat="46.08746" lon="4.62491">
        <ele>512.851318359</ele>
        <time>2015-09-10T07:48:30.205Z</time>
      </trkpt>
      <trkpt lat="46.08751" lon="4.62481">
        <ele>514.59362793</ele>
        <time>2015-09-10T07:48:38.251Z</time>
      </trkpt>
      <trkpt lat="46.08752" lon="4.6248">
        <ele>514.796630859</ele>
        <time>2015-09-10T07:48:39.238Z</time>
      </trkpt>
      <trkpt lat="46.08756" lon="4.6247">
        <ele>516.431030273</ele>
        <time>2015-09-10T07:48:47.267Z</time>
      </trkpt>
      <trkpt lat="46.08757" lon="4.62469">
        <ele>516.563781738</ele>
        <time>2015-09-10T07:48:48.221Z</time>
      </trkpt>
      <trkpt lat="46.08763" lon="4.6246">
        <ele>518.3046875</ele>
        <time>2015-09-10T07:48:58.234Z</time>
      </trkpt>
      <trkpt lat="46.08763" lon="4.62458">
        <ele>518.530517578</ele>
        <time>2015-09-10T07:48:59.225Z</time>
      </trkpt>
      <trkpt lat="46.08769" lon="4.62448">
        <ele>520.066223145</ele>
        <time>2015-09-10T07:49:08.27Z</time>
      </trkpt>
      <trkpt lat="46.0877" lon="4.62447">
        <ele>520.216796875</ele>
        <time>2015-09-10T07:49:09.226Z</time>
      </trkpt>
      <trkpt lat="46.08775" lon="4.62437">
        <ele>521.226196289</ele>
        <time>2015-09-10T07:49:16.27Z</time>
      </trkpt>
      <trkpt lat="46.08776" lon="4.62436">
        <ele>521.342468262</ele>
        <time>2015-09-10T07:49:17.236Z</time>
      </trkpt>
      <trkpt lat="46.08782" lon="4.62426">
        <ele>522.414367676</ele>
        <time>2015-09-10T07:49:25.271Z</time>
      </trkpt>
      <trkpt lat="46.08782" lon="4.62425">
        <ele>522.572387695</ele>
        <time>2015-09-10T07:49:26.213Z</time>
      </trkpt>
      <trkpt lat="46.08787" lon="4.62417">
        <ele>523.674560547</ele>
        <time>2015-09-10T07:49:32.277Z</time>
      </trkpt>
      <trkpt lat="46.08788" lon="4.62415">
        <ele>523.848327637</ele>
        <time>2015-09-10T07:49:33.23Z</time>
      </trkpt>
      <trkpt lat="46.08793" lon="4.62405">
        <ele>525.315002441</ele>
        <time>2015-09-10T07:49:42.262Z</time>
      </trkpt>
      <trkpt lat="46.08794" lon="4.62404">
        <ele>525.451171875</ele>
        <time>2015-09-10T07:49:43.236Z</time>
      </trkpt>
      <trkpt lat="46.088" lon="4.62396">
        <ele>526.518310547</ele>
        <time>2015-09-10T07:49:53.271Z</time>
      </trkpt>
      <trkpt lat="46.088" lon="4.62395">
        <ele>526.626708984</ele>
        <time>2015-09-10T07:49:54.214Z</time>
      </trkpt>
      <trkpt lat="46.08806" lon="4.62387">
        <ele>527.973693848</ele>
        <time>2015-09-10T07:50:04.286Z</time>
      </trkpt>
      <trkpt lat="46.08807" lon="4.62386">
        <ele>528.12097168</ele>
        <time>2015-09-10T07:50:05.238Z</time>
      </trkpt>
      <trkpt lat="46.08813" lon="4.62378">
        <ele>529.62512207</ele>
        <time>2015-09-10T07:50:16.295Z</time>
      </trkpt>
      <trkpt lat="46.08813" lon="4.62376">
        <ele>529.795349121</ele>
        <time>2015-09-10T07:50:17.235Z</time>
      </trkpt>
      <trkpt lat="46.08816" lon="4.62365">
        <ele>530.91217041</ele>
        <time>2015-09-10T07:50:25.28Z</time>
      </trkpt>
      <trkpt lat="46.08816" lon="4.62364">
        <ele>531.017700195</ele>
        <time>2015-09-10T07:50:26.22Z</time>
      </trkpt>
      <trkpt lat="46.08818" lon="4.62354">
        <ele>531.546447754</ele>
        <time>2015-09-10T07:50:32.275Z</time>
      </trkpt>
      <trkpt lat="46.0882" lon="4.62352">
        <ele>531.602050781</ele>
        <time>2015-09-10T07:50:33.233Z</time>
      </trkpt>
      <trkpt lat="46.08826" lon="4.62343">
        <ele>532.17791748</ele>
        <time>2015-09-10T07:50:41.272Z</time>
      </trkpt>
      <trkpt lat="46.08826" lon="4.62342">
        <ele>532.28692627</ele>
        <time>2015-09-10T07:50:42.215Z</time>
      </trkpt>
      <trkpt lat="46.08831" lon="4.62331">
        <ele>533.177856445</ele>
        <time>2015-09-10T07:50:51.262Z</time>
      </trkpt>
      <trkpt lat="46.08831" lon="4.6233">
        <ele>533.266357422</ele>
        <time>2015-09-10T07:50:52.234Z</time>
      </trkpt>
      <trkpt lat="46.08835" lon="4.62319">
        <ele>534.569152832</ele>
        <time>2015-09-10T07:51:01.267Z</time>
      </trkpt>
      <trkpt lat="46.08835" lon="4.62318">
        <ele>534.69354248</ele>
        <time>2015-09-10T07:51:02.217Z</time>
      </trkpt>
      <trkpt lat="46.0884" lon="4.62309">
        <ele>535.466247559</ele>
        <time>2015-09-10T07:51:09.403Z</time>
      </trkpt>
      <trkpt lat="46.0884" lon="4.62308">
        <ele>535.553955078</ele>
        <time>2015-09-10T07:51:10.22Z</time>
      </trkpt>
      <trkpt lat="46.08845" lon="4.62299">
        <ele>536.71270752</ele>
        <time>2015-09-10T07:51:17.454Z</time>
      </trkpt>
      <trkpt lat="46.08847" lon="4.62296">
        <ele>536.843688965</ele>
        <time>2015-09-10T07:51:18.218Z</time>
      </trkpt>
      <trkpt lat="46.08854" lon="4.62288">
        <ele>538.727905273</ele>
        <time>2015-09-10T07:51:29.278Z</time>
      </trkpt>
      <trkpt lat="46.08854" lon="4.62287">
        <ele>538.850402832</ele>
        <time>2015-09-10T07:51:30.217Z</time>
      </trkpt>
      <trkpt lat="46.08861" lon="4.62279">
        <ele>540.125061035</ele>
        <time>2015-09-10T07:51:38.247Z</time>
      </trkpt>
      <trkpt lat="46.08861" lon="4.62278">
        <ele>540.230285645</ele>
        <time>2015-09-10T07:51:39.247Z</time>
      </trkpt>
      <trkpt lat="46.08869" lon="4.62272">
        <ele>541.673217773</ele>
        <time>2015-09-10T07:51:48.425Z</time>
      </trkpt>
      <trkpt lat="46.0887" lon="4.62272">
        <ele>541.790405273</ele>
        <time>2015-09-10T07:51:49.241Z</time>
      </trkpt>
      <trkpt lat="46.08877" lon="4.6227">
        <ele>542.580322266</ele>
        <time>2015-09-10T07:51:55.264Z</time>
      </trkpt>
      <trkpt lat="46.08879" lon="4.6227">
        <ele>542.701965332</ele>
        <time>2015-09-10T07:51:56.239Z</time>
      </trkpt>
      <trkpt lat="46.08888" lon="4.62268">
        <ele>542.968078613</ele>
        <time>2015-09-10T07:52:01.257Z</time>
      </trkpt>
      <trkpt lat="46.08888" lon="4.62267">
        <ele>543.084411621</ele>
        <time>2015-09-10T07:52:02.199Z</time>
      </trkpt>
      <trkpt lat="46.08897" lon="4.62267">
        <ele>544.284851074</ele>
        <time>2015-09-10T07:52:13.225Z</time>
      </trkpt>
      <trkpt lat="46.08899" lon="4.62267">
        <ele>544.378417969</ele>
        <time>2015-09-10T07:52:14.198Z</time>
      </trkpt>
      <trkpt lat="46.08908" lon="4.62266">
        <ele>545.753112793</ele>
        <time>2015-09-10T07:52:28.263Z</time>
      </trkpt>
      <trkpt lat="46.08908" lon="4.62266">
        <ele>545.776916504</ele>
        <time>2015-09-10T07:52:29.234Z</time>
      </trkpt>
      <trkpt lat="46.08916" lon="4.62263">
        <ele>547.643371582</ele>
        <time>2015-09-10T07:52:45.227Z</time>
      </trkpt>
      <trkpt lat="46.08918" lon="4.62263">
        <ele>547.779907227</ele>
        <time>2015-09-10T07:52:46.201Z</time>
      </trkpt>
      <trkpt lat="46.08926" lon="4.62262">
        <ele>548.646484375</ele>
        <time>2015-09-10T07:52:52.273Z</time>
      </trkpt>
      <trkpt lat="46.08927" lon="4.62261">
        <ele>548.745178223</ele>
        <time>2015-09-10T07:52:53.225Z</time>
      </trkpt>
      <trkpt lat="46.08935" lon="4.62258">
        <ele>549.686035156</ele>
        <time>2015-09-10T07:53:04.266Z</time>
      </trkpt>
      <trkpt lat="46.08936" lon="4.62258">
        <ele>549.812561035</ele>
        <time>2015-09-10T07:53:05.213Z</time>
      </trkpt>
      <trkpt lat="46.08944" lon="4.62255">
        <ele>550.877380371</ele>
        <time>2015-09-10T07:53:15.252Z</time>
      </trkpt>
      <trkpt lat="46.08946" lon="4.62255">
        <ele>551.014465332</ele>
        <time>2015-09-10T07:53:16.219Z</time>
      </trkpt>
      <trkpt lat="46.08954" lon="4.62252">
        <ele>552.30682373</ele>
        <time>2015-09-10T07:53:30.273Z</time>
      </trkpt>
      <trkpt lat="46.08956" lon="4.62252">
        <ele>552.391418457</ele>
        <time>2015-09-10T07:53:31.203Z</time>
      </trkpt>
      <trkpt lat="46.08965" lon="4.6225">
        <ele>552.961425781</ele>
        <time>2015-09-10T07:53:39.264Z</time>
      </trkpt>
      <trkpt lat="46.08966" lon="4.6225">
        <ele>553.032165527</ele>
        <time>2015-09-10T07:53:40.232Z</time>
      </trkpt>
      <trkpt lat="46.08975" lon="4.62247">
        <ele>553.866333008</ele>
        <time>2015-09-10T07:53:50.266Z</time>
      </trkpt>
      <trkpt lat="46.08976" lon="4.62247">
        <ele>554.024719238</ele>
        <time>2015-09-10T07:53:51.214Z</time>
      </trkpt>
      <trkpt lat="46.08983" lon="4.62239">
        <ele>557.657653809</ele>
        <time>2015-09-10T07:54:08.33Z</time>
      </trkpt>
      <trkpt lat="46.08984" lon="4.62238">
        <ele>557.834899902</ele>
        <time>2015-09-10T07:54:09.314Z</time>
      </trkpt>
      <trkpt lat="46.08992" lon="4.62234">
        <ele>559.602905273</ele>
        <time>2015-09-10T07:54:20.263Z</time>
      </trkpt>
      <trkpt lat="46.08992" lon="4.62233">
        <ele>559.804321289</ele>
        <time>2015-09-10T07:54:21.234Z</time>
      </trkpt>
      <trkpt lat="46.08998" lon="4.62227">
        <ele>561.228149414</ele>
        <time>2015-09-10T07:54:28.263Z</time>
      </trkpt>
      <trkpt lat="46.09001" lon="4.62224">
        <ele>561.418945312</ele>
        <time>2015-09-10T07:54:29.227Z</time>
      </trkpt>
      <trkpt lat="46.09008" lon="4.62217">
        <ele>562.990905762</ele>
        <time>2015-09-10T07:54:38.235Z</time>
      </trkpt>
      <trkpt lat="46.09008" lon="4.62216">
        <ele>563.118286133</ele>
        <time>2015-09-10T07:54:39.239Z</time>
      </trkpt>
      <trkpt lat="46.09015" lon="4.6221">
        <ele>565.216064453</ele>
        <time>2015-09-10T07:54:49.269Z</time>
      </trkpt>
      <trkpt lat="46.09016" lon="4.62209">
        <ele>565.40447998</ele>
        <time>2015-09-10T07:54:50.21Z</time>
      </trkpt>
      <trkpt lat="46.09018" lon="4.62198">
        <ele>567.463195801</ele>
        <time>2015-09-10T07:55:00.267Z</time>
      </trkpt>
      <trkpt lat="46.09018" lon="4.62196">
        <ele>567.604858398</ele>
        <time>2015-09-10T07:55:01.227Z</time>
      </trkpt>
      <trkpt lat="46.09018" lon="4.62184">
        <ele>568.996032715</ele>
        <time>2015-09-10T07:55:11.281Z</time>
      </trkpt>
      <trkpt lat="46.09018" lon="4.62183">
        <ele>569.13067627</ele>
        <time>2015-09-10T07:55:12.242Z</time>
      </trkpt>
      <trkpt lat="46.0902" lon="4.62171">
        <ele>570.726318359</ele>
        <time>2015-09-10T07:55:21.281Z</time>
      </trkpt>
      <trkpt lat="46.0902" lon="4.6217">
        <ele>570.938659668</ele>
        <time>2015-09-10T07:55:22.211Z</time>
      </trkpt>
      <trkpt lat="46.09023" lon="4.62158">
        <ele>575.596313477</ele>
        <time>2015-09-10T07:55:39.271Z</time>
      </trkpt>
      <trkpt lat="46.09023" lon="4.62157">
        <ele>575.821533203</ele>
        <time>2015-09-10T07:55:40.244Z</time>
      </trkpt>
      <trkpt lat="46.09027" lon="4.62146">
        <ele>578.649963379</ele>
        <time>2015-09-10T07:55:51.266Z</time>
      </trkpt>
      <trkpt lat="46.09027" lon="4.62146">
        <ele>578.926696777</ele>
        <time>2015-09-10T07:55:52.231Z</time>
      </trkpt>
      <trkpt lat="46.09028" lon="4.62134">
        <ele>580.60546875</ele>
        <time>2015-09-10T07:56:04.261Z</time>
      </trkpt>
      <trkpt lat="46.09029" lon="4.62132">
        <ele>580.702697754</ele>
        <time>2015-09-10T07:56:05.222Z</time>
      </trkpt>
      <trkpt lat="46.09032" lon="4.6212">
        <ele>582.913085938</ele>
        <time>2015-09-10T07:56:18.279Z</time>
      </trkpt>
      <trkpt lat="46.09032" lon="4.62119">
        <ele>583.025085449</ele>
        <time>2015-09-10T07:56:19.216Z</time>
      </trkpt>
      <trkpt lat="46.09031" lon="4.62107">
        <ele>583.781188965</ele>
        <time>2015-09-10T07:56:29.273Z</time>
      </trkpt>
      <trkpt lat="46.09031" lon="4.62106">
        <ele>583.882141113</ele>
        <time>2015-09-10T07:56:30.251Z</time>
      </trkpt>
      <trkpt lat="46.09033" lon="4.62094">
        <ele>584.330871582</ele>
        <time>2015-09-10T07:56:39.245Z</time>
      </trkpt>
      <trkpt lat="46.09033" lon="4.62093">
        <ele>584.35925293</ele>
        <time>2015-09-10T07:56:40.219Z</time>
      </trkpt>
      <trkpt lat="46.09026" lon="4.62086">
        <ele>584.827026367</ele>
        <time>2015-09-10T07:56:55.24Z</time>
      </trkpt>
      <trkpt lat="46.09025" lon="4.62086">
        <ele>584.922546387</ele>
        <time>2015-09-10T07:56:56.227Z</time>
      </trkpt>
      <trkpt lat="46.09019" lon="4.62078">
        <ele>585.530029297</ele>
        <time>2015-09-10T07:57:06.285Z</time>
      </trkpt>
      <trkpt lat="46.09018" lon="4.62077">
        <ele>585.628051758</ele>
        <time>2015-09-10T07:57:07.219Z</time>
      </trkpt>
      <trkpt lat="46.09017" lon="4.62064">
        <ele>588.108764648</ele>
        <time>2015-09-10T07:57:20.249Z</time>
      </trkpt>
      <trkpt lat="46.09017" lon="4.62063">
        <ele>588.266296387</ele>
        <time>2015-09-10T07:57:21.222Z</time>
      </trkpt>
      <trkpt lat="46.09015" lon="4.62051">
        <ele>590.152587891</ele>
        <time>2015-09-10T07:57:35.242Z</time>
      </trkpt>
      <trkpt lat="46.09015" lon="4.6205">
        <ele>590.367004395</ele>
        <time>2015-09-10T07:57:36.22Z</time>
      </trkpt>
      <trkpt lat="46.09011" lon="4.62039">
        <ele>593.182189941</ele>
        <time>2015-09-10T07:57:46.257Z</time>
      </trkpt>
      <trkpt lat="46.09011" lon="4.62038">
        <ele>593.434204102</ele>
        <time>2015-09-10T07:57:47.199Z</time>
      </trkpt>
      <trkpt lat="46.09008" lon="4.62026">
        <ele>595.994995117</ele>
        <time>2015-09-10T07:57:58.267Z</time>
      </trkpt>
      <trkpt lat="46.09008" lon="4.62025">
        <ele>596.181945801</ele>
        <time>2015-09-10T07:57:59.201Z</time>
      </trkpt>
      <trkpt lat="46.09002" lon="4.62016">
        <ele>597.74798584</ele>
        <time>2015-09-10T07:58:06.226Z</time>
      </trkpt>
      <trkpt lat="46.09001" lon="4.62015">
        <ele>597.973937988</ele>
        <time>2015-09-10T07:58:07.207Z</time>
      </trkpt>
      <trkpt lat="46.08997" lon="4.62004">
        <ele>599.676452637</ele>
        <time>2015-09-10T07:58:15.221Z</time>
      </trkpt>
      <trkpt lat="46.08996" lon="4.62002">
        <ele>599.825561523</ele>
        <time>2015-09-10T07:58:16.226Z</time>
      </trkpt>
      <trkpt lat="46.08993" lon="4.61991">
        <ele>600.850463867</ele>
        <time>2015-09-10T07:58:23.221Z</time>
      </trkpt>
      <trkpt lat="46.08992" lon="4.61987">
        <ele>601.002929688</ele>
        <time>2015-09-10T07:58:24.23Z</time>
      </trkpt>
      <trkpt lat="46.08987" lon="4.61977">
        <ele>602.244140625</ele>
        <time>2015-09-10T07:58:32.276Z</time>
      </trkpt>
      <trkpt lat="46.08987" lon="4.61976">
        <ele>602.422912598</ele>
        <time>2015-09-10T07:58:33.217Z</time>
      </trkpt>
      <trkpt lat="46.08983" lon="4.61966">
        <ele>604.014526367</ele>
        <time>2015-09-10T07:58:42.268Z</time>
      </trkpt>
      <trkpt lat="46.08982" lon="4.61965">
        <ele>604.169921875</ele>
        <time>2015-09-10T07:58:43.2Z</time>
      </trkpt>
      <trkpt lat="46.08975" lon="4.61956">
        <ele>605.856140137</ele>
        <time>2015-09-10T07:58:56.272Z</time>
      </trkpt>
      <trkpt lat="46.08975" lon="4.61956">
        <ele>605.871887207</ele>
        <time>2015-09-10T07:58:57.225Z</time>
      </trkpt>
      <trkpt lat="46.08969" lon="4.61947">
        <ele>608.528991699</ele>
        <time>2015-09-10T07:59:46.272Z</time>
      </trkpt>
      <trkpt lat="46.08968" lon="4.61946">
        <ele>608.700378418</ele>
        <time>2015-09-10T07:59:47.224Z</time>
      </trkpt>
      <trkpt lat="46.08966" lon="4.61935">
        <ele>610.231018066</ele>
        <time>2015-09-10T07:59:55.28Z</time>
      </trkpt>
      <trkpt lat="46.08966" lon="4.61933">
        <ele>610.487304688</ele>
        <time>2015-09-10T07:59:56.208Z</time>
      </trkpt>
      <trkpt lat="46.08963" lon="4.61921">
        <ele>611.907409668</ele>
        <time>2015-09-10T08:00:04.24Z</time>
      </trkpt>
      <trkpt lat="46.08963" lon="4.61919">
        <ele>612.098937988</ele>
        <time>2015-09-10T08:00:05.222Z</time>
      </trkpt>
      <trkpt lat="46.08965" lon="4.61907">
        <ele>613.829772949</ele>
        <time>2015-09-10T08:00:15.268Z</time>
      </trkpt>
      <trkpt lat="46.08965" lon="4.61906">
        <ele>614.081848145</ele>
        <time>2015-09-10T08:00:16.213Z</time>
      </trkpt>
      <trkpt lat="46.08965" lon="4.61894">
        <ele>616.075134277</ele>
        <time>2015-09-10T08:00:24.262Z</time>
      </trkpt>
      <trkpt lat="46.08966" lon="4.61892">
        <ele>616.278259277</ele>
        <time>2015-09-10T08:00:25.223Z</time>
      </trkpt>
      <trkpt lat="46.08969" lon="4.6188">
        <ele>618.671447754</ele>
        <time>2015-09-10T08:00:35.233Z</time>
      </trkpt>
      <trkpt lat="46.08969" lon="4.61879">
        <ele>618.815002441</ele>
        <time>2015-09-10T08:00:36.214Z</time>
      </trkpt>
      <trkpt lat="46.08972" lon="4.61867">
        <ele>620.489318848</ele>
        <time>2015-09-10T08:00:45.266Z</time>
      </trkpt>
      <trkpt lat="46.08972" lon="4.61866">
        <ele>620.690795898</ele>
        <time>2015-09-10T08:00:46.236Z</time>
      </trkpt>
      <trkpt lat="46.08976" lon="4.61854">
        <ele>622.977355957</ele>
        <time>2015-09-10T08:00:59.284Z</time>
      </trkpt>
      <trkpt lat="46.08976" lon="4.61853">
        <ele>623.063781738</ele>
        <time>2015-09-10T08:01:00.212Z</time>
      </trkpt>
      <trkpt lat="46.08982" lon="4.61845">
        <ele>624.215270996</ele>
        <time>2015-09-10T08:01:11.268Z</time>
      </trkpt>
      <trkpt lat="46.08982" lon="4.61844">
        <ele>624.354125977</ele>
        <time>2015-09-10T08:01:12.217Z</time>
      </trkpt>
      <trkpt lat="46.0899" lon="4.61837">
        <ele>625.662963867</ele>
        <time>2015-09-10T08:01:23.264Z</time>
      </trkpt>
      <trkpt lat="46.0899" lon="4.61836">
        <ele>625.759765625</ele>
        <time>2015-09-10T08:01:24.214Z</time>
      </trkpt>
      <trkpt lat="46.08998" lon="4.61829">
        <ele>627.422119141</ele>
        <time>2015-09-10T08:01:37.275Z</time>
      </trkpt>
      <trkpt lat="46.08998" lon="4.61828">
        <ele>627.554138184</ele>
        <time>2015-09-10T08:01:38.232Z</time>
      </trkpt>
      <trkpt lat="46.09001" lon="4.61817">
        <ele>630.495605469</ele>
        <time>2015-09-10T08:01:52.251Z</time>
      </trkpt>
      <trkpt lat="46.09001" lon="4.61816">
        <ele>630.690429688</ele>
        <time>2015-09-10T08:01:53.234Z</time>
      </trkpt>
      <trkpt lat="46.09005" lon="4.61806">
        <ele>632.067138672</ele>
        <time>2015-09-10T08:02:02.293Z</time>
      </trkpt>
      <trkpt lat="46.09006" lon="4.61805">
        <ele>632.159362793</ele>
        <time>2015-09-10T08:02:03.245Z</time>
      </trkpt>
      <trkpt lat="46.09012" lon="4.61795">
        <ele>634.05682373</ele>
        <time>2015-09-10T08:02:15.244Z</time>
      </trkpt>
      <trkpt lat="46.09012" lon="4.61795">
        <ele>634.255126953</ele>
        <time>2015-09-10T08:02:16.231Z</time>
      </trkpt>
      <trkpt lat="46.09016" lon="4.61783">
        <ele>636.918029785</ele>
        <time>2015-09-10T08:02:31.241Z</time>
      </trkpt>
      <trkpt lat="46.09016" lon="4.61782">
        <ele>637.143493652</ele>
        <time>2015-09-10T08:02:32.214Z</time>
      </trkpt>
      <trkpt lat="46.09021" lon="4.61772">
        <ele>638.746948242</ele>
        <time>2015-09-10T08:02:42.263Z</time>
      </trkpt>
      <trkpt lat="46.09022" lon="4.61771">
        <ele>638.907592773</ele>
        <time>2015-09-10T08:02:43.193Z</time>
      </trkpt>
      <trkpt lat="46.09025" lon="4.61759">
        <ele>640.561096191</ele>
        <time>2015-09-10T08:02:55.24Z</time>
      </trkpt>
      <trkpt lat="46.09026" lon="4.61758">
        <ele>640.781494141</ele>
        <time>2015-09-10T08:02:56.207Z</time>
      </trkpt>
      <trkpt lat="46.0903" lon="4.61746">
        <ele>642.647521973</ele>
        <time>2015-09-10T08:03:06.259Z</time>
      </trkpt>
      <trkpt lat="46.0903" lon="4.61745">
        <ele>642.813476562</ele>
        <time>2015-09-10T08:03:07.197Z</time>
      </trkpt>
      <trkpt lat="46.09035" lon="4.61734">
        <ele>644.204833984</ele>
        <time>2015-09-10T08:03:16.274Z</time>
      </trkpt>
      <trkpt lat="46.09035" lon="4.61732">
        <ele>644.363342285</ele>
        <time>2015-09-10T08:03:17.224Z</time>
      </trkpt>
      <trkpt lat="46.09037" lon="4.61723">
        <ele>645.185852051</ele>
        <time>2015-09-10T08:03:22.252Z</time>
      </trkpt>
      <trkpt lat="46.09038" lon="4.6172">
        <ele>645.382019043</ele>
        <time>2015-09-10T08:03:23.202Z</time>
      </trkpt>
      <trkpt lat="46.0904" lon="4.61708">
        <ele>647.185180664</ele>
        <time>2015-09-10T08:03:32.263Z</time>
      </trkpt>
      <trkpt lat="46.0904" lon="4.61707">
        <ele>647.347290039</ele>
        <time>2015-09-10T08:03:33.211Z</time>
      </trkpt>
      <trkpt lat="46.09043" lon="4.61696">
        <ele>648.838623047</ele>
        <time>2015-09-10T08:03:41.255Z</time>
      </trkpt>
      <trkpt lat="46.09044" lon="4.61694">
        <ele>648.966064453</ele>
        <time>2015-09-10T08:03:42.222Z</time>
      </trkpt>
      <trkpt lat="46.09045" lon="4.61683">
        <ele>649.49822998</ele>
        <time>2015-09-10T08:03:49.268Z</time>
      </trkpt>
      <trkpt lat="46.09045" lon="4.61681">
        <ele>649.58001709</ele>
        <time>2015-09-10T08:03:50.216Z</time>
      </trkpt>
      <trkpt lat="46.09046" lon="4.61669">
        <ele>650.702880859</ele>
        <time>2015-09-10T08:04:02.251Z</time>
      </trkpt>
      <trkpt lat="46.09046" lon="4.61668">
        <ele>650.815673828</ele>
        <time>2015-09-10T08:04:03.204Z</time>
      </trkpt>
      <trkpt lat="46.09054" lon="4.61662">
        <ele>651.62286377</ele>
        <time>2015-09-10T08:04:18.3Z</time>
      </trkpt>
      <trkpt lat="46.09054" lon="4.61662">
        <ele>651.629211426</ele>
        <time>2015-09-10T08:04:19.218Z</time>
      </trkpt>
      <trkpt lat="46.09062" lon="4.61668">
        <ele>652.26739502</ele>
        <time>2015-09-10T08:05:49.278Z</time>
      </trkpt>
      <trkpt lat="46.09062" lon="4.61668">
        <ele>652.273681641</ele>
        <time>2015-09-10T08:05:50.227Z</time>
      </trkpt>
      <trkpt lat="46.09054" lon="4.61671">
        <ele>652.725585938</ele>
        <time>2015-09-10T08:06:08.279Z</time>
      </trkpt>
      <trkpt lat="46.09053" lon="4.61671">
        <ele>652.757995605</ele>
        <time>2015-09-10T08:06:09.241Z</time>
      </trkpt>
      <trkpt lat="46.09061" lon="4.61666">
        <ele>653.736816406</ele>
        <time>2015-09-10T08:09:21.263Z</time>
      </trkpt>
      <trkpt lat="46.09062" lon="4.61666">
        <ele>653.743408203</ele>
        <time>2015-09-10T08:09:22.215Z</time>
      </trkpt>
      <trkpt lat="46.09054" lon="4.6167">
        <ele>655.062072754</ele>
        <time>2015-09-10T08:10:11.276Z</time>
      </trkpt>
      <trkpt lat="46.09053" lon="4.61671">
        <ele>655.084594727</ele>
        <time>2015-09-10T08:10:12.226Z</time>
      </trkpt>
      <trkpt lat="46.09046" lon="4.61665">
        <ele>655.019287109</ele>
        <time>2015-09-10T08:10:23.278Z</time>
      </trkpt>
      <trkpt lat="46.09045" lon="4.61664">
        <ele>654.949157715</ele>
        <time>2015-09-10T08:10:24.224Z</time>
      </trkpt>
      <trkpt lat="46.09037" lon="4.61659">
        <ele>654.591369629</ele>
        <time>2015-09-10T08:10:35.282Z</time>
      </trkpt>
      <trkpt lat="46.09036" lon="4.61659">
        <ele>654.598632812</ele>
        <time>2015-09-10T08:10:36.224Z</time>
      </trkpt>
      <trkpt lat="46.09028" lon="4.61657">
        <ele>654.857299805</ele>
        <time>2015-09-10T08:10:44.274Z</time>
      </trkpt>
      <trkpt lat="46.09027" lon="4.61657">
        <ele>654.944274902</ele>
        <time>2015-09-10T08:10:45.205Z</time>
      </trkpt>
      <trkpt lat="46.09019" lon="4.61654">
        <ele>655.338195801</ele>
        <time>2015-09-10T08:10:55.27Z</time>
      </trkpt>
      <trkpt lat="46.09018" lon="4.61654">
        <ele>655.371582031</ele>
        <time>2015-09-10T08:10:56.236Z</time>
      </trkpt>
      <trkpt lat="46.09009" lon="4.61655">
        <ele>655.936584473</ele>
        <time>2015-09-10T08:11:07.272Z</time>
      </trkpt>
      <trkpt lat="46.09008" lon="4.61656">
        <ele>656.046081543</ele>
        <time>2015-09-10T08:11:08.228Z</time>
      </trkpt>
      <trkpt lat="46.09" lon="4.61657">
        <ele>657.354125977</ele>
        <time>2015-09-10T08:11:20.278Z</time>
      </trkpt>
      <trkpt lat="46.08998" lon="4.61657">
        <ele>657.39666748</ele>
        <time>2015-09-10T08:11:21.212Z</time>
      </trkpt>
      <trkpt lat="46.0899" lon="4.61657">
        <ele>658.361877441</ele>
        <time>2015-09-10T08:11:29.282Z</time>
      </trkpt>
      <trkpt lat="46.08988" lon="4.61658">
        <ele>658.516967773</ele>
        <time>2015-09-10T08:11:30.228Z</time>
      </trkpt>
      <trkpt lat="46.08979" lon="4.6166">
        <ele>660.451782227</ele>
        <time>2015-09-10T08:11:40.268Z</time>
      </trkpt>
      <trkpt lat="46.08978" lon="4.6166">
        <ele>660.633789062</ele>
        <time>2015-09-10T08:11:41.209Z</time>
      </trkpt>
      <trkpt lat="46.0897" lon="4.61662">
        <ele>661.922851562</ele>
        <time>2015-09-10T08:11:49.242Z</time>
      </trkpt>
      <trkpt lat="46.08968" lon="4.61662">
        <ele>662.11114502</ele>
        <time>2015-09-10T08:11:50.241Z</time>
      </trkpt>
      <trkpt lat="46.0896" lon="4.61661">
        <ele>662.481750488</ele>
        <time>2015-09-10T08:11:56.311Z</time>
      </trkpt>
      <trkpt lat="46.08959" lon="4.6166">
        <ele>662.522583008</ele>
        <time>2015-09-10T08:11:57.23Z</time>
      </trkpt>
      <trkpt lat="46.08951" lon="4.61658">
        <ele>662.681091309</ele>
        <time>2015-09-10T08:12:02.265Z</time>
      </trkpt>
      <trkpt lat="46.08949" lon="4.61658">
        <ele>662.661071777</ele>
        <time>2015-09-10T08:12:03.248Z</time>
      </trkpt>
      <trkpt lat="46.08941" lon="4.61654">
        <ele>662.320922852</ele>
        <time>2015-09-10T08:12:10.231Z</time>
      </trkpt>
      <trkpt lat="46.0894" lon="4.61653">
        <ele>662.291687012</ele>
        <time>2015-09-10T08:12:11.242Z</time>
      </trkpt>
      <trkpt lat="46.08933" lon="4.61647">
        <ele>662.46496582</ele>
        <time>2015-09-10T08:12:18.274Z</time>
      </trkpt>
      <trkpt lat="46.08932" lon="4.61646">
        <ele>662.492614746</ele>
        <time>2015-09-10T08:12:19.23Z</time>
      </trkpt>
      <trkpt lat="46.08924" lon="4.6164">
        <ele>662.612609863</ele>
        <time>2015-09-10T08:12:25.273Z</time>
      </trkpt>
      <trkpt lat="46.08923" lon="4.61639">
        <ele>662.613586426</ele>
        <time>2015-09-10T08:12:26.243Z</time>
      </trkpt>
      <trkpt lat="46.08915" lon="4.61633">
        <ele>662.34588623</ele>
        <time>2015-09-10T08:12:32.27Z</time>
      </trkpt>
      <trkpt lat="46.08914" lon="4.61633">
        <ele>662.280395508</ele>
        <time>2015-09-10T08:12:33.218Z</time>
      </trkpt>
      <trkpt lat="46.08908" lon="4.61625">
        <ele>661.839904785</ele>
        <time>2015-09-10T08:12:40.278Z</time>
      </trkpt>
      <trkpt lat="46.08907" lon="4.61625">
        <ele>661.804260254</ele>
        <time>2015-09-10T08:12:41.22Z</time>
      </trkpt>
      <trkpt lat="46.089" lon="4.6162">
        <ele>661.603088379</ele>
        <time>2015-09-10T08:12:47.279Z</time>
      </trkpt>
      <trkpt lat="46.08899" lon="4.61618">
        <ele>661.578125</ele>
        <time>2015-09-10T08:12:48.233Z</time>
      </trkpt>
      <trkpt lat="46.08892" lon="4.61612">
        <ele>661.420715332</ele>
        <time>2015-09-10T08:12:54.245Z</time>
      </trkpt>
      <trkpt lat="46.08891" lon="4.6161">
        <ele>661.374511719</ele>
        <time>2015-09-10T08:12:55.229Z</time>
      </trkpt>
      <trkpt lat="46.08885" lon="4.61602">
        <ele>661.109191895</ele>
        <time>2015-09-10T08:13:01.284Z</time>
      </trkpt>
      <trkpt lat="46.08884" lon="4.61601">
        <ele>661.079528809</ele>
        <time>2015-09-10T08:13:02.194Z</time>
      </trkpt>
      <trkpt lat="46.08877" lon="4.61593">
        <ele>660.861816406</ele>
        <time>2015-09-10T08:13:09.246Z</time>
      </trkpt>
      <trkpt lat="46.08877" lon="4.61593">
        <ele>660.861877441</ele>
        <time>2015-09-10T08:13:10.193Z</time>
      </trkpt>
      <trkpt lat="46.08871" lon="4.61584">
        <ele>660.770690918</ele>
        <time>2015-09-10T08:13:16.244Z</time>
      </trkpt>
      <trkpt lat="46.0887" lon="4.61583">
        <ele>660.760314941</ele>
        <time>2015-09-10T08:13:17.205Z</time>
      </trkpt>
      <trkpt lat="46.08863" lon="4.61574">
        <ele>660.441650391</ele>
        <time>2015-09-10T08:13:25.238Z</time>
      </trkpt>
      <trkpt lat="46.08862" lon="4.61573">
        <ele>660.37902832</ele>
        <time>2015-09-10T08:13:26.201Z</time>
      </trkpt>
      <trkpt lat="46.08857" lon="4.61565">
        <ele>660.02911377</ele>
        <time>2015-09-10T08:13:33.238Z</time>
      </trkpt>
      <trkpt lat="46.08856" lon="4.61563">
        <ele>659.981201172</ele>
        <time>2015-09-10T08:13:34.194Z</time>
      </trkpt>
      <trkpt lat="46.08849" lon="4.61556">
        <ele>659.710876465</ele>
        <time>2015-09-10T08:13:42.239Z</time>
      </trkpt>
      <trkpt lat="46.08848" lon="4.61555">
        <ele>659.686096191</ele>
        <time>2015-09-10T08:13:43.208Z</time>
      </trkpt>
      <trkpt lat="46.08843" lon="4.61547">
        <ele>659.518005371</ele>
        <time>2015-09-10T08:13:50.229Z</time>
      </trkpt>
      <trkpt lat="46.08842" lon="4.61545">
        <ele>659.494384766</ele>
        <time>2015-09-10T08:13:51.214Z</time>
      </trkpt>
      <trkpt lat="46.08835" lon="4.61537">
        <ele>659.378356934</ele>
        <time>2015-09-10T08:13:58.231Z</time>
      </trkpt>
      <trkpt lat="46.08835" lon="4.61536">
        <ele>659.379882812</ele>
        <time>2015-09-10T08:13:59.21Z</time>
      </trkpt>
      <trkpt lat="46.08829" lon="4.61527">
        <ele>659.287719727</ele>
        <time>2015-09-10T08:14:06.243Z</time>
      </trkpt>
      <trkpt lat="46.08827" lon="4.61526">
        <ele>659.260314941</ele>
        <time>2015-09-10T08:14:07.229Z</time>
      </trkpt>
      <trkpt lat="46.0882" lon="4.61519">
        <ele>659.127319336</ele>
        <time>2015-09-10T08:14:15.252Z</time>
      </trkpt>
      <trkpt lat="46.08818" lon="4.61519">
        <ele>659.133666992</ele>
        <time>2015-09-10T08:14:16.221Z</time>
      </trkpt>
      <trkpt lat="46.08811" lon="4.61511">
        <ele>659.436157227</ele>
        <time>2015-09-10T08:14:24.253Z</time>
      </trkpt>
      <trkpt lat="46.08811" lon="4.61509">
        <ele>659.451416016</ele>
        <time>2015-09-10T08:14:25.21Z</time>
      </trkpt>
      <trkpt lat="46.08805" lon="4.61499">
        <ele>659.563293457</ele>
        <time>2015-09-10T08:14:33.256Z</time>
      </trkpt>
      <trkpt lat="46.08805" lon="4.61498">
        <ele>659.591430664</ele>
        <time>2015-09-10T08:14:34.198Z</time>
      </trkpt>
      <trkpt lat="46.08798" lon="4.61491">
        <ele>659.685119629</ele>
        <time>2015-09-10T08:14:41.26Z</time>
      </trkpt>
      <trkpt lat="46.08797" lon="4.6149">
        <ele>659.701721191</ele>
        <time>2015-09-10T08:14:42.199Z</time>
      </trkpt>
      <trkpt lat="46.0879" lon="4.61484">
        <ele>660.040405273</ele>
        <time>2015-09-10T08:14:49.374Z</time>
      </trkpt>
      <trkpt lat="46.08789" lon="4.61483">
        <ele>660.09173584</ele>
        <time>2015-09-10T08:14:50.211Z</time>
      </trkpt>
      <trkpt lat="46.08782" lon="4.61476">
        <ele>660.362548828</ele>
        <time>2015-09-10T08:14:57.237Z</time>
      </trkpt>
      <trkpt lat="46.08781" lon="4.61474">
        <ele>660.331604004</ele>
        <time>2015-09-10T08:14:58.203Z</time>
      </trkpt>
      <trkpt lat="46.08776" lon="4.61464">
        <ele>660.336730957</ele>
        <time>2015-09-10T08:15:04.407Z</time>
      </trkpt>
      <trkpt lat="46.08776" lon="4.61463">
        <ele>660.325195312</ele>
        <time>2015-09-10T08:15:05.218Z</time>
      </trkpt>
      <trkpt lat="46.08771" lon="4.61452">
        <ele>660.055419922</ele>
        <time>2015-09-10T08:15:12.257Z</time>
      </trkpt>
      <trkpt lat="46.0877" lon="4.61451">
        <ele>660.044189453</ele>
        <time>2015-09-10T08:15:13.224Z</time>
      </trkpt>
      <trkpt lat="46.08766" lon="4.61441">
        <ele>659.871276855</ele>
        <time>2015-09-10T08:15:20.258Z</time>
      </trkpt>
      <trkpt lat="46.08765" lon="4.6144">
        <ele>659.853088379</ele>
        <time>2015-09-10T08:15:21.236Z</time>
      </trkpt>
      <trkpt lat="46.08761" lon="4.61431">
        <ele>659.940734863</ele>
        <time>2015-09-10T08:15:27.261Z</time>
      </trkpt>
      <trkpt lat="46.0876" lon="4.61429">
        <ele>659.985290527</ele>
        <time>2015-09-10T08:15:28.216Z</time>
      </trkpt>
      <trkpt lat="46.08753" lon="4.61421">
        <ele>659.974243164</ele>
        <time>2015-09-10T08:15:34.378Z</time>
      </trkpt>
      <trkpt lat="46.08753" lon="4.6142">
        <ele>659.985473633</ele>
        <time>2015-09-10T08:15:35.202Z</time>
      </trkpt>
      <trkpt lat="46.08747" lon="4.61413">
        <ele>660.26348877</ele>
        <time>2015-09-10T08:15:42.231Z</time>
      </trkpt>
      <trkpt lat="46.08745" lon="4.61411">
        <ele>660.274597168</ele>
        <time>2015-09-10T08:15:43.224Z</time>
      </trkpt>
      <trkpt lat="46.0874" lon="4.61403">
        <ele>660.383056641</ele>
        <time>2015-09-10T08:15:49.255Z</time>
      </trkpt>
      <trkpt lat="46.08739" lon="4.61401">
        <ele>660.373474121</ele>
        <time>2015-09-10T08:15:50.204Z</time>
      </trkpt>
      <trkpt lat="46.08732" lon="4.61394">
        <ele>660.232727051</ele>
        <time>2015-09-10T08:15:57.277Z</time>
      </trkpt>
      <trkpt lat="46.08731" lon="4.61393">
        <ele>660.243408203</ele>
        <time>2015-09-10T08:15:58.204Z</time>
      </trkpt>
      <trkpt lat="46.08724" lon="4.61386">
        <ele>660.174865723</ele>
        <time>2015-09-10T08:16:05.253Z</time>
      </trkpt>
      <trkpt lat="46.08723" lon="4.61385">
        <ele>660.202087402</ele>
        <time>2015-09-10T08:16:06.219Z</time>
      </trkpt>
      <trkpt lat="46.08716" lon="4.61378">
        <ele>660.555114746</ele>
        <time>2015-09-10T08:16:14.238Z</time>
      </trkpt>
      <trkpt lat="46.08715" lon="4.61378">
        <ele>660.603271484</ele>
        <time>2015-09-10T08:16:15.22Z</time>
      </trkpt>
      <trkpt lat="46.08707" lon="4.61374">
        <ele>661.15612793</ele>
        <time>2015-09-10T08:16:23.252Z</time>
      </trkpt>
      <trkpt lat="46.08706" lon="4.61373">
        <ele>661.210876465</ele>
        <time>2015-09-10T08:16:24.225Z</time>
      </trkpt>
      <trkpt lat="46.08698" lon="4.61369">
        <ele>661.683959961</ele>
        <time>2015-09-10T08:16:32.251Z</time>
      </trkpt>
      <trkpt lat="46.08697" lon="4.61368">
        <ele>661.714050293</ele>
        <time>2015-09-10T08:16:33.223Z</time>
      </trkpt>
      <trkpt lat="46.08689" lon="4.61363">
        <ele>662.135314941</ele>
        <time>2015-09-10T08:16:41.249Z</time>
      </trkpt>
      <trkpt lat="46.08688" lon="4.61362">
        <ele>662.199035645</ele>
        <time>2015-09-10T08:16:42.208Z</time>
      </trkpt>
      <trkpt lat="46.08682" lon="4.61354">
        <ele>663.049560547</ele>
        <time>2015-09-10T08:16:51.277Z</time>
      </trkpt>
      <trkpt lat="46.08681" lon="4.61353">
        <ele>663.159912109</ele>
        <time>2015-09-10T08:16:52.223Z</time>
      </trkpt>
      <trkpt lat="46.08674" lon="4.61348">
        <ele>663.770812988</ele>
        <time>2015-09-10T08:16:58.267Z</time>
      </trkpt>
      <trkpt lat="46.08673" lon="4.61347">
        <ele>663.870483398</ele>
        <time>2015-09-10T08:16:59.223Z</time>
      </trkpt>
      <trkpt lat="46.08666" lon="4.6134">
        <ele>664.37689209</ele>
        <time>2015-09-10T08:17:05.254Z</time>
      </trkpt>
      <trkpt lat="46.08665" lon="4.61339">
        <ele>664.42376709</ele>
        <time>2015-09-10T08:17:06.209Z</time>
      </trkpt>
      <trkpt lat="46.08661" lon="4.61328">
        <ele>664.549560547</ele>
        <time>2015-09-10T08:17:13.285Z</time>
      </trkpt>
      <trkpt lat="46.0866" lon="4.61327">
        <ele>664.572692871</ele>
        <time>2015-09-10T08:17:14.215Z</time>
      </trkpt>
      <trkpt lat="46.08657" lon="4.61317">
        <ele>664.730163574</ele>
        <time>2015-09-10T08:17:20.286Z</time>
      </trkpt>
      <trkpt lat="46.08656" lon="4.61315">
        <ele>664.740112305</ele>
        <time>2015-09-10T08:17:21.235Z</time>
      </trkpt>
      <trkpt lat="46.08651" lon="4.61306">
        <ele>664.781616211</ele>
        <time>2015-09-10T08:17:28.263Z</time>
      </trkpt>
      <trkpt lat="46.0865" lon="4.61304">
        <ele>664.859313965</ele>
        <time>2015-09-10T08:17:29.238Z</time>
      </trkpt>
      <trkpt lat="46.08645" lon="4.61296">
        <ele>665.183532715</ele>
        <time>2015-09-10T08:17:35.236Z</time>
      </trkpt>
      <trkpt lat="46.08643" lon="4.61295">
        <ele>665.24017334</ele>
        <time>2015-09-10T08:17:36.243Z</time>
      </trkpt>
      <trkpt lat="46.08638" lon="4.61285">
        <ele>665.545288086</ele>
        <time>2015-09-10T08:17:43.254Z</time>
      </trkpt>
      <trkpt lat="46.08637" lon="4.61284">
        <ele>665.578186035</ele>
        <time>2015-09-10T08:17:44.233Z</time>
      </trkpt>
      <trkpt lat="46.08632" lon="4.61273">
        <ele>665.589111328</ele>
        <time>2015-09-10T08:17:51.274Z</time>
      </trkpt>
      <trkpt lat="46.08632" lon="4.61272">
        <ele>665.609008789</ele>
        <time>2015-09-10T08:17:52.233Z</time>
      </trkpt>
      <trkpt lat="46.08629" lon="4.61259">
        <ele>666.052734375</ele>
        <time>2015-09-10T08:18:00.284Z</time>
      </trkpt>
      <trkpt lat="46.08629" lon="4.61257">
        <ele>666.082397461</ele>
        <time>2015-09-10T08:18:01.241Z</time>
      </trkpt>
      <trkpt lat="46.08627" lon="4.61245">
        <ele>666.239807129</ele>
        <time>2015-09-10T08:18:07.274Z</time>
      </trkpt>
      <trkpt lat="46.08626" lon="4.61243">
        <ele>666.295532227</ele>
        <time>2015-09-10T08:18:08.227Z</time>
      </trkpt>
      <trkpt lat="46.08623" lon="4.61232">
        <ele>666.640197754</ele>
        <time>2015-09-10T08:18:14.26Z</time>
      </trkpt>
      <trkpt lat="46.08623" lon="4.6123">
        <ele>666.672302246</ele>
        <time>2015-09-10T08:18:15.23Z</time>
      </trkpt>
      <trkpt lat="46.08621" lon="4.61218">
        <ele>666.771850586</ele>
        <time>2015-09-10T08:18:22.26Z</time>
      </trkpt>
      <trkpt lat="46.0862" lon="4.61217">
        <ele>666.796569824</ele>
        <time>2015-09-10T08:18:23.215Z</time>
      </trkpt>
      <trkpt lat="46.08618" lon="4.61205">
        <ele>666.96862793</ele>
        <time>2015-09-10T08:18:30.218Z</time>
      </trkpt>
      <trkpt lat="46.08617" lon="4.61203">
        <ele>666.955383301</ele>
        <time>2015-09-10T08:18:31.211Z</time>
      </trkpt>
      <trkpt lat="46.08615" lon="4.61192">
        <ele>666.884643555</ele>
        <time>2015-09-10T08:18:38.252Z</time>
      </trkpt>
      <trkpt lat="46.08614" lon="4.6119">
        <ele>666.88458252</ele>
        <time>2015-09-10T08:18:39.219Z</time>
      </trkpt>
      <trkpt lat="46.08611" lon="4.61179">
        <ele>667.27722168</ele>
        <time>2015-09-10T08:18:48.253Z</time>
      </trkpt>
      <trkpt lat="46.08611" lon="4.61178">
        <ele>667.348815918</ele>
        <time>2015-09-10T08:18:49.216Z</time>
      </trkpt>
      <trkpt lat="46.08608" lon="4.61166">
        <ele>667.827941895</ele>
        <time>2015-09-10T08:18:56.247Z</time>
      </trkpt>
      <trkpt lat="46.08608" lon="4.61165">
        <ele>667.888000488</ele>
        <time>2015-09-10T08:18:57.217Z</time>
      </trkpt>
      <trkpt lat="46.08605" lon="4.61153">
        <ele>668.396179199</ele>
        <time>2015-09-10T08:19:04.241Z</time>
      </trkpt>
      <trkpt lat="46.08605" lon="4.61151">
        <ele>668.451965332</ele>
        <time>2015-09-10T08:19:05.216Z</time>
      </trkpt>
      <trkpt lat="46.08601" lon="4.6114">
        <ele>668.863769531</ele>
        <time>2015-09-10T08:19:12.255Z</time>
      </trkpt>
      <trkpt lat="46.08601" lon="4.61138">
        <ele>668.880615234</ele>
        <time>2015-09-10T08:19:13.213Z</time>
      </trkpt>
      <trkpt lat="46.08598" lon="4.61127">
        <ele>669.041015625</ele>
        <time>2015-09-10T08:19:19.223Z</time>
      </trkpt>
      <trkpt lat="46.08598" lon="4.61126">
        <ele>669.05480957</ele>
        <time>2015-09-10T08:19:20.196Z</time>
      </trkpt>
      <trkpt lat="46.08595" lon="4.61114">
        <ele>669.267211914</ele>
        <time>2015-09-10T08:19:28.265Z</time>
      </trkpt>
      <trkpt lat="46.08595" lon="4.61113">
        <ele>669.291320801</ele>
        <time>2015-09-10T08:19:29.211Z</time>
      </trkpt>
      <trkpt lat="46.08593" lon="4.611">
        <ele>669.339233398</ele>
        <time>2015-09-10T08:19:36.251Z</time>
      </trkpt>
      <trkpt lat="46.08593" lon="4.61099">
        <ele>669.373596191</ele>
        <time>2015-09-10T08:19:37.214Z</time>
      </trkpt>
      <trkpt lat="46.08592" lon="4.61087">
        <ele>669.403320312</ele>
        <time>2015-09-10T08:19:43.245Z</time>
      </trkpt>
      <trkpt lat="46.08592" lon="4.61086">
        <ele>669.401000977</ele>
        <time>2015-09-10T08:19:44.222Z</time>
      </trkpt>
      <trkpt lat="46.08588" lon="4.61074">
        <ele>669.47076416</ele>
        <time>2015-09-10T08:19:52.241Z</time>
      </trkpt>
      <trkpt lat="46.08588" lon="4.61072">
        <ele>669.498046875</ele>
        <time>2015-09-10T08:19:53.221Z</time>
      </trkpt>
      <trkpt lat="46.08582" lon="4.61064">
        <ele>669.512512207</ele>
        <time>2015-09-10T08:20:00.249Z</time>
      </trkpt>
      <trkpt lat="46.08581" lon="4.61063">
        <ele>669.494934082</ele>
        <time>2015-09-10T08:20:01.223Z</time>
      </trkpt>
      <trkpt lat="46.08576" lon="4.61054">
        <ele>669.321960449</ele>
        <time>2015-09-10T08:20:08.269Z</time>
      </trkpt>
      <trkpt lat="46.08575" lon="4.61053">
        <ele>669.255310059</ele>
        <time>2015-09-10T08:20:09.23Z</time>
      </trkpt>
      <trkpt lat="46.0857" lon="4.61043">
        <ele>668.933959961</ele>
        <time>2015-09-10T08:20:17.246Z</time>
      </trkpt>
      <trkpt lat="46.08569" lon="4.61041">
        <ele>668.89465332</ele>
        <time>2015-09-10T08:20:18.216Z</time>
      </trkpt>
      <trkpt lat="46.08564" lon="4.61031">
        <ele>668.313049316</ele>
        <time>2015-09-10T08:20:25.264Z</time>
      </trkpt>
      <trkpt lat="46.08564" lon="4.6103">
        <ele>668.194580078</ele>
        <time>2015-09-10T08:20:26.218Z</time>
      </trkpt>
      <trkpt lat="46.08559" lon="4.6102">
        <ele>667.078369141</ele>
        <time>2015-09-10T08:20:34.261Z</time>
      </trkpt>
      <trkpt lat="46.08558" lon="4.61019">
        <ele>666.94708252</ele>
        <time>2015-09-10T08:20:35.202Z</time>
      </trkpt>
      <trkpt lat="46.08551" lon="4.61011">
        <ele>665.817810059</ele>
        <time>2015-09-10T08:20:43.228Z</time>
      </trkpt>
      <trkpt lat="46.0855" lon="4.6101">
        <ele>665.662475586</ele>
        <time>2015-09-10T08:20:44.23Z</time>
      </trkpt>
      <trkpt lat="46.08544" lon="4.61001">
        <ele>664.400939941</ele>
        <time>2015-09-10T08:20:52.249Z</time>
      </trkpt>
      <trkpt lat="46.08543" lon="4.61">
        <ele>664.217285156</ele>
        <time>2015-09-10T08:20:53.223Z</time>
      </trkpt>
      <trkpt lat="46.08539" lon="4.6099">
        <ele>662.643920898</ele>
        <time>2015-09-10T08:21:01.26Z</time>
      </trkpt>
      <trkpt lat="46.08538" lon="4.60989">
        <ele>662.459777832</ele>
        <time>2015-09-10T08:21:02.234Z</time>
      </trkpt>
      <trkpt lat="46.08534" lon="4.60979">
        <ele>661.231994629</ele>
        <time>2015-09-10T08:21:08.247Z</time>
      </trkpt>
      <trkpt lat="46.08533" lon="4.60978">
        <ele>660.983032227</ele>
        <time>2015-09-10T08:21:09.224Z</time>
      </trkpt>
      <trkpt lat="46.08528" lon="4.60967">
        <ele>659.120605469</ele>
        <time>2015-09-10T08:21:17.258Z</time>
      </trkpt>
      <trkpt lat="46.08528" lon="4.60966">
        <ele>658.902160645</ele>
        <time>2015-09-10T08:21:18.219Z</time>
      </trkpt>
      <trkpt lat="46.08521" lon="4.60958">
        <ele>657.804931641</ele>
        <time>2015-09-10T08:21:24.248Z</time>
      </trkpt>
      <trkpt lat="46.0852" lon="4.60956">
        <ele>657.62487793</ele>
        <time>2015-09-10T08:21:25.225Z</time>
      </trkpt>
      <trkpt lat="46.08514" lon="4.60946">
        <ele>656.281677246</ele>
        <time>2015-09-10T08:21:32.258Z</time>
      </trkpt>
      <trkpt lat="46.08514" lon="4.60945">
        <ele>656.096618652</ele>
        <time>2015-09-10T08:21:33.22Z</time>
      </trkpt>
      <trkpt lat="46.08509" lon="4.60935">
        <ele>654.906188965</ele>
        <time>2015-09-10T08:21:39.248Z</time>
      </trkpt>
      <trkpt lat="46.08508" lon="4.60933">
        <ele>654.698913574</ele>
        <time>2015-09-10T08:21:40.222Z</time>
      </trkpt>
      <trkpt lat="46.08503" lon="4.60924">
        <ele>653.196777344</ele>
        <time>2015-09-10T08:21:47.376Z</time>
      </trkpt>
      <trkpt lat="46.08502" lon="4.60922">
        <ele>653.002502441</ele>
        <time>2015-09-10T08:21:48.221Z</time>
      </trkpt>
      <trkpt lat="46.08497" lon="4.60914">
        <ele>651.999328613</ele>
        <time>2015-09-10T08:21:54.258Z</time>
      </trkpt>
      <trkpt lat="46.08496" lon="4.60912">
        <ele>651.841674805</ele>
        <time>2015-09-10T08:21:55.208Z</time>
      </trkpt>
      <trkpt lat="46.0849" lon="4.60903">
        <ele>650.731994629</ele>
        <time>2015-09-10T08:22:02.282Z</time>
      </trkpt>
      <trkpt lat="46.08489" lon="4.60901">
        <ele>650.577636719</ele>
        <time>2015-09-10T08:22:03.208Z</time>
      </trkpt>
      <trkpt lat="46.08484" lon="4.60893">
        <ele>649.821166992</ele>
        <time>2015-09-10T08:22:09.261Z</time>
      </trkpt>
      <trkpt lat="46.08483" lon="4.60892">
        <ele>649.699890137</ele>
        <time>2015-09-10T08:22:10.222Z</time>
      </trkpt>
      <trkpt lat="46.08476" lon="4.60885">
        <ele>648.918579102</ele>
        <time>2015-09-10T08:22:17.276Z</time>
      </trkpt>
      <trkpt lat="46.08475" lon="4.60884">
        <ele>648.807434082</ele>
        <time>2015-09-10T08:22:18.227Z</time>
      </trkpt>
      <trkpt lat="46.08468" lon="4.60876">
        <ele>648.045410156</ele>
        <time>2015-09-10T08:22:25.266Z</time>
      </trkpt>
      <trkpt lat="46.08467" lon="4.60875">
        <ele>647.941589355</ele>
        <time>2015-09-10T08:22:26.224Z</time>
      </trkpt>
      <trkpt lat="46.08462" lon="4.60866">
        <ele>647.305725098</ele>
        <time>2015-09-10T08:22:32.255Z</time>
      </trkpt>
      <trkpt lat="46.08461" lon="4.60864">
        <ele>647.206542969</ele>
        <time>2015-09-10T08:22:33.221Z</time>
      </trkpt>
      <trkpt lat="46.08458" lon="4.60854">
        <ele>646.355712891</ele>
        <time>2015-09-10T08:22:40.256Z</time>
      </trkpt>
      <trkpt lat="46.08457" lon="4.60852">
        <ele>646.214172363</ele>
        <time>2015-09-10T08:22:41.233Z</time>
      </trkpt>
      <trkpt lat="46.08454" lon="4.60841">
        <ele>645.45904541</ele>
        <time>2015-09-10T08:22:47.238Z</time>
      </trkpt>
      <trkpt lat="46.08453" lon="4.6084">
        <ele>645.342529297</ele>
        <time>2015-09-10T08:22:48.235Z</time>
      </trkpt>
      <trkpt lat="46.0845" lon="4.60829">
        <ele>644.495178223</ele>
        <time>2015-09-10T08:22:55.248Z</time>
      </trkpt>
      <trkpt lat="46.0845" lon="4.60827">
        <ele>644.360046387</ele>
        <time>2015-09-10T08:22:56.228Z</time>
      </trkpt>
      <trkpt lat="46.08447" lon="4.60816">
        <ele>643.43347168</ele>
        <time>2015-09-10T08:23:02.277Z</time>
      </trkpt>
      <trkpt lat="46.08446" lon="4.60815">
        <ele>643.287536621</ele>
        <time>2015-09-10T08:23:03.211Z</time>
      </trkpt>
      <trkpt lat="46.08441" lon="4.60804">
        <ele>642.413574219</ele>
        <time>2015-09-10T08:23:09.26Z</time>
      </trkpt>
      <trkpt lat="46.08441" lon="4.60803">
        <ele>642.265441895</ele>
        <time>2015-09-10T08:23:10.227Z</time>
      </trkpt>
      <trkpt lat="46.08437" lon="4.60793">
        <ele>641.422363281</ele>
        <time>2015-09-10T08:23:16.276Z</time>
      </trkpt>
      <trkpt lat="46.08436" lon="4.60792">
        <ele>641.295166016</ele>
        <time>2015-09-10T08:23:17.213Z</time>
      </trkpt>
      <trkpt lat="46.08432" lon="4.60781">
        <ele>640.28704834</ele>
        <time>2015-09-10T08:23:24.278Z</time>
      </trkpt>
      <trkpt lat="46.08431" lon="4.60779">
        <ele>640.154541016</ele>
        <time>2015-09-10T08:23:25.223Z</time>
      </trkpt>
      <trkpt lat="46.08426" lon="4.60769">
        <ele>639.346008301</ele>
        <time>2015-09-10T08:23:32.28Z</time>
      </trkpt>
      <trkpt lat="46.08425" lon="4.60768">
        <ele>639.247741699</ele>
        <time>2015-09-10T08:23:33.213Z</time>
      </trkpt>
      <trkpt lat="46.08422" lon="4.60757">
        <ele>638.345458984</ele>
        <time>2015-09-10T08:23:40.268Z</time>
      </trkpt>
      <trkpt lat="46.08421" lon="4.60755">
        <ele>638.19519043</ele>
        <time>2015-09-10T08:23:41.233Z</time>
      </trkpt>
      <trkpt lat="46.08416" lon="4.60745">
        <ele>637.194702148</ele>
        <time>2015-09-10T08:23:48.25Z</time>
      </trkpt>
      <trkpt lat="46.08415" lon="4.60743">
        <ele>637.043945312</ele>
        <time>2015-09-10T08:23:49.223Z</time>
      </trkpt>
      <trkpt lat="46.08411" lon="4.60733">
        <ele>636.167419434</ele>
        <time>2015-09-10T08:23:55.233Z</time>
      </trkpt>
      <trkpt lat="46.08411" lon="4.60731">
        <ele>636.044799805</ele>
        <time>2015-09-10T08:23:56.214Z</time>
      </trkpt>
      <trkpt lat="46.08405" lon="4.60722">
        <ele>635.29864502</ele>
        <time>2015-09-10T08:24:03.237Z</time>
      </trkpt>
      <trkpt lat="46.08404" lon="4.60721">
        <ele>635.204711914</ele>
        <time>2015-09-10T08:24:04.213Z</time>
      </trkpt>
      <trkpt lat="46.08398" lon="4.60713">
        <ele>634.63848877</ele>
        <time>2015-09-10T08:24:11.254Z</time>
      </trkpt>
      <trkpt lat="46.08397" lon="4.60711">
        <ele>634.544494629</ele>
        <time>2015-09-10T08:24:12.209Z</time>
      </trkpt>
      <trkpt lat="46.08391" lon="4.60703">
        <ele>634.165527344</ele>
        <time>2015-09-10T08:24:18.251Z</time>
      </trkpt>
      <trkpt lat="46.08389" lon="4.60701">
        <ele>634.120239258</ele>
        <time>2015-09-10T08:24:19.192Z</time>
      </trkpt>
      <trkpt lat="46.08383" lon="4.60693">
        <ele>633.94342041</ele>
        <time>2015-09-10T08:24:25.254Z</time>
      </trkpt>
      <trkpt lat="46.08382" lon="4.60691">
        <ele>633.924682617</ele>
        <time>2015-09-10T08:24:26.215Z</time>
      </trkpt>
      <trkpt lat="46.08376" lon="4.60684">
        <ele>633.79309082</ele>
        <time>2015-09-10T08:24:32.254Z</time>
      </trkpt>
      <trkpt lat="46.08375" lon="4.60682">
        <ele>633.782409668</ele>
        <time>2015-09-10T08:24:33.225Z</time>
      </trkpt>
      <trkpt lat="46.0837" lon="4.60674">
        <ele>633.688903809</ele>
        <time>2015-09-10T08:24:39.219Z</time>
      </trkpt>
      <trkpt lat="46.08369" lon="4.60673">
        <ele>633.673156738</ele>
        <time>2015-09-10T08:24:40.224Z</time>
      </trkpt>
      <trkpt lat="46.08363" lon="4.60664">
        <ele>633.615600586</ele>
        <time>2015-09-10T08:24:46.253Z</time>
      </trkpt>
      <trkpt lat="46.08362" lon="4.60663">
        <ele>633.609191895</ele>
        <time>2015-09-10T08:24:47.196Z</time>
      </trkpt>
      <trkpt lat="46.08355" lon="4.60655">
        <ele>633.592651367</ele>
        <time>2015-09-10T08:24:54.256Z</time>
      </trkpt>
      <trkpt lat="46.08354" lon="4.60655">
        <ele>633.581787109</ele>
        <time>2015-09-10T08:24:55.197Z</time>
      </trkpt>
      <trkpt lat="46.08345" lon="4.60656">
        <ele>633.211608887</ele>
        <time>2015-09-10T08:25:03.238Z</time>
      </trkpt>
      <trkpt lat="46.08344" lon="4.60657">
        <ele>633.153198242</ele>
        <time>2015-09-10T08:25:04.216Z</time>
      </trkpt>
      <trkpt lat="46.08337" lon="4.60663">
        <ele>632.741577148</ele>
        <time>2015-09-10T08:25:12.241Z</time>
      </trkpt>
      <trkpt lat="46.08336" lon="4.60663">
        <ele>632.672363281</ele>
        <time>2015-09-10T08:25:13.221Z</time>
      </trkpt>
      <trkpt lat="46.08329" lon="4.60668">
        <ele>632.485656738</ele>
        <time>2015-09-10T08:25:19.229Z</time>
      </trkpt>
      <trkpt lat="46.08328" lon="4.60668">
        <ele>632.453979492</ele>
        <time>2015-09-10T08:25:20.197Z</time>
      </trkpt>
      <trkpt lat="46.08319" lon="4.6067">
        <ele>632.192687988</ele>
        <time>2015-09-10T08:25:29.243Z</time>
      </trkpt>
      <trkpt lat="46.08318" lon="4.6067">
        <ele>632.167907715</ele>
        <time>2015-09-10T08:25:30.198Z</time>
      </trkpt>
      <trkpt lat="46.08309" lon="4.60671">
        <ele>631.908203125</ele>
        <time>2015-09-10T08:25:37.254Z</time>
      </trkpt>
      <trkpt lat="46.08308" lon="4.6067">
        <ele>631.930541992</ele>
        <time>2015-09-10T08:25:38.225Z</time>
      </trkpt>
      <trkpt lat="46.083" lon="4.6067">
        <ele>632.090270996</ele>
        <time>2015-09-10T08:25:45.231Z</time>
      </trkpt>
      <trkpt lat="46.08299" lon="4.6067">
        <ele>632.08972168</ele>
        <time>2015-09-10T08:25:46.215Z</time>
      </trkpt>
      <trkpt lat="46.08291" lon="4.60669">
        <ele>631.943054199</ele>
        <time>2015-09-10T08:25:53.248Z</time>
      </trkpt>
      <trkpt lat="46.08289" lon="4.60669">
        <ele>631.897399902</ele>
        <time>2015-09-10T08:25:54.215Z</time>
      </trkpt>
      <trkpt lat="46.0828" lon="4.60669">
        <ele>631.606933594</ele>
        <time>2015-09-10T08:26:02.255Z</time>
      </trkpt>
      <trkpt lat="46.08278" lon="4.60668">
        <ele>631.564880371</ele>
        <time>2015-09-10T08:26:03.203Z</time>
      </trkpt>
      <trkpt lat="46.0827" lon="4.60669">
        <ele>631.242736816</ele>
        <time>2015-09-10T08:26:08.385Z</time>
      </trkpt>
      <trkpt lat="46.08269" lon="4.60668">
        <ele>631.163208008</ele>
        <time>2015-09-10T08:26:09.232Z</time>
      </trkpt>
      <trkpt lat="46.0826" lon="4.60668">
        <ele>630.942749023</ele>
        <time>2015-09-10T08:26:17.263Z</time>
      </trkpt>
      <trkpt lat="46.08259" lon="4.60668">
        <ele>630.917785645</ele>
        <time>2015-09-10T08:26:18.225Z</time>
      </trkpt>
      <trkpt lat="46.0825" lon="4.60668">
        <ele>630.615783691</ele>
        <time>2015-09-10T08:26:24.272Z</time>
      </trkpt>
      <trkpt lat="46.08248" lon="4.60668">
        <ele>630.542785645</ele>
        <time>2015-09-10T08:26:25.213Z</time>
      </trkpt>
      <trkpt lat="46.08239" lon="4.60666">
        <ele>630.028442383</ele>
        <time>2015-09-10T08:26:33.259Z</time>
      </trkpt>
      <trkpt lat="46.08238" lon="4.60666">
        <ele>629.980895996</ele>
        <time>2015-09-10T08:26:34.224Z</time>
      </trkpt>
      <trkpt lat="46.0823" lon="4.60663">
        <ele>629.595397949</ele>
        <time>2015-09-10T08:26:40.255Z</time>
      </trkpt>
      <trkpt lat="46.08228" lon="4.60663">
        <ele>629.501342773</ele>
        <time>2015-09-10T08:26:41.218Z</time>
      </trkpt>
      <trkpt lat="46.0822" lon="4.6066">
        <ele>628.822509766</ele>
        <time>2015-09-10T08:26:47.23Z</time>
      </trkpt>
      <trkpt lat="46.08219" lon="4.6066">
        <ele>628.697692871</ele>
        <time>2015-09-10T08:26:48.221Z</time>
      </trkpt>
      <trkpt lat="46.08211" lon="4.60656">
        <ele>627.776794434</ele>
        <time>2015-09-10T08:26:55.237Z</time>
      </trkpt>
      <trkpt lat="46.0821" lon="4.60656">
        <ele>627.622070312</ele>
        <time>2015-09-10T08:26:56.218Z</time>
      </trkpt>
      <trkpt lat="46.08202" lon="4.60652">
        <ele>626.773193359</ele>
        <time>2015-09-10T08:27:02.262Z</time>
      </trkpt>
      <trkpt lat="46.08201" lon="4.60651">
        <ele>626.631896973</ele>
        <time>2015-09-10T08:27:03.208Z</time>
      </trkpt>
      <trkpt lat="46.08194" lon="4.60648">
        <ele>625.879089355</ele>
        <time>2015-09-10T08:27:08.252Z</time>
      </trkpt>
      <trkpt lat="46.08192" lon="4.60647">
        <ele>625.731750488</ele>
        <time>2015-09-10T08:27:09.223Z</time>
      </trkpt>
      <trkpt lat="46.08184" lon="4.60644">
        <ele>624.582519531</ele>
        <time>2015-09-10T08:27:16.267Z</time>
      </trkpt>
      <trkpt lat="46.08183" lon="4.60644">
        <ele>624.440368652</ele>
        <time>2015-09-10T08:27:17.222Z</time>
      </trkpt>
      <trkpt lat="46.08174" lon="4.60642">
        <ele>623.70300293</ele>
        <time>2015-09-10T08:27:24.26Z</time>
      </trkpt>
      <trkpt lat="46.08173" lon="4.60642">
        <ele>623.586303711</ele>
        <time>2015-09-10T08:27:25.206Z</time>
      </trkpt>
      <trkpt lat="46.08164" lon="4.60642">
        <ele>623.294128418</ele>
        <time>2015-09-10T08:27:31.276Z</time>
      </trkpt>
      <trkpt lat="46.08163" lon="4.60642">
        <ele>623.237487793</ele>
        <time>2015-09-10T08:27:32.209Z</time>
      </trkpt>
      <trkpt lat="46.08155" lon="4.60643">
        <ele>622.803405762</ele>
        <time>2015-09-10T08:27:39.247Z</time>
      </trkpt>
      <trkpt lat="46.08154" lon="4.60642">
        <ele>622.731567383</ele>
        <time>2015-09-10T08:27:40.227Z</time>
      </trkpt>
      <trkpt lat="46.08146" lon="4.60645">
        <ele>622.025024414</ele>
        <time>2015-09-10T08:27:49.282Z</time>
      </trkpt>
      <trkpt lat="46.08145" lon="4.60645">
        <ele>621.924255371</ele>
        <time>2015-09-10T08:27:50.23Z</time>
      </trkpt>
      <trkpt lat="46.08137" lon="4.60648">
        <ele>621.273010254</ele>
        <time>2015-09-10T08:27:57.293Z</time>
      </trkpt>
      <trkpt lat="46.08136" lon="4.60648">
        <ele>621.166931152</ele>
        <time>2015-09-10T08:27:58.225Z</time>
      </trkpt>
      <trkpt lat="46.08127" lon="4.60649">
        <ele>620.488525391</ele>
        <time>2015-09-10T08:28:05.283Z</time>
      </trkpt>
      <trkpt lat="46.08126" lon="4.60648">
        <ele>620.391723633</ele>
        <time>2015-09-10T08:28:06.233Z</time>
      </trkpt>
      <trkpt lat="46.08118" lon="4.60651">
        <ele>619.604309082</ele>
        <time>2015-09-10T08:28:13.289Z</time>
      </trkpt>
      <trkpt lat="46.08117" lon="4.60651">
        <ele>619.486816406</ele>
        <time>2015-09-10T08:28:14.228Z</time>
      </trkpt>
      <trkpt lat="46.08108" lon="4.60654">
        <ele>618.83972168</ele>
        <time>2015-09-10T08:28:20.246Z</time>
      </trkpt>
      <trkpt lat="46.08107" lon="4.60655">
        <ele>618.711486816</ele>
        <time>2015-09-10T08:28:21.231Z</time>
      </trkpt>
      <trkpt lat="46.08099" lon="4.60658">
        <ele>617.708129883</ele>
        <time>2015-09-10T08:28:28.27Z</time>
      </trkpt>
      <trkpt lat="46.08097" lon="4.60658">
        <ele>617.591003418</ele>
        <time>2015-09-10T08:28:29.238Z</time>
      </trkpt>
      <trkpt lat="46.08089" lon="4.60661">
        <ele>616.780700684</ele>
        <time>2015-09-10T08:28:36.261Z</time>
      </trkpt>
      <trkpt lat="46.08087" lon="4.60662">
        <ele>616.656494141</ele>
        <time>2015-09-10T08:28:37.228Z</time>
      </trkpt>
      <trkpt lat="46.08079" lon="4.60665">
        <ele>615.869873047</ele>
        <time>2015-09-10T08:28:44.244Z</time>
      </trkpt>
      <trkpt lat="46.08078" lon="4.60665">
        <ele>615.788635254</ele>
        <time>2015-09-10T08:28:45.227Z</time>
      </trkpt>
      <trkpt lat="46.08069" lon="4.60669">
        <ele>614.675476074</ele>
        <time>2015-09-10T08:28:51.242Z</time>
      </trkpt>
      <trkpt lat="46.08068" lon="4.60669">
        <ele>614.404968262</ele>
        <time>2015-09-10T08:28:52.191Z</time>
      </trkpt>
      <trkpt lat="46.08059" lon="4.60671">
        <ele>613.13885498</ele>
        <time>2015-09-10T08:28:57.241Z</time>
      </trkpt>
      <trkpt lat="46.08058" lon="4.60671">
        <ele>612.911315918</ele>
        <time>2015-09-10T08:28:58.222Z</time>
      </trkpt>
      <trkpt lat="46.0805" lon="4.60671">
        <ele>611.581237793</ele>
        <time>2015-09-10T08:29:04.227Z</time>
      </trkpt>
      <trkpt lat="46.08049" lon="4.60671">
        <ele>611.360839844</ele>
        <time>2015-09-10T08:29:05.203Z</time>
      </trkpt>
      <trkpt lat="46.08041" lon="4.6067">
        <ele>610.065185547</ele>
        <time>2015-09-10T08:29:11.254Z</time>
      </trkpt>
      <trkpt lat="46.0804" lon="4.6067">
        <ele>609.858703613</ele>
        <time>2015-09-10T08:29:12.188Z</time>
      </trkpt>
      <trkpt lat="46.08031" lon="4.6067">
        <ele>608.418334961</ele>
        <time>2015-09-10T08:29:20.231Z</time>
      </trkpt>
      <trkpt lat="46.0803" lon="4.6067">
        <ele>608.241333008</ele>
        <time>2015-09-10T08:29:21.219Z</time>
      </trkpt>
      <trkpt lat="46.08021" lon="4.6067">
        <ele>607.075073242</ele>
        <time>2015-09-10T08:29:27.239Z</time>
      </trkpt>
      <trkpt lat="46.0802" lon="4.60669">
        <ele>606.860107422</ele>
        <time>2015-09-10T08:29:28.19Z</time>
      </trkpt>
      <trkpt lat="46.08012" lon="4.60666">
        <ele>605.914916992</ele>
        <time>2015-09-10T08:29:33.238Z</time>
      </trkpt>
      <trkpt lat="46.0801" lon="4.60666">
        <ele>605.733520508</ele>
        <time>2015-09-10T08:29:34.209Z</time>
      </trkpt>
      <trkpt lat="46.08002" lon="4.60662">
        <ele>604.405395508</ele>
        <time>2015-09-10T08:29:41.25Z</time>
      </trkpt>
      <trkpt lat="46.08001" lon="4.60662">
        <ele>604.218261719</ele>
        <time>2015-09-10T08:29:42.207Z</time>
      </trkpt>
      <trkpt lat="46.07993" lon="4.60656">
        <ele>602.976867676</ele>
        <time>2015-09-10T08:29:49.242Z</time>
      </trkpt>
      <trkpt lat="46.07992" lon="4.60656">
        <ele>602.790466309</ele>
        <time>2015-09-10T08:29:50.207Z</time>
      </trkpt>
      <trkpt lat="46.07985" lon="4.6065">
        <ele>601.816894531</ele>
        <time>2015-09-10T08:29:56.234Z</time>
      </trkpt>
      <trkpt lat="46.07983" lon="4.60648">
        <ele>601.663024902</ele>
        <time>2015-09-10T08:29:57.222Z</time>
      </trkpt>
      <trkpt lat="46.07977" lon="4.60641">
        <ele>600.756225586</ele>
        <time>2015-09-10T08:30:03.256Z</time>
      </trkpt>
      <trkpt lat="46.07976" lon="4.6064">
        <ele>600.612243652</ele>
        <time>2015-09-10T08:30:04.198Z</time>
      </trkpt>
      <trkpt lat="46.07971" lon="4.6063">
        <ele>599.238037109</ele>
        <time>2015-09-10T08:30:11.242Z</time>
      </trkpt>
      <trkpt lat="46.0797" lon="4.60628">
        <ele>599.05871582</ele>
        <time>2015-09-10T08:30:12.193Z</time>
      </trkpt>
      <trkpt lat="46.07966" lon="4.60618">
        <ele>597.949279785</ele>
        <time>2015-09-10T08:30:19.26Z</time>
      </trkpt>
      <trkpt lat="46.07966" lon="4.60616">
        <ele>597.791992188</ele>
        <time>2015-09-10T08:30:20.201Z</time>
      </trkpt>
      <trkpt lat="46.07963" lon="4.60605">
        <ele>596.768859863</ele>
        <time>2015-09-10T08:30:26.244Z</time>
      </trkpt>
      <trkpt lat="46.07962" lon="4.60604">
        <ele>596.632385254</ele>
        <time>2015-09-10T08:30:27.212Z</time>
      </trkpt>
      <trkpt lat="46.07959" lon="4.60594">
        <ele>595.846008301</ele>
        <time>2015-09-10T08:30:33.25Z</time>
      </trkpt>
      <trkpt lat="46.07958" lon="4.60591">
        <ele>595.72265625</ele>
        <time>2015-09-10T08:30:34.221Z</time>
      </trkpt>
      <trkpt lat="46.07955" lon="4.60581">
        <ele>594.987731934</ele>
        <time>2015-09-10T08:30:40.231Z</time>
      </trkpt>
      <trkpt lat="46.07955" lon="4.60579">
        <ele>594.869262695</ele>
        <time>2015-09-10T08:30:41.217Z</time>
      </trkpt>
      <trkpt lat="46.07952" lon="4.60567">
        <ele>594.147644043</ele>
        <time>2015-09-10T08:30:49.384Z</time>
      </trkpt>
      <trkpt lat="46.07951" lon="4.60566">
        <ele>594.047424316</ele>
        <time>2015-09-10T08:30:50.211Z</time>
      </trkpt>
      <trkpt lat="46.07948" lon="4.60554">
        <ele>593.513793945</ele>
        <time>2015-09-10T08:30:57.255Z</time>
      </trkpt>
      <trkpt lat="46.07947" lon="4.60553">
        <ele>593.454711914</ele>
        <time>2015-09-10T08:30:58.224Z</time>
      </trkpt>
      <trkpt lat="46.07944" lon="4.60541">
        <ele>593.133117676</ele>
        <time>2015-09-10T08:31:04.223Z</time>
      </trkpt>
      <trkpt lat="46.07944" lon="4.6054">
        <ele>593.064331055</ele>
        <time>2015-09-10T08:31:05.21Z</time>
      </trkpt>
      <trkpt lat="46.07941" lon="4.60529">
        <ele>592.56072998</ele>
        <time>2015-09-10T08:31:12.221Z</time>
      </trkpt>
      <trkpt lat="46.0794" lon="4.60527">
        <ele>592.514648438</ele>
        <time>2015-09-10T08:31:13.198Z</time>
      </trkpt>
      <trkpt lat="46.07937" lon="4.60515">
        <ele>591.989685059</ele>
        <time>2015-09-10T08:31:20.221Z</time>
      </trkpt>
      <trkpt lat="46.07937" lon="4.60513">
        <ele>591.927612305</ele>
        <time>2015-09-10T08:31:21.214Z</time>
      </trkpt>
      <trkpt lat="46.07933" lon="4.60502">
        <ele>591.541564941</ele>
        <time>2015-09-10T08:31:27.253Z</time>
      </trkpt>
      <trkpt lat="46.07933" lon="4.605">
        <ele>591.472045898</ele>
        <time>2015-09-10T08:31:28.199Z</time>
      </trkpt>
      <trkpt lat="46.0793" lon="4.6049">
        <ele>590.990905762</ele>
        <time>2015-09-10T08:31:34.271Z</time>
      </trkpt>
      <trkpt lat="46.07929" lon="4.60488">
        <ele>590.907104492</ele>
        <time>2015-09-10T08:31:35.2Z</time>
      </trkpt>
      <trkpt lat="46.07927" lon="4.60477">
        <ele>590.300842285</ele>
        <time>2015-09-10T08:31:41.258Z</time>
      </trkpt>
      <trkpt lat="46.07927" lon="4.60475">
        <ele>590.178588867</ele>
        <time>2015-09-10T08:31:42.224Z</time>
      </trkpt>
      <trkpt lat="46.07924" lon="4.60464">
        <ele>589.647644043</ele>
        <time>2015-09-10T08:31:48.23Z</time>
      </trkpt>
      <trkpt lat="46.07924" lon="4.60463">
        <ele>589.56854248</ele>
        <time>2015-09-10T08:31:49.218Z</time>
      </trkpt>
      <trkpt lat="46.07923" lon="4.60451">
        <ele>588.969543457</ele>
        <time>2015-09-10T08:31:56.241Z</time>
      </trkpt>
      <trkpt lat="46.07923" lon="4.60449">
        <ele>588.872619629</ele>
        <time>2015-09-10T08:31:57.218Z</time>
      </trkpt>
      <trkpt lat="46.07922" lon="4.60437">
        <ele>588.292541504</ele>
        <time>2015-09-10T08:32:04.227Z</time>
      </trkpt>
      <trkpt lat="46.07922" lon="4.60435">
        <ele>588.21661377</ele>
        <time>2015-09-10T08:32:05.224Z</time>
      </trkpt>
      <trkpt lat="46.07923" lon="4.60423">
        <ele>587.788024902</ele>
        <time>2015-09-10T08:32:12.225Z</time>
      </trkpt>
      <trkpt lat="46.07924" lon="4.60422">
        <ele>587.735168457</ele>
        <time>2015-09-10T08:32:13.221Z</time>
      </trkpt>
      <trkpt lat="46.07926" lon="4.60409">
        <ele>587.539672852</ele>
        <time>2015-09-10T08:32:21.263Z</time>
      </trkpt>
      <trkpt lat="46.07926" lon="4.60408">
        <ele>587.549316406</ele>
        <time>2015-09-10T08:32:22.221Z</time>
      </trkpt>
      <trkpt lat="46.0793" lon="4.60397">
        <ele>587.461547852</ele>
        <time>2015-09-10T08:32:28.257Z</time>
      </trkpt>
      <trkpt lat="46.07931" lon="4.60395">
        <ele>587.457580566</ele>
        <time>2015-09-10T08:32:29.234Z</time>
      </trkpt>
      <trkpt lat="46.07936" lon="4.60386">
        <ele>587.110412598</ele>
        <time>2015-09-10T08:32:34.25Z</time>
      </trkpt>
      <trkpt lat="46.07936" lon="4.60385">
        <ele>587.031311035</ele>
        <time>2015-09-10T08:32:35.206Z</time>
      </trkpt>
      <trkpt lat="46.07942" lon="4.60375">
        <ele>587.268249512</ele>
        <time>2015-09-10T08:32:43.274Z</time>
      </trkpt>
      <trkpt lat="46.07943" lon="4.60373">
        <ele>587.25592041</ele>
        <time>2015-09-10T08:32:44.205Z</time>
      </trkpt>
      <trkpt lat="46.07948" lon="4.60363">
        <ele>587.596923828</ele>
        <time>2015-09-10T08:32:51.265Z</time>
      </trkpt>
      <trkpt lat="46.07949" lon="4.60362">
        <ele>587.671813965</ele>
        <time>2015-09-10T08:32:52.21Z</time>
      </trkpt>
      <trkpt lat="46.07954" lon="4.60352">
        <ele>587.950317383</ele>
        <time>2015-09-10T08:32:59.27Z</time>
      </trkpt>
      <trkpt lat="46.07955" lon="4.6035">
        <ele>587.95501709</ele>
        <time>2015-09-10T08:33:00.207Z</time>
      </trkpt>
      <trkpt lat="46.07959" lon="4.60341">
        <ele>588.394470215</ele>
        <time>2015-09-10T08:33:08.247Z</time>
      </trkpt>
      <trkpt lat="46.0796" lon="4.60339">
        <ele>588.565551758</ele>
        <time>2015-09-10T08:33:09.222Z</time>
      </trkpt>
      <trkpt lat="46.07965" lon="4.6033">
        <ele>589.618286133</ele>
        <time>2015-09-10T08:33:16.236Z</time>
      </trkpt>
      <trkpt lat="46.07966" lon="4.60329">
        <ele>589.777893066</ele>
        <time>2015-09-10T08:33:17.234Z</time>
      </trkpt>
      <trkpt lat="46.07973" lon="4.6032">
        <ele>590.56817627</ele>
        <time>2015-09-10T08:33:24.265Z</time>
      </trkpt>
      <trkpt lat="46.07973" lon="4.6032">
        <ele>590.652709961</ele>
        <time>2015-09-10T08:33:25.208Z</time>
      </trkpt>
      <trkpt lat="46.07979" lon="4.6031">
        <ele>591.327819824</ele>
        <time>2015-09-10T08:33:33.263Z</time>
      </trkpt>
      <trkpt lat="46.0798" lon="4.60309">
        <ele>591.424560547</ele>
        <time>2015-09-10T08:33:34.224Z</time>
      </trkpt>
      <trkpt lat="46.07983" lon="4.60298">
        <ele>592.695922852</ele>
        <time>2015-09-10T08:33:44.236Z</time>
      </trkpt>
      <trkpt lat="46.07984" lon="4.60296">
        <ele>592.77923584</ele>
        <time>2015-09-10T08:33:45.217Z</time>
      </trkpt>
      <trkpt lat="46.07989" lon="4.60287">
        <ele>593.309204102</ele>
        <time>2015-09-10T08:33:51.272Z</time>
      </trkpt>
      <trkpt lat="46.07989" lon="4.60286">
        <ele>593.426452637</ele>
        <time>2015-09-10T08:33:52.211Z</time>
      </trkpt>
      <trkpt lat="46.07992" lon="4.60274">
        <ele>594.56036377</ele>
        <time>2015-09-10T08:34:00.248Z</time>
      </trkpt>
      <trkpt lat="46.07992" lon="4.60273">
        <ele>594.699707031</ele>
        <time>2015-09-10T08:34:01.229Z</time>
      </trkpt>
      <trkpt lat="46.07994" lon="4.60261">
        <ele>595.602539062</ele>
        <time>2015-09-10T08:34:09.228Z</time>
      </trkpt>
      <trkpt lat="46.07994" lon="4.60259">
        <ele>595.682617188</ele>
        <time>2015-09-10T08:34:10.221Z</time>
      </trkpt>
      <trkpt lat="46.07995" lon="4.60247">
        <ele>595.645080566</ele>
        <time>2015-09-10T08:34:16.219Z</time>
      </trkpt>
      <trkpt lat="46.07995" lon="4.60245">
        <ele>595.617431641</ele>
        <time>2015-09-10T08:34:17.212Z</time>
      </trkpt>
      <trkpt lat="46.07995" lon="4.60232">
        <ele>595.413696289</ele>
        <time>2015-09-10T08:34:23.302Z</time>
      </trkpt>
      <trkpt lat="46.07995" lon="4.60231">
        <ele>595.398376465</ele>
        <time>2015-09-10T08:34:24.202Z</time>
      </trkpt>
      <trkpt lat="46.07996" lon="4.60219">
        <ele>595.206420898</ele>
        <time>2015-09-10T08:34:30.233Z</time>
      </trkpt>
      <trkpt lat="46.07995" lon="4.60217">
        <ele>595.239990234</ele>
        <time>2015-09-10T08:34:31.204Z</time>
      </trkpt>
      <trkpt lat="46.07995" lon="4.60205">
        <ele>595.549438477</ele>
        <time>2015-09-10T08:34:38.242Z</time>
      </trkpt>
      <trkpt lat="46.07995" lon="4.60203">
        <ele>595.520263672</ele>
        <time>2015-09-10T08:34:39.226Z</time>
      </trkpt>
      <trkpt lat="46.07993" lon="4.60192">
        <ele>595.508850098</ele>
        <time>2015-09-10T08:34:45.222Z</time>
      </trkpt>
      <trkpt lat="46.07992" lon="4.6019">
        <ele>595.521057129</ele>
        <time>2015-09-10T08:34:46.211Z</time>
      </trkpt>
      <trkpt lat="46.07989" lon="4.6018">
        <ele>595.55657959</ele>
        <time>2015-09-10T08:34:53.244Z</time>
      </trkpt>
      <trkpt lat="46.07989" lon="4.60178">
        <ele>595.554931641</ele>
        <time>2015-09-10T08:34:54.213Z</time>
      </trkpt>
      <trkpt lat="46.07986" lon="4.60166">
        <ele>595.615905762</ele>
        <time>2015-09-10T08:35:01.255Z</time>
      </trkpt>
      <trkpt lat="46.07986" lon="4.60165">
        <ele>595.613708496</ele>
        <time>2015-09-10T08:35:02.206Z</time>
      </trkpt>
      <trkpt lat="46.07982" lon="4.60153">
        <ele>595.813903809</ele>
        <time>2015-09-10T08:35:11.265Z</time>
      </trkpt>
      <trkpt lat="46.07982" lon="4.60152">
        <ele>595.901245117</ele>
        <time>2015-09-10T08:35:12.193Z</time>
      </trkpt>
      <trkpt lat="46.07979" lon="4.6014">
        <ele>596.729187012</ele>
        <time>2015-09-10T08:35:20.227Z</time>
      </trkpt>
      <trkpt lat="46.07979" lon="4.60139">
        <ele>596.870788574</ele>
        <time>2015-09-10T08:35:21.223Z</time>
      </trkpt>
      <trkpt lat="46.07976" lon="4.60128">
        <ele>597.384216309</ele>
        <time>2015-09-10T08:35:27.242Z</time>
      </trkpt>
      <trkpt lat="46.07975" lon="4.60126">
        <ele>597.451904297</ele>
        <time>2015-09-10T08:35:28.192Z</time>
      </trkpt>
      <trkpt lat="46.0797" lon="4.60117">
        <ele>597.868286133</ele>
        <time>2015-09-10T08:35:34.26Z</time>
      </trkpt>
      <trkpt lat="46.0797" lon="4.60115">
        <ele>597.923828125</ele>
        <time>2015-09-10T08:35:35.192Z</time>
      </trkpt>
      <trkpt lat="46.07965" lon="4.60104">
        <ele>598.338623047</ele>
        <time>2015-09-10T08:35:42.248Z</time>
      </trkpt>
      <trkpt lat="46.07964" lon="4.60103">
        <ele>598.393981934</ele>
        <time>2015-09-10T08:35:43.21Z</time>
      </trkpt>
      <trkpt lat="46.0796" lon="4.60093">
        <ele>598.675415039</ele>
        <time>2015-09-10T08:35:50.255Z</time>
      </trkpt>
      <trkpt lat="46.0796" lon="4.60091">
        <ele>598.731750488</ele>
        <time>2015-09-10T08:35:51.212Z</time>
      </trkpt>
      <trkpt lat="46.07955" lon="4.60082">
        <ele>599.143066406</ele>
        <time>2015-09-10T08:35:58.248Z</time>
      </trkpt>
      <trkpt lat="46.07954" lon="4.6008">
        <ele>599.210632324</ele>
        <time>2015-09-10T08:35:59.223Z</time>
      </trkpt>
      <trkpt lat="46.07949" lon="4.60069">
        <ele>599.645935059</ele>
        <time>2015-09-10T08:36:06.234Z</time>
      </trkpt>
      <trkpt lat="46.07948" lon="4.60068">
        <ele>599.707458496</ele>
        <time>2015-09-10T08:36:07.208Z</time>
      </trkpt>
      <trkpt lat="46.07943" lon="4.60058">
        <ele>600.088745117</ele>
        <time>2015-09-10T08:36:14.248Z</time>
      </trkpt>
      <trkpt lat="46.07943" lon="4.60056">
        <ele>600.122253418</ele>
        <time>2015-09-10T08:36:15.221Z</time>
      </trkpt>
      <trkpt lat="46.0794" lon="4.60046">
        <ele>600.756958008</ele>
        <time>2015-09-10T08:36:21.253Z</time>
      </trkpt>
      <trkpt lat="46.07939" lon="4.60044">
        <ele>600.891479492</ele>
        <time>2015-09-10T08:36:22.215Z</time>
      </trkpt>
      <trkpt lat="46.07935" lon="4.60035">
        <ele>601.473388672</ele>
        <time>2015-09-10T08:36:29.243Z</time>
      </trkpt>
      <trkpt lat="46.07934" lon="4.60033">
        <ele>601.555725098</ele>
        <time>2015-09-10T08:36:30.231Z</time>
      </trkpt>
      <trkpt lat="46.07931" lon="4.60023">
        <ele>602.063598633</ele>
        <time>2015-09-10T08:36:37.255Z</time>
      </trkpt>
      <trkpt lat="46.0793" lon="4.60022">
        <ele>602.130737305</ele>
        <time>2015-09-10T08:36:38.21Z</time>
      </trkpt>
      <trkpt lat="46.07925" lon="4.60012">
        <ele>602.861938477</ele>
        <time>2015-09-10T08:36:45.232Z</time>
      </trkpt>
      <trkpt lat="46.07925" lon="4.60011">
        <ele>603.00201416</ele>
        <time>2015-09-10T08:36:46.226Z</time>
      </trkpt>
      <trkpt lat="46.07919" lon="4.60001">
        <ele>604.078613281</ele>
        <time>2015-09-10T08:36:53.245Z</time>
      </trkpt>
      <trkpt lat="46.07918" lon="4.6">
        <ele>604.19140625</ele>
        <time>2015-09-10T08:36:54.224Z</time>
      </trkpt>
      <trkpt lat="46.07913" lon="4.5999">
        <ele>604.848388672</ele>
        <time>2015-09-10T08:37:00.276Z</time>
      </trkpt>
      <trkpt lat="46.07913" lon="4.59989">
        <ele>604.959228516</ele>
        <time>2015-09-10T08:37:01.218Z</time>
      </trkpt>
      <trkpt lat="46.07916" lon="4.59977">
        <ele>607.478027344</ele>
        <time>2015-09-10T08:37:15.238Z</time>
      </trkpt>
      <trkpt lat="46.07916" lon="4.59976">
        <ele>607.684753418</ele>
        <time>2015-09-10T08:37:16.204Z</time>
      </trkpt>
      <trkpt lat="46.0792" lon="4.59966">
        <ele>610.025146484</ele>
        <time>2015-09-10T08:37:25.255Z</time>
      </trkpt>
      <trkpt lat="46.0792" lon="4.59964">
        <ele>610.298400879</ele>
        <time>2015-09-10T08:37:26.223Z</time>
      </trkpt>
      <trkpt lat="46.07924" lon="4.59954">
        <ele>612.313781738</ele>
        <time>2015-09-10T08:37:34.263Z</time>
      </trkpt>
      <trkpt lat="46.07925" lon="4.59953">
        <ele>612.500427246</ele>
        <time>2015-09-10T08:37:35.204Z</time>
      </trkpt>
      <trkpt lat="46.07931" lon="4.59946">
        <ele>613.619628906</ele>
        <time>2015-09-10T08:37:41.256Z</time>
      </trkpt>
      <trkpt lat="46.07932" lon="4.59945">
        <ele>613.803466797</ele>
        <time>2015-09-10T08:37:42.212Z</time>
      </trkpt>
      <trkpt lat="46.07939" lon="4.59938">
        <ele>614.626708984</ele>
        <time>2015-09-10T08:37:47.255Z</time>
      </trkpt>
      <trkpt lat="46.0794" lon="4.59937">
        <ele>614.76159668</ele>
        <time>2015-09-10T08:37:48.207Z</time>
      </trkpt>
      <trkpt lat="46.07946" lon="4.5993">
        <ele>615.82611084</ele>
        <time>2015-09-10T08:37:56.271Z</time>
      </trkpt>
      <trkpt lat="46.07947" lon="4.59929">
        <ele>615.953308105</ele>
        <time>2015-09-10T08:37:57.232Z</time>
      </trkpt>
      <trkpt lat="46.07954" lon="4.59923">
        <ele>616.913879395</ele>
        <time>2015-09-10T08:38:04.244Z</time>
      </trkpt>
      <trkpt lat="46.07955" lon="4.59922">
        <ele>617.071655273</ele>
        <time>2015-09-10T08:38:05.216Z</time>
      </trkpt>
      <trkpt lat="46.0796" lon="4.59912">
        <ele>620.73046875</ele>
        <time>2015-09-10T08:42:30.253Z</time>
      </trkpt>
      <trkpt lat="46.0796" lon="4.59911">
        <ele>620.801940918</ele>
        <time>2015-09-10T08:42:31.223Z</time>
      </trkpt>
      <trkpt lat="46.07966" lon="4.59901">
        <ele>622.6484375</ele>
        <time>2015-09-10T08:42:45.244Z</time>
      </trkpt>
      <trkpt lat="46.07967" lon="4.599">
        <ele>622.776245117</ele>
        <time>2015-09-10T08:42:46.221Z</time>
      </trkpt>
      <trkpt lat="46.07972" lon="4.5989">
        <ele>623.414550781</ele>
        <time>2015-09-10T08:42:52.255Z</time>
      </trkpt>
      <trkpt lat="46.07972" lon="4.59889">
        <ele>623.447631836</ele>
        <time>2015-09-10T08:42:53.218Z</time>
      </trkpt>
      <trkpt lat="46.07974" lon="4.59877">
        <ele>623.090270996</ele>
        <time>2015-09-10T08:43:01.268Z</time>
      </trkpt>
      <trkpt lat="46.07975" lon="4.59876">
        <ele>623.077880859</ele>
        <time>2015-09-10T08:43:02.2Z</time>
      </trkpt>
      <trkpt lat="46.07975" lon="4.59864">
        <ele>622.930908203</ele>
        <time>2015-09-10T08:43:09.277Z</time>
      </trkpt>
      <trkpt lat="46.07975" lon="4.59862">
        <ele>622.903137207</ele>
        <time>2015-09-10T08:43:10.216Z</time>
      </trkpt>
      <trkpt lat="46.07975" lon="4.59851">
        <ele>622.860595703</ele>
        <time>2015-09-10T08:43:16.248Z</time>
      </trkpt>
      <trkpt lat="46.07975" lon="4.59848">
        <ele>622.828674316</ele>
        <time>2015-09-10T08:43:17.219Z</time>
      </trkpt>
      <trkpt lat="46.07974" lon="4.59837">
        <ele>622.65802002</ele>
        <time>2015-09-10T08:43:26.249Z</time>
      </trkpt>
      <trkpt lat="46.07973" lon="4.59834">
        <ele>622.600524902</ele>
        <time>2015-09-10T08:43:27.202Z</time>
      </trkpt>
      <trkpt lat="46.0797" lon="4.59823">
        <ele>621.940063477</ele>
        <time>2015-09-10T08:43:35.223Z</time>
      </trkpt>
      <trkpt lat="46.0797" lon="4.5982">
        <ele>621.815307617</ele>
        <time>2015-09-10T08:43:36.219Z</time>
      </trkpt>
      <trkpt lat="46.07968" lon="4.59807">
        <ele>620.960327148</ele>
        <time>2015-09-10T08:43:42.27Z</time>
      </trkpt>
      <trkpt lat="46.07968" lon="4.59806">
        <ele>620.804504395</ele>
        <time>2015-09-10T08:43:43.206Z</time>
      </trkpt>
      <trkpt lat="46.07964" lon="4.59795">
        <ele>619.322143555</ele>
        <time>2015-09-10T08:43:53.255Z</time>
      </trkpt>
      <trkpt lat="46.07963" lon="4.59793">
        <ele>619.203308105</ele>
        <time>2015-09-10T08:43:54.215Z</time>
      </trkpt>
      <trkpt lat="46.07961" lon="4.59781">
        <ele>618.486450195</ele>
        <time>2015-09-10T08:44:00.254Z</time>
      </trkpt>
      <trkpt lat="46.0796" lon="4.59779">
        <ele>618.43157959</ele>
        <time>2015-09-10T08:44:01.222Z</time>
      </trkpt>
      <trkpt lat="46.07957" lon="4.59768">
        <ele>617.915283203</ele>
        <time>2015-09-10T08:44:09.252Z</time>
      </trkpt>
      <trkpt lat="46.07957" lon="4.59767">
        <ele>617.902038574</ele>
        <time>2015-09-10T08:44:10.22Z</time>
      </trkpt>
      <trkpt lat="46.07952" lon="4.59757">
        <ele>617.904541016</ele>
        <time>2015-09-10T08:44:16.253Z</time>
      </trkpt>
      <trkpt lat="46.07952" lon="4.59755">
        <ele>617.980957031</ele>
        <time>2015-09-10T08:44:17.226Z</time>
      </trkpt>
      <trkpt lat="46.07949" lon="4.59743">
        <ele>618.131286621</ele>
        <time>2015-09-10T08:44:23.233Z</time>
      </trkpt>
      <trkpt lat="46.07948" lon="4.59742">
        <ele>618.119934082</ele>
        <time>2015-09-10T08:44:24.222Z</time>
      </trkpt>
      <trkpt lat="46.07943" lon="4.59733">
        <ele>617.877624512</ele>
        <time>2015-09-10T08:44:31.234Z</time>
      </trkpt>
      <trkpt lat="46.07943" lon="4.59731">
        <ele>617.798034668</ele>
        <time>2015-09-10T08:44:32.226Z</time>
      </trkpt>
      <trkpt lat="46.07938" lon="4.5972">
        <ele>617.521728516</ele>
        <time>2015-09-10T08:44:39.433Z</time>
      </trkpt>
      <trkpt lat="46.07938" lon="4.59719">
        <ele>617.534240723</ele>
        <time>2015-09-10T08:44:40.221Z</time>
      </trkpt>
      <trkpt lat="46.07933" lon="4.59709">
        <ele>617.589477539</ele>
        <time>2015-09-10T08:44:47.21Z</time>
      </trkpt>
      <trkpt lat="46.07933" lon="4.59707">
        <ele>617.598754883</ele>
        <time>2015-09-10T08:44:48.198Z</time>
      </trkpt>
      <trkpt lat="46.07928" lon="4.59696">
        <ele>617.099914551</ele>
        <time>2015-09-10T08:44:57.252Z</time>
      </trkpt>
      <trkpt lat="46.07927" lon="4.59695">
        <ele>616.971130371</ele>
        <time>2015-09-10T08:44:58.208Z</time>
      </trkpt>
      <trkpt lat="46.07925" lon="4.59684">
        <ele>616.243591309</ele>
        <time>2015-09-10T08:45:04.243Z</time>
      </trkpt>
      <trkpt lat="46.07924" lon="4.59683">
        <ele>616.195007324</ele>
        <time>2015-09-10T08:45:05.204Z</time>
      </trkpt>
      <trkpt lat="46.0792" lon="4.59671">
        <ele>615.909851074</ele>
        <time>2015-09-10T08:45:12.236Z</time>
      </trkpt>
      <trkpt lat="46.0792" lon="4.59671">
        <ele>615.913513184</ele>
        <time>2015-09-10T08:45:13.199Z</time>
      </trkpt>
      <trkpt lat="46.0792" lon="4.59659">
        <ele>615.98449707</ele>
        <time>2015-09-10T08:45:19.347Z</time>
      </trkpt>
      <trkpt lat="46.0792" lon="4.59656">
        <ele>616.057861328</ele>
        <time>2015-09-10T08:45:20.186Z</time>
      </trkpt>
      <trkpt lat="46.0792" lon="4.59645">
        <ele>615.786621094</ele>
        <time>2015-09-10T08:45:25.245Z</time>
      </trkpt>
      <trkpt lat="46.0792" lon="4.59643">
        <ele>615.694763184</ele>
        <time>2015-09-10T08:45:26.223Z</time>
      </trkpt>
      <trkpt lat="46.0792" lon="4.59631">
        <ele>615.586303711</ele>
        <time>2015-09-10T08:45:31.226Z</time>
      </trkpt>
      <trkpt lat="46.0792" lon="4.5963">
        <ele>615.653625488</ele>
        <time>2015-09-10T08:45:32.195Z</time>
      </trkpt>
      <trkpt lat="46.0792" lon="4.59618">
        <ele>615.887634277</ele>
        <time>2015-09-10T08:45:38.233Z</time>
      </trkpt>
      <trkpt lat="46.0792" lon="4.59616">
        <ele>615.960449219</ele>
        <time>2015-09-10T08:45:39.192Z</time>
      </trkpt>
      <trkpt lat="46.07921" lon="4.59603">
        <ele>616.487060547</ele>
        <time>2015-09-10T08:45:47.238Z</time>
      </trkpt>
      <trkpt lat="46.07921" lon="4.59603">
        <ele>616.545349121</ele>
        <time>2015-09-10T08:45:48.214Z</time>
      </trkpt>
      <trkpt lat="46.0792" lon="4.59591">
        <ele>616.82598877</ele>
        <time>2015-09-10T08:45:56.255Z</time>
      </trkpt>
      <trkpt lat="46.0792" lon="4.59589">
        <ele>616.853271484</ele>
        <time>2015-09-10T08:45:57.208Z</time>
      </trkpt>
      <trkpt lat="46.07921" lon="4.59578">
        <ele>616.578125</ele>
        <time>2015-09-10T08:46:02.242Z</time>
      </trkpt>
      <trkpt lat="46.07921" lon="4.59575">
        <ele>616.55670166</ele>
        <time>2015-09-10T08:46:03.193Z</time>
      </trkpt>
      <trkpt lat="46.07922" lon="4.59564">
        <ele>616.474121094</ele>
        <time>2015-09-10T08:46:08.236Z</time>
      </trkpt>
      <trkpt lat="46.07922" lon="4.59561">
        <ele>616.492004395</ele>
        <time>2015-09-10T08:46:09.222Z</time>
      </trkpt>
      <trkpt lat="46.07924" lon="4.5955">
        <ele>616.127502441</ele>
        <time>2015-09-10T08:46:13.246Z</time>
      </trkpt>
      <trkpt lat="46.07924" lon="4.59548">
        <ele>616.042236328</ele>
        <time>2015-09-10T08:46:14.218Z</time>
      </trkpt>
      <trkpt lat="46.07927" lon="4.59537">
        <ele>615.801452637</ele>
        <time>2015-09-10T08:46:21.246Z</time>
      </trkpt>
      <trkpt lat="46.07927" lon="4.59534">
        <ele>615.735595703</ele>
        <time>2015-09-10T08:46:22.214Z</time>
      </trkpt>
      <trkpt lat="46.07929" lon="4.59522">
        <ele>614.991577148</ele>
        <time>2015-09-10T08:46:28.256Z</time>
      </trkpt>
      <trkpt lat="46.0793" lon="4.59521">
        <ele>615.014526367</ele>
        <time>2015-09-10T08:46:29.214Z</time>
      </trkpt>
      <trkpt lat="46.07933" lon="4.59509">
        <ele>615.761535645</ele>
        <time>2015-09-10T08:46:39.309Z</time>
      </trkpt>
      <trkpt lat="46.07933" lon="4.59507">
        <ele>615.895629883</ele>
        <time>2015-09-10T08:46:40.202Z</time>
      </trkpt>
      <trkpt lat="46.07936" lon="4.59494">
        <ele>616.313110352</ele>
        <time>2015-09-10T08:46:47.22Z</time>
      </trkpt>
      <trkpt lat="46.07937" lon="4.59493">
        <ele>616.2890625</ele>
        <time>2015-09-10T08:46:48.207Z</time>
      </trkpt>
      <trkpt lat="46.07938" lon="4.59482">
        <ele>616.29699707</ele>
        <time>2015-09-10T08:46:54.241Z</time>
      </trkpt>
      <trkpt lat="46.07939" lon="4.5948">
        <ele>616.310546875</ele>
        <time>2015-09-10T08:46:55.194Z</time>
      </trkpt>
      <trkpt lat="46.07939" lon="4.59468">
        <ele>616.549499512</ele>
        <time>2015-09-10T08:47:03.23Z</time>
      </trkpt>
      <trkpt lat="46.07939" lon="4.59466">
        <ele>616.487426758</ele>
        <time>2015-09-10T08:47:04.209Z</time>
      </trkpt>
      <trkpt lat="46.0794" lon="4.59456">
        <ele>616.054443359</ele>
        <time>2015-09-10T08:47:08.264Z</time>
      </trkpt>
      <trkpt lat="46.0794" lon="4.59453">
        <ele>615.913513184</ele>
        <time>2015-09-10T08:47:09.225Z</time>
      </trkpt>
      <trkpt lat="46.0794" lon="4.59441">
        <ele>615.196350098</ele>
        <time>2015-09-10T08:47:21.253Z</time>
      </trkpt>
      <trkpt lat="46.0794" lon="4.5944">
        <ele>615.231811523</ele>
        <time>2015-09-10T08:47:22.215Z</time>
      </trkpt>
      <trkpt lat="46.07938" lon="4.59427">
        <ele>614.921875</ele>
        <time>2015-09-10T08:47:29.26Z</time>
      </trkpt>
      <trkpt lat="46.07938" lon="4.59426">
        <ele>614.901550293</ele>
        <time>2015-09-10T08:47:30.206Z</time>
      </trkpt>
      <trkpt lat="46.07936" lon="4.59415">
        <ele>614.99822998</ele>
        <time>2015-09-10T08:47:37.25Z</time>
      </trkpt>
      <trkpt lat="46.07936" lon="4.59413">
        <ele>615.05078125</ele>
        <time>2015-09-10T08:47:38.222Z</time>
      </trkpt>
      <trkpt lat="46.07935" lon="4.594">
        <ele>615.454772949</ele>
        <time>2015-09-10T08:47:43.223Z</time>
      </trkpt>
      <trkpt lat="46.07934" lon="4.59399">
        <ele>615.512695312</ele>
        <time>2015-09-10T08:47:44.203Z</time>
      </trkpt>
      <trkpt lat="46.07933" lon="4.59387">
        <ele>615.867797852</ele>
        <time>2015-09-10T08:47:53.248Z</time>
      </trkpt>
      <trkpt lat="46.07933" lon="4.59385">
        <ele>615.840209961</ele>
        <time>2015-09-10T08:47:54.212Z</time>
      </trkpt>
      <trkpt lat="46.07932" lon="4.59374">
        <ele>615.378112793</ele>
        <time>2015-09-10T08:48:01.263Z</time>
      </trkpt>
      <trkpt lat="46.07932" lon="4.59372">
        <ele>615.239074707</ele>
        <time>2015-09-10T08:48:02.215Z</time>
      </trkpt>
      <trkpt lat="46.07931" lon="4.5936">
        <ele>614.498291016</ele>
        <time>2015-09-10T08:48:07.237Z</time>
      </trkpt>
      <trkpt lat="46.0793" lon="4.59358">
        <ele>614.344055176</ele>
        <time>2015-09-10T08:48:08.215Z</time>
      </trkpt>
      <trkpt lat="46.0793" lon="4.59348">
        <ele>614.323791504</ele>
        <time>2015-09-10T08:48:15.241Z</time>
      </trkpt>
      <trkpt lat="46.0793" lon="4.59345">
        <ele>614.220153809</ele>
        <time>2015-09-10T08:48:16.217Z</time>
      </trkpt>
      <trkpt lat="46.0793" lon="4.59333">
        <ele>613.939331055</ele>
        <time>2015-09-10T08:48:22.248Z</time>
      </trkpt>
      <trkpt lat="46.07931" lon="4.5933">
        <ele>613.933349609</ele>
        <time>2015-09-10T08:48:23.2Z</time>
      </trkpt>
      <trkpt lat="46.07932" lon="4.59318">
        <ele>614.162414551</ele>
        <time>2015-09-10T08:48:28.252Z</time>
      </trkpt>
      <trkpt lat="46.07932" lon="4.59315">
        <ele>614.173034668</ele>
        <time>2015-09-10T08:48:29.225Z</time>
      </trkpt>
      <trkpt lat="46.07935" lon="4.59303">
        <ele>613.645690918</ele>
        <time>2015-09-10T08:48:36.386Z</time>
      </trkpt>
      <trkpt lat="46.07935" lon="4.59302">
        <ele>613.533569336</ele>
        <time>2015-09-10T08:48:37.216Z</time>
      </trkpt>
      <trkpt lat="46.07935" lon="4.59291">
        <ele>612.90020752</ele>
        <time>2015-09-10T08:48:43.228Z</time>
      </trkpt>
      <trkpt lat="46.07936" lon="4.59288">
        <ele>612.755371094</ele>
        <time>2015-09-10T08:48:44.216Z</time>
      </trkpt>
      <trkpt lat="46.07938" lon="4.59276">
        <ele>612.620849609</ele>
        <time>2015-09-10T08:48:52.263Z</time>
      </trkpt>
      <trkpt lat="46.07938" lon="4.59273">
        <ele>612.682495117</ele>
        <time>2015-09-10T08:48:53.236Z</time>
      </trkpt>
      <trkpt lat="46.0794" lon="4.59261">
        <ele>612.971069336</ele>
        <time>2015-09-10T08:48:58.252Z</time>
      </trkpt>
      <trkpt lat="46.0794" lon="4.59258">
        <ele>613.004455566</ele>
        <time>2015-09-10T08:48:59.202Z</time>
      </trkpt>
      <trkpt lat="46.07941" lon="4.59246">
        <ele>613.002075195</ele>
        <time>2015-09-10T08:49:09.254Z</time>
      </trkpt>
      <trkpt lat="46.07941" lon="4.59243">
        <ele>613.033630371</ele>
        <time>2015-09-10T08:49:10.218Z</time>
      </trkpt>
      <trkpt lat="46.07942" lon="4.59231">
        <ele>613.173706055</ele>
        <time>2015-09-10T08:49:16.277Z</time>
      </trkpt>
      <trkpt lat="46.07942" lon="4.59229">
        <ele>613.241333008</ele>
        <time>2015-09-10T08:49:17.218Z</time>
      </trkpt>
      <trkpt lat="46.07944" lon="4.59217">
        <ele>614.18145752</ele>
        <time>2015-09-10T08:49:25.26Z</time>
      </trkpt>
      <trkpt lat="46.07944" lon="4.59215">
        <ele>614.251831055</ele>
        <time>2015-09-10T08:49:26.227Z</time>
      </trkpt>
      <trkpt lat="46.07945" lon="4.59203">
        <ele>614.378967285</ele>
        <time>2015-09-10T08:49:32.262Z</time>
      </trkpt>
      <trkpt lat="46.07946" lon="4.59201">
        <ele>614.31237793</ele>
        <time>2015-09-10T08:49:33.219Z</time>
      </trkpt>
      <trkpt lat="46.07948" lon="4.59189">
        <ele>613.579528809</ele>
        <time>2015-09-10T08:49:37.275Z</time>
      </trkpt>
      <trkpt lat="46.07949" lon="4.59188">
        <ele>613.426086426</ele>
        <time>2015-09-10T08:49:38.222Z</time>
      </trkpt>
      <trkpt lat="46.07951" lon="4.59176">
        <ele>611.834594727</ele>
        <time>2015-09-10T08:49:46.282Z</time>
      </trkpt>
      <trkpt lat="46.07952" lon="4.59174">
        <ele>611.693847656</ele>
        <time>2015-09-10T08:49:47.208Z</time>
      </trkpt>
      <trkpt lat="46.07956" lon="4.59166">
        <ele>610.517211914</ele>
        <time>2015-09-10T08:49:58.232Z</time>
      </trkpt>
      <trkpt lat="46.07959" lon="4.59166">
        <ele>610.403564453</ele>
        <time>2015-09-10T08:49:59.2Z</time>
      </trkpt>
      <trkpt lat="46.07967" lon="4.59162">
        <ele>609.589660645</ele>
        <time>2015-09-10T08:50:06.233Z</time>
      </trkpt>
      <trkpt lat="46.07968" lon="4.59162">
        <ele>609.486206055</ele>
        <time>2015-09-10T08:50:07.189Z</time>
      </trkpt>
      <trkpt lat="46.07976" lon="4.59158">
        <ele>609.228027344</ele>
        <time>2015-09-10T08:50:14.251Z</time>
      </trkpt>
      <trkpt lat="46.07977" lon="4.59158">
        <ele>609.198242188</ele>
        <time>2015-09-10T08:50:15.187Z</time>
      </trkpt>
      <trkpt lat="46.07985" lon="4.59155">
        <ele>608.864440918</ele>
        <time>2015-09-10T08:50:22.234Z</time>
      </trkpt>
      <trkpt lat="46.07987" lon="4.59155">
        <ele>608.768493652</ele>
        <time>2015-09-10T08:50:23.184Z</time>
      </trkpt>
      <trkpt lat="46.07995" lon="4.59152">
        <ele>608.503540039</ele>
        <time>2015-09-10T08:50:29.238Z</time>
      </trkpt>
      <trkpt lat="46.07996" lon="4.59152">
        <ele>608.509887695</ele>
        <time>2015-09-10T08:50:30.184Z</time>
      </trkpt>
      <trkpt lat="46.08005" lon="4.59151">
        <ele>608.66229248</ele>
        <time>2015-09-10T08:50:37.235Z</time>
      </trkpt>
      <trkpt lat="46.08006" lon="4.5915">
        <ele>608.675964355</ele>
        <time>2015-09-10T08:50:38.199Z</time>
      </trkpt>
      <trkpt lat="46.08014" lon="4.59146">
        <ele>608.656188965</ele>
        <time>2015-09-10T08:50:45.208Z</time>
      </trkpt>
      <trkpt lat="46.08015" lon="4.59146">
        <ele>608.629394531</ele>
        <time>2015-09-10T08:50:46.2Z</time>
      </trkpt>
      <trkpt lat="46.08021" lon="4.59137">
        <ele>608.712463379</ele>
        <time>2015-09-10T08:50:57.255Z</time>
      </trkpt>
      <trkpt lat="46.08021" lon="4.59136">
        <ele>608.687927246</ele>
        <time>2015-09-10T08:50:58.204Z</time>
      </trkpt>
      <trkpt lat="46.08016" lon="4.59126">
        <ele>608.137145996</ele>
        <time>2015-09-10T08:51:09.241Z</time>
      </trkpt>
      <trkpt lat="46.08015" lon="4.59124">
        <ele>608.085693359</ele>
        <time>2015-09-10T08:51:10.214Z</time>
      </trkpt>
      <trkpt lat="46.08011" lon="4.59115">
        <ele>607.976379395</ele>
        <time>2015-09-10T08:51:17.267Z</time>
      </trkpt>
      <trkpt lat="46.0801" lon="4.59114">
        <ele>607.981018066</ele>
        <time>2015-09-10T08:51:18.214Z</time>
      </trkpt>
      <trkpt lat="46.08008" lon="4.59101">
        <ele>608.139953613</ele>
        <time>2015-09-10T08:51:27.223Z</time>
      </trkpt>
      <trkpt lat="46.08009" lon="4.59101">
        <ele>608.156860352</ele>
        <time>2015-09-10T08:51:28.206Z</time>
      </trkpt>
      <trkpt lat="46.08017" lon="4.59096">
        <ele>608.467102051</ele>
        <time>2015-09-10T08:51:37.246Z</time>
      </trkpt>
      <trkpt lat="46.08019" lon="4.59097">
        <ele>608.507202148</ele>
        <time>2015-09-10T08:51:38.211Z</time>
      </trkpt>
      <trkpt lat="46.08026" lon="4.59103">
        <ele>608.708374023</ele>
        <time>2015-09-10T08:51:45.211Z</time>
      </trkpt>
      <trkpt lat="46.08027" lon="4.59104">
        <ele>608.707336426</ele>
        <time>2015-09-10T08:51:46.198Z</time>
      </trkpt>
      <trkpt lat="46.08034" lon="4.59109">
        <ele>608.702331543</ele>
        <time>2015-09-10T08:51:53.242Z</time>
      </trkpt>
      <trkpt lat="46.08035" lon="4.5911">
        <ele>608.734863281</ele>
        <time>2015-09-10T08:51:54.207Z</time>
      </trkpt>
      <trkpt lat="46.08043" lon="4.59113">
        <ele>608.995178223</ele>
        <time>2015-09-10T08:52:01.259Z</time>
      </trkpt>
      <trkpt lat="46.08045" lon="4.59113">
        <ele>609.039611816</ele>
        <time>2015-09-10T08:52:02.207Z</time>
      </trkpt>
      <trkpt lat="46.08053" lon="4.59117">
        <ele>609.319030762</ele>
        <time>2015-09-10T08:52:10.243Z</time>
      </trkpt>
      <trkpt lat="46.08054" lon="4.59117">
        <ele>609.353393555</ele>
        <time>2015-09-10T08:52:11.191Z</time>
      </trkpt>
      <trkpt lat="46.08062" lon="4.59116">
        <ele>609.86505127</ele>
        <time>2015-09-10T08:52:19.253Z</time>
      </trkpt>
      <trkpt lat="46.08063" lon="4.59115">
        <ele>609.926635742</ele>
        <time>2015-09-10T08:52:20.192Z</time>
      </trkpt>
      <trkpt lat="46.08071" lon="4.59112">
        <ele>610.496032715</ele>
        <time>2015-09-10T08:52:29.262Z</time>
      </trkpt>
      <trkpt lat="46.08072" lon="4.59111">
        <ele>610.559631348</ele>
        <time>2015-09-10T08:52:30.21Z</time>
      </trkpt>
      <trkpt lat="46.0808" lon="4.5911">
        <ele>611.238952637</ele>
        <time>2015-09-10T08:52:38.245Z</time>
      </trkpt>
      <trkpt lat="46.08081" lon="4.5911">
        <ele>611.323852539</ele>
        <time>2015-09-10T08:52:39.194Z</time>
      </trkpt>
      <trkpt lat="46.08089" lon="4.59109">
        <ele>612.038452148</ele>
        <time>2015-09-10T08:52:46.258Z</time>
      </trkpt>
      <trkpt lat="46.08091" lon="4.59109">
        <ele>612.162719727</ele>
        <time>2015-09-10T08:52:47.203Z</time>
      </trkpt>
      <trkpt lat="46.08099" lon="4.59111">
        <ele>613.080871582</ele>
        <time>2015-09-10T08:52:55.22Z</time>
      </trkpt>
      <trkpt lat="46.081" lon="4.59111">
        <ele>613.169372559</ele>
        <time>2015-09-10T08:52:56.215Z</time>
      </trkpt>
      <trkpt lat="46.08109" lon="4.59112">
        <ele>614.179443359</ele>
        <time>2015-09-10T08:53:05.242Z</time>
      </trkpt>
      <trkpt lat="46.0811" lon="4.59112">
        <ele>614.300964355</ele>
        <time>2015-09-10T08:53:06.211Z</time>
      </trkpt>
      <trkpt lat="46.08118" lon="4.59113">
        <ele>615.80682373</ele>
        <time>2015-09-10T08:53:15.259Z</time>
      </trkpt>
      <trkpt lat="46.0812" lon="4.59113">
        <ele>615.988769531</ele>
        <time>2015-09-10T08:53:16.217Z</time>
      </trkpt>
      <trkpt lat="46.08128" lon="4.59115">
        <ele>617.54699707</ele>
        <time>2015-09-10T08:53:23.228Z</time>
      </trkpt>
      <trkpt lat="46.08129" lon="4.59115">
        <ele>617.798706055</ele>
        <time>2015-09-10T08:53:24.212Z</time>
      </trkpt>
      <trkpt lat="46.08138" lon="4.59119">
        <ele>619.037109375</ele>
        <time>2015-09-10T08:53:31.227Z</time>
      </trkpt>
      <trkpt lat="46.08139" lon="4.59119">
        <ele>619.141601562</ele>
        <time>2015-09-10T08:53:32.211Z</time>
      </trkpt>
      <trkpt lat="46.08146" lon="4.59124">
        <ele>620.054443359</ele>
        <time>2015-09-10T08:53:40.252Z</time>
      </trkpt>
      <trkpt lat="46.08147" lon="4.59125">
        <ele>620.178161621</ele>
        <time>2015-09-10T08:53:41.21Z</time>
      </trkpt>
      <trkpt lat="46.08155" lon="4.59128">
        <ele>620.882080078</ele>
        <time>2015-09-10T08:53:48.263Z</time>
      </trkpt>
      <trkpt lat="46.08156" lon="4.59129">
        <ele>620.93157959</ele>
        <time>2015-09-10T08:53:49.212Z</time>
      </trkpt>
      <trkpt lat="46.08164" lon="4.59131">
        <ele>621.644958496</ele>
        <time>2015-09-10T08:53:57.252Z</time>
      </trkpt>
      <trkpt lat="46.08165" lon="4.59132">
        <ele>621.741516113</ele>
        <time>2015-09-10T08:53:58.217Z</time>
      </trkpt>
      <trkpt lat="46.08173" lon="4.59132">
        <ele>622.364562988</ele>
        <time>2015-09-10T08:54:07.25Z</time>
      </trkpt>
      <trkpt lat="46.08174" lon="4.59132">
        <ele>622.421081543</ele>
        <time>2015-09-10T08:54:08.213Z</time>
      </trkpt>
      <trkpt lat="46.08182" lon="4.59128">
        <ele>622.875366211</ele>
        <time>2015-09-10T08:54:16.268Z</time>
      </trkpt>
      <trkpt lat="46.08183" lon="4.59127">
        <ele>622.967529297</ele>
        <time>2015-09-10T08:54:17.224Z</time>
      </trkpt>
      <trkpt lat="46.0819" lon="4.59121">
        <ele>623.793273926</ele>
        <time>2015-09-10T08:54:27.263Z</time>
      </trkpt>
      <trkpt lat="46.0819" lon="4.5912">
        <ele>623.912658691</ele>
        <time>2015-09-10T08:54:28.225Z</time>
      </trkpt>
      <trkpt lat="46.08197" lon="4.59112">
        <ele>625.009643555</ele>
        <time>2015-09-10T08:54:37.274Z</time>
      </trkpt>
      <trkpt lat="46.08198" lon="4.59112">
        <ele>625.136535645</ele>
        <time>2015-09-10T08:54:38.222Z</time>
      </trkpt>
      <trkpt lat="46.08204" lon="4.59104">
        <ele>626.656005859</ele>
        <time>2015-09-10T08:54:48.265Z</time>
      </trkpt>
      <trkpt lat="46.08205" lon="4.59103">
        <ele>626.757385254</ele>
        <time>2015-09-10T08:54:49.224Z</time>
      </trkpt>
      <trkpt lat="46.08212" lon="4.59096">
        <ele>627.259460449</ele>
        <time>2015-09-10T08:54:58.26Z</time>
      </trkpt>
      <trkpt lat="46.08213" lon="4.59095">
        <ele>627.377197266</ele>
        <time>2015-09-10T08:54:59.217Z</time>
      </trkpt>
      <trkpt lat="46.0822" lon="4.5909">
        <ele>629.774719238</ele>
        <time>2015-09-10T08:55:10.274Z</time>
      </trkpt>
      <trkpt lat="46.08221" lon="4.59089">
        <ele>630.050170898</ele>
        <time>2015-09-10T08:55:11.183Z</time>
      </trkpt>
      <trkpt lat="46.08228" lon="4.59082">
        <ele>631.796020508</ele>
        <time>2015-09-10T08:55:19.224Z</time>
      </trkpt>
      <trkpt lat="46.08228" lon="4.59081">
        <ele>632.06036377</ele>
        <time>2015-09-10T08:55:20.193Z</time>
      </trkpt>
      <trkpt lat="46.08236" lon="4.59075">
        <ele>634.170898438</ele>
        <time>2015-09-10T08:55:29.25Z</time>
      </trkpt>
      <trkpt lat="46.08237" lon="4.59075">
        <ele>634.352416992</ele>
        <time>2015-09-10T08:55:30.194Z</time>
      </trkpt>
      <trkpt lat="46.08246" lon="4.59072">
        <ele>635.280090332</ele>
        <time>2015-09-10T08:55:37.238Z</time>
      </trkpt>
      <trkpt lat="46.08247" lon="4.59071">
        <ele>635.415893555</ele>
        <time>2015-09-10T08:55:38.206Z</time>
      </trkpt>
      <trkpt lat="46.08254" lon="4.59069">
        <ele>636.512817383</ele>
        <time>2015-09-10T08:55:46.224Z</time>
      </trkpt>
      <trkpt lat="46.08255" lon="4.59068">
        <ele>636.658691406</ele>
        <time>2015-09-10T08:55:47.184Z</time>
      </trkpt>
      <trkpt lat="46.08263" lon="4.59064">
        <ele>637.865234375</ele>
        <time>2015-09-10T08:55:55.216Z</time>
      </trkpt>
      <trkpt lat="46.08264" lon="4.59063">
        <ele>638.013244629</ele>
        <time>2015-09-10T08:55:56.21Z</time>
      </trkpt>
      <trkpt lat="46.08271" lon="4.59058">
        <ele>639.096984863</ele>
        <time>2015-09-10T08:56:04.241Z</time>
      </trkpt>
      <trkpt lat="46.08272" lon="4.59058">
        <ele>639.216369629</ele>
        <time>2015-09-10T08:56:05.184Z</time>
      </trkpt>
      <trkpt lat="46.0828" lon="4.59053">
        <ele>640.80065918</ele>
        <time>2015-09-10T08:56:15.216Z</time>
      </trkpt>
      <trkpt lat="46.08281" lon="4.59052">
        <ele>641.004394531</ele>
        <time>2015-09-10T08:56:16.202Z</time>
      </trkpt>
      <trkpt lat="46.08281" lon="4.5904">
        <ele>642.564819336</ele>
        <time>2015-09-10T08:56:28.29Z</time>
      </trkpt>
      <trkpt lat="46.08281" lon="4.59039">
        <ele>642.736206055</ele>
        <time>2015-09-10T08:56:29.206Z</time>
      </trkpt>
      <trkpt lat="46.08276" lon="4.59028">
        <ele>644.14642334</ele>
        <time>2015-09-10T08:56:38.268Z</time>
      </trkpt>
      <trkpt lat="46.08276" lon="4.59028">
        <ele>644.338745117</ele>
        <time>2015-09-10T08:56:39.206Z</time>
      </trkpt>
      <trkpt lat="46.08269" lon="4.59019">
        <ele>645.804016113</ele>
        <time>2015-09-10T08:56:48.252Z</time>
      </trkpt>
      <trkpt lat="46.08268" lon="4.59018">
        <ele>645.964416504</ele>
        <time>2015-09-10T08:56:49.206Z</time>
      </trkpt>
      <trkpt lat="46.08263" lon="4.59007">
        <ele>647.316162109</ele>
        <time>2015-09-10T08:56:58.249Z</time>
      </trkpt>
      <trkpt lat="46.08263" lon="4.59006">
        <ele>647.540039062</ele>
        <time>2015-09-10T08:56:59.187Z</time>
      </trkpt>
      <trkpt lat="46.08261" lon="4.58994">
        <ele>649.454040527</ele>
        <time>2015-09-10T08:57:09.249Z</time>
      </trkpt>
      <trkpt lat="46.08261" lon="4.58993">
        <ele>649.643066406</ele>
        <time>2015-09-10T08:57:10.214Z</time>
      </trkpt>
      <trkpt lat="46.08259" lon="4.5898">
        <ele>651.105773926</ele>
        <time>2015-09-10T08:57:18.242Z</time>
      </trkpt>
      <trkpt lat="46.08259" lon="4.58978">
        <ele>651.158447266</ele>
        <time>2015-09-10T08:57:19.189Z</time>
      </trkpt>
      <trkpt lat="46.08259" lon="4.58967">
        <ele>651.833190918</ele>
        <time>2015-09-10T08:57:25.26Z</time>
      </trkpt>
      <trkpt lat="46.08259" lon="4.58964">
        <ele>652.008422852</ele>
        <time>2015-09-10T08:57:26.207Z</time>
      </trkpt>
      <trkpt lat="46.08259" lon="4.58952">
        <ele>653.81072998</ele>
        <time>2015-09-10T08:57:38.253Z</time>
      </trkpt>
      <trkpt lat="46.08259" lon="4.58951">
        <ele>654.022338867</ele>
        <time>2015-09-10T08:57:39.195Z</time>
      </trkpt>
      <trkpt lat="46.08257" lon="4.58939">
        <ele>655.725646973</ele>
        <time>2015-09-10T08:57:48.238Z</time>
      </trkpt>
      <trkpt lat="46.08257" lon="4.58937">
        <ele>655.958190918</ele>
        <time>2015-09-10T08:57:49.208Z</time>
      </trkpt>
      <trkpt lat="46.08256" lon="4.58926">
        <ele>657.947570801</ele>
        <time>2015-09-10T08:57:58.262Z</time>
      </trkpt>
      <trkpt lat="46.08256" lon="4.58924">
        <ele>658.156677246</ele>
        <time>2015-09-10T08:57:59.205Z</time>
      </trkpt>
      <trkpt lat="46.08257" lon="4.58912">
        <ele>659.639526367</ele>
        <time>2015-09-10T08:58:08.249Z</time>
      </trkpt>
      <trkpt lat="46.08257" lon="4.58911">
        <ele>659.807373047</ele>
        <time>2015-09-10T08:58:09.192Z</time>
      </trkpt>
      <trkpt lat="46.08256" lon="4.58898">
        <ele>661.235168457</ele>
        <time>2015-09-10T08:58:17.225Z</time>
      </trkpt>
      <trkpt lat="46.08256" lon="4.58897">
        <ele>661.431030273</ele>
        <time>2015-09-10T08:58:18.208Z</time>
      </trkpt>
      <trkpt lat="46.08254" lon="4.58885">
        <ele>663.27557373</ele>
        <time>2015-09-10T08:58:28.25Z</time>
      </trkpt>
      <trkpt lat="46.08254" lon="4.58884">
        <ele>663.445068359</ele>
        <time>2015-09-10T08:58:29.195Z</time>
      </trkpt>
      <trkpt lat="46.08249" lon="4.58874">
        <ele>665.103942871</ele>
        <time>2015-09-10T08:58:38.25Z</time>
      </trkpt>
      <trkpt lat="46.08249" lon="4.58873">
        <ele>665.288146973</ele>
        <time>2015-09-10T08:58:39.221Z</time>
      </trkpt>
      <trkpt lat="46.08246" lon="4.5886">
        <ele>666.464172363</ele>
        <time>2015-09-10T08:58:46.249Z</time>
      </trkpt>
      <trkpt lat="46.08246" lon="4.58859">
        <ele>666.654785156</ele>
        <time>2015-09-10T08:58:47.223Z</time>
      </trkpt>
      <trkpt lat="46.08245" lon="4.58848">
        <ele>668.79119873</ele>
        <time>2015-09-10T08:58:59.245Z</time>
      </trkpt>
      <trkpt lat="46.08244" lon="4.58846">
        <ele>668.919433594</ele>
        <time>2015-09-10T08:59:00.212Z</time>
      </trkpt>
      <trkpt lat="46.08243" lon="4.58834">
        <ele>670.020935059</ele>
        <time>2015-09-10T08:59:08.266Z</time>
      </trkpt>
      <trkpt lat="46.08243" lon="4.58833">
        <ele>670.205383301</ele>
        <time>2015-09-10T08:59:09.213Z</time>
      </trkpt>
      <trkpt lat="46.08242" lon="4.5882">
        <ele>671.884521484</ele>
        <time>2015-09-10T08:59:17.224Z</time>
      </trkpt>
      <trkpt lat="46.08242" lon="4.58818">
        <ele>672.118896484</ele>
        <time>2015-09-10T08:59:18.213Z</time>
      </trkpt>
      <trkpt lat="46.08241" lon="4.58805">
        <ele>673.989868164</ele>
        <time>2015-09-10T08:59:28.266Z</time>
      </trkpt>
      <trkpt lat="46.08241" lon="4.58804">
        <ele>674.121887207</ele>
        <time>2015-09-10T08:59:29.205Z</time>
      </trkpt>
      <trkpt lat="46.08242" lon="4.58792">
        <ele>674.90625</ele>
        <time>2015-09-10T08:59:36.25Z</time>
      </trkpt>
      <trkpt lat="46.08242" lon="4.5879">
        <ele>675.119262695</ele>
        <time>2015-09-10T08:59:37.2Z</time>
      </trkpt>
      <trkpt lat="46.08241" lon="4.58778">
        <ele>676.361572266</ele>
        <time>2015-09-10T08:59:45.266Z</time>
      </trkpt>
      <trkpt lat="46.08241" lon="4.58776">
        <ele>676.506774902</ele>
        <time>2015-09-10T08:59:46.214Z</time>
      </trkpt>
      <trkpt lat="46.08241" lon="4.58764">
        <ele>678.341918945</ele>
        <time>2015-09-10T08:59:57.228Z</time>
      </trkpt>
      <trkpt lat="46.08242" lon="4.58763">
        <ele>678.545593262</ele>
        <time>2015-09-10T08:59:58.215Z</time>
      </trkpt>
      <trkpt lat="46.0824" lon="4.58752">
        <ele>679.814697266</ele>
        <time>2015-09-10T09:00:04.254Z</time>
      </trkpt>
      <trkpt lat="46.0824" lon="4.5875">
        <ele>679.980163574</ele>
        <time>2015-09-10T09:00:05.207Z</time>
      </trkpt>
      <trkpt lat="46.08239" lon="4.58738">
        <ele>681.258789062</ele>
        <time>2015-09-10T09:00:14.265Z</time>
      </trkpt>
      <trkpt lat="46.08239" lon="4.58737">
        <ele>681.391540527</ele>
        <time>2015-09-10T09:00:15.216Z</time>
      </trkpt>
      <trkpt lat="46.08238" lon="4.58725">
        <ele>682.379089355</ele>
        <time>2015-09-10T09:00:23.248Z</time>
      </trkpt>
      <trkpt lat="46.08238" lon="4.58723">
        <ele>682.507751465</ele>
        <time>2015-09-10T09:00:24.196Z</time>
      </trkpt>
      <trkpt lat="46.08239" lon="4.58711">
        <ele>683.761230469</ele>
        <time>2015-09-10T09:00:32.227Z</time>
      </trkpt>
      <trkpt lat="46.08239" lon="4.5871">
        <ele>683.928222656</ele>
        <time>2015-09-10T09:00:33.179Z</time>
      </trkpt>
      <trkpt lat="46.08243" lon="4.58701">
        <ele>685.794067383</ele>
        <time>2015-09-10T09:00:44.249Z</time>
      </trkpt>
      <trkpt lat="46.08245" lon="4.58699">
        <ele>685.946411133</ele>
        <time>2015-09-10T09:00:45.197Z</time>
      </trkpt>
      <trkpt lat="46.08252" lon="4.58691">
        <ele>687.391235352</ele>
        <time>2015-09-10T09:00:54.236Z</time>
      </trkpt>
      <trkpt lat="46.08252" lon="4.5869">
        <ele>687.715026855</ele>
        <time>2015-09-10T09:00:55.205Z</time>
      </trkpt>
      <trkpt lat="46.08253" lon="4.58679">
        <ele>689.645690918</ele>
        <time>2015-09-10T09:01:04.303Z</time>
      </trkpt>
      <trkpt lat="46.08253" lon="4.58677">
        <ele>689.746276855</ele>
        <time>2015-09-10T09:01:05.195Z</time>
      </trkpt>
      <trkpt lat="46.08254" lon="4.58665">
        <ele>690.453735352</ele>
        <time>2015-09-10T09:01:15.219Z</time>
      </trkpt>
      <trkpt lat="46.08254" lon="4.58664">
        <ele>690.520202637</ele>
        <time>2015-09-10T09:01:16.197Z</time>
      </trkpt>
      <trkpt lat="46.08248" lon="4.58655">
        <ele>692.015197754</ele>
        <time>2015-09-10T09:01:31.211Z</time>
      </trkpt>
      <trkpt lat="46.08247" lon="4.58654">
        <ele>692.089050293</ele>
        <time>2015-09-10T09:01:32.194Z</time>
      </trkpt>
      <trkpt lat="46.0824" lon="4.58658">
        <ele>693.571838379</ele>
        <time>2015-09-10T09:01:45.22Z</time>
      </trkpt>
      <trkpt lat="46.08239" lon="4.58659">
        <ele>693.690307617</ele>
        <time>2015-09-10T09:01:46.195Z</time>
      </trkpt>
      <trkpt lat="46.0823" lon="4.58663">
        <ele>694.834655762</ele>
        <time>2015-09-10T09:01:55.205Z</time>
      </trkpt>
      <trkpt lat="46.0823" lon="4.58663">
        <ele>694.995117188</ele>
        <time>2015-09-10T09:01:56.197Z</time>
      </trkpt>
      <trkpt lat="46.08221" lon="4.58666">
        <ele>696.426574707</ele>
        <time>2015-09-10T09:02:06.247Z</time>
      </trkpt>
      <trkpt lat="46.0822" lon="4.58667">
        <ele>696.607543945</ele>
        <time>2015-09-10T09:02:07.186Z</time>
      </trkpt>
      <trkpt lat="46.08211" lon="4.58667">
        <ele>698.66595459</ele>
        <time>2015-09-10T09:02:17.254Z</time>
      </trkpt>
      <trkpt lat="46.08211" lon="4.58667">
        <ele>698.934631348</ele>
        <time>2015-09-10T09:02:18.212Z</time>
      </trkpt>
      <trkpt lat="46.08206" lon="4.58656">
        <ele>701.662353516</ele>
        <time>2015-09-10T09:04:49.282Z</time>
      </trkpt>
      <trkpt lat="46.08206" lon="4.58656">
        <ele>701.655029297</ele>
        <time>2015-09-10T09:04:50.212Z</time>
      </trkpt>
      <trkpt lat="46.08201" lon="4.58645">
        <ele>702.537536621</ele>
        <time>2015-09-10T09:06:41.226Z</time>
      </trkpt>
      <trkpt lat="46.08201" lon="4.58644">
        <ele>702.618041992</ele>
        <time>2015-09-10T09:06:42.202Z</time>
      </trkpt>
      <trkpt lat="46.08197" lon="4.58634">
        <ele>703.467163086</ele>
        <time>2015-09-10T09:06:54.22Z</time>
      </trkpt>
      <trkpt lat="46.08196" lon="4.58633">
        <ele>703.600036621</ele>
        <time>2015-09-10T09:06:55.198Z</time>
      </trkpt>
      <trkpt lat="46.08192" lon="4.58622">
        <ele>704.75201416</ele>
        <time>2015-09-10T09:07:07.258Z</time>
      </trkpt>
      <trkpt lat="46.08192" lon="4.5862">
        <ele>704.891906738</ele>
        <time>2015-09-10T09:07:08.203Z</time>
      </trkpt>
      <trkpt lat="46.08192" lon="4.58609">
        <ele>705.776428223</ele>
        <time>2015-09-10T09:07:16.24Z</time>
      </trkpt>
      <trkpt lat="46.08191" lon="4.58607">
        <ele>705.87701416</ele>
        <time>2015-09-10T09:07:17.184Z</time>
      </trkpt>
      <trkpt lat="46.0819" lon="4.58595">
        <ele>706.960266113</ele>
        <time>2015-09-10T09:07:27.258Z</time>
      </trkpt>
      <trkpt lat="46.0819" lon="4.58594">
        <ele>707.068908691</ele>
        <time>2015-09-10T09:07:28.199Z</time>
      </trkpt>
      <trkpt lat="46.08188" lon="4.58582">
        <ele>708.245361328</ele>
        <time>2015-09-10T09:07:38.247Z</time>
      </trkpt>
      <trkpt lat="46.08188" lon="4.5858">
        <ele>708.355041504</ele>
        <time>2015-09-10T09:07:39.204Z</time>
      </trkpt>
      <trkpt lat="46.08185" lon="4.5857">
        <ele>709.36706543</ele>
        <time>2015-09-10T09:07:48.245Z</time>
      </trkpt>
      <trkpt lat="46.08185" lon="4.58568">
        <ele>709.48046875</ele>
        <time>2015-09-10T09:07:49.202Z</time>
      </trkpt>
      <trkpt lat="46.08181" lon="4.58558">
        <ele>710.473754883</ele>
        <time>2015-09-10T09:07:58.25Z</time>
      </trkpt>
      <trkpt lat="46.08181" lon="4.58557">
        <ele>710.575012207</ele>
        <time>2015-09-10T09:07:59.2Z</time>
      </trkpt>
      <trkpt lat="46.0818" lon="4.58544">
        <ele>711.477905273</ele>
        <time>2015-09-10T09:08:09.249Z</time>
      </trkpt>
      <trkpt lat="46.0818" lon="4.58543">
        <ele>711.563171387</ele>
        <time>2015-09-10T09:08:10.188Z</time>
      </trkpt>
      <trkpt lat="46.08189" lon="4.58541">
        <ele>712.602294922</ele>
        <time>2015-09-10T09:08:33.219Z</time>
      </trkpt>
      <trkpt lat="46.0819" lon="4.58541">
        <ele>712.68737793</ele>
        <time>2015-09-10T09:08:34.207Z</time>
      </trkpt>
      <trkpt lat="46.08198" lon="4.58537">
        <ele>713.432861328</ele>
        <time>2015-09-10T09:08:43.242Z</time>
      </trkpt>
      <trkpt lat="46.08199" lon="4.58536">
        <ele>713.512451172</ele>
        <time>2015-09-10T09:08:44.207Z</time>
      </trkpt>
      <trkpt lat="46.08207" lon="4.5853">
        <ele>714.252502441</ele>
        <time>2015-09-10T09:08:52.241Z</time>
      </trkpt>
      <trkpt lat="46.08208" lon="4.58529">
        <ele>714.352172852</ele>
        <time>2015-09-10T09:08:53.191Z</time>
      </trkpt>
      <trkpt lat="46.08215" lon="4.58522">
        <ele>715.093078613</ele>
        <time>2015-09-10T09:09:01.232Z</time>
      </trkpt>
      <trkpt lat="46.08216" lon="4.58521">
        <ele>715.188964844</ele>
        <time>2015-09-10T09:09:02.206Z</time>
      </trkpt>
      <trkpt lat="46.08223" lon="4.58515">
        <ele>715.903991699</ele>
        <time>2015-09-10T09:09:10.235Z</time>
      </trkpt>
      <trkpt lat="46.08224" lon="4.58514">
        <ele>715.994018555</ele>
        <time>2015-09-10T09:09:11.213Z</time>
      </trkpt>
      <trkpt lat="46.08232" lon="4.58509">
        <ele>716.708068848</ele>
        <time>2015-09-10T09:09:19.234Z</time>
      </trkpt>
      <trkpt lat="46.08233" lon="4.58508">
        <ele>716.799194336</ele>
        <time>2015-09-10T09:09:20.195Z</time>
      </trkpt>
      <trkpt lat="46.08241" lon="4.58503">
        <ele>717.589416504</ele>
        <time>2015-09-10T09:09:28.243Z</time>
      </trkpt>
      <trkpt lat="46.08241" lon="4.58503">
        <ele>717.704772949</ele>
        <time>2015-09-10T09:09:29.193Z</time>
      </trkpt>
      <trkpt lat="46.08248" lon="4.58497">
        <ele>718.659790039</ele>
        <time>2015-09-10T09:09:38.265Z</time>
      </trkpt>
      <trkpt lat="46.08249" lon="4.58497">
        <ele>718.773803711</ele>
        <time>2015-09-10T09:09:39.206Z</time>
      </trkpt>
      <trkpt lat="46.08257" lon="4.58491">
        <ele>719.901794434</ele>
        <time>2015-09-10T09:09:48.247Z</time>
      </trkpt>
      <trkpt lat="46.08258" lon="4.58491">
        <ele>720.019714355</ele>
        <time>2015-09-10T09:09:49.198Z</time>
      </trkpt>
      <trkpt lat="46.08263" lon="4.5848">
        <ele>721.50177002</ele>
        <time>2015-09-10T09:10:00.221Z</time>
      </trkpt>
      <trkpt lat="46.08264" lon="4.5848">
        <ele>721.655883789</ele>
        <time>2015-09-10T09:10:01.201Z</time>
      </trkpt>
      <trkpt lat="46.08267" lon="4.58469">
        <ele>723.264465332</ele>
        <time>2015-09-10T09:10:10.25Z</time>
      </trkpt>
      <trkpt lat="46.08268" lon="4.58468">
        <ele>723.428771973</ele>
        <time>2015-09-10T09:10:11.212Z</time>
      </trkpt>
      <trkpt lat="46.08275" lon="4.58459">
        <ele>725.181884766</ele>
        <time>2015-09-10T09:10:20.241Z</time>
      </trkpt>
      <trkpt lat="46.08275" lon="4.58459">
        <ele>725.389587402</ele>
        <time>2015-09-10T09:10:21.2Z</time>
      </trkpt>
      <trkpt lat="46.08283" lon="4.58452">
        <ele>727.173217773</ele>
        <time>2015-09-10T09:10:31.25Z</time>
      </trkpt>
      <trkpt lat="46.08284" lon="4.58451">
        <ele>727.357849121</ele>
        <time>2015-09-10T09:10:32.229Z</time>
      </trkpt>
      <trkpt lat="46.08291" lon="4.58445">
        <ele>729.098205566</ele>
        <time>2015-09-10T09:10:42.256Z</time>
      </trkpt>
      <trkpt lat="46.08292" lon="4.58445">
        <ele>729.297546387</ele>
        <time>2015-09-10T09:10:43.214Z</time>
      </trkpt>
      <trkpt lat="46.083" lon="4.58442">
        <ele>731.012939453</ele>
        <time>2015-09-10T09:10:53.201Z</time>
      </trkpt>
      <trkpt lat="46.08301" lon="4.58442">
        <ele>731.177978516</ele>
        <time>2015-09-10T09:10:54.193Z</time>
      </trkpt>
      <trkpt lat="46.08309" lon="4.58438">
        <ele>732.720825195</ele>
        <time>2015-09-10T09:11:03.241Z</time>
      </trkpt>
      <trkpt lat="46.0831" lon="4.58438">
        <ele>732.886474609</ele>
        <time>2015-09-10T09:11:04.197Z</time>
      </trkpt>
      <trkpt lat="46.08318" lon="4.58433">
        <ele>734.618041992</ele>
        <time>2015-09-10T09:11:14.241Z</time>
      </trkpt>
      <trkpt lat="46.08319" lon="4.58433">
        <ele>734.788757324</ele>
        <time>2015-09-10T09:11:15.196Z</time>
      </trkpt>
      <trkpt lat="46.08327" lon="4.58431">
        <ele>736.244018555</ele>
        <time>2015-09-10T09:11:23.238Z</time>
      </trkpt>
      <trkpt lat="46.08328" lon="4.5843">
        <ele>736.432128906</ele>
        <time>2015-09-10T09:11:24.181Z</time>
      </trkpt>
      <trkpt lat="46.08335" lon="4.58422">
        <ele>737.977539062</ele>
        <time>2015-09-10T09:11:33.224Z</time>
      </trkpt>
      <trkpt lat="46.08335" lon="4.58421">
        <ele>738.119873047</ele>
        <time>2015-09-10T09:11:34.203Z</time>
      </trkpt>
      <trkpt lat="46.08341" lon="4.58413">
        <ele>739.33404541</ele>
        <time>2015-09-10T09:11:43.232Z</time>
      </trkpt>
      <trkpt lat="46.08342" lon="4.58411">
        <ele>739.494018555</ele>
        <time>2015-09-10T09:11:44.182Z</time>
      </trkpt>
      <trkpt lat="46.08349" lon="4.58404">
        <ele>740.984741211</ele>
        <time>2015-09-10T09:11:53.233Z</time>
      </trkpt>
      <trkpt lat="46.08349" lon="4.58403">
        <ele>741.129272461</ele>
        <time>2015-09-10T09:11:54.207Z</time>
      </trkpt>
      <trkpt lat="46.08356" lon="4.58396">
        <ele>743.024902344</ele>
        <time>2015-09-10T09:12:17.228Z</time>
      </trkpt>
      <trkpt lat="46.08357" lon="4.58395">
        <ele>743.184020996</ele>
        <time>2015-09-10T09:12:18.202Z</time>
      </trkpt>
      <trkpt lat="46.08365" lon="4.58389">
        <ele>744.929504395</ele>
        <time>2015-09-10T09:12:27.25Z</time>
      </trkpt>
      <trkpt lat="46.08365" lon="4.58388">
        <ele>745.12109375</ele>
        <time>2015-09-10T09:12:28.181Z</time>
      </trkpt>
      <trkpt lat="46.08374" lon="4.58384">
        <ele>746.880432129</ele>
        <time>2015-09-10T09:12:39.239Z</time>
      </trkpt>
      <trkpt lat="46.08374" lon="4.58383">
        <ele>747.04095459</ele>
        <time>2015-09-10T09:12:40.201Z</time>
      </trkpt>
      <trkpt lat="46.08383" lon="4.5838">
        <ele>748.386291504</ele>
        <time>2015-09-10T09:12:49.219Z</time>
      </trkpt>
      <trkpt lat="46.08383" lon="4.58379">
        <ele>748.52557373</ele>
        <time>2015-09-10T09:12:50.193Z</time>
      </trkpt>
      <trkpt lat="46.08391" lon="4.58375">
        <ele>749.906555176</ele>
        <time>2015-09-10T09:13:00.267Z</time>
      </trkpt>
      <trkpt lat="46.08392" lon="4.58375">
        <ele>750.025939941</ele>
        <time>2015-09-10T09:13:01.198Z</time>
      </trkpt>
      <trkpt lat="46.084" lon="4.58372">
        <ele>750.979614258</ele>
        <time>2015-09-10T09:13:09.255Z</time>
      </trkpt>
      <trkpt lat="46.08402" lon="4.58372">
        <ele>751.124145508</ele>
        <time>2015-09-10T09:13:10.185Z</time>
      </trkpt>
      <trkpt lat="46.0841" lon="4.58369">
        <ele>752.494812012</ele>
        <time>2015-09-10T09:13:20.351Z</time>
      </trkpt>
      <trkpt lat="46.08411" lon="4.58369">
        <ele>752.614685059</ele>
        <time>2015-09-10T09:13:21.206Z</time>
      </trkpt>
      <trkpt lat="46.0842" lon="4.58368">
        <ele>753.685791016</ele>
        <time>2015-09-10T09:13:30.213Z</time>
      </trkpt>
      <trkpt lat="46.08421" lon="4.58368">
        <ele>753.817810059</ele>
        <time>2015-09-10T09:13:31.206Z</time>
      </trkpt>
      <trkpt lat="46.08429" lon="4.58367">
        <ele>754.72668457</ele>
        <time>2015-09-10T09:13:39.262Z</time>
      </trkpt>
      <trkpt lat="46.0843" lon="4.58368">
        <ele>754.832824707</ele>
        <time>2015-09-10T09:13:40.215Z</time>
      </trkpt>
      <trkpt lat="46.08438" lon="4.58368">
        <ele>755.676452637</ele>
        <time>2015-09-10T09:13:48.271Z</time>
      </trkpt>
      <trkpt lat="46.08439" lon="4.58368">
        <ele>755.767578125</ele>
        <time>2015-09-10T09:13:49.21Z</time>
      </trkpt>
      <trkpt lat="46.08448" lon="4.58368">
        <ele>756.346801758</ele>
        <time>2015-09-10T09:13:58.215Z</time>
      </trkpt>
      <trkpt lat="46.08449" lon="4.58368">
        <ele>756.385925293</ele>
        <time>2015-09-10T09:13:59.203Z</time>
      </trkpt>
      <trkpt lat="46.08457" lon="4.58366">
        <ele>756.78302002</ele>
        <time>2015-09-10T09:14:05.298Z</time>
      </trkpt>
      <trkpt lat="46.08458" lon="4.58366">
        <ele>756.858581543</ele>
        <time>2015-09-10T09:14:06.189Z</time>
      </trkpt>
      <trkpt lat="46.08466" lon="4.58364">
        <ele>757.366333008</ele>
        <time>2015-09-10T09:14:14.258Z</time>
      </trkpt>
      <trkpt lat="46.08467" lon="4.58364">
        <ele>757.409362793</ele>
        <time>2015-09-10T09:14:15.214Z</time>
      </trkpt>
      <trkpt lat="46.08475" lon="4.58362">
        <ele>757.816040039</ele>
        <time>2015-09-10T09:14:23.256Z</time>
      </trkpt>
      <trkpt lat="46.08477" lon="4.58361">
        <ele>757.871826172</ele>
        <time>2015-09-10T09:14:24.212Z</time>
      </trkpt>
      <trkpt lat="46.08485" lon="4.5836">
        <ele>758.39855957</ele>
        <time>2015-09-10T09:14:33.255Z</time>
      </trkpt>
      <trkpt lat="46.08486" lon="4.5836">
        <ele>758.448303223</ele>
        <time>2015-09-10T09:14:34.19Z</time>
      </trkpt>
      <trkpt lat="46.08491" lon="4.5835">
        <ele>759.755737305</ele>
        <time>2015-09-10T09:15:20.28Z</time>
      </trkpt>
      <trkpt lat="46.08491" lon="4.5835">
        <ele>759.825927734</ele>
        <time>2015-09-10T09:15:21.224Z</time>
      </trkpt>
      <trkpt lat="46.08497" lon="4.58342">
        <ele>760.177978516</ele>
        <time>2015-09-10T09:15:37.234Z</time>
      </trkpt>
      <trkpt lat="46.08498" lon="4.58341">
        <ele>760.190002441</ele>
        <time>2015-09-10T09:15:38.218Z</time>
      </trkpt>
      <trkpt lat="46.08504" lon="4.58333">
        <ele>760.422363281</ele>
        <time>2015-09-10T09:15:50.257Z</time>
      </trkpt>
      <trkpt lat="46.08504" lon="4.58332">
        <ele>760.460144043</ele>
        <time>2015-09-10T09:15:51.198Z</time>
      </trkpt>
      <trkpt lat="46.08511" lon="4.58323">
        <ele>760.65246582</ele>
        <time>2015-09-10T09:16:00.256Z</time>
      </trkpt>
      <trkpt lat="46.08512" lon="4.58322">
        <ele>760.690673828</ele>
        <time>2015-09-10T09:16:01.221Z</time>
      </trkpt>
      <trkpt lat="46.08517" lon="4.58314">
        <ele>760.569702148</ele>
        <time>2015-09-10T09:16:09.249Z</time>
      </trkpt>
      <trkpt lat="46.08518" lon="4.58312">
        <ele>760.537109375</ele>
        <time>2015-09-10T09:16:10.192Z</time>
      </trkpt>
      <trkpt lat="46.08525" lon="4.58305">
        <ele>760.326721191</ele>
        <time>2015-09-10T09:16:18.224Z</time>
      </trkpt>
      <trkpt lat="46.08526" lon="4.58304">
        <ele>760.296813965</ele>
        <time>2015-09-10T09:16:19.177Z</time>
      </trkpt>
      <trkpt lat="46.08533" lon="4.58296">
        <ele>760.01361084</ele>
        <time>2015-09-10T09:16:28.239Z</time>
      </trkpt>
      <trkpt lat="46.08534" lon="4.58296">
        <ele>759.967834473</ele>
        <time>2015-09-10T09:16:29.174Z</time>
      </trkpt>
      <trkpt lat="46.08542" lon="4.58291">
        <ele>759.491394043</ele>
        <time>2015-09-10T09:16:38.236Z</time>
      </trkpt>
      <trkpt lat="46.08542" lon="4.58291">
        <ele>759.439025879</ele>
        <time>2015-09-10T09:16:39.178Z</time>
      </trkpt>
      <trkpt lat="46.08549" lon="4.58285">
        <ele>758.69720459</ele>
        <time>2015-09-10T09:17:50.244Z</time>
      </trkpt>
      <trkpt lat="46.0855" lon="4.58284">
        <ele>758.620056152</ele>
        <time>2015-09-10T09:17:51.18Z</time>
      </trkpt>
      <trkpt lat="46.08557" lon="4.58278">
        <ele>758.258728027</ele>
        <time>2015-09-10T09:18:02.259Z</time>
      </trkpt>
      <trkpt lat="46.08558" lon="4.58277">
        <ele>758.186950684</ele>
        <time>2015-09-10T09:18:03.184Z</time>
      </trkpt>
      <trkpt lat="46.08565" lon="4.58272">
        <ele>757.48046875</ele>
        <time>2015-09-10T09:18:12.253Z</time>
      </trkpt>
      <trkpt lat="46.08566" lon="4.58271">
        <ele>757.303955078</ele>
        <time>2015-09-10T09:18:13.199Z</time>
      </trkpt>
      <trkpt lat="46.08573" lon="4.58265">
        <ele>756.52355957</ele>
        <time>2015-09-10T09:18:20.235Z</time>
      </trkpt>
      <trkpt lat="46.08575" lon="4.58264">
        <ele>756.529846191</ele>
        <time>2015-09-10T09:18:21.206Z</time>
      </trkpt>
      <trkpt lat="46.08583" lon="4.5826">
        <ele>756.502563477</ele>
        <time>2015-09-10T09:18:29.256Z</time>
      </trkpt>
      <trkpt lat="46.08585" lon="4.5826">
        <ele>756.48651123</ele>
        <time>2015-09-10T09:18:30.203Z</time>
      </trkpt>
      <trkpt lat="46.08593" lon="4.58256">
        <ele>756.367614746</ele>
        <time>2015-09-10T09:18:38.242Z</time>
      </trkpt>
      <trkpt lat="46.08594" lon="4.58254">
        <ele>756.337890625</ele>
        <time>2015-09-10T09:18:39.185Z</time>
      </trkpt>
      <trkpt lat="46.08603" lon="4.58249">
        <ele>755.576171875</ele>
        <time>2015-09-10T09:18:47.22Z</time>
      </trkpt>
      <trkpt lat="46.08604" lon="4.58249">
        <ele>755.501281738</ele>
        <time>2015-09-10T09:18:48.205Z</time>
      </trkpt>
      <trkpt lat="46.08611" lon="4.58245">
        <ele>754.954101562</ele>
        <time>2015-09-10T09:18:54.235Z</time>
      </trkpt>
      <trkpt lat="46.08612" lon="4.58245">
        <ele>754.831542969</ele>
        <time>2015-09-10T09:18:55.186Z</time>
      </trkpt>
      <trkpt lat="46.0862" lon="4.58244">
        <ele>754.117736816</ele>
        <time>2015-09-10T09:19:01.247Z</time>
      </trkpt>
      <trkpt lat="46.08622" lon="4.58244">
        <ele>753.979675293</ele>
        <time>2015-09-10T09:19:02.217Z</time>
      </trkpt>
      <trkpt lat="46.08631" lon="4.58244">
        <ele>753.413513184</ele>
        <time>2015-09-10T09:19:10.254Z</time>
      </trkpt>
      <trkpt lat="46.08632" lon="4.58244">
        <ele>753.339172363</ele>
        <time>2015-09-10T09:19:11.187Z</time>
      </trkpt>
      <trkpt lat="46.0864" lon="4.58243">
        <ele>753.107849121</ele>
        <time>2015-09-10T09:19:20.245Z</time>
      </trkpt>
      <trkpt lat="46.08641" lon="4.58242">
        <ele>753.070678711</ele>
        <time>2015-09-10T09:19:21.212Z</time>
      </trkpt>
      <trkpt lat="46.08649" lon="4.58241">
        <ele>752.729736328</ele>
        <time>2015-09-10T09:19:28.253Z</time>
      </trkpt>
      <trkpt lat="46.0865" lon="4.5824">
        <ele>752.621826172</ele>
        <time>2015-09-10T09:19:29.203Z</time>
      </trkpt>
      <trkpt lat="46.08659" lon="4.58238">
        <ele>752.065368652</ele>
        <time>2015-09-10T09:19:36.256Z</time>
      </trkpt>
      <trkpt lat="46.0866" lon="4.58238">
        <ele>751.94519043</ele>
        <time>2015-09-10T09:19:37.211Z</time>
      </trkpt>
      <trkpt lat="46.08667" lon="4.58237">
        <ele>751.613708496</ele>
        <time>2015-09-10T09:19:43.214Z</time>
      </trkpt>
      <trkpt lat="46.08669" lon="4.58237">
        <ele>751.595825195</ele>
        <time>2015-09-10T09:19:44.207Z</time>
      </trkpt>
      <trkpt lat="46.08678" lon="4.58235">
        <ele>750.945556641</ele>
        <time>2015-09-10T09:19:53.246Z</time>
      </trkpt>
      <trkpt lat="46.08679" lon="4.58234">
        <ele>750.915100098</ele>
        <time>2015-09-10T09:19:54.204Z</time>
      </trkpt>
      <trkpt lat="46.08686" lon="4.58228">
        <ele>750.64453125</ele>
        <time>2015-09-10T09:20:03.232Z</time>
      </trkpt>
      <trkpt lat="46.08687" lon="4.58227">
        <ele>750.575256348</ele>
        <time>2015-09-10T09:20:04.205Z</time>
      </trkpt>
      <trkpt lat="46.08695" lon="4.58222">
        <ele>750.123474121</ele>
        <time>2015-09-10T09:20:11.216Z</time>
      </trkpt>
      <trkpt lat="46.08696" lon="4.58221">
        <ele>750.070129395</ele>
        <time>2015-09-10T09:20:12.206Z</time>
      </trkpt>
      <trkpt lat="46.08703" lon="4.58214">
        <ele>749.424133301</ele>
        <time>2015-09-10T09:20:22.289Z</time>
      </trkpt>
      <trkpt lat="46.08703" lon="4.58213">
        <ele>749.376403809</ele>
        <time>2015-09-10T09:20:23.206Z</time>
      </trkpt>
      <trkpt lat="46.08707" lon="4.58202">
        <ele>748.117919922</ele>
        <time>2015-09-10T09:20:34.258Z</time>
      </trkpt>
      <trkpt lat="46.08707" lon="4.58201">
        <ele>747.971069336</ele>
        <time>2015-09-10T09:20:35.193Z</time>
      </trkpt>
      <trkpt lat="46.08712" lon="4.58191">
        <ele>747.003417969</ele>
        <time>2015-09-10T09:20:44.317Z</time>
      </trkpt>
      <trkpt lat="46.08713" lon="4.5819">
        <ele>746.924560547</ele>
        <time>2015-09-10T09:20:45.224Z</time>
      </trkpt>
      <trkpt lat="46.0872" lon="4.58184">
        <ele>746.374816895</ele>
        <time>2015-09-10T09:20:53.253Z</time>
      </trkpt>
      <trkpt lat="46.08721" lon="4.58183">
        <ele>746.333984375</ele>
        <time>2015-09-10T09:20:54.207Z</time>
      </trkpt>
      <trkpt lat="46.08729" lon="4.58178">
        <ele>746.000549316</ele>
        <time>2015-09-10T09:21:05.216Z</time>
      </trkpt>
      <trkpt lat="46.08729" lon="4.58177">
        <ele>745.978271484</ele>
        <time>2015-09-10T09:21:06.218Z</time>
      </trkpt>
      <trkpt lat="46.08737" lon="4.58172">
        <ele>745.924560547</ele>
        <time>2015-09-10T09:21:21.219Z</time>
      </trkpt>
      <trkpt lat="46.08738" lon="4.58172">
        <ele>745.944580078</ele>
        <time>2015-09-10T09:21:22.19Z</time>
      </trkpt>
      <trkpt lat="46.08745" lon="4.58165">
        <ele>745.948059082</ele>
        <time>2015-09-10T09:21:34.224Z</time>
      </trkpt>
      <trkpt lat="46.08745" lon="4.58164">
        <ele>745.940795898</ele>
        <time>2015-09-10T09:21:35.194Z</time>
      </trkpt>
      <trkpt lat="46.08752" lon="4.58156">
        <ele>745.621276855</ele>
        <time>2015-09-10T09:21:49.238Z</time>
      </trkpt>
      <trkpt lat="46.08752" lon="4.58155">
        <ele>745.610595703</ele>
        <time>2015-09-10T09:21:50.19Z</time>
      </trkpt>
      <trkpt lat="46.08758" lon="4.58147">
        <ele>745.72454834</ele>
        <time>2015-09-10T09:21:59.247Z</time>
      </trkpt>
      <trkpt lat="46.08759" lon="4.58146">
        <ele>745.693725586</ele>
        <time>2015-09-10T09:22:00.177Z</time>
      </trkpt>
      <trkpt lat="46.08765" lon="4.58138">
        <ele>745.967468262</ele>
        <time>2015-09-10T09:22:09.236Z</time>
      </trkpt>
      <trkpt lat="46.08765" lon="4.58137">
        <ele>745.98651123</ele>
        <time>2015-09-10T09:22:10.174Z</time>
      </trkpt>
      <trkpt lat="46.08771" lon="4.58129">
        <ele>745.866882324</ele>
        <time>2015-09-10T09:22:19.224Z</time>
      </trkpt>
      <trkpt lat="46.08773" lon="4.58128">
        <ele>745.861877441</ele>
        <time>2015-09-10T09:22:20.175Z</time>
      </trkpt>
      <trkpt lat="46.08779" lon="4.5812">
        <ele>745.628540039</ele>
        <time>2015-09-10T09:22:30.211Z</time>
      </trkpt>
      <trkpt lat="46.0878" lon="4.58119">
        <ele>745.604370117</ele>
        <time>2015-09-10T09:22:31.192Z</time>
      </trkpt>
      <trkpt lat="46.08786" lon="4.5811">
        <ele>745.282958984</ele>
        <time>2015-09-10T09:22:40.202Z</time>
      </trkpt>
      <trkpt lat="46.08786" lon="4.58109">
        <ele>745.260314941</ele>
        <time>2015-09-10T09:22:41.192Z</time>
      </trkpt>
      <trkpt lat="46.0879" lon="4.58098">
        <ele>745.067504883</ele>
        <time>2015-09-10T09:22:52.219Z</time>
      </trkpt>
      <trkpt lat="46.08791" lon="4.58098">
        <ele>745.066772461</ele>
        <time>2015-09-10T09:22:53.194Z</time>
      </trkpt>
      <trkpt lat="46.08796" lon="4.58088">
        <ele>744.850402832</ele>
        <time>2015-09-10T09:23:04.216Z</time>
      </trkpt>
      <trkpt lat="46.08797" lon="4.58088">
        <ele>744.826293945</ele>
        <time>2015-09-10T09:23:05.193Z</time>
      </trkpt>
      <trkpt lat="46.08805" lon="4.5808">
        <ele>744.725280762</ele>
        <time>2015-09-10T09:23:17.229Z</time>
      </trkpt>
      <trkpt lat="46.08805" lon="4.5808">
        <ele>744.726806641</ele>
        <time>2015-09-10T09:23:18.198Z</time>
      </trkpt>
      <trkpt lat="46.08811" lon="4.58071">
        <ele>744.61517334</ele>
        <time>2015-09-10T09:23:32.231Z</time>
      </trkpt>
      <trkpt lat="46.08811" lon="4.5807">
        <ele>744.61138916</ele>
        <time>2015-09-10T09:23:33.222Z</time>
      </trkpt>
      <trkpt lat="46.08814" lon="4.58059">
        <ele>744.410644531</ele>
        <time>2015-09-10T09:23:43.241Z</time>
      </trkpt>
      <trkpt lat="46.08814" lon="4.58057">
        <ele>744.394348145</ele>
        <time>2015-09-10T09:23:44.212Z</time>
      </trkpt>
      <trkpt lat="46.08815" lon="4.58045">
        <ele>743.871582031</ele>
        <time>2015-09-10T09:23:53.221Z</time>
      </trkpt>
      <trkpt lat="46.08816" lon="4.58044">
        <ele>743.778686523</ele>
        <time>2015-09-10T09:23:54.206Z</time>
      </trkpt>
      <trkpt lat="46.08819" lon="4.58033">
        <ele>742.879394531</ele>
        <time>2015-09-10T09:24:03.244Z</time>
      </trkpt>
      <trkpt lat="46.0882" lon="4.58031">
        <ele>742.794494629</ele>
        <time>2015-09-10T09:24:04.204Z</time>
      </trkpt>
      <trkpt lat="46.08821" lon="4.58019">
        <ele>741.843566895</ele>
        <time>2015-09-10T09:24:13.209Z</time>
      </trkpt>
      <trkpt lat="46.08821" lon="4.58018">
        <ele>741.728271484</ele>
        <time>2015-09-10T09:24:14.202Z</time>
      </trkpt>
      <trkpt lat="46.08821" lon="4.58006">
        <ele>740.629516602</ele>
        <time>2015-09-10T09:24:23.244Z</time>
      </trkpt>
      <trkpt lat="46.08821" lon="4.58005">
        <ele>740.49621582</ele>
        <time>2015-09-10T09:24:24.204Z</time>
      </trkpt>
      <trkpt lat="46.08821" lon="4.57993">
        <ele>739.236755371</ele>
        <time>2015-09-10T09:24:32.254Z</time>
      </trkpt>
      <trkpt lat="46.08821" lon="4.57992">
        <ele>739.077331543</ele>
        <time>2015-09-10T09:24:33.189Z</time>
      </trkpt>
      <trkpt lat="46.08822" lon="4.5798">
        <ele>737.554382324</ele>
        <time>2015-09-10T09:24:41.214Z</time>
      </trkpt>
      <trkpt lat="46.08823" lon="4.57978">
        <ele>737.344116211</ele>
        <time>2015-09-10T09:24:42.215Z</time>
      </trkpt>
      <trkpt lat="46.08823" lon="4.57967">
        <ele>735.544372559</ele>
        <time>2015-09-10T09:24:50.256Z</time>
      </trkpt>
      <trkpt lat="46.08824" lon="4.57965">
        <ele>735.316162109</ele>
        <time>2015-09-10T09:24:51.204Z</time>
      </trkpt>
      <trkpt lat="46.08824" lon="4.57953">
        <ele>733.699951172</ele>
        <time>2015-09-10T09:24:58.242Z</time>
      </trkpt>
      <trkpt lat="46.08825" lon="4.57951">
        <ele>733.432373047</ele>
        <time>2015-09-10T09:24:59.206Z</time>
      </trkpt>
      <trkpt lat="46.08825" lon="4.57939">
        <ele>731.771789551</ele>
        <time>2015-09-10T09:25:06.253Z</time>
      </trkpt>
      <trkpt lat="46.08825" lon="4.57938">
        <ele>731.545837402</ele>
        <time>2015-09-10T09:25:07.213Z</time>
      </trkpt>
      <trkpt lat="46.08826" lon="4.57926">
        <ele>729.984130859</ele>
        <time>2015-09-10T09:25:14.248Z</time>
      </trkpt>
      <trkpt lat="46.08826" lon="4.57924">
        <ele>729.785339355</ele>
        <time>2015-09-10T09:25:15.238Z</time>
      </trkpt>
      <trkpt lat="46.08828" lon="4.57912">
        <ele>728.483581543</ele>
        <time>2015-09-10T09:25:22.26Z</time>
      </trkpt>
      <trkpt lat="46.08828" lon="4.57911">
        <ele>728.321105957</ele>
        <time>2015-09-10T09:25:23.206Z</time>
      </trkpt>
      <trkpt lat="46.08829" lon="4.57899">
        <ele>727.329711914</ele>
        <time>2015-09-10T09:25:30.252Z</time>
      </trkpt>
      <trkpt lat="46.08829" lon="4.57897">
        <ele>727.209533691</ele>
        <time>2015-09-10T09:25:31.214Z</time>
      </trkpt>
      <trkpt lat="46.0883" lon="4.57885">
        <ele>726.518310547</ele>
        <time>2015-09-10T09:25:39.265Z</time>
      </trkpt>
      <trkpt lat="46.0883" lon="4.57883">
        <ele>726.460632324</ele>
        <time>2015-09-10T09:25:40.203Z</time>
      </trkpt>
      <trkpt lat="46.08829" lon="4.5787">
        <ele>726.028808594</ele>
        <time>2015-09-10T09:25:48.259Z</time>
      </trkpt>
      <trkpt lat="46.0883" lon="4.57869">
        <ele>725.978881836</ele>
        <time>2015-09-10T09:25:49.195Z</time>
      </trkpt>
      <trkpt lat="46.0883" lon="4.57856">
        <ele>725.682312012</ele>
        <time>2015-09-10T09:25:57.218Z</time>
      </trkpt>
      <trkpt lat="46.0883" lon="4.57854">
        <ele>725.66229248</ele>
        <time>2015-09-10T09:25:58.213Z</time>
      </trkpt>
      <trkpt lat="46.08831" lon="4.57842">
        <ele>725.666137695</ele>
        <time>2015-09-10T09:26:06.254Z</time>
      </trkpt>
      <trkpt lat="46.08831" lon="4.5784">
        <ele>725.663330078</ele>
        <time>2015-09-10T09:26:07.222Z</time>
      </trkpt>
      <trkpt lat="46.08831" lon="4.57828">
        <ele>725.730773926</ele>
        <time>2015-09-10T09:26:15.265Z</time>
      </trkpt>
      <trkpt lat="46.08831" lon="4.57826">
        <ele>725.736755371</ele>
        <time>2015-09-10T09:26:16.218Z</time>
      </trkpt>
      <trkpt lat="46.08832" lon="4.57814">
        <ele>725.839904785</ele>
        <time>2015-09-10T09:26:24.26Z</time>
      </trkpt>
      <trkpt lat="46.08832" lon="4.57812">
        <ele>725.870178223</ele>
        <time>2015-09-10T09:26:25.21Z</time>
      </trkpt>
      <trkpt lat="46.08832" lon="4.57799">
        <ele>726.152770996</ele>
        <time>2015-09-10T09:26:33.22Z</time>
      </trkpt>
      <trkpt lat="46.08832" lon="4.57798">
        <ele>726.200378418</ele>
        <time>2015-09-10T09:26:34.202Z</time>
      </trkpt>
      <trkpt lat="46.08832" lon="4.57785">
        <ele>726.454345703</ele>
        <time>2015-09-10T09:26:42.221Z</time>
      </trkpt>
      <trkpt lat="46.08832" lon="4.57784">
        <ele>726.500427246</ele>
        <time>2015-09-10T09:26:43.187Z</time>
      </trkpt>
      <trkpt lat="46.08831" lon="4.57771">
        <ele>726.902587891</ele>
        <time>2015-09-10T09:26:52.203Z</time>
      </trkpt>
      <trkpt lat="46.08831" lon="4.5777">
        <ele>726.982299805</ele>
        <time>2015-09-10T09:26:53.192Z</time>
      </trkpt>
      <trkpt lat="46.08828" lon="4.57759">
        <ele>727.714904785</ele>
        <time>2015-09-10T09:27:02.222Z</time>
      </trkpt>
      <trkpt lat="46.08828" lon="4.57757">
        <ele>727.790527344</ele>
        <time>2015-09-10T09:27:03.184Z</time>
      </trkpt>
      <trkpt lat="46.08824" lon="4.57746">
        <ele>728.352233887</ele>
        <time>2015-09-10T09:27:11.224Z</time>
      </trkpt>
      <trkpt lat="46.08824" lon="4.57745">
        <ele>728.412719727</ele>
        <time>2015-09-10T09:27:12.187Z</time>
      </trkpt>
      <trkpt lat="46.0882" lon="4.57734">
        <ele>729.042724609</ele>
        <time>2015-09-10T09:27:20.289Z</time>
      </trkpt>
      <trkpt lat="46.0882" lon="4.57733">
        <ele>729.129638672</ele>
        <time>2015-09-10T09:27:21.177Z</time>
      </trkpt>
      <trkpt lat="46.08817" lon="4.57721">
        <ele>729.785827637</ele>
        <time>2015-09-10T09:27:29.199Z</time>
      </trkpt>
      <trkpt lat="46.08816" lon="4.57719">
        <ele>729.884094238</ele>
        <time>2015-09-10T09:27:30.186Z</time>
      </trkpt>
      <trkpt lat="46.08813" lon="4.57708">
        <ele>730.49822998</ele>
        <time>2015-09-10T09:27:38.225Z</time>
      </trkpt>
      <trkpt lat="46.08813" lon="4.57706">
        <ele>730.582946777</ele>
        <time>2015-09-10T09:27:39.184Z</time>
      </trkpt>
      <trkpt lat="46.0881" lon="4.57695">
        <ele>731.347351074</ele>
        <time>2015-09-10T09:27:47.231Z</time>
      </trkpt>
      <trkpt lat="46.0881" lon="4.57693">
        <ele>731.450683594</ele>
        <time>2015-09-10T09:27:48.192Z</time>
      </trkpt>
      <trkpt lat="46.08808" lon="4.57682">
        <ele>732.547851562</ele>
        <time>2015-09-10T09:27:57.197Z</time>
      </trkpt>
      <trkpt lat="46.08808" lon="4.57681">
        <ele>732.683959961</ele>
        <time>2015-09-10T09:27:58.193Z</time>
      </trkpt>
      <trkpt lat="46.08806" lon="4.57669">
        <ele>733.967224121</ele>
        <time>2015-09-10T09:28:06.231Z</time>
      </trkpt>
      <trkpt lat="46.08805" lon="4.57668">
        <ele>734.118469238</ele>
        <time>2015-09-10T09:28:07.196Z</time>
      </trkpt>
      <trkpt lat="46.08804" lon="4.57655">
        <ele>735.297424316</ele>
        <time>2015-09-10T09:28:16.249Z</time>
      </trkpt>
      <trkpt lat="46.08804" lon="4.57654">
        <ele>735.422546387</ele>
        <time>2015-09-10T09:28:17.177Z</time>
      </trkpt>
      <trkpt lat="46.08802" lon="4.57642">
        <ele>736.670837402</ele>
        <time>2015-09-10T09:28:27.229Z</time>
      </trkpt>
      <trkpt lat="46.08802" lon="4.57641">
        <ele>736.83013916</ele>
        <time>2015-09-10T09:28:28.201Z</time>
      </trkpt>
      <trkpt lat="46.088" lon="4.57629">
        <ele>738.200134277</ele>
        <time>2015-09-10T09:28:37.221Z</time>
      </trkpt>
      <trkpt lat="46.088" lon="4.57628">
        <ele>738.338012695</ele>
        <time>2015-09-10T09:28:38.199Z</time>
      </trkpt>
      <trkpt lat="46.08798" lon="4.57615">
        <ele>739.76574707</ele>
        <time>2015-09-10T09:28:48.228Z</time>
      </trkpt>
      <trkpt lat="46.08798" lon="4.57614">
        <ele>739.908996582</ele>
        <time>2015-09-10T09:28:49.181Z</time>
      </trkpt>
      <trkpt lat="46.08797" lon="4.57602">
        <ele>741.526733398</ele>
        <time>2015-09-10T09:28:59.235Z</time>
      </trkpt>
      <trkpt lat="46.08796" lon="4.576">
        <ele>741.696594238</ele>
        <time>2015-09-10T09:29:00.196Z</time>
      </trkpt>
      <trkpt lat="46.08793" lon="4.57589">
        <ele>742.964355469</ele>
        <time>2015-09-10T09:29:08.24Z</time>
      </trkpt>
      <trkpt lat="46.08793" lon="4.57588">
        <ele>743.103942871</ele>
        <time>2015-09-10T09:29:09.182Z</time>
      </trkpt>
      <trkpt lat="46.08787" lon="4.57578">
        <ele>744.116271973</ele>
        <time>2015-09-10T09:29:17.208Z</time>
      </trkpt>
      <trkpt lat="46.08787" lon="4.57577">
        <ele>744.26159668</ele>
        <time>2015-09-10T09:29:18.212Z</time>
      </trkpt>
      <trkpt lat="46.08781" lon="4.57567">
        <ele>744.882263184</ele>
        <time>2015-09-10T09:29:25.214Z</time>
      </trkpt>
      <trkpt lat="46.08781" lon="4.57566">
        <ele>744.975769043</ele>
        <time>2015-09-10T09:29:26.198Z</time>
      </trkpt>
      <trkpt lat="46.08776" lon="4.57556">
        <ele>745.920288086</ele>
        <time>2015-09-10T09:29:35.213Z</time>
      </trkpt>
      <trkpt lat="46.08775" lon="4.57555">
        <ele>746.018127441</ele>
        <time>2015-09-10T09:29:36.197Z</time>
      </trkpt>
      <trkpt lat="46.08769" lon="4.57547">
        <ele>747.059692383</ele>
        <time>2015-09-10T09:29:45.223Z</time>
      </trkpt>
      <trkpt lat="46.08768" lon="4.57546">
        <ele>747.18963623</ele>
        <time>2015-09-10T09:29:46.197Z</time>
      </trkpt>
      <trkpt lat="46.08763" lon="4.57536">
        <ele>748.33795166</ele>
        <time>2015-09-10T09:29:55.3Z</time>
      </trkpt>
      <trkpt lat="46.08763" lon="4.57535">
        <ele>748.505310059</ele>
        <time>2015-09-10T09:29:56.2Z</time>
      </trkpt>
      <trkpt lat="46.0876" lon="4.57523">
        <ele>750.241333008</ele>
        <time>2015-09-10T09:30:06.252Z</time>
      </trkpt>
      <trkpt lat="46.08759" lon="4.57522">
        <ele>750.402954102</ele>
        <time>2015-09-10T09:30:07.199Z</time>
      </trkpt>
      <trkpt lat="46.08754" lon="4.57512">
        <ele>751.544555664</ele>
        <time>2015-09-10T09:30:16.214Z</time>
      </trkpt>
      <trkpt lat="46.08753" lon="4.57511">
        <ele>751.687011719</ele>
        <time>2015-09-10T09:30:17.186Z</time>
      </trkpt>
      <trkpt lat="46.08748" lon="4.57501">
        <ele>752.860900879</ele>
        <time>2015-09-10T09:30:28.243Z</time>
      </trkpt>
      <trkpt lat="46.08747" lon="4.57501">
        <ele>752.963500977</ele>
        <time>2015-09-10T09:30:29.186Z</time>
      </trkpt>
      <trkpt lat="46.0874" lon="4.57495">
        <ele>753.909057617</ele>
        <time>2015-09-10T09:30:40.238Z</time>
      </trkpt>
      <trkpt lat="46.08738" lon="4.57494">
        <ele>753.940368652</ele>
        <time>2015-09-10T09:30:41.188Z</time>
      </trkpt>
      <trkpt lat="46.08731" lon="4.57489">
        <ele>754.254272461</ele>
        <time>2015-09-10T09:30:49.227Z</time>
      </trkpt>
      <trkpt lat="46.0873" lon="4.57488">
        <ele>754.269775391</ele>
        <time>2015-09-10T09:30:50.207Z</time>
      </trkpt>
      <trkpt lat="46.08722" lon="4.57483">
        <ele>754.57421875</ele>
        <time>2015-09-10T09:30:58.44Z</time>
      </trkpt>
      <trkpt lat="46.08721" lon="4.57482">
        <ele>754.614135742</ele>
        <time>2015-09-10T09:30:59.202Z</time>
      </trkpt>
      <trkpt lat="46.08714" lon="4.57477">
        <ele>754.858581543</ele>
        <time>2015-09-10T09:31:05.226Z</time>
      </trkpt>
      <trkpt lat="46.08713" lon="4.57476">
        <ele>754.896484375</ele>
        <time>2015-09-10T09:31:06.208Z</time>
      </trkpt>
      <trkpt lat="46.08707" lon="4.5747">
        <ele>754.914245605</ele>
        <time>2015-09-10T09:31:12.254Z</time>
      </trkpt>
      <trkpt lat="46.08705" lon="4.57469">
        <ele>754.904907227</ele>
        <time>2015-09-10T09:31:13.19Z</time>
      </trkpt>
      <trkpt lat="46.08698" lon="4.57463">
        <ele>754.889526367</ele>
        <time>2015-09-10T09:31:20.241Z</time>
      </trkpt>
      <trkpt lat="46.08697" lon="4.57462">
        <ele>754.908203125</ele>
        <time>2015-09-10T09:31:21.19Z</time>
      </trkpt>
      <trkpt lat="46.0869" lon="4.57456">
        <ele>754.850585938</ele>
        <time>2015-09-10T09:31:28.252Z</time>
      </trkpt>
      <trkpt lat="46.08689" lon="4.57455">
        <ele>754.853149414</ele>
        <time>2015-09-10T09:31:29.191Z</time>
      </trkpt>
      <trkpt lat="46.08681" lon="4.5745">
        <ele>754.847717285</ele>
        <time>2015-09-10T09:31:41.247Z</time>
      </trkpt>
      <trkpt lat="46.0868" lon="4.57449">
        <ele>754.881835938</ele>
        <time>2015-09-10T09:31:42.207Z</time>
      </trkpt>
      <trkpt lat="46.08671" lon="4.57444">
        <ele>754.609985352</ele>
        <time>2015-09-10T09:31:51.23Z</time>
      </trkpt>
      <trkpt lat="46.08671" lon="4.57444">
        <ele>754.59173584</ele>
        <time>2015-09-10T09:31:52.178Z</time>
      </trkpt>
      <trkpt lat="46.08663" lon="4.57439">
        <ele>754.336364746</ele>
        <time>2015-09-10T09:32:00.217Z</time>
      </trkpt>
      <trkpt lat="46.08661" lon="4.57438">
        <ele>754.27520752</ele>
        <time>2015-09-10T09:32:01.169Z</time>
      </trkpt>
      <trkpt lat="46.08653" lon="4.57433">
        <ele>753.814758301</ele>
        <time>2015-09-10T09:32:09.218Z</time>
      </trkpt>
      <trkpt lat="46.08652" lon="4.57433">
        <ele>753.773132324</ele>
        <time>2015-09-10T09:32:10.194Z</time>
      </trkpt>
      <trkpt lat="46.08645" lon="4.57427">
        <ele>753.379150391</ele>
        <time>2015-09-10T09:32:17.22Z</time>
      </trkpt>
      <trkpt lat="46.08644" lon="4.57426">
        <ele>753.310546875</ele>
        <time>2015-09-10T09:32:18.186Z</time>
      </trkpt>
      <trkpt lat="46.08637" lon="4.57417">
        <ele>753.001037598</ele>
        <time>2015-09-10T09:32:25.216Z</time>
      </trkpt>
      <trkpt lat="46.08636" lon="4.57416">
        <ele>752.938049316</ele>
        <time>2015-09-10T09:32:26.176Z</time>
      </trkpt>
      <trkpt lat="46.0863" lon="4.57408">
        <ele>752.450256348</ele>
        <time>2015-09-10T09:32:33.202Z</time>
      </trkpt>
      <trkpt lat="46.08629" lon="4.57407">
        <ele>752.425170898</ele>
        <time>2015-09-10T09:32:34.171Z</time>
      </trkpt>
      <trkpt lat="46.08624" lon="4.57398">
        <ele>752.210266113</ele>
        <time>2015-09-10T09:32:41.24Z</time>
      </trkpt>
      <trkpt lat="46.08623" lon="4.57397">
        <ele>752.155700684</ele>
        <time>2015-09-10T09:32:42.172Z</time>
      </trkpt>
      <trkpt lat="46.08617" lon="4.5739">
        <ele>752.196716309</ele>
        <time>2015-09-10T09:32:51.35Z</time>
      </trkpt>
      <trkpt lat="46.08616" lon="4.57389">
        <ele>752.192504883</ele>
        <time>2015-09-10T09:32:52.193Z</time>
      </trkpt>
      <trkpt lat="46.0861" lon="4.5738">
        <ele>752.58581543</ele>
        <time>2015-09-10T09:32:59.227Z</time>
      </trkpt>
      <trkpt lat="46.08609" lon="4.57379">
        <ele>752.650756836</ele>
        <time>2015-09-10T09:33:00.175Z</time>
      </trkpt>
      <trkpt lat="46.08604" lon="4.5737">
        <ele>753.628234863</ele>
        <time>2015-09-10T09:33:09.233Z</time>
      </trkpt>
      <trkpt lat="46.08603" lon="4.5737">
        <ele>753.634765625</ele>
        <time>2015-09-10T09:33:10.18Z</time>
      </trkpt>
      <trkpt lat="46.08599" lon="4.57359">
        <ele>753.852294922</ele>
        <time>2015-09-10T09:33:30.234Z</time>
      </trkpt>
      <trkpt lat="46.08599" lon="4.57358">
        <ele>753.966247559</ele>
        <time>2015-09-10T09:33:31.189Z</time>
      </trkpt>
      <trkpt lat="46.08595" lon="4.57347">
        <ele>754.993225098</ele>
        <time>2015-09-10T09:33:39.232Z</time>
      </trkpt>
      <trkpt lat="46.08594" lon="4.57346">
        <ele>755.114562988</ele>
        <time>2015-09-10T09:33:40.189Z</time>
      </trkpt>
      <trkpt lat="46.08588" lon="4.57337">
        <ele>756.136657715</ele>
        <time>2015-09-10T09:33:48.239Z</time>
      </trkpt>
      <trkpt lat="46.08587" lon="4.57336">
        <ele>756.16986084</ele>
        <time>2015-09-10T09:33:49.176Z</time>
      </trkpt>
      <trkpt lat="46.08582" lon="4.57327">
        <ele>756.446533203</ele>
        <time>2015-09-10T09:33:56.217Z</time>
      </trkpt>
      <trkpt lat="46.08581" lon="4.57325">
        <ele>756.39666748</ele>
        <time>2015-09-10T09:33:57.18Z</time>
      </trkpt>
      <trkpt lat="46.08577" lon="4.57314">
        <ele>755.649414062</ele>
        <time>2015-09-10T09:34:05.204Z</time>
      </trkpt>
      <trkpt lat="46.08576" lon="4.57314">
        <ele>755.558166504</ele>
        <time>2015-09-10T09:34:06.191Z</time>
      </trkpt>
      <trkpt lat="46.08571" lon="4.57303">
        <ele>755.500854492</ele>
        <time>2015-09-10T09:34:15.239Z</time>
      </trkpt>
      <trkpt lat="46.0857" lon="4.57302">
        <ele>755.654968262</ele>
        <time>2015-09-10T09:34:16.211Z</time>
      </trkpt>
      <trkpt lat="46.08564" lon="4.57293">
        <ele>755.982788086</ele>
        <time>2015-09-10T09:34:23.233Z</time>
      </trkpt>
      <trkpt lat="46.08563" lon="4.57291">
        <ele>755.992248535</ele>
        <time>2015-09-10T09:34:24.197Z</time>
      </trkpt>
      <trkpt lat="46.08556" lon="4.57282">
        <ele>756.456726074</ele>
        <time>2015-09-10T09:34:31.227Z</time>
      </trkpt>
      <trkpt lat="46.08555" lon="4.57281">
        <ele>756.518859863</ele>
        <time>2015-09-10T09:34:32.194Z</time>
      </trkpt>
      <trkpt lat="46.08547" lon="4.57275">
        <ele>756.882263184</ele>
        <time>2015-09-10T09:34:39.234Z</time>
      </trkpt>
      <trkpt lat="46.08546" lon="4.57275">
        <ele>756.87689209</ele>
        <time>2015-09-10T09:34:40.194Z</time>
      </trkpt>
      <trkpt lat="46.08538" lon="4.57269">
        <ele>756.71875</ele>
        <time>2015-09-10T09:34:49.237Z</time>
      </trkpt>
      <trkpt lat="46.08537" lon="4.57268">
        <ele>756.661010742</ele>
        <time>2015-09-10T09:34:50.199Z</time>
      </trkpt>
      <trkpt lat="46.08533" lon="4.57257">
        <ele>756.381530762</ele>
        <time>2015-09-10T09:34:58.246Z</time>
      </trkpt>
      <trkpt lat="46.08533" lon="4.57255">
        <ele>756.344970703</ele>
        <time>2015-09-10T09:34:59.195Z</time>
      </trkpt>
      <trkpt lat="46.08531" lon="4.57244">
        <ele>755.950012207</ele>
        <time>2015-09-10T09:35:07.242Z</time>
      </trkpt>
      <trkpt lat="46.08531" lon="4.57243">
        <ele>755.907592773</ele>
        <time>2015-09-10T09:35:08.199Z</time>
      </trkpt>
      <trkpt lat="46.08534" lon="4.57231">
        <ele>755.482971191</ele>
        <time>2015-09-10T09:35:16.245Z</time>
      </trkpt>
      <trkpt lat="46.08535" lon="4.57229">
        <ele>755.434936523</ele>
        <time>2015-09-10T09:35:17.194Z</time>
      </trkpt>
      <trkpt lat="46.08538" lon="4.57217">
        <ele>755.232055664</ele>
        <time>2015-09-10T09:35:26.244Z</time>
      </trkpt>
      <trkpt lat="46.08538" lon="4.57216">
        <ele>755.20324707</ele>
        <time>2015-09-10T09:35:27.197Z</time>
      </trkpt>
      <trkpt lat="46.08541" lon="4.57204">
        <ele>754.922607422</ele>
        <time>2015-09-10T09:35:34.255Z</time>
      </trkpt>
      <trkpt lat="46.08541" lon="4.57203">
        <ele>754.883239746</ele>
        <time>2015-09-10T09:35:35.185Z</time>
      </trkpt>
      <trkpt lat="46.08543" lon="4.57191">
        <ele>755.004638672</ele>
        <time>2015-09-10T09:35:43.229Z</time>
      </trkpt>
      <trkpt lat="46.08543" lon="4.5719">
        <ele>755.046875</ele>
        <time>2015-09-10T09:35:44.211Z</time>
      </trkpt>
      <trkpt lat="46.08544" lon="4.57178">
        <ele>755.381286621</ele>
        <time>2015-09-10T09:35:53.212Z</time>
      </trkpt>
      <trkpt lat="46.08544" lon="4.57177">
        <ele>755.451904297</ele>
        <time>2015-09-10T09:35:54.207Z</time>
      </trkpt>
      <trkpt lat="46.08546" lon="4.57165">
        <ele>756.154968262</ele>
        <time>2015-09-10T09:36:04.299Z</time>
      </trkpt>
      <trkpt lat="46.08546" lon="4.57164">
        <ele>756.257629395</ele>
        <time>2015-09-10T09:36:05.193Z</time>
      </trkpt>
      <trkpt lat="46.08545" lon="4.57151">
        <ele>757.08203125</ele>
        <time>2015-09-10T09:36:15.245Z</time>
      </trkpt>
      <trkpt lat="46.08545" lon="4.5715">
        <ele>757.140991211</ele>
        <time>2015-09-10T09:36:16.221Z</time>
      </trkpt>
      <trkpt lat="46.08541" lon="4.57139">
        <ele>757.65612793</ele>
        <time>2015-09-10T09:36:25.236Z</time>
      </trkpt>
      <trkpt lat="46.08541" lon="4.57137">
        <ele>757.718383789</ele>
        <time>2015-09-10T09:36:26.202Z</time>
      </trkpt>
      <trkpt lat="46.08537" lon="4.57127">
        <ele>758.234313965</ele>
        <time>2015-09-10T09:36:34.33Z</time>
      </trkpt>
      <trkpt lat="46.08537" lon="4.57126">
        <ele>758.304748535</ele>
        <time>2015-09-10T09:36:35.187Z</time>
      </trkpt>
      <trkpt lat="46.08535" lon="4.57113">
        <ele>758.755371094</ele>
        <time>2015-09-10T09:36:44.243Z</time>
      </trkpt>
      <trkpt lat="46.08535" lon="4.57112">
        <ele>758.789855957</ele>
        <time>2015-09-10T09:36:45.188Z</time>
      </trkpt>
      <trkpt lat="46.08532" lon="4.57099">
        <ele>759.38494873</ele>
        <time>2015-09-10T09:37:24.237Z</time>
      </trkpt>
      <trkpt lat="46.08532" lon="4.57098">
        <ele>759.456054688</ele>
        <time>2015-09-10T09:37:25.202Z</time>
      </trkpt>
      <trkpt lat="46.08533" lon="4.57085">
        <ele>759.829833984</ele>
        <time>2015-09-10T09:37:34.233Z</time>
      </trkpt>
      <trkpt lat="46.08533" lon="4.57084">
        <ele>759.877868652</ele>
        <time>2015-09-10T09:37:35.169Z</time>
      </trkpt>
      <trkpt lat="46.08532" lon="4.57072">
        <ele>760.136291504</ele>
        <time>2015-09-10T09:37:45.194Z</time>
      </trkpt>
      <trkpt lat="46.08532" lon="4.57071">
        <ele>760.130432129</ele>
        <time>2015-09-10T09:37:46.168Z</time>
      </trkpt>
      <trkpt lat="46.08528" lon="4.5706">
        <ele>759.964294434</ele>
        <time>2015-09-10T09:38:01.234Z</time>
      </trkpt>
      <trkpt lat="46.08528" lon="4.57059">
        <ele>759.940551758</ele>
        <time>2015-09-10T09:38:02.202Z</time>
      </trkpt>
      <trkpt lat="46.08527" lon="4.57047">
        <ele>759.928466797</ele>
        <time>2015-09-10T09:38:11.205Z</time>
      </trkpt>
      <trkpt lat="46.08527" lon="4.57046">
        <ele>759.924560547</ele>
        <time>2015-09-10T09:38:12.194Z</time>
      </trkpt>
      <trkpt lat="46.08529" lon="4.57033">
        <ele>759.73059082</ele>
        <time>2015-09-10T09:38:56.232Z</time>
      </trkpt>
      <trkpt lat="46.08529" lon="4.57032">
        <ele>759.69329834</ele>
        <time>2015-09-10T09:38:57.194Z</time>
      </trkpt>
      <trkpt lat="46.08526" lon="4.5702">
        <ele>759.407226562</ele>
        <time>2015-09-10T09:39:04.364Z</time>
      </trkpt>
      <trkpt lat="46.08526" lon="4.57018">
        <ele>759.353881836</ele>
        <time>2015-09-10T09:39:05.175Z</time>
      </trkpt>
      <trkpt lat="46.08523" lon="4.57006">
        <ele>758.951782227</ele>
        <time>2015-09-10T09:39:12.224Z</time>
      </trkpt>
      <trkpt lat="46.08523" lon="4.57005">
        <ele>758.899047852</ele>
        <time>2015-09-10T09:39:13.202Z</time>
      </trkpt>
      <trkpt lat="46.08524" lon="4.56992">
        <ele>758.551330566</ele>
        <time>2015-09-10T09:39:21.23Z</time>
      </trkpt>
      <trkpt lat="46.08524" lon="4.5699">
        <ele>758.516174316</ele>
        <time>2015-09-10T09:39:22.196Z</time>
      </trkpt>
      <trkpt lat="46.08524" lon="4.56978">
        <ele>758.40411377</ele>
        <time>2015-09-10T09:39:30.245Z</time>
      </trkpt>
      <trkpt lat="46.08524" lon="4.56977">
        <ele>758.398742676</ele>
        <time>2015-09-10T09:39:31.179Z</time>
      </trkpt>
      <trkpt lat="46.08521" lon="4.56965">
        <ele>758.665039062</ele>
        <time>2015-09-10T09:39:40.243Z</time>
      </trkpt>
      <trkpt lat="46.08521" lon="4.56964">
        <ele>758.745788574</ele>
        <time>2015-09-10T09:39:41.207Z</time>
      </trkpt>
      <trkpt lat="46.08517" lon="4.56952">
        <ele>759.341796875</ele>
        <time>2015-09-10T09:39:49.24Z</time>
      </trkpt>
      <trkpt lat="46.08517" lon="4.56951">
        <ele>759.42175293</ele>
        <time>2015-09-10T09:39:50.194Z</time>
      </trkpt>
      <trkpt lat="46.08515" lon="4.56938">
        <ele>760.177124023</ele>
        <time>2015-09-10T09:39:59.205Z</time>
      </trkpt>
      <trkpt lat="46.08515" lon="4.56937">
        <ele>760.250732422</ele>
        <time>2015-09-10T09:40:00.18Z</time>
      </trkpt>
      <trkpt lat="46.08514" lon="4.56924">
        <ele>761.015991211</ele>
        <time>2015-09-10T09:40:08.241Z</time>
      </trkpt>
      <trkpt lat="46.08514" lon="4.56923">
        <ele>761.112792969</ele>
        <time>2015-09-10T09:40:09.196Z</time>
      </trkpt>
      <trkpt lat="46.08513" lon="4.5691">
        <ele>761.778320312</ele>
        <time>2015-09-10T09:40:17.224Z</time>
      </trkpt>
      <trkpt lat="46.08512" lon="4.56909">
        <ele>761.860778809</ele>
        <time>2015-09-10T09:40:18.204Z</time>
      </trkpt>
      <trkpt lat="46.08511" lon="4.56897">
        <ele>762.405334473</ele>
        <time>2015-09-10T09:40:25.214Z</time>
      </trkpt>
      <trkpt lat="46.08511" lon="4.56895">
        <ele>762.484008789</ele>
        <time>2015-09-10T09:40:26.192Z</time>
      </trkpt>
      <trkpt lat="46.08509" lon="4.56883">
        <ele>763.042663574</ele>
        <time>2015-09-10T09:40:33.384Z</time>
      </trkpt>
      <trkpt lat="46.08509" lon="4.56881">
        <ele>763.114135742</ele>
        <time>2015-09-10T09:40:34.195Z</time>
      </trkpt>
      <trkpt lat="46.08507" lon="4.5687">
        <ele>763.684997559</ele>
        <time>2015-09-10T09:40:41.236Z</time>
      </trkpt>
      <trkpt lat="46.08507" lon="4.56868">
        <ele>763.784851074</ele>
        <time>2015-09-10T09:40:42.195Z</time>
      </trkpt>
      <trkpt lat="46.08505" lon="4.56857">
        <ele>764.313659668</ele>
        <time>2015-09-10T09:40:50.317Z</time>
      </trkpt>
      <trkpt lat="46.08505" lon="4.56855">
        <ele>764.407531738</ele>
        <time>2015-09-10T09:40:51.198Z</time>
      </trkpt>
      <trkpt lat="46.08504" lon="4.56843">
        <ele>765.038513184</ele>
        <time>2015-09-10T09:40:58.234Z</time>
      </trkpt>
      <trkpt lat="46.08504" lon="4.56842">
        <ele>765.046813965</ele>
        <time>2015-09-10T09:40:59.183Z</time>
      </trkpt>
      <trkpt lat="46.08503" lon="4.5683">
        <ele>766.004760742</ele>
        <time>2015-09-10T09:41:09.252Z</time>
      </trkpt>
      <trkpt lat="46.08502" lon="4.56829">
        <ele>766.116699219</ele>
        <time>2015-09-10T09:41:10.202Z</time>
      </trkpt>
      <trkpt lat="46.08498" lon="4.56818">
        <ele>767.241333008</ele>
        <time>2015-09-10T09:41:20.251Z</time>
      </trkpt>
      <trkpt lat="46.08498" lon="4.56816">
        <ele>767.3671875</ele>
        <time>2015-09-10T09:41:21.195Z</time>
      </trkpt>
      <trkpt lat="46.08493" lon="4.56805">
        <ele>768.375854492</ele>
        <time>2015-09-10T09:41:30.231Z</time>
      </trkpt>
      <trkpt lat="46.08493" lon="4.56805">
        <ele>768.493591309</ele>
        <time>2015-09-10T09:41:31.185Z</time>
      </trkpt>
      <trkpt lat="46.08489" lon="4.56794">
        <ele>769.696777344</ele>
        <time>2015-09-10T09:41:41.243Z</time>
      </trkpt>
      <trkpt lat="46.08489" lon="4.56792">
        <ele>769.833435059</ele>
        <time>2015-09-10T09:41:42.212Z</time>
      </trkpt>
      <trkpt lat="46.08486" lon="4.5678">
        <ele>771.289611816</ele>
        <time>2015-09-10T09:41:52.308Z</time>
      </trkpt>
      <trkpt lat="46.08485" lon="4.56779">
        <ele>771.485656738</ele>
        <time>2015-09-10T09:41:53.214Z</time>
      </trkpt>
      <trkpt lat="46.08482" lon="4.56768">
        <ele>773.872375488</ele>
        <time>2015-09-10T09:42:03.23Z</time>
      </trkpt>
      <trkpt lat="46.08481" lon="4.56767">
        <ele>774.04095459</ele>
        <time>2015-09-10T09:42:04.202Z</time>
      </trkpt>
      <trkpt lat="46.08478" lon="4.56754">
        <ele>775.726318359</ele>
        <time>2015-09-10T09:42:14.255Z</time>
      </trkpt>
      <trkpt lat="46.08478" lon="4.56753">
        <ele>775.838745117</ele>
        <time>2015-09-10T09:42:15.188Z</time>
      </trkpt>
      <trkpt lat="46.08475" lon="4.56742">
        <ele>776.840393066</ele>
        <time>2015-09-10T09:42:25.215Z</time>
      </trkpt>
      <trkpt lat="46.08475" lon="4.56741">
        <ele>776.931213379</ele>
        <time>2015-09-10T09:42:26.166Z</time>
      </trkpt>
      <trkpt lat="46.08471" lon="4.5673">
        <ele>778.209777832</ele>
        <time>2015-09-10T09:42:37.227Z</time>
      </trkpt>
      <trkpt lat="46.0847" lon="4.56729">
        <ele>778.336730957</ele>
        <time>2015-09-10T09:42:38.191Z</time>
      </trkpt>
      <trkpt lat="46.08466" lon="4.56718">
        <ele>779.485229492</ele>
        <time>2015-09-10T09:42:47.205Z</time>
      </trkpt>
      <trkpt lat="46.08466" lon="4.56717">
        <ele>779.581848145</ele>
        <time>2015-09-10T09:42:48.184Z</time>
      </trkpt>
      <trkpt lat="46.08465" lon="4.56704">
        <ele>780.529296875</ele>
        <time>2015-09-10T09:42:57.231Z</time>
      </trkpt>
      <trkpt lat="46.08465" lon="4.56703">
        <ele>780.659301758</ele>
        <time>2015-09-10T09:42:58.187Z</time>
      </trkpt>
      <trkpt lat="46.08464" lon="4.56691">
        <ele>782.399414062</ele>
        <time>2015-09-10T09:43:08.213Z</time>
      </trkpt>
      <trkpt lat="46.08463" lon="4.5669">
        <ele>782.58380127</ele>
        <time>2015-09-10T09:43:09.188Z</time>
      </trkpt>
      <trkpt lat="46.08463" lon="4.56678">
        <ele>784.520507812</ele>
        <time>2015-09-10T09:43:19.219Z</time>
      </trkpt>
      <trkpt lat="46.08463" lon="4.56676">
        <ele>784.706237793</ele>
        <time>2015-09-10T09:43:20.199Z</time>
      </trkpt>
      <trkpt lat="46.08461" lon="4.56664">
        <ele>786.532287598</ele>
        <time>2015-09-10T09:43:29.34Z</time>
      </trkpt>
      <trkpt lat="46.08461" lon="4.56663">
        <ele>786.725341797</ele>
        <time>2015-09-10T09:43:30.186Z</time>
      </trkpt>
      <trkpt lat="46.08459" lon="4.5665">
        <ele>788.498291016</ele>
        <time>2015-09-10T09:43:38.219Z</time>
      </trkpt>
      <trkpt lat="46.08459" lon="4.56649">
        <ele>788.691101074</ele>
        <time>2015-09-10T09:43:39.184Z</time>
      </trkpt>
      <trkpt lat="46.08457" lon="4.56637">
        <ele>790.106872559</ele>
        <time>2015-09-10T09:43:48.221Z</time>
      </trkpt>
      <trkpt lat="46.08457" lon="4.56635">
        <ele>790.275390625</ele>
        <time>2015-09-10T09:43:49.188Z</time>
      </trkpt>
      <trkpt lat="46.08456" lon="4.56623">
        <ele>791.483886719</ele>
        <time>2015-09-10T09:43:57.219Z</time>
      </trkpt>
      <trkpt lat="46.08455" lon="4.56622">
        <ele>791.64666748</ele>
        <time>2015-09-10T09:43:58.196Z</time>
      </trkpt>
      <trkpt lat="46.08453" lon="4.56611">
        <ele>792.45489502</ele>
        <time>2015-09-10T09:44:04.218Z</time>
      </trkpt>
      <trkpt lat="46.08453" lon="4.56609">
        <ele>792.624328613</ele>
        <time>2015-09-10T09:44:05.193Z</time>
      </trkpt>
      <trkpt lat="46.08451" lon="4.56598">
        <ele>793.341064453</ele>
        <time>2015-09-10T09:44:12.239Z</time>
      </trkpt>
      <trkpt lat="46.0845" lon="4.56597">
        <ele>793.38684082</ele>
        <time>2015-09-10T09:44:13.187Z</time>
      </trkpt>
      <trkpt lat="46.08445" lon="4.56586">
        <ele>794.138549805</ele>
        <time>2015-09-10T09:44:22.199Z</time>
      </trkpt>
      <trkpt lat="46.08445" lon="4.56584">
        <ele>794.224609375</ele>
        <time>2015-09-10T09:44:23.174Z</time>
      </trkpt>
      <trkpt lat="46.08443" lon="4.56572">
        <ele>794.827697754</ele>
        <time>2015-09-10T09:44:29.218Z</time>
      </trkpt>
      <trkpt lat="46.08442" lon="4.56571">
        <ele>794.899719238</ele>
        <time>2015-09-10T09:44:30.189Z</time>
      </trkpt>
      <trkpt lat="46.08439" lon="4.56559">
        <ele>795.489562988</ele>
        <time>2015-09-10T09:44:38.227Z</time>
      </trkpt>
      <trkpt lat="46.08439" lon="4.56557">
        <ele>795.573120117</ele>
        <time>2015-09-10T09:44:39.177Z</time>
      </trkpt>
      <trkpt lat="46.08436" lon="4.56546">
        <ele>795.941345215</ele>
        <time>2015-09-10T09:44:46.217Z</time>
      </trkpt>
      <trkpt lat="46.08435" lon="4.56544">
        <ele>795.99432373</ele>
        <time>2015-09-10T09:44:47.178Z</time>
      </trkpt>
      <trkpt lat="46.08431" lon="4.56533">
        <ele>796.332885742</ele>
        <time>2015-09-10T09:44:54.258Z</time>
      </trkpt>
      <trkpt lat="46.0843" lon="4.56532">
        <ele>796.377868652</ele>
        <time>2015-09-10T09:44:55.189Z</time>
      </trkpt>
      <trkpt lat="46.08425" lon="4.56523">
        <ele>796.484619141</ele>
        <time>2015-09-10T09:45:02.222Z</time>
      </trkpt>
      <trkpt lat="46.08424" lon="4.56522">
        <ele>796.498413086</ele>
        <time>2015-09-10T09:45:03.176Z</time>
      </trkpt>
      <trkpt lat="46.08417" lon="4.56518">
        <ele>796.601501465</ele>
        <time>2015-09-10T09:45:09.24Z</time>
      </trkpt>
      <trkpt lat="46.08416" lon="4.56517">
        <ele>796.615844727</ele>
        <time>2015-09-10T09:45:10.202Z</time>
      </trkpt>
      <trkpt lat="46.08408" lon="4.56511">
        <ele>796.57220459</ele>
        <time>2015-09-10T09:45:16.24Z</time>
      </trkpt>
      <trkpt lat="46.08407" lon="4.5651">
        <ele>796.557983398</ele>
        <time>2015-09-10T09:45:17.19Z</time>
      </trkpt>
      <trkpt lat="46.08401" lon="4.56503">
        <ele>796.51373291</ele>
        <time>2015-09-10T09:45:24.198Z</time>
      </trkpt>
      <trkpt lat="46.084" lon="4.56501">
        <ele>796.485229492</ele>
        <time>2015-09-10T09:45:25.185Z</time>
      </trkpt>
      <trkpt lat="46.08394" lon="4.56492">
        <ele>796.250183105</ele>
        <time>2015-09-10T09:45:32.185Z</time>
      </trkpt>
      <trkpt lat="46.08393" lon="4.5649">
        <ele>796.222900391</ele>
        <time>2015-09-10T09:45:33.201Z</time>
      </trkpt>
      <trkpt lat="46.08388" lon="4.5648">
        <ele>796.006530762</ele>
        <time>2015-09-10T09:45:40.197Z</time>
      </trkpt>
      <trkpt lat="46.08388" lon="4.56479">
        <ele>795.980041504</ele>
        <time>2015-09-10T09:45:41.201Z</time>
      </trkpt>
      <trkpt lat="46.08383" lon="4.56468">
        <ele>795.955078125</ele>
        <time>2015-09-10T09:45:49.246Z</time>
      </trkpt>
      <trkpt lat="46.08382" lon="4.56467">
        <ele>795.965515137</ele>
        <time>2015-09-10T09:45:50.194Z</time>
      </trkpt>
      <trkpt lat="46.08377" lon="4.56457">
        <ele>796.085388184</ele>
        <time>2015-09-10T09:45:57.216Z</time>
      </trkpt>
      <trkpt lat="46.08376" lon="4.56456">
        <ele>796.098571777</ele>
        <time>2015-09-10T09:45:58.201Z</time>
      </trkpt>
      <trkpt lat="46.08372" lon="4.56446">
        <ele>796.287231445</ele>
        <time>2015-09-10T09:46:05.239Z</time>
      </trkpt>
      <trkpt lat="46.08371" lon="4.56445">
        <ele>796.335876465</ele>
        <time>2015-09-10T09:46:06.202Z</time>
      </trkpt>
      <trkpt lat="46.08366" lon="4.56435">
        <ele>796.652404785</ele>
        <time>2015-09-10T09:46:13.234Z</time>
      </trkpt>
      <trkpt lat="46.08365" lon="4.56434">
        <ele>796.669067383</ele>
        <time>2015-09-10T09:46:14.203Z</time>
      </trkpt>
      <trkpt lat="46.08359" lon="4.56425">
        <ele>796.72064209</ele>
        <time>2015-09-10T09:46:21.257Z</time>
      </trkpt>
      <trkpt lat="46.08359" lon="4.56424">
        <ele>796.749938965</ele>
        <time>2015-09-10T09:46:22.189Z</time>
      </trkpt>
      <trkpt lat="46.08353" lon="4.56414">
        <ele>797.002319336</ele>
        <time>2015-09-10T09:46:29.216Z</time>
      </trkpt>
      <trkpt lat="46.08352" lon="4.56413">
        <ele>797.042419434</ele>
        <time>2015-09-10T09:46:30.187Z</time>
      </trkpt>
      <trkpt lat="46.0835" lon="4.56401">
        <ele>797.229553223</ele>
        <time>2015-09-10T09:46:37.216Z</time>
      </trkpt>
      <trkpt lat="46.0835" lon="4.56399">
        <ele>797.262817383</ele>
        <time>2015-09-10T09:46:38.194Z</time>
      </trkpt>
      <trkpt lat="46.08346" lon="4.56388">
        <ele>797.89630127</ele>
        <time>2015-09-10T09:46:47.235Z</time>
      </trkpt>
      <trkpt lat="46.08345" lon="4.56387">
        <ele>798.00012207</ele>
        <time>2015-09-10T09:46:48.161Z</time>
      </trkpt>
      <trkpt lat="46.0834" lon="4.56377">
        <ele>798.905761719</ele>
        <time>2015-09-10T09:46:57.221Z</time>
      </trkpt>
      <trkpt lat="46.08339" lon="4.56376">
        <ele>799.015319824</ele>
        <time>2015-09-10T09:46:58.204Z</time>
      </trkpt>
      <trkpt lat="46.08335" lon="4.56366">
        <ele>799.805603027</ele>
        <time>2015-09-10T09:47:06.18Z</time>
      </trkpt>
      <trkpt lat="46.08334" lon="4.56364">
        <ele>799.901367188</ele>
        <time>2015-09-10T09:47:07.193Z</time>
      </trkpt>
      <trkpt lat="46.08332" lon="4.56352">
        <ele>800.39855957</ele>
        <time>2015-09-10T09:47:16.203Z</time>
      </trkpt>
      <trkpt lat="46.08331" lon="4.5635">
        <ele>800.434265137</ele>
        <time>2015-09-10T09:47:17.204Z</time>
      </trkpt>
      <trkpt lat="46.08326" lon="4.56342">
        <ele>800.239501953</ele>
        <time>2015-09-10T09:47:25.229Z</time>
      </trkpt>
      <trkpt lat="46.08325" lon="4.5634">
        <ele>800.168395996</ele>
        <time>2015-09-10T09:47:26.178Z</time>
      </trkpt>
      <trkpt lat="46.08319" lon="4.56331">
        <ele>799.66394043</ele>
        <time>2015-09-10T09:47:34.206Z</time>
      </trkpt>
      <trkpt lat="46.08318" lon="4.56331">
        <ele>799.587280273</ele>
        <time>2015-09-10T09:47:35.178Z</time>
      </trkpt>
      <trkpt lat="46.08312" lon="4.56322">
        <ele>798.931640625</ele>
        <time>2015-09-10T09:47:42.232Z</time>
      </trkpt>
      <trkpt lat="46.08312" lon="4.56321">
        <ele>798.850952148</ele>
        <time>2015-09-10T09:47:43.18Z</time>
      </trkpt>
      <trkpt lat="46.08307" lon="4.56311">
        <ele>798.909545898</ele>
        <time>2015-09-10T09:47:51.242Z</time>
      </trkpt>
      <trkpt lat="46.08306" lon="4.56309">
        <ele>798.906738281</ele>
        <time>2015-09-10T09:47:52.164Z</time>
      </trkpt>
      <trkpt lat="46.08302" lon="4.56298">
        <ele>798.584960938</ele>
        <time>2015-09-10T09:47:59.218Z</time>
      </trkpt>
      <trkpt lat="46.08302" lon="4.56296">
        <ele>798.52734375</ele>
        <time>2015-09-10T09:48:00.164Z</time>
      </trkpt>
      <trkpt lat="46.083" lon="4.56286">
        <ele>798.138305664</ele>
        <time>2015-09-10T09:48:06.235Z</time>
      </trkpt>
      <trkpt lat="46.08299" lon="4.56283">
        <ele>798.08972168</ele>
        <time>2015-09-10T09:48:07.185Z</time>
      </trkpt>
      <trkpt lat="46.08297" lon="4.56271">
        <ele>797.71887207</ele>
        <time>2015-09-10T09:48:15.196Z</time>
      </trkpt>
      <trkpt lat="46.08297" lon="4.56269">
        <ele>797.69317627</ele>
        <time>2015-09-10T09:48:16.164Z</time>
      </trkpt>
      <trkpt lat="46.08295" lon="4.56258">
        <ele>797.561645508</ele>
        <time>2015-09-10T09:48:25.204Z</time>
      </trkpt>
      <trkpt lat="46.08295" lon="4.56256">
        <ele>797.565368652</ele>
        <time>2015-09-10T09:48:26.194Z</time>
      </trkpt>
      <trkpt lat="46.08296" lon="4.56243">
        <ele>797.446350098</ele>
        <time>2015-09-10T09:48:34.226Z</time>
      </trkpt>
      <trkpt lat="46.08295" lon="4.56241">
        <ele>797.481811523</ele>
        <time>2015-09-10T09:48:35.192Z</time>
      </trkpt>
      <trkpt lat="46.08295" lon="4.5623">
        <ele>797.535522461</ele>
        <time>2015-09-10T09:48:42.275Z</time>
      </trkpt>
      <trkpt lat="46.08295" lon="4.56228">
        <ele>797.549194336</ele>
        <time>2015-09-10T09:48:43.186Z</time>
      </trkpt>
      <trkpt lat="46.08297" lon="4.56216">
        <ele>797.693847656</ele>
        <time>2015-09-10T09:48:51.226Z</time>
      </trkpt>
      <trkpt lat="46.08297" lon="4.56214">
        <ele>797.716308594</ele>
        <time>2015-09-10T09:48:52.172Z</time>
      </trkpt>
      <trkpt lat="46.08296" lon="4.56201">
        <ele>798.016052246</ele>
        <time>2015-09-10T09:48:59.215Z</time>
      </trkpt>
      <trkpt lat="46.08296" lon="4.56199">
        <ele>798.040649414</ele>
        <time>2015-09-10T09:49:00.169Z</time>
      </trkpt>
      <trkpt lat="46.08299" lon="4.56188">
        <ele>798.073974609</ele>
        <time>2015-09-10T09:49:07.236Z</time>
      </trkpt>
      <trkpt lat="46.08299" lon="4.56187">
        <ele>798.100036621</ele>
        <time>2015-09-10T09:49:08.171Z</time>
      </trkpt>
      <trkpt lat="46.083" lon="4.56175">
        <ele>798.303710938</ele>
        <time>2015-09-10T09:49:15.226Z</time>
      </trkpt>
      <trkpt lat="46.083" lon="4.56173">
        <ele>798.389465332</ele>
        <time>2015-09-10T09:49:16.172Z</time>
      </trkpt>
      <trkpt lat="46.08303" lon="4.56162">
        <ele>798.628234863</ele>
        <time>2015-09-10T09:49:21.451Z</time>
      </trkpt>
      <trkpt lat="46.08303" lon="4.5616">
        <ele>798.660522461</ele>
        <time>2015-09-10T09:49:22.19Z</time>
      </trkpt>
      <trkpt lat="46.08305" lon="4.56148">
        <ele>798.805480957</ele>
        <time>2015-09-10T09:49:29.243Z</time>
      </trkpt>
      <trkpt lat="46.08305" lon="4.56146">
        <ele>798.820983887</ele>
        <time>2015-09-10T09:49:30.188Z</time>
      </trkpt>
      <trkpt lat="46.08305" lon="4.56135">
        <ele>798.986083984</ele>
        <time>2015-09-10T09:49:36.198Z</time>
      </trkpt>
      <trkpt lat="46.08305" lon="4.56133">
        <ele>798.98449707</ele>
        <time>2015-09-10T09:49:37.187Z</time>
      </trkpt>
      <trkpt lat="46.08301" lon="4.56123">
        <ele>799.448730469</ele>
        <time>2015-09-10T09:49:45.214Z</time>
      </trkpt>
      <trkpt lat="46.083" lon="4.56122">
        <ele>799.499145508</ele>
        <time>2015-09-10T09:49:46.195Z</time>
      </trkpt>
      <trkpt lat="46.08294" lon="4.56112">
        <ele>799.63104248</ele>
        <time>2015-09-10T09:49:54.224Z</time>
      </trkpt>
      <trkpt lat="46.08293" lon="4.56109">
        <ele>799.667602539</ele>
        <time>2015-09-10T09:49:55.188Z</time>
      </trkpt>
      <trkpt lat="46.0829" lon="4.56097">
        <ele>799.985656738</ele>
        <time>2015-09-10T09:50:02.239Z</time>
      </trkpt>
      <trkpt lat="46.0829" lon="4.56096">
        <ele>799.996826172</ele>
        <time>2015-09-10T09:50:03.186Z</time>
      </trkpt>
      <trkpt lat="46.08291" lon="4.56083">
        <ele>799.81640625</ele>
        <time>2015-09-10T09:50:10.227Z</time>
      </trkpt>
      <trkpt lat="46.08291" lon="4.56082">
        <ele>799.766845703</ele>
        <time>2015-09-10T09:50:11.188Z</time>
      </trkpt>
      <trkpt lat="46.08292" lon="4.5607">
        <ele>799.534973145</ele>
        <time>2015-09-10T09:50:17.231Z</time>
      </trkpt>
      <trkpt lat="46.08292" lon="4.56068">
        <ele>799.481079102</ele>
        <time>2015-09-10T09:50:18.186Z</time>
      </trkpt>
      <trkpt lat="46.08295" lon="4.56056">
        <ele>799.045471191</ele>
        <time>2015-09-10T09:50:26.245Z</time>
      </trkpt>
      <trkpt lat="46.08295" lon="4.56055">
        <ele>798.983276367</ele>
        <time>2015-09-10T09:50:27.191Z</time>
      </trkpt>
      <trkpt lat="46.08299" lon="4.56044">
        <ele>798.303527832</ele>
        <time>2015-09-10T09:50:35.23Z</time>
      </trkpt>
      <trkpt lat="46.08299" lon="4.56041">
        <ele>798.182556152</ele>
        <time>2015-09-10T09:50:36.153Z</time>
      </trkpt>
      <trkpt lat="46.08305" lon="4.56032">
        <ele>797.473937988</ele>
        <time>2015-09-10T09:50:43.216Z</time>
      </trkpt>
      <trkpt lat="46.08306" lon="4.56031">
        <ele>797.370422363</ele>
        <time>2015-09-10T09:50:44.156Z</time>
      </trkpt>
      <trkpt lat="46.08311" lon="4.56022">
        <ele>796.678527832</ele>
        <time>2015-09-10T09:50:51.206Z</time>
      </trkpt>
      <trkpt lat="46.08312" lon="4.5602">
        <ele>796.591552734</ele>
        <time>2015-09-10T09:50:52.155Z</time>
      </trkpt>
      <trkpt lat="46.08313" lon="4.56008">
        <ele>795.807678223</ele>
        <time>2015-09-10T09:51:00.19Z</time>
      </trkpt>
      <trkpt lat="46.08313" lon="4.56006">
        <ele>795.709533691</ele>
        <time>2015-09-10T09:51:01.174Z</time>
      </trkpt>
      <trkpt lat="46.08316" lon="4.55995">
        <ele>795.047790527</ele>
        <time>2015-09-10T09:51:09.202Z</time>
      </trkpt>
      <trkpt lat="46.08316" lon="4.55993">
        <ele>794.964233398</ele>
        <time>2015-09-10T09:51:10.181Z</time>
      </trkpt>
      <trkpt lat="46.08318" lon="4.55981">
        <ele>794.334838867</ele>
        <time>2015-09-10T09:51:16.201Z</time>
      </trkpt>
      <trkpt lat="46.08319" lon="4.5598">
        <ele>794.218139648</ele>
        <time>2015-09-10T09:51:17.172Z</time>
      </trkpt>
      <trkpt lat="46.08322" lon="4.55968">
        <ele>793.239990234</ele>
        <time>2015-09-10T09:51:24.19Z</time>
      </trkpt>
      <trkpt lat="46.08322" lon="4.55967">
        <ele>793.120300293</ele>
        <time>2015-09-10T09:51:25.161Z</time>
      </trkpt>
      <trkpt lat="46.08326" lon="4.55957">
        <ele>792.260803223</ele>
        <time>2015-09-10T09:51:32.181Z</time>
      </trkpt>
      <trkpt lat="46.08326" lon="4.55955">
        <ele>792.130310059</ele>
        <time>2015-09-10T09:51:33.169Z</time>
      </trkpt>
      <trkpt lat="46.08326" lon="4.55943">
        <ele>791.086791992</ele>
        <time>2015-09-10T09:51:41.215Z</time>
      </trkpt>
      <trkpt lat="46.08326" lon="4.5594">
        <ele>790.921020508</ele>
        <time>2015-09-10T09:51:42.198Z</time>
      </trkpt>
      <trkpt lat="46.08326" lon="4.55928">
        <ele>789.57635498</ele>
        <time>2015-09-10T09:51:50.176Z</time>
      </trkpt>
      <trkpt lat="46.08326" lon="4.55927">
        <ele>789.40802002</ele>
        <time>2015-09-10T09:51:51.216Z</time>
      </trkpt>
      <trkpt lat="46.08321" lon="4.55916">
        <ele>787.850891113</ele>
        <time>2015-09-10T09:52:01.213Z</time>
      </trkpt>
      <trkpt lat="46.08321" lon="4.55915">
        <ele>787.756164551</ele>
        <time>2015-09-10T09:52:02.186Z</time>
      </trkpt>
      <trkpt lat="46.08317" lon="4.55904">
        <ele>786.939697266</ele>
        <time>2015-09-10T09:52:11.214Z</time>
      </trkpt>
      <trkpt lat="46.08317" lon="4.55902">
        <ele>786.854614258</ele>
        <time>2015-09-10T09:52:12.156Z</time>
      </trkpt>
      <trkpt lat="46.08316" lon="4.55891">
        <ele>786.167053223</ele>
        <time>2015-09-10T09:52:20.201Z</time>
      </trkpt>
      <trkpt lat="46.08315" lon="4.5589">
        <ele>786.120849609</ele>
        <time>2015-09-10T09:52:21.175Z</time>
      </trkpt>
      <trkpt lat="46.08315" lon="4.55879">
        <ele>785.436340332</ele>
        <time>2015-09-10T09:52:26.216Z</time>
      </trkpt>
      <trkpt lat="46.08316" lon="4.55876">
        <ele>785.230895996</ele>
        <time>2015-09-10T09:52:27.178Z</time>
      </trkpt>
      <trkpt lat="46.0832" lon="4.55865">
        <ele>783.526306152</ele>
        <time>2015-09-10T09:52:35.212Z</time>
      </trkpt>
      <trkpt lat="46.08321" lon="4.55864">
        <ele>783.301940918</ele>
        <time>2015-09-10T09:52:36.162Z</time>
      </trkpt>
      <trkpt lat="46.08323" lon="4.55853">
        <ele>782.027160645</ele>
        <time>2015-09-10T09:52:43.21Z</time>
      </trkpt>
      <trkpt lat="46.08324" lon="4.55851">
        <ele>781.8203125</ele>
        <time>2015-09-10T09:52:44.162Z</time>
      </trkpt>
      <trkpt lat="46.08329" lon="4.55841">
        <ele>780.441467285</ele>
        <time>2015-09-10T09:52:52.194Z</time>
      </trkpt>
      <trkpt lat="46.08329" lon="4.55841">
        <ele>780.321716309</ele>
        <time>2015-09-10T09:52:53.177Z</time>
      </trkpt>
      <trkpt lat="46.08336" lon="4.55833">
        <ele>779.475708008</ele>
        <time>2015-09-10T09:53:00.193Z</time>
      </trkpt>
      <trkpt lat="46.08336" lon="4.55832">
        <ele>779.302307129</ele>
        <time>2015-09-10T09:53:01.186Z</time>
      </trkpt>
      <trkpt lat="46.08341" lon="4.55821">
        <ele>778.293884277</ele>
        <time>2015-09-10T09:53:10.193Z</time>
      </trkpt>
      <trkpt lat="46.08341" lon="4.5582">
        <ele>778.190002441</ele>
        <time>2015-09-10T09:53:11.193Z</time>
      </trkpt>
      <trkpt lat="46.08345" lon="4.55809">
        <ele>777.635375977</ele>
        <time>2015-09-10T09:53:19.208Z</time>
      </trkpt>
      <trkpt lat="46.08346" lon="4.55808">
        <ele>777.495605469</ele>
        <time>2015-09-10T09:53:20.168Z</time>
      </trkpt>
      <trkpt lat="46.08348" lon="4.55796">
        <ele>776.611083984</ele>
        <time>2015-09-10T09:53:28.188Z</time>
      </trkpt>
      <trkpt lat="46.08348" lon="4.55794">
        <ele>776.396606445</ele>
        <time>2015-09-10T09:53:29.185Z</time>
      </trkpt>
      <trkpt lat="46.08349" lon="4.55781">
        <ele>774.898254395</ele>
        <time>2015-09-10T09:53:36.197Z</time>
      </trkpt>
      <trkpt lat="46.08349" lon="4.55779">
        <ele>774.721191406</ele>
        <time>2015-09-10T09:53:37.18Z</time>
      </trkpt>
      <trkpt lat="46.08348" lon="4.55768">
        <ele>774.263366699</ele>
        <time>2015-09-10T09:53:43.215Z</time>
      </trkpt>
      <trkpt lat="46.08348" lon="4.55766">
        <ele>774.167358398</ele>
        <time>2015-09-10T09:53:44.165Z</time>
      </trkpt>
      <trkpt lat="46.08345" lon="4.55754">
        <ele>773.147399902</ele>
        <time>2015-09-10T09:53:51.218Z</time>
      </trkpt>
      <trkpt lat="46.08345" lon="4.55752">
        <ele>773.025024414</ele>
        <time>2015-09-10T09:53:52.164Z</time>
      </trkpt>
      <trkpt lat="46.08343" lon="4.55739">
        <ele>772.079833984</ele>
        <time>2015-09-10T09:53:59.214Z</time>
      </trkpt>
      <trkpt lat="46.08343" lon="4.55738">
        <ele>771.870300293</ele>
        <time>2015-09-10T09:54:00.168Z</time>
      </trkpt>
      <trkpt lat="46.08341" lon="4.55726">
        <ele>770.735351562</ele>
        <time>2015-09-10T09:54:07.212Z</time>
      </trkpt>
      <trkpt lat="46.08341" lon="4.55724">
        <ele>770.582641602</ele>
        <time>2015-09-10T09:54:08.168Z</time>
      </trkpt>
      <trkpt lat="46.08341" lon="4.55711">
        <ele>769.363952637</ele>
        <time>2015-09-10T09:54:15.21Z</time>
      </trkpt>
      <trkpt lat="46.08341" lon="4.5571">
        <ele>769.194885254</ele>
        <time>2015-09-10T09:54:16.165Z</time>
      </trkpt>
      <trkpt lat="46.0834" lon="4.55697">
        <ele>767.982299805</ele>
        <time>2015-09-10T09:54:23.226Z</time>
      </trkpt>
      <trkpt lat="46.0834" lon="4.55696">
        <ele>767.856506348</ele>
        <time>2015-09-10T09:54:24.167Z</time>
      </trkpt>
      <trkpt lat="46.08339" lon="4.55684">
        <ele>767.031860352</ele>
        <time>2015-09-10T09:54:30.236Z</time>
      </trkpt>
      <trkpt lat="46.08339" lon="4.55683">
        <ele>766.885437012</ele>
        <time>2015-09-10T09:54:31.182Z</time>
      </trkpt>
      <trkpt lat="46.0834" lon="4.55671">
        <ele>765.887695312</ele>
        <time>2015-09-10T09:54:38.233Z</time>
      </trkpt>
      <trkpt lat="46.08341" lon="4.55669">
        <ele>765.781860352</ele>
        <time>2015-09-10T09:54:39.194Z</time>
      </trkpt>
      <trkpt lat="46.08342" lon="4.55657">
        <ele>765.196960449</ele>
        <time>2015-09-10T09:54:46.218Z</time>
      </trkpt>
      <trkpt lat="46.08342" lon="4.55656">
        <ele>765.151428223</ele>
        <time>2015-09-10T09:54:47.193Z</time>
      </trkpt>
      <trkpt lat="46.08342" lon="4.55644">
        <ele>764.960693359</ele>
        <time>2015-09-10T09:54:54.225Z</time>
      </trkpt>
      <trkpt lat="46.08342" lon="4.55642">
        <ele>764.922058105</ele>
        <time>2015-09-10T09:54:55.168Z</time>
      </trkpt>
      <trkpt lat="46.08341" lon="4.5563">
        <ele>764.77557373</ele>
        <time>2015-09-10T09:55:03.233Z</time>
      </trkpt>
      <trkpt lat="46.0834" lon="4.55628">
        <ele>764.778442383</ele>
        <time>2015-09-10T09:55:04.168Z</time>
      </trkpt>
      <trkpt lat="46.0834" lon="4.55617">
        <ele>765.276123047</ele>
        <time>2015-09-10T09:55:13.222Z</time>
      </trkpt>
      <trkpt lat="46.0834" lon="4.55615">
        <ele>765.335754395</ele>
        <time>2015-09-10T09:55:14.198Z</time>
      </trkpt>
      <trkpt lat="46.08339" lon="4.55603">
        <ele>765.84777832</ele>
        <time>2015-09-10T09:55:22.214Z</time>
      </trkpt>
      <trkpt lat="46.08339" lon="4.55602">
        <ele>765.891418457</ele>
        <time>2015-09-10T09:55:23.192Z</time>
      </trkpt>
      <trkpt lat="46.08338" lon="4.5559">
        <ele>766.240234375</ele>
        <time>2015-09-10T09:55:32.22Z</time>
      </trkpt>
      <trkpt lat="46.08338" lon="4.55588">
        <ele>766.281433105</ele>
        <time>2015-09-10T09:55:33.184Z</time>
      </trkpt>
      <trkpt lat="46.08332" lon="4.55579">
        <ele>766.775085449</ele>
        <time>2015-09-10T09:55:41.242Z</time>
      </trkpt>
      <trkpt lat="46.08332" lon="4.55577">
        <ele>766.863891602</ele>
        <time>2015-09-10T09:55:42.198Z</time>
      </trkpt>
      <trkpt lat="46.08331" lon="4.55564">
        <ele>767.358642578</ele>
        <time>2015-09-10T09:55:50.17Z</time>
      </trkpt>
      <trkpt lat="46.08331" lon="4.55563">
        <ele>767.41583252</ele>
        <time>2015-09-10T09:55:51.185Z</time>
      </trkpt>
      <trkpt lat="46.08332" lon="4.55551">
        <ele>768.034851074</ele>
        <time>2015-09-10T09:56:00.185Z</time>
      </trkpt>
      <trkpt lat="46.08333" lon="4.55549">
        <ele>768.110168457</ele>
        <time>2015-09-10T09:56:01.175Z</time>
      </trkpt>
      <trkpt lat="46.08334" lon="4.55537">
        <ele>768.796020508</ele>
        <time>2015-09-10T09:56:07.204Z</time>
      </trkpt>
      <trkpt lat="46.08334" lon="4.55536">
        <ele>768.972045898</ele>
        <time>2015-09-10T09:56:08.149Z</time>
      </trkpt>
      <trkpt lat="46.08337" lon="4.55524">
        <ele>769.848083496</ele>
        <time>2015-09-10T09:56:16.182Z</time>
      </trkpt>
      <trkpt lat="46.08337" lon="4.55523">
        <ele>769.947570801</ele>
        <time>2015-09-10T09:56:17.184Z</time>
      </trkpt>
      <trkpt lat="46.08341" lon="4.55511">
        <ele>770.458435059</ele>
        <time>2015-09-10T09:56:25.219Z</time>
      </trkpt>
      <trkpt lat="46.08341" lon="4.55509">
        <ele>770.497314453</ele>
        <time>2015-09-10T09:56:26.173Z</time>
      </trkpt>
      <trkpt lat="46.08344" lon="4.55498">
        <ele>770.707092285</ele>
        <time>2015-09-10T09:56:33.223Z</time>
      </trkpt>
      <trkpt lat="46.08345" lon="4.55497">
        <ele>770.741149902</ele>
        <time>2015-09-10T09:56:34.169Z</time>
      </trkpt>
      <trkpt lat="46.08347" lon="4.55485">
        <ele>771.418701172</ele>
        <time>2015-09-10T09:56:43.21Z</time>
      </trkpt>
      <trkpt lat="46.08348" lon="4.55483">
        <ele>771.488830566</ele>
        <time>2015-09-10T09:56:44.151Z</time>
      </trkpt>
      <trkpt lat="46.08351" lon="4.55471">
        <ele>772.588500977</ele>
        <time>2015-09-10T09:56:52.178Z</time>
      </trkpt>
      <trkpt lat="46.08352" lon="4.5547">
        <ele>772.735168457</ele>
        <time>2015-09-10T09:56:53.17Z</time>
      </trkpt>
      <trkpt lat="46.08356" lon="4.55459">
        <ele>774.227661133</ele>
        <time>2015-09-10T09:57:02.201Z</time>
      </trkpt>
      <trkpt lat="46.08356" lon="4.55458">
        <ele>774.350524902</ele>
        <time>2015-09-10T09:57:03.184Z</time>
      </trkpt>
      <trkpt lat="46.08359" lon="4.55446">
        <ele>774.858825684</ele>
        <time>2015-09-10T09:57:11.199Z</time>
      </trkpt>
      <trkpt lat="46.08359" lon="4.55445">
        <ele>774.887817383</ele>
        <time>2015-09-10T09:57:12.153Z</time>
      </trkpt>
      <trkpt lat="46.08359" lon="4.55433">
        <ele>775.13104248</ele>
        <time>2015-09-10T09:57:21.211Z</time>
      </trkpt>
      <trkpt lat="46.08359" lon="4.55432">
        <ele>775.177856445</ele>
        <time>2015-09-10T09:57:22.171Z</time>
      </trkpt>
      <trkpt lat="46.08361" lon="4.5542">
        <ele>775.611022949</ele>
        <time>2015-09-10T09:57:30.209Z</time>
      </trkpt>
      <trkpt lat="46.08361" lon="4.55419">
        <ele>775.668457031</ele>
        <time>2015-09-10T09:57:31.174Z</time>
      </trkpt>
      <trkpt lat="46.08366" lon="4.55408">
        <ele>776.565063477</ele>
        <time>2015-09-10T09:57:40.184Z</time>
      </trkpt>
      <trkpt lat="46.08366" lon="4.55407">
        <ele>776.598388672</ele>
        <time>2015-09-10T09:57:41.169Z</time>
      </trkpt>
      <trkpt lat="46.0837" lon="4.55396">
        <ele>777.252197266</ele>
        <time>2015-09-10T09:57:48.199Z</time>
      </trkpt>
      <trkpt lat="46.0837" lon="4.55395">
        <ele>777.36126709</ele>
        <time>2015-09-10T09:57:49.171Z</time>
      </trkpt>
      <trkpt lat="46.08371" lon="4.55382">
        <ele>778.778808594</ele>
        <time>2015-09-10T09:57:58.211Z</time>
      </trkpt>
      <trkpt lat="46.08372" lon="4.55381">
        <ele>778.911071777</ele>
        <time>2015-09-10T09:57:59.168Z</time>
      </trkpt>
      <trkpt lat="46.08375" lon="4.5537">
        <ele>779.700195312</ele>
        <time>2015-09-10T09:58:07.197Z</time>
      </trkpt>
      <trkpt lat="46.08375" lon="4.55369">
        <ele>779.886657715</ele>
        <time>2015-09-10T09:58:08.161Z</time>
      </trkpt>
      <trkpt lat="46.08378" lon="4.55359">
        <ele>780.674316406</ele>
        <time>2015-09-10T09:58:16.193Z</time>
      </trkpt>
      <trkpt lat="46.08379" lon="4.55357">
        <ele>780.805541992</ele>
        <time>2015-09-10T09:58:17.191Z</time>
      </trkpt>
      <trkpt lat="46.08384" lon="4.55347">
        <ele>781.844299316</ele>
        <time>2015-09-10T09:58:26.223Z</time>
      </trkpt>
      <trkpt lat="46.08384" lon="4.55346">
        <ele>781.919799805</ele>
        <time>2015-09-10T09:58:27.177Z</time>
      </trkpt>
      <trkpt lat="46.08389" lon="4.55336">
        <ele>782.19934082</ele>
        <time>2015-09-10T09:58:34.223Z</time>
      </trkpt>
      <trkpt lat="46.08389" lon="4.55334">
        <ele>782.267944336</ele>
        <time>2015-09-10T09:58:35.173Z</time>
      </trkpt>
      <trkpt lat="46.08392" lon="4.55323">
        <ele>782.644165039</ele>
        <time>2015-09-10T09:58:43.225Z</time>
      </trkpt>
      <trkpt lat="46.08392" lon="4.55322">
        <ele>782.691101074</ele>
        <time>2015-09-10T09:58:44.184Z</time>
      </trkpt>
      <trkpt lat="46.08394" lon="4.5531">
        <ele>783.739379883</ele>
        <time>2015-09-10T09:58:53.233Z</time>
      </trkpt>
      <trkpt lat="46.08394" lon="4.55308">
        <ele>783.917480469</ele>
        <time>2015-09-10T09:58:54.173Z</time>
      </trkpt>
      <trkpt lat="46.08394" lon="4.55297">
        <ele>784.963989258</ele>
        <time>2015-09-10T09:59:02.219Z</time>
      </trkpt>
      <trkpt lat="46.08394" lon="4.55295">
        <ele>785.052368164</ele>
        <time>2015-09-10T09:59:03.183Z</time>
      </trkpt>
      <trkpt lat="46.08394" lon="4.55283">
        <ele>786.039611816</ele>
        <time>2015-09-10T09:59:12.206Z</time>
      </trkpt>
      <trkpt lat="46.08394" lon="4.55282">
        <ele>786.190490723</ele>
        <time>2015-09-10T09:59:13.176Z</time>
      </trkpt>
      <trkpt lat="46.08394" lon="4.55269">
        <ele>787.044799805</ele>
        <time>2015-09-10T09:59:20.214Z</time>
      </trkpt>
      <trkpt lat="46.08394" lon="4.55267">
        <ele>787.194335938</ele>
        <time>2015-09-10T09:59:21.18Z</time>
      </trkpt>
      <trkpt lat="46.08395" lon="4.55255">
        <ele>788.168273926</ele>
        <time>2015-09-10T09:59:28.191Z</time>
      </trkpt>
      <trkpt lat="46.08395" lon="4.55253">
        <ele>788.265869141</ele>
        <time>2015-09-10T09:59:29.179Z</time>
      </trkpt>
      <trkpt lat="46.08396" lon="4.55241">
        <ele>788.890930176</ele>
        <time>2015-09-10T09:59:37.22Z</time>
      </trkpt>
      <trkpt lat="46.08396" lon="4.55239">
        <ele>788.967041016</ele>
        <time>2015-09-10T09:59:38.185Z</time>
      </trkpt>
      <trkpt lat="46.08398" lon="4.55227">
        <ele>789.47845459</ele>
        <time>2015-09-10T09:59:46.226Z</time>
      </trkpt>
      <trkpt lat="46.08398" lon="4.55225">
        <ele>789.556762695</ele>
        <time>2015-09-10T09:59:47.181Z</time>
      </trkpt>
      <trkpt lat="46.084" lon="4.55214">
        <ele>790.441223145</ele>
        <time>2015-09-10T09:59:56.202Z</time>
      </trkpt>
      <trkpt lat="46.084" lon="4.55212">
        <ele>790.565979004</ele>
        <time>2015-09-10T09:59:57.181Z</time>
      </trkpt>
      <trkpt lat="46.08401" lon="4.55201">
        <ele>790.949829102</ele>
        <time>2015-09-10T10:00:03.22Z</time>
      </trkpt>
      <trkpt lat="46.08401" lon="4.55199">
        <ele>790.989624023</ele>
        <time>2015-09-10T10:00:04.182Z</time>
      </trkpt>
      <trkpt lat="46.084" lon="4.55187">
        <ele>791.351501465</ele>
        <time>2015-09-10T10:00:13.248Z</time>
      </trkpt>
      <trkpt lat="46.084" lon="4.55185">
        <ele>791.408935547</ele>
        <time>2015-09-10T10:00:14.17Z</time>
      </trkpt>
      <trkpt lat="46.08399" lon="4.55173">
        <ele>791.901123047</ele>
        <time>2015-09-10T10:00:22.231Z</time>
      </trkpt>
      <trkpt lat="46.08399" lon="4.55172">
        <ele>791.984436035</ele>
        <time>2015-09-10T10:00:23.187Z</time>
      </trkpt>
      <trkpt lat="46.08403" lon="4.5516">
        <ele>792.582946777</ele>
        <time>2015-09-10T10:00:33.232Z</time>
      </trkpt>
      <trkpt lat="46.08403" lon="4.55159">
        <ele>792.639648438</ele>
        <time>2015-09-10T10:00:34.17Z</time>
      </trkpt>
      <trkpt lat="46.08404" lon="4.55147">
        <ele>793.648193359</ele>
        <time>2015-09-10T10:00:44.222Z</time>
      </trkpt>
      <trkpt lat="46.08404" lon="4.55146">
        <ele>793.743469238</ele>
        <time>2015-09-10T10:00:45.169Z</time>
      </trkpt>
      <trkpt lat="46.08406" lon="4.55134">
        <ele>795.009277344</ele>
        <time>2015-09-10T10:00:55.408Z</time>
      </trkpt>
      <trkpt lat="46.08407" lon="4.55133">
        <ele>795.211669922</ele>
        <time>2015-09-10T10:00:56.203Z</time>
      </trkpt>
      <trkpt lat="46.0841" lon="4.55121">
        <ele>797.305847168</ele>
        <time>2015-09-10T10:01:07.179Z</time>
      </trkpt>
      <trkpt lat="46.0841" lon="4.5512">
        <ele>797.465576172</ele>
        <time>2015-09-10T10:01:08.154Z</time>
      </trkpt>
      <trkpt lat="46.08413" lon="4.55108">
        <ele>800.86706543</ele>
        <time>2015-09-10T10:01:23.196Z</time>
      </trkpt>
      <trkpt lat="46.08413" lon="4.55107">
        <ele>801.15246582</ele>
        <time>2015-09-10T10:01:24.183Z</time>
      </trkpt>
      <trkpt lat="46.08416" lon="4.55096">
        <ele>804.655151367</ele>
        <time>2015-09-10T10:01:42.19Z</time>
      </trkpt>
      <trkpt lat="46.08416" lon="4.55094">
        <ele>804.83380127</ele>
        <time>2015-09-10T10:01:43.172Z</time>
      </trkpt>
      <trkpt lat="46.0842" lon="4.55083">
        <ele>807.726806641</ele>
        <time>2015-09-10T10:02:00.211Z</time>
      </trkpt>
      <trkpt lat="46.08421" lon="4.55081">
        <ele>807.923400879</ele>
        <time>2015-09-10T10:02:01.168Z</time>
      </trkpt>
      <trkpt lat="46.08422" lon="4.5507">
        <ele>808.979919434</ele>
        <time>2015-09-10T10:02:08.226Z</time>
      </trkpt>
      <trkpt lat="46.08422" lon="4.55068">
        <ele>809.148498535</ele>
        <time>2015-09-10T10:02:09.171Z</time>
      </trkpt>
      <trkpt lat="46.0842" lon="4.55056">
        <ele>811.008972168</ele>
        <time>2015-09-10T10:02:20.205Z</time>
      </trkpt>
      <trkpt lat="46.0842" lon="4.55055">
        <ele>811.151977539</ele>
        <time>2015-09-10T10:02:21.152Z</time>
      </trkpt>
      <trkpt lat="46.08418" lon="4.55043">
        <ele>812.496276855</ele>
        <time>2015-09-10T10:02:30.215Z</time>
      </trkpt>
      <trkpt lat="46.08418" lon="4.55041">
        <ele>812.643920898</ele>
        <time>2015-09-10T10:02:31.157Z</time>
      </trkpt>
      <trkpt lat="46.08415" lon="4.5503">
        <ele>814.980224609</ele>
        <time>2015-09-10T10:02:41.214Z</time>
      </trkpt>
      <trkpt lat="46.08415" lon="4.55029">
        <ele>815.318786621</ele>
        <time>2015-09-10T10:02:42.175Z</time>
      </trkpt>
      <trkpt lat="46.08411" lon="4.55018">
        <ele>817.262268066</ele>
        <time>2015-09-10T10:02:51.272Z</time>
      </trkpt>
      <trkpt lat="46.0841" lon="4.55016">
        <ele>817.452941895</ele>
        <time>2015-09-10T10:02:52.174Z</time>
      </trkpt>
      <trkpt lat="46.08405" lon="4.55006">
        <ele>818.64453125</ele>
        <time>2015-09-10T10:03:02.223Z</time>
      </trkpt>
      <trkpt lat="46.08405" lon="4.55005">
        <ele>818.802734375</ele>
        <time>2015-09-10T10:03:03.154Z</time>
      </trkpt>
      <trkpt lat="46.08397" lon="4.55001">
        <ele>820.41784668</ele>
        <time>2015-09-10T10:03:17.362Z</time>
      </trkpt>
      <trkpt lat="46.08396" lon="4.55001">
        <ele>820.386108398</ele>
        <time>2015-09-10T10:03:18.173Z</time>
      </trkpt>
      <trkpt lat="46.08387" lon="4.54997">
        <ele>820.19128418</ele>
        <time>2015-09-10T10:03:24.213Z</time>
      </trkpt>
      <trkpt lat="46.08386" lon="4.54996">
        <ele>820.288696289</ele>
        <time>2015-09-10T10:03:25.181Z</time>
      </trkpt>
      <trkpt lat="46.08381" lon="4.54988">
        <ele>820.792175293</ele>
        <time>2015-09-10T10:03:31.191Z</time>
      </trkpt>
      <trkpt lat="46.0838" lon="4.54986">
        <ele>820.780212402</ele>
        <time>2015-09-10T10:03:32.17Z</time>
      </trkpt>
      <trkpt lat="46.08375" lon="4.54976">
        <ele>820.854553223</ele>
        <time>2015-09-10T10:03:42.216Z</time>
      </trkpt>
      <trkpt lat="46.08374" lon="4.54975">
        <ele>820.927856445</ele>
        <time>2015-09-10T10:03:43.157Z</time>
      </trkpt>
      <trkpt lat="46.08367" lon="4.54968">
        <ele>821.717529297</ele>
        <time>2015-09-10T10:03:54.218Z</time>
      </trkpt>
      <trkpt lat="46.08366" lon="4.54968">
        <ele>821.758789062</ele>
        <time>2015-09-10T10:03:55.157Z</time>
      </trkpt>
      <trkpt lat="46.08357" lon="4.54967">
        <ele>822.060119629</ele>
        <time>2015-09-10T10:04:46.224Z</time>
      </trkpt>
      <trkpt lat="46.08357" lon="4.54967">
        <ele>822.055114746</ele>
        <time>2015-09-10T10:04:47.176Z</time>
      </trkpt>
      <trkpt lat="46.08365" lon="4.54962">
        <ele>821.742736816</ele>
        <time>2015-09-10T10:07:48.207Z</time>
      </trkpt>
      <trkpt lat="46.08365" lon="4.54961">
        <ele>821.734619141</ele>
        <time>2015-09-10T10:07:49.17Z</time>
      </trkpt>
      <trkpt lat="46.08357" lon="4.54961">
        <ele>824.395141602</ele>
        <time>2015-09-10T10:10:55.236Z</time>
      </trkpt>
      <trkpt lat="46.08356" lon="4.5496">
        <ele>824.452392578</ele>
        <time>2015-09-10T10:10:56.191Z</time>
      </trkpt>
      <trkpt lat="46.08352" lon="4.5495">
        <ele>823.93359375</ele>
        <time>2015-09-10T10:11:07.246Z</time>
      </trkpt>
      <trkpt lat="46.08352" lon="4.54949">
        <ele>823.847412109</ele>
        <time>2015-09-10T10:11:08.197Z</time>
      </trkpt>
      <trkpt lat="46.08344" lon="4.54945">
        <ele>822.73248291</ele>
        <time>2015-09-10T10:11:18.196Z</time>
      </trkpt>
      <trkpt lat="46.08343" lon="4.54944">
        <ele>822.63458252</ele>
        <time>2015-09-10T10:11:19.18Z</time>
      </trkpt>
      <trkpt lat="46.08334" lon="4.54941">
        <ele>821.669616699</ele>
        <time>2015-09-10T10:11:28.231Z</time>
      </trkpt>
      <trkpt lat="46.08333" lon="4.54941">
        <ele>821.529052734</ele>
        <time>2015-09-10T10:11:29.183Z</time>
      </trkpt>
      <trkpt lat="46.08325" lon="4.54942">
        <ele>820.22845459</ele>
        <time>2015-09-10T10:11:38.19Z</time>
      </trkpt>
      <trkpt lat="46.08323" lon="4.54942">
        <ele>820.082641602</ele>
        <time>2015-09-10T10:11:39.168Z</time>
      </trkpt>
      <trkpt lat="46.08315" lon="4.54945">
        <ele>819.283325195</ele>
        <time>2015-09-10T10:11:47.194Z</time>
      </trkpt>
      <trkpt lat="46.08314" lon="4.54945">
        <ele>819.212036133</ele>
        <time>2015-09-10T10:11:48.161Z</time>
      </trkpt>
      <trkpt lat="46.08306" lon="4.54945">
        <ele>818.526489258</ele>
        <time>2015-09-10T10:11:55.169Z</time>
      </trkpt>
      <trkpt lat="46.08305" lon="4.54945">
        <ele>818.445495605</ele>
        <time>2015-09-10T10:11:56.166Z</time>
      </trkpt>
      <trkpt lat="46.08297" lon="4.54939">
        <ele>817.978942871</ele>
        <time>2015-09-10T10:12:07.226Z</time>
      </trkpt>
      <trkpt lat="46.08297" lon="4.54938">
        <ele>817.856384277</ele>
        <time>2015-09-10T10:12:08.167Z</time>
      </trkpt>
      <trkpt lat="46.0829" lon="4.54931">
        <ele>816.763671875</ele>
        <time>2015-09-10T10:12:15.206Z</time>
      </trkpt>
      <trkpt lat="46.08289" lon="4.5493">
        <ele>816.605407715</ele>
        <time>2015-09-10T10:12:16.166Z</time>
      </trkpt>
      <trkpt lat="46.08281" lon="4.54926">
        <ele>815.086730957</ele>
        <time>2015-09-10T10:12:25.178Z</time>
      </trkpt>
      <trkpt lat="46.0828" lon="4.54926">
        <ele>814.918518066</ele>
        <time>2015-09-10T10:12:26.145Z</time>
      </trkpt>
      <trkpt lat="46.08272" lon="4.54924">
        <ele>813.434509277</ele>
        <time>2015-09-10T10:12:35.171Z</time>
      </trkpt>
      <trkpt lat="46.08271" lon="4.54923">
        <ele>813.267272949</ele>
        <time>2015-09-10T10:12:36.166Z</time>
      </trkpt>
      <trkpt lat="46.08263" lon="4.54926">
        <ele>811.48425293</ele>
        <time>2015-09-10T10:12:47.195Z</time>
      </trkpt>
      <trkpt lat="46.08262" lon="4.54926">
        <ele>811.323852539</ele>
        <time>2015-09-10T10:12:48.165Z</time>
      </trkpt>
      <trkpt lat="46.08256" lon="4.54935">
        <ele>809.836364746</ele>
        <time>2015-09-10T10:12:57.196Z</time>
      </trkpt>
      <trkpt lat="46.08255" lon="4.54936">
        <ele>809.694519043</ele>
        <time>2015-09-10T10:12:58.165Z</time>
      </trkpt>
      <trkpt lat="46.08246" lon="4.54938">
        <ele>808.176147461</ele>
        <time>2015-09-10T10:13:08.196Z</time>
      </trkpt>
      <trkpt lat="46.08246" lon="4.54938">
        <ele>808.00567627</ele>
        <time>2015-09-10T10:13:09.165Z</time>
      </trkpt>
      <trkpt lat="46.08238" lon="4.54941">
        <ele>806.389038086</ele>
        <time>2015-09-10T10:13:19.195Z</time>
      </trkpt>
      <trkpt lat="46.08237" lon="4.54941">
        <ele>806.214782715</ele>
        <time>2015-09-10T10:13:20.164Z</time>
      </trkpt>
      <trkpt lat="46.08228" lon="4.54945">
        <ele>804.835449219</ele>
        <time>2015-09-10T10:13:28.218Z</time>
      </trkpt>
      <trkpt lat="46.08227" lon="4.54945">
        <ele>804.671264648</ele>
        <time>2015-09-10T10:13:29.176Z</time>
      </trkpt>
      <trkpt lat="46.0822" lon="4.54946">
        <ele>803.713378906</ele>
        <time>2015-09-10T10:13:35.192Z</time>
      </trkpt>
      <trkpt lat="46.08218" lon="4.54946">
        <ele>803.548278809</ele>
        <time>2015-09-10T10:13:36.158Z</time>
      </trkpt>
      <trkpt lat="46.0821" lon="4.54941">
        <ele>802.054748535</ele>
        <time>2015-09-10T10:13:45.173Z</time>
      </trkpt>
      <trkpt lat="46.0821" lon="4.5494">
        <ele>801.890319824</ele>
        <time>2015-09-10T10:13:46.166Z</time>
      </trkpt>
      <trkpt lat="46.08201" lon="4.54935">
        <ele>800.297302246</ele>
        <time>2015-09-10T10:13:56.272Z</time>
      </trkpt>
      <trkpt lat="46.082" lon="4.54935">
        <ele>800.157165527</ele>
        <time>2015-09-10T10:13:57.183Z</time>
      </trkpt>
      <trkpt lat="46.08193" lon="4.54933">
        <ele>799.14276123</ele>
        <time>2015-09-10T10:14:03.19Z</time>
      </trkpt>
      <trkpt lat="46.08191" lon="4.54933">
        <ele>798.997070312</ele>
        <time>2015-09-10T10:14:04.164Z</time>
      </trkpt>
      <trkpt lat="46.08183" lon="4.54931">
        <ele>797.730102539</ele>
        <time>2015-09-10T10:14:12.204Z</time>
      </trkpt>
      <trkpt lat="46.08181" lon="4.5493">
        <ele>797.54473877</ele>
        <time>2015-09-10T10:14:13.179Z</time>
      </trkpt>
      <trkpt lat="46.08173" lon="4.54928">
        <ele>796.198608398</ele>
        <time>2015-09-10T10:14:21.203Z</time>
      </trkpt>
      <trkpt lat="46.08172" lon="4.54928">
        <ele>796.023620605</ele>
        <time>2015-09-10T10:14:22.173Z</time>
      </trkpt>
      <trkpt lat="46.08163" lon="4.54927">
        <ele>794.709228516</ele>
        <time>2015-09-10T10:14:29.216Z</time>
      </trkpt>
      <trkpt lat="46.08162" lon="4.54927">
        <ele>794.53692627</ele>
        <time>2015-09-10T10:14:30.171Z</time>
      </trkpt>
      <trkpt lat="46.08154" lon="4.54928">
        <ele>793.255126953</ele>
        <time>2015-09-10T10:14:37.217Z</time>
      </trkpt>
      <trkpt lat="46.08153" lon="4.54928">
        <ele>793.043701172</ele>
        <time>2015-09-10T10:14:38.171Z</time>
      </trkpt>
      <trkpt lat="46.08145" lon="4.54929">
        <ele>791.733337402</ele>
        <time>2015-09-10T10:14:45.18Z</time>
      </trkpt>
      <trkpt lat="46.08143" lon="4.54929">
        <ele>791.546203613</ele>
        <time>2015-09-10T10:14:46.183Z</time>
      </trkpt>
      <trkpt lat="46.08135" lon="4.54928">
        <ele>790.406494141</ele>
        <time>2015-09-10T10:14:52.268Z</time>
      </trkpt>
      <trkpt lat="46.08133" lon="4.54928">
        <ele>790.215881348</ele>
        <time>2015-09-10T10:14:53.177Z</time>
      </trkpt>
      <trkpt lat="46.08125" lon="4.54926">
        <ele>788.983581543</ele>
        <time>2015-09-10T10:15:00.211Z</time>
      </trkpt>
      <trkpt lat="46.08123" lon="4.54926">
        <ele>788.824768066</ele>
        <time>2015-09-10T10:15:01.177Z</time>
      </trkpt>
      <trkpt lat="46.08115" lon="4.54925">
        <ele>787.982727051</ele>
        <time>2015-09-10T10:15:07.191Z</time>
      </trkpt>
      <trkpt lat="46.08113" lon="4.54926">
        <ele>787.852661133</ele>
        <time>2015-09-10T10:15:08.182Z</time>
      </trkpt>
      <trkpt lat="46.08105" lon="4.54925">
        <ele>787.098144531</ele>
        <time>2015-09-10T10:15:15.19Z</time>
      </trkpt>
      <trkpt lat="46.08103" lon="4.54925">
        <ele>786.971069336</ele>
        <time>2015-09-10T10:15:16.174Z</time>
      </trkpt>
      <trkpt lat="46.08095" lon="4.54923">
        <ele>786.221801758</ele>
        <time>2015-09-10T10:15:23.213Z</time>
      </trkpt>
      <trkpt lat="46.08093" lon="4.54923">
        <ele>786.113464355</ele>
        <time>2015-09-10T10:15:24.221Z</time>
      </trkpt>
      <trkpt lat="46.08085" lon="4.5492">
        <ele>785.369262695</ele>
        <time>2015-09-10T10:15:31.19Z</time>
      </trkpt>
      <trkpt lat="46.08083" lon="4.54919">
        <ele>785.260437012</ele>
        <time>2015-09-10T10:15:32.18Z</time>
      </trkpt>
      <trkpt lat="46.08076" lon="4.54917">
        <ele>784.657165527</ele>
        <time>2015-09-10T10:15:38.211Z</time>
      </trkpt>
      <trkpt lat="46.08074" lon="4.54917">
        <ele>784.556213379</ele>
        <time>2015-09-10T10:15:39.175Z</time>
      </trkpt>
      <trkpt lat="46.08067" lon="4.54914">
        <ele>784.113098145</ele>
        <time>2015-09-10T10:15:44.214Z</time>
      </trkpt>
      <trkpt lat="46.08066" lon="4.54914">
        <ele>784.003601074</ele>
        <time>2015-09-10T10:15:45.17Z</time>
      </trkpt>
      <trkpt lat="46.08059" lon="4.54907">
        <ele>783.169250488</ele>
        <time>2015-09-10T10:15:52.229Z</time>
      </trkpt>
      <trkpt lat="46.08058" lon="4.54906">
        <ele>783.032775879</ele>
        <time>2015-09-10T10:15:53.176Z</time>
      </trkpt>
      <trkpt lat="46.08051" lon="4.549">
        <ele>782.273071289</ele>
        <time>2015-09-10T10:15:59.191Z</time>
      </trkpt>
      <trkpt lat="46.0805" lon="4.54899">
        <ele>782.124755859</ele>
        <time>2015-09-10T10:16:00.178Z</time>
      </trkpt>
      <trkpt lat="46.08042" lon="4.54893">
        <ele>780.86505127</ele>
        <time>2015-09-10T10:16:08.222Z</time>
      </trkpt>
      <trkpt lat="46.08041" lon="4.54892">
        <ele>780.684570312</ele>
        <time>2015-09-10T10:16:09.177Z</time>
      </trkpt>
      <trkpt lat="46.08035" lon="4.54885">
        <ele>779.582702637</ele>
        <time>2015-09-10T10:16:15.267Z</time>
      </trkpt>
      <trkpt lat="46.08034" lon="4.54883">
        <ele>779.422729492</ele>
        <time>2015-09-10T10:16:16.181Z</time>
      </trkpt>
      <trkpt lat="46.08026" lon="4.54879">
        <ele>778.336914062</ele>
        <time>2015-09-10T10:16:24.222Z</time>
      </trkpt>
      <trkpt lat="46.08024" lon="4.54878">
        <ele>778.218811035</ele>
        <time>2015-09-10T10:16:25.176Z</time>
      </trkpt>
      <trkpt lat="46.08015" lon="4.54877">
        <ele>777.67010498</ele>
        <time>2015-09-10T10:16:30.213Z</time>
      </trkpt>
      <trkpt lat="46.08014" lon="4.54877">
        <ele>777.57232666</ele>
        <time>2015-09-10T10:16:31.164Z</time>
      </trkpt>
      <trkpt lat="46.08006" lon="4.54877">
        <ele>776.915100098</ele>
        <time>2015-09-10T10:16:38.219Z</time>
      </trkpt>
      <trkpt lat="46.08004" lon="4.54877">
        <ele>776.821594238</ele>
        <time>2015-09-10T10:16:39.169Z</time>
      </trkpt>
      <trkpt lat="46.07997" lon="4.54875">
        <ele>776.378967285</ele>
        <time>2015-09-10T10:16:44.23Z</time>
      </trkpt>
      <trkpt lat="46.07995" lon="4.54875">
        <ele>776.286865234</ele>
        <time>2015-09-10T10:16:45.166Z</time>
      </trkpt>
      <trkpt lat="46.07986" lon="4.54876">
        <ele>776.062133789</ele>
        <time>2015-09-10T10:16:52.202Z</time>
      </trkpt>
      <trkpt lat="46.07985" lon="4.54875">
        <ele>776.03326416</ele>
        <time>2015-09-10T10:16:53.154Z</time>
      </trkpt>
      <trkpt lat="46.07977" lon="4.54874">
        <ele>776.081176758</ele>
        <time>2015-09-10T10:17:00.19Z</time>
      </trkpt>
      <trkpt lat="46.07976" lon="4.54874">
        <ele>776.165283203</ele>
        <time>2015-09-10T10:17:01.164Z</time>
      </trkpt>
      <trkpt lat="46.07967" lon="4.54873">
        <ele>776.22052002</ele>
        <time>2015-09-10T10:17:07.173Z</time>
      </trkpt>
      <trkpt lat="46.07966" lon="4.54873">
        <ele>776.209411621</ele>
        <time>2015-09-10T10:17:08.169Z</time>
      </trkpt>
      <trkpt lat="46.07957" lon="4.54873">
        <ele>776.321716309</ele>
        <time>2015-09-10T10:17:14.194Z</time>
      </trkpt>
      <trkpt lat="46.07957" lon="4.54873">
        <ele>776.324157715</ele>
        <time>2015-09-10T10:17:15.142Z</time>
      </trkpt>
      <trkpt lat="46.0795" lon="4.5488">
        <ele>776.356445312</ele>
        <time>2015-09-10T10:17:22.19Z</time>
      </trkpt>
      <trkpt lat="46.07949" lon="4.54881">
        <ele>776.425598145</ele>
        <time>2015-09-10T10:17:23.142Z</time>
      </trkpt>
      <trkpt lat="46.0794" lon="4.54881">
        <ele>776.44342041</ele>
        <time>2015-09-10T10:17:29.189Z</time>
      </trkpt>
      <trkpt lat="46.07939" lon="4.54881">
        <ele>776.415405273</ele>
        <time>2015-09-10T10:17:30.151Z</time>
      </trkpt>
      <trkpt lat="46.07931" lon="4.54879">
        <ele>776.617736816</ele>
        <time>2015-09-10T10:17:36.165Z</time>
      </trkpt>
      <trkpt lat="46.07929" lon="4.54878">
        <ele>776.651733398</ele>
        <time>2015-09-10T10:17:37.147Z</time>
      </trkpt>
      <trkpt lat="46.07922" lon="4.54877">
        <ele>777.078613281</ele>
        <time>2015-09-10T10:17:44.202Z</time>
      </trkpt>
      <trkpt lat="46.0792" lon="4.54877">
        <ele>777.127075195</ele>
        <time>2015-09-10T10:17:45.145Z</time>
      </trkpt>
      <trkpt lat="46.07912" lon="4.54873">
        <ele>778.437133789</ele>
        <time>2015-09-10T10:17:55.167Z</time>
      </trkpt>
      <trkpt lat="46.07911" lon="4.54873">
        <ele>778.636474609</ele>
        <time>2015-09-10T10:17:56.161Z</time>
      </trkpt>
      <trkpt lat="46.07903" lon="4.54868">
        <ele>779.19720459</ele>
        <time>2015-09-10T10:18:03.171Z</time>
      </trkpt>
      <trkpt lat="46.07902" lon="4.54867">
        <ele>779.293334961</ele>
        <time>2015-09-10T10:18:04.165Z</time>
      </trkpt>
      <trkpt lat="46.07894" lon="4.54864">
        <ele>779.961303711</ele>
        <time>2015-09-10T10:18:12.214Z</time>
      </trkpt>
      <trkpt lat="46.07893" lon="4.54864">
        <ele>780.049377441</ele>
        <time>2015-09-10T10:18:13.173Z</time>
      </trkpt>
      <trkpt lat="46.07886" lon="4.54858">
        <ele>780.885314941</ele>
        <time>2015-09-10T10:18:21.188Z</time>
      </trkpt>
      <trkpt lat="46.07885" lon="4.54858">
        <ele>781.01776123</ele>
        <time>2015-09-10T10:18:22.16Z</time>
      </trkpt>
      <trkpt lat="46.07877" lon="4.54853">
        <ele>782.679992676</ele>
        <time>2015-09-10T10:18:29.207Z</time>
      </trkpt>
      <trkpt lat="46.07876" lon="4.54853">
        <ele>782.838562012</ele>
        <time>2015-09-10T10:18:30.167Z</time>
      </trkpt>
      <trkpt lat="46.07868" lon="4.5485">
        <ele>784.15246582</ele>
        <time>2015-09-10T10:18:38.208Z</time>
      </trkpt>
      <trkpt lat="46.07866" lon="4.54849">
        <ele>784.270141602</ele>
        <time>2015-09-10T10:18:39.149Z</time>
      </trkpt>
      <trkpt lat="46.07858" lon="4.54847">
        <ele>785.012207031</ele>
        <time>2015-09-10T10:18:47.178Z</time>
      </trkpt>
      <trkpt lat="46.07857" lon="4.54846">
        <ele>785.189208984</ele>
        <time>2015-09-10T10:18:48.173Z</time>
      </trkpt>
      <trkpt lat="46.07848" lon="4.54844">
        <ele>786.088806152</ele>
        <time>2015-09-10T10:18:54.2Z</time>
      </trkpt>
      <trkpt lat="46.07847" lon="4.54844">
        <ele>786.194396973</ele>
        <time>2015-09-10T10:18:55.149Z</time>
      </trkpt>
      <trkpt lat="46.07839" lon="4.54843">
        <ele>786.544250488</ele>
        <time>2015-09-10T10:19:00.197Z</time>
      </trkpt>
      <trkpt lat="46.07838" lon="4.54843">
        <ele>786.667785645</ele>
        <time>2015-09-10T10:19:01.174Z</time>
      </trkpt>
      <trkpt lat="46.0783" lon="4.5484">
        <ele>788.178649902</ele>
        <time>2015-09-10T10:19:09.213Z</time>
      </trkpt>
      <trkpt lat="46.07829" lon="4.5484">
        <ele>788.312927246</ele>
        <time>2015-09-10T10:19:10.168Z</time>
      </trkpt>
      <trkpt lat="46.0782" lon="4.54838">
        <ele>789.152832031</ele>
        <time>2015-09-10T10:19:18.218Z</time>
      </trkpt>
      <trkpt lat="46.07819" lon="4.54837">
        <ele>789.234436035</ele>
        <time>2015-09-10T10:19:19.151Z</time>
      </trkpt>
      <trkpt lat="46.0781" lon="4.54834">
        <ele>789.945007324</ele>
        <time>2015-09-10T10:19:25.203Z</time>
      </trkpt>
      <trkpt lat="46.07809" lon="4.54833">
        <ele>790.108276367</ele>
        <time>2015-09-10T10:19:26.178Z</time>
      </trkpt>
      <trkpt lat="46.07801" lon="4.54829">
        <ele>790.729980469</ele>
        <time>2015-09-10T10:19:31.195Z</time>
      </trkpt>
      <trkpt lat="46.078" lon="4.54828">
        <ele>790.847229004</ele>
        <time>2015-09-10T10:19:32.173Z</time>
      </trkpt>
      <trkpt lat="46.07792" lon="4.54823">
        <ele>791.947265625</ele>
        <time>2015-09-10T10:19:37.193Z</time>
      </trkpt>
      <trkpt lat="46.07791" lon="4.54822">
        <ele>792.094238281</ele>
        <time>2015-09-10T10:19:38.173Z</time>
      </trkpt>
      <trkpt lat="46.07784" lon="4.54819">
        <ele>793.073242188</ele>
        <time>2015-09-10T10:19:46.249Z</time>
      </trkpt>
      <trkpt lat="46.07783" lon="4.54818">
        <ele>793.289916992</ele>
        <time>2015-09-10T10:19:47.182Z</time>
      </trkpt>
      <trkpt lat="46.07775" lon="4.54812">
        <ele>794.012145996</ele>
        <time>2015-09-10T10:19:53.209Z</time>
      </trkpt>
      <trkpt lat="46.07774" lon="4.54812">
        <ele>794.134460449</ele>
        <time>2015-09-10T10:19:54.175Z</time>
      </trkpt>
      <trkpt lat="46.07767" lon="4.54808">
        <ele>795.02734375</ele>
        <time>2015-09-10T10:20:01.211Z</time>
      </trkpt>
      <trkpt lat="46.07764" lon="4.54806">
        <ele>795.120422363</ele>
        <time>2015-09-10T10:20:02.186Z</time>
      </trkpt>
      <trkpt lat="46.07756" lon="4.54802">
        <ele>795.737609863</ele>
        <time>2015-09-10T10:20:11.191Z</time>
      </trkpt>
      <trkpt lat="46.07755" lon="4.54802">
        <ele>795.802307129</ele>
        <time>2015-09-10T10:20:12.184Z</time>
      </trkpt>
      <trkpt lat="46.07747" lon="4.54798">
        <ele>796.113220215</ele>
        <time>2015-09-10T10:20:17.294Z</time>
      </trkpt>
      <trkpt lat="46.07746" lon="4.54798">
        <ele>796.129333496</ele>
        <time>2015-09-10T10:20:18.174Z</time>
      </trkpt>
      <trkpt lat="46.07738" lon="4.54795">
        <ele>796.632995605</ele>
        <time>2015-09-10T10:20:25.206Z</time>
      </trkpt>
      <trkpt lat="46.07736" lon="4.54794">
        <ele>796.746948242</ele>
        <time>2015-09-10T10:20:26.181Z</time>
      </trkpt>
      <trkpt lat="46.07728" lon="4.54792">
        <ele>797.856689453</ele>
        <time>2015-09-10T10:20:34.258Z</time>
      </trkpt>
      <trkpt lat="46.07727" lon="4.54792">
        <ele>798.040588379</ele>
        <time>2015-09-10T10:20:35.16Z</time>
      </trkpt>
      <trkpt lat="46.07719" lon="4.54788">
        <ele>798.931274414</ele>
        <time>2015-09-10T10:20:42.225Z</time>
      </trkpt>
      <trkpt lat="46.07717" lon="4.54786">
        <ele>798.925415039</ele>
        <time>2015-09-10T10:20:43.158Z</time>
      </trkpt>
      <trkpt lat="46.0771" lon="4.5478">
        <ele>799.074401855</ele>
        <time>2015-09-10T10:20:49.212Z</time>
      </trkpt>
      <trkpt lat="46.07709" lon="4.5478">
        <ele>799.083862305</ele>
        <time>2015-09-10T10:20:50.17Z</time>
      </trkpt>
      <trkpt lat="46.07701" lon="4.54775">
        <ele>799.980224609</ele>
        <time>2015-09-10T10:20:59.206Z</time>
      </trkpt>
      <trkpt lat="46.07699" lon="4.54775">
        <ele>800.121643066</ele>
        <time>2015-09-10T10:21:00.173Z</time>
      </trkpt>
      <trkpt lat="46.07692" lon="4.54771">
        <ele>800.479553223</ele>
        <time>2015-09-10T10:21:04.236Z</time>
      </trkpt>
      <trkpt lat="46.0769" lon="4.54771">
        <ele>800.515686035</ele>
        <time>2015-09-10T10:21:05.189Z</time>
      </trkpt>
      <trkpt lat="46.07682" lon="4.54767">
        <ele>800.581054688</ele>
        <time>2015-09-10T10:21:11.205Z</time>
      </trkpt>
      <trkpt lat="46.07681" lon="4.54766">
        <ele>800.583679199</ele>
        <time>2015-09-10T10:21:12.175Z</time>
      </trkpt>
      <trkpt lat="46.07673" lon="4.54761">
        <ele>801.111755371</ele>
        <time>2015-09-10T10:21:20.223Z</time>
      </trkpt>
      <trkpt lat="46.07672" lon="4.5476">
        <ele>801.136474609</ele>
        <time>2015-09-10T10:21:21.191Z</time>
      </trkpt>
      <trkpt lat="46.07664" lon="4.54754">
        <ele>801.343200684</ele>
        <time>2015-09-10T10:21:27.192Z</time>
      </trkpt>
      <trkpt lat="46.07662" lon="4.54753">
        <ele>801.41809082</ele>
        <time>2015-09-10T10:21:28.173Z</time>
      </trkpt>
      <trkpt lat="46.07654" lon="4.54748">
        <ele>801.428771973</ele>
        <time>2015-09-10T10:21:34.186Z</time>
      </trkpt>
      <trkpt lat="46.07653" lon="4.54747">
        <ele>801.463317871</ele>
        <time>2015-09-10T10:21:35.178Z</time>
      </trkpt>
      <trkpt lat="46.07646" lon="4.54741">
        <ele>801.656188965</ele>
        <time>2015-09-10T10:21:41.388Z</time>
      </trkpt>
      <trkpt lat="46.07645" lon="4.54741">
        <ele>801.715209961</ele>
        <time>2015-09-10T10:21:42.176Z</time>
      </trkpt>
      <trkpt lat="46.07637" lon="4.54734">
        <ele>802.352844238</ele>
        <time>2015-09-10T10:21:50.212Z</time>
      </trkpt>
      <trkpt lat="46.07636" lon="4.54733">
        <ele>802.452453613</ele>
        <time>2015-09-10T10:21:51.162Z</time>
      </trkpt>
      <trkpt lat="46.07629" lon="4.54727">
        <ele>802.710571289</ele>
        <time>2015-09-10T10:21:56.295Z</time>
      </trkpt>
      <trkpt lat="46.07628" lon="4.54726">
        <ele>802.73034668</ele>
        <time>2015-09-10T10:21:57.185Z</time>
      </trkpt>
      <trkpt lat="46.07622" lon="4.54719">
        <ele>802.72869873</ele>
        <time>2015-09-10T10:22:02.223Z</time>
      </trkpt>
      <trkpt lat="46.07621" lon="4.54717">
        <ele>802.660827637</ele>
        <time>2015-09-10T10:22:03.145Z</time>
      </trkpt>
      <trkpt lat="46.07615" lon="4.5471">
        <ele>802.419433594</ele>
        <time>2015-09-10T10:22:09.189Z</time>
      </trkpt>
      <trkpt lat="46.07614" lon="4.54708">
        <ele>802.420837402</ele>
        <time>2015-09-10T10:22:10.152Z</time>
      </trkpt>
      <trkpt lat="46.07608" lon="4.547">
        <ele>802.076965332</ele>
        <time>2015-09-10T10:22:16.262Z</time>
      </trkpt>
      <trkpt lat="46.07607" lon="4.54697">
        <ele>802.042785645</ele>
        <time>2015-09-10T10:22:17.163Z</time>
      </trkpt>
      <trkpt lat="46.07601" lon="4.54689">
        <ele>802.675170898</ele>
        <time>2015-09-10T10:22:28.206Z</time>
      </trkpt>
      <trkpt lat="46.07599" lon="4.54686">
        <ele>802.774108887</ele>
        <time>2015-09-10T10:22:29.155Z</time>
      </trkpt>
      <trkpt lat="46.07595" lon="4.54674">
        <ele>803.052062988</ele>
        <time>2015-09-10T10:22:34.203Z</time>
      </trkpt>
      <trkpt lat="46.07595" lon="4.54672">
        <ele>803.065124512</ele>
        <time>2015-09-10T10:22:35.148Z</time>
      </trkpt>
      <trkpt lat="46.07591" lon="4.54663">
        <ele>803.005187988</ele>
        <time>2015-09-10T10:22:42.195Z</time>
      </trkpt>
      <trkpt lat="46.07589" lon="4.54659">
        <ele>802.890319824</ele>
        <time>2015-09-10T10:22:43.142Z</time>
      </trkpt>
      <trkpt lat="46.07586" lon="4.54647">
        <ele>802.951416016</ele>
        <time>2015-09-10T10:22:50.208Z</time>
      </trkpt>
      <trkpt lat="46.07586" lon="4.54646">
        <ele>803.037719727</ele>
        <time>2015-09-10T10:22:51.144Z</time>
      </trkpt>
      <trkpt lat="46.07581" lon="4.54639">
        <ele>804.372924805</ele>
        <time>2015-09-10T10:23:06.194Z</time>
      </trkpt>
      <trkpt lat="46.07579" lon="4.54636">
        <ele>804.403564453</ele>
        <time>2015-09-10T10:23:07.142Z</time>
      </trkpt>
      <trkpt lat="46.07573" lon="4.54632">
        <ele>804.510314941</ele>
        <time>2015-09-10T10:23:09.196Z</time>
      </trkpt>
      <trkpt lat="46.0757" lon="4.54631">
        <ele>804.615600586</ele>
        <time>2015-09-10T10:23:10.165Z</time>
      </trkpt>
      <trkpt lat="46.07562" lon="4.54628">
        <ele>804.906982422</ele>
        <time>2015-09-10T10:23:16.188Z</time>
      </trkpt>
      <trkpt lat="46.07561" lon="4.54628">
        <ele>804.929443359</ele>
        <time>2015-09-10T10:23:17.173Z</time>
      </trkpt>
      <trkpt lat="46.07555" lon="4.54618">
        <ele>804.941040039</ele>
        <time>2015-09-10T10:23:23.19Z</time>
      </trkpt>
      <trkpt lat="46.07554" lon="4.54616">
        <ele>804.893310547</ele>
        <time>2015-09-10T10:23:24.165Z</time>
      </trkpt>
      <trkpt lat="46.07547" lon="4.54611">
        <ele>804.61895752</ele>
        <time>2015-09-10T10:23:27.193Z</time>
      </trkpt>
      <trkpt lat="46.07545" lon="4.5461">
        <ele>804.555969238</ele>
        <time>2015-09-10T10:23:28.171Z</time>
      </trkpt>
      <trkpt lat="46.07538" lon="4.54603">
        <ele>804.062744141</ele>
        <time>2015-09-10T10:23:37.197Z</time>
      </trkpt>
      <trkpt lat="46.07537" lon="4.54602">
        <ele>804.072265625</ele>
        <time>2015-09-10T10:23:38.173Z</time>
      </trkpt>
      <trkpt lat="46.0753" lon="4.54595">
        <ele>803.921569824</ele>
        <time>2015-09-10T10:23:49.224Z</time>
      </trkpt>
      <trkpt lat="46.0753" lon="4.54595">
        <ele>803.928222656</ele>
        <time>2015-09-10T10:23:50.159Z</time>
      </trkpt>
      <trkpt lat="46.07523" lon="4.54589">
        <ele>804.149414062</ele>
        <time>2015-09-10T10:24:02.21Z</time>
      </trkpt>
      <trkpt lat="46.07521" lon="4.54588">
        <ele>804.155029297</ele>
        <time>2015-09-10T10:24:03.16Z</time>
      </trkpt>
      <trkpt lat="46.07514" lon="4.5458">
        <ele>804.220153809</ele>
        <time>2015-09-10T10:24:07.198Z</time>
      </trkpt>
      <trkpt lat="46.07512" lon="4.54579">
        <ele>804.255737305</ele>
        <time>2015-09-10T10:24:08.151Z</time>
      </trkpt>
      <trkpt lat="46.07509" lon="4.54576">
        <ele>804.239074707</ele>
        <time>2015-09-10T10:24:10.213Z</time>
      </trkpt>
      <trkpt lat="46.07504" lon="4.54573">
        <ele>804.189331055</ele>
        <time>2015-09-10T10:24:11.172Z</time>
      </trkpt>
      <trkpt lat="46.07497" lon="4.54567">
        <ele>804.046203613</ele>
        <time>2015-09-10T10:24:14.198Z</time>
      </trkpt>
      <trkpt lat="46.07495" lon="4.54566">
        <ele>804.000244141</ele>
        <time>2015-09-10T10:24:15.165Z</time>
      </trkpt>
      <trkpt lat="46.07488" lon="4.5456">
        <ele>804.13671875</ele>
        <time>2015-09-10T10:24:22.22Z</time>
      </trkpt>
      <trkpt lat="46.07485" lon="4.54557">
        <ele>804.167480469</ele>
        <time>2015-09-10T10:24:23.163Z</time>
      </trkpt>
      <trkpt lat="46.0748" lon="4.54547">
        <ele>804.651611328</ele>
        <time>2015-09-10T10:24:32.197Z</time>
      </trkpt>
      <trkpt lat="46.0748" lon="4.54546">
        <ele>804.714782715</ele>
        <time>2015-09-10T10:24:33.164Z</time>
      </trkpt>
      <trkpt lat="46.07475" lon="4.54536">
        <ele>805.137512207</ele>
        <time>2015-09-10T10:24:43.214Z</time>
      </trkpt>
      <trkpt lat="46.07474" lon="4.54535">
        <ele>805.208251953</ele>
        <time>2015-09-10T10:24:44.149Z</time>
      </trkpt>
      <trkpt lat="46.07468" lon="4.54525">
        <ele>805.618041992</ele>
        <time>2015-09-10T10:24:50.211Z</time>
      </trkpt>
      <trkpt lat="46.07467" lon="4.54523">
        <ele>805.694702148</ele>
        <time>2015-09-10T10:24:51.165Z</time>
      </trkpt>
      <trkpt lat="46.07462" lon="4.54513">
        <ele>805.920410156</ele>
        <time>2015-09-10T10:24:57.209Z</time>
      </trkpt>
      <trkpt lat="46.07462" lon="4.54511">
        <ele>805.946777344</ele>
        <time>2015-09-10T10:24:58.181Z</time>
      </trkpt>
      <trkpt lat="46.07456" lon="4.54502">
        <ele>806.159118652</ele>
        <time>2015-09-10T10:25:06.208Z</time>
      </trkpt>
      <trkpt lat="46.07455" lon="4.54501">
        <ele>806.21307373</ele>
        <time>2015-09-10T10:25:07.164Z</time>
      </trkpt>
      <trkpt lat="46.07448" lon="4.54493">
        <ele>806.33996582</ele>
        <time>2015-09-10T10:25:16.184Z</time>
      </trkpt>
      <trkpt lat="46.07447" lon="4.54492">
        <ele>806.346313477</ele>
        <time>2015-09-10T10:25:17.165Z</time>
      </trkpt>
      <trkpt lat="46.07441" lon="4.54482">
        <ele>806.707336426</ele>
        <time>2015-09-10T10:25:25.228Z</time>
      </trkpt>
      <trkpt lat="46.0744" lon="4.54481">
        <ele>806.730834961</ele>
        <time>2015-09-10T10:25:26.181Z</time>
      </trkpt>
      <trkpt lat="46.07434" lon="4.54472">
        <ele>806.78302002</ele>
        <time>2015-09-10T10:25:32.192Z</time>
      </trkpt>
      <trkpt lat="46.07432" lon="4.54471">
        <ele>806.735168457</ele>
        <time>2015-09-10T10:25:33.169Z</time>
      </trkpt>
      <trkpt lat="46.07425" lon="4.54464">
        <ele>806.315490723</ele>
        <time>2015-09-10T10:25:38.33Z</time>
      </trkpt>
      <trkpt lat="46.07424" lon="4.54463">
        <ele>806.254394531</ele>
        <time>2015-09-10T10:25:39.169Z</time>
      </trkpt>
      <trkpt lat="46.07417" lon="4.54459">
        <ele>805.962341309</ele>
        <time>2015-09-10T10:25:43.222Z</time>
      </trkpt>
      <trkpt lat="46.07415" lon="4.54458">
        <ele>805.853088379</ele>
        <time>2015-09-10T10:25:44.154Z</time>
      </trkpt>
      <trkpt lat="46.07408" lon="4.54453">
        <ele>805.264221191</ele>
        <time>2015-09-10T10:25:50.221Z</time>
      </trkpt>
      <trkpt lat="46.07407" lon="4.54453">
        <ele>805.177307129</ele>
        <time>2015-09-10T10:25:51.181Z</time>
      </trkpt>
      <trkpt lat="46.07399" lon="4.54449">
        <ele>804.557189941</ele>
        <time>2015-09-10T10:25:57.218Z</time>
      </trkpt>
      <trkpt lat="46.07398" lon="4.54448">
        <ele>804.422119141</ele>
        <time>2015-09-10T10:25:58.172Z</time>
      </trkpt>
      <trkpt lat="46.0739" lon="4.54445">
        <ele>803.860046387</ele>
        <time>2015-09-10T10:26:05.212Z</time>
      </trkpt>
      <trkpt lat="46.07389" lon="4.54444">
        <ele>803.82800293</ele>
        <time>2015-09-10T10:26:06.173Z</time>
      </trkpt>
      <trkpt lat="46.07381" lon="4.54439">
        <ele>804.149597168</ele>
        <time>2015-09-10T10:26:16.207Z</time>
      </trkpt>
      <trkpt lat="46.0738" lon="4.54437">
        <ele>804.063476562</ele>
        <time>2015-09-10T10:26:17.174Z</time>
      </trkpt>
      <trkpt lat="46.07373" lon="4.5443">
        <ele>803.635070801</ele>
        <time>2015-09-10T10:26:25.223Z</time>
      </trkpt>
      <trkpt lat="46.07372" lon="4.5443">
        <ele>803.514587402</ele>
        <time>2015-09-10T10:26:26.176Z</time>
      </trkpt>
      <trkpt lat="46.07365" lon="4.54426">
        <ele>802.847473145</ele>
        <time>2015-09-10T10:26:31.218Z</time>
      </trkpt>
      <trkpt lat="46.07363" lon="4.54426">
        <ele>802.742980957</ele>
        <time>2015-09-10T10:26:32.157Z</time>
      </trkpt>
      <trkpt lat="46.07357" lon="4.54425">
        <ele>802.38470459</ele>
        <time>2015-09-10T10:26:38.224Z</time>
      </trkpt>
      <trkpt lat="46.07351" lon="4.54424">
        <ele>802.257385254</ele>
        <time>2015-09-10T10:26:39.181Z</time>
      </trkpt>
      <trkpt lat="46.07342" lon="4.54423">
        <ele>801.529602051</ele>
        <time>2015-09-10T10:26:44.202Z</time>
      </trkpt>
      <trkpt lat="46.0734" lon="4.54423">
        <ele>801.380249023</ele>
        <time>2015-09-10T10:26:45.174Z</time>
      </trkpt>
      <trkpt lat="46.07333" lon="4.5442">
        <ele>800.534851074</ele>
        <time>2015-09-10T10:26:50.19Z</time>
      </trkpt>
      <trkpt lat="46.07331" lon="4.54418">
        <ele>800.401611328</ele>
        <time>2015-09-10T10:26:51.186Z</time>
      </trkpt>
      <trkpt lat="46.07323" lon="4.54416">
        <ele>799.865356445</ele>
        <time>2015-09-10T10:26:58.181Z</time>
      </trkpt>
      <trkpt lat="46.07322" lon="4.54415">
        <ele>799.766357422</ele>
        <time>2015-09-10T10:26:59.176Z</time>
      </trkpt>
      <trkpt lat="46.07315" lon="4.54411">
        <ele>799.314575195</ele>
        <time>2015-09-10T10:27:05.197Z</time>
      </trkpt>
      <trkpt lat="46.07314" lon="4.5441">
        <ele>799.218322754</ele>
        <time>2015-09-10T10:27:06.19Z</time>
      </trkpt>
      <trkpt lat="46.07305" lon="4.54407">
        <ele>798.511169434</ele>
        <time>2015-09-10T10:27:13.211Z</time>
      </trkpt>
      <trkpt lat="46.07304" lon="4.54406">
        <ele>798.418395996</ele>
        <time>2015-09-10T10:27:14.178Z</time>
      </trkpt>
      <trkpt lat="46.07296" lon="4.54404">
        <ele>797.999938965</ele>
        <time>2015-09-10T10:27:20.189Z</time>
      </trkpt>
      <trkpt lat="46.07295" lon="4.54404">
        <ele>797.978820801</ele>
        <time>2015-09-10T10:27:21.181Z</time>
      </trkpt>
      <trkpt lat="46.07287" lon="4.54402">
        <ele>798.093261719</ele>
        <time>2015-09-10T10:27:27.189Z</time>
      </trkpt>
      <trkpt lat="46.07286" lon="4.54401">
        <ele>798.07421875</ele>
        <time>2015-09-10T10:27:28.154Z</time>
      </trkpt>
      <trkpt lat="46.07278" lon="4.54397">
        <ele>797.675354004</ele>
        <time>2015-09-10T10:27:35.205Z</time>
      </trkpt>
      <trkpt lat="46.07277" lon="4.54396">
        <ele>797.629150391</ele>
        <time>2015-09-10T10:27:36.137Z</time>
      </trkpt>
      <trkpt lat="46.07268" lon="4.54398">
        <ele>798.756286621</ele>
        <time>2015-09-10T10:27:47.186Z</time>
      </trkpt>
      <trkpt lat="46.07268" lon="4.54399">
        <ele>798.998413086</ele>
        <time>2015-09-10T10:27:48.138Z</time>
      </trkpt>
      <trkpt lat="46.07264" lon="4.54409">
        <ele>800.594238281</ele>
        <time>2015-09-10T10:27:53.195Z</time>
      </trkpt>
      <trkpt lat="46.07263" lon="4.54411">
        <ele>800.968505859</ele>
        <time>2015-09-10T10:27:54.163Z</time>
      </trkpt>
      <trkpt lat="46.07262" lon="4.54422">
        <ele>803.393188477</ele>
        <time>2015-09-10T10:28:03.198Z</time>
      </trkpt>
      <trkpt lat="46.07262" lon="4.54424">
        <ele>803.66418457</ele>
        <time>2015-09-10T10:28:04.14Z</time>
      </trkpt>
      <trkpt lat="46.07258" lon="4.54436">
        <ele>807.478637695</ele>
        <time>2015-09-10T10:28:15.169Z</time>
      </trkpt>
      <trkpt lat="46.07258" lon="4.54437">
        <ele>807.691040039</ele>
        <time>2015-09-10T10:28:16.171Z</time>
      </trkpt>
      <trkpt lat="46.07253" lon="4.54446">
        <ele>810.287963867</ele>
        <time>2015-09-10T10:28:32.198Z</time>
      </trkpt>
      <trkpt lat="46.07251" lon="4.54447">
        <ele>810.386047363</ele>
        <time>2015-09-10T10:28:33.141Z</time>
      </trkpt>
      <trkpt lat="46.07243" lon="4.54451">
        <ele>811.914367676</ele>
        <time>2015-09-10T10:28:46.184Z</time>
      </trkpt>
      <trkpt lat="46.07241" lon="4.54452">
        <ele>812.073852539</ele>
        <time>2015-09-10T10:28:47.172Z</time>
      </trkpt>
      <trkpt lat="46.07233" lon="4.54453">
        <ele>814.79699707</ele>
        <time>2015-09-10T10:29:03.186Z</time>
      </trkpt>
      <trkpt lat="46.07228" lon="4.54455">
        <ele>815.044494629</ele>
        <time>2015-09-10T10:29:04.164Z</time>
      </trkpt>
      <trkpt lat="46.0722" lon="4.54458">
        <ele>816.817871094</ele>
        <time>2015-09-10T10:29:13.174Z</time>
      </trkpt>
      <trkpt lat="46.07217" lon="4.54458">
        <ele>817.047668457</ele>
        <time>2015-09-10T10:29:14.168Z</time>
      </trkpt>
      <trkpt lat="46.0721" lon="4.5446">
        <ele>817.71673584</ele>
        <time>2015-09-10T10:29:20.182Z</time>
      </trkpt>
      <trkpt lat="46.07207" lon="4.5446">
        <ele>817.771911621</ele>
        <time>2015-09-10T10:29:21.15Z</time>
      </trkpt>
      <trkpt lat="46.07198" lon="4.5446">
        <ele>817.717346191</ele>
        <time>2015-09-10T10:29:25.178Z</time>
      </trkpt>
      <trkpt lat="46.07195" lon="4.5446">
        <ele>817.642578125</ele>
        <time>2015-09-10T10:29:26.16Z</time>
      </trkpt>
      <trkpt lat="46.0719" lon="4.54461">
        <ele>817.558227539</ele>
        <time>2015-09-10T10:29:27.197Z</time>
      </trkpt>
      <trkpt lat="46.07186" lon="4.54462">
        <ele>817.457946777</ele>
        <time>2015-09-10T10:29:28.161Z</time>
      </trkpt>
      <trkpt lat="46.07178" lon="4.54461">
        <ele>817.262023926</ele>
        <time>2015-09-10T10:29:30.186Z</time>
      </trkpt>
      <trkpt lat="46.07175" lon="4.54461">
        <ele>817.039428711</ele>
        <time>2015-09-10T10:29:31.165Z</time>
      </trkpt>
      <trkpt lat="46.07166" lon="4.54459">
        <ele>815.87487793</ele>
        <time>2015-09-10T10:29:36.196Z</time>
      </trkpt>
      <trkpt lat="46.07163" lon="4.54459">
        <ele>815.632446289</ele>
        <time>2015-09-10T10:29:37.149Z</time>
      </trkpt>
      <trkpt lat="46.07156" lon="4.54459">
        <ele>814.931884766</ele>
        <time>2015-09-10T10:29:41.194Z</time>
      </trkpt>
      <trkpt lat="46.07154" lon="4.54458">
        <ele>814.726196289</ele>
        <time>2015-09-10T10:29:42.16Z</time>
      </trkpt>
      <trkpt lat="46.07145" lon="4.54457">
        <ele>813.862915039</ele>
        <time>2015-09-10T10:29:46.212Z</time>
      </trkpt>
      <trkpt lat="46.07143" lon="4.54457">
        <ele>813.725341797</ele>
        <time>2015-09-10T10:29:47.165Z</time>
      </trkpt>
      <trkpt lat="46.07134" lon="4.54457">
        <ele>812.780151367</ele>
        <time>2015-09-10T10:29:54.268Z</time>
      </trkpt>
      <trkpt lat="46.07132" lon="4.54457">
        <ele>812.512756348</ele>
        <time>2015-09-10T10:29:55.15Z</time>
      </trkpt>
      <trkpt lat="46.07123" lon="4.54455">
        <ele>811.821166992</ele>
        <time>2015-09-10T10:30:00.211Z</time>
      </trkpt>
      <trkpt lat="46.07121" lon="4.54454">
        <ele>811.696960449</ele>
        <time>2015-09-10T10:30:01.147Z</time>
      </trkpt>
      <trkpt lat="46.07113" lon="4.54454">
        <ele>811.158996582</ele>
        <time>2015-09-10T10:30:06.21Z</time>
      </trkpt>
      <trkpt lat="46.07112" lon="4.54454">
        <ele>811.022888184</ele>
        <time>2015-09-10T10:30:07.164Z</time>
      </trkpt>
      <trkpt lat="46.07103" lon="4.54454">
        <ele>810.893310547</ele>
        <time>2015-09-10T10:30:13.222Z</time>
      </trkpt>
      <trkpt lat="46.07102" lon="4.54454">
        <ele>810.868591309</ele>
        <time>2015-09-10T10:30:14.165Z</time>
      </trkpt>
      <trkpt lat="46.07093" lon="4.54455">
        <ele>810.439819336</ele>
        <time>2015-09-10T10:30:24.177Z</time>
      </trkpt>
      <trkpt lat="46.07092" lon="4.54454">
        <ele>810.347290039</ele>
        <time>2015-09-10T10:30:25.153Z</time>
      </trkpt>
      <trkpt lat="46.07083" lon="4.54453">
        <ele>809.774475098</ele>
        <time>2015-09-10T10:30:31.204Z</time>
      </trkpt>
      <trkpt lat="46.07082" lon="4.54452">
        <ele>809.65435791</ele>
        <time>2015-09-10T10:30:32.167Z</time>
      </trkpt>
      <trkpt lat="46.07074" lon="4.54448">
        <ele>808.347106934</ele>
        <time>2015-09-10T10:30:41.176Z</time>
      </trkpt>
      <trkpt lat="46.07072" lon="4.54447">
        <ele>808.173339844</ele>
        <time>2015-09-10T10:30:42.157Z</time>
      </trkpt>
      <trkpt lat="46.07064" lon="4.54445">
        <ele>806.619262695</ele>
        <time>2015-09-10T10:30:50.185Z</time>
      </trkpt>
      <trkpt lat="46.07063" lon="4.54444">
        <ele>806.441894531</ele>
        <time>2015-09-10T10:30:51.17Z</time>
      </trkpt>
      <trkpt lat="46.07054" lon="4.54442">
        <ele>804.800354004</ele>
        <time>2015-09-10T10:30:59.223Z</time>
      </trkpt>
      <trkpt lat="46.07053" lon="4.54441">
        <ele>804.576965332</ele>
        <time>2015-09-10T10:31:00.166Z</time>
      </trkpt>
      <trkpt lat="46.07045" lon="4.54436">
        <ele>803.284118652</ele>
        <time>2015-09-10T10:31:08.197Z</time>
      </trkpt>
      <trkpt lat="46.07045" lon="4.54436">
        <ele>803.233886719</ele>
        <time>2015-09-10T10:31:09.157Z</time>
      </trkpt>
      <trkpt lat="46.07036" lon="4.54434">
        <ele>802.793151855</ele>
        <time>2015-09-10T10:31:14.279Z</time>
      </trkpt>
      <trkpt lat="46.07035" lon="4.54433">
        <ele>802.656005859</ele>
        <time>2015-09-10T10:31:15.175Z</time>
      </trkpt>
      <trkpt lat="46.07027" lon="4.54426">
        <ele>801.355957031</ele>
        <time>2015-09-10T10:31:23.206Z</time>
      </trkpt>
      <trkpt lat="46.07027" lon="4.54426">
        <ele>801.185180664</ele>
        <time>2015-09-10T10:31:24.168Z</time>
      </trkpt>
      <trkpt lat="46.0702" lon="4.5442">
        <ele>800.05682373</ele>
        <time>2015-09-10T10:31:30.176Z</time>
      </trkpt>
      <trkpt lat="46.07019" lon="4.54418">
        <ele>799.833129883</ele>
        <time>2015-09-10T10:31:31.169Z</time>
      </trkpt>
      <trkpt lat="46.07013" lon="4.54411">
        <ele>798.741943359</ele>
        <time>2015-09-10T10:31:36.223Z</time>
      </trkpt>
      <trkpt lat="46.07011" lon="4.5441">
        <ele>798.541748047</ele>
        <time>2015-09-10T10:31:37.156Z</time>
      </trkpt>
      <trkpt lat="46.07004" lon="4.54402">
        <ele>796.885803223</ele>
        <time>2015-09-10T10:31:45.177Z</time>
      </trkpt>
      <trkpt lat="46.07003" lon="4.544">
        <ele>796.683898926</ele>
        <time>2015-09-10T10:31:46.172Z</time>
      </trkpt>
      <trkpt lat="46.06996" lon="4.54393">
        <ele>795.406616211</ele>
        <time>2015-09-10T10:31:53.193Z</time>
      </trkpt>
      <trkpt lat="46.06995" lon="4.54392">
        <ele>795.240234375</ele>
        <time>2015-09-10T10:31:54.168Z</time>
      </trkpt>
      <trkpt lat="46.06988" lon="4.54385">
        <ele>794.149475098</ele>
        <time>2015-09-10T10:32:01.198Z</time>
      </trkpt>
      <trkpt lat="46.06987" lon="4.54384">
        <ele>794.010803223</ele>
        <time>2015-09-10T10:32:02.173Z</time>
      </trkpt>
      <trkpt lat="46.06981" lon="4.54376">
        <ele>793.304138184</ele>
        <time>2015-09-10T10:32:10.406Z</time>
      </trkpt>
      <trkpt lat="46.06979" lon="4.54374">
        <ele>793.232971191</ele>
        <time>2015-09-10T10:32:11.172Z</time>
      </trkpt>
      <trkpt lat="46.06973" lon="4.54367">
        <ele>792.686889648</ele>
        <time>2015-09-10T10:32:17.325Z</time>
      </trkpt>
      <trkpt lat="46.06972" lon="4.54366">
        <ele>792.596801758</ele>
        <time>2015-09-10T10:32:18.17Z</time>
      </trkpt>
      <trkpt lat="46.06965" lon="4.5436">
        <ele>792.24432373</ele>
        <time>2015-09-10T10:32:24.22Z</time>
      </trkpt>
      <trkpt lat="46.06963" lon="4.54359">
        <ele>792.17779541</ele>
        <time>2015-09-10T10:32:25.159Z</time>
      </trkpt>
      <trkpt lat="46.06956" lon="4.54353">
        <ele>791.876647949</ele>
        <time>2015-09-10T10:32:32.223Z</time>
      </trkpt>
      <trkpt lat="46.06955" lon="4.54351">
        <ele>791.830505371</ele>
        <time>2015-09-10T10:32:33.158Z</time>
      </trkpt>
      <trkpt lat="46.06947" lon="4.54344">
        <ele>791.389038086</ele>
        <time>2015-09-10T10:32:41.169Z</time>
      </trkpt>
      <trkpt lat="46.06946" lon="4.54344">
        <ele>791.340026855</ele>
        <time>2015-09-10T10:32:42.165Z</time>
      </trkpt>
      <trkpt lat="46.06939" lon="4.54338">
        <ele>790.981628418</ele>
        <time>2015-09-10T10:32:48.185Z</time>
      </trkpt>
      <trkpt lat="46.06938" lon="4.54337">
        <ele>790.919128418</ele>
        <time>2015-09-10T10:32:49.135Z</time>
      </trkpt>
      <trkpt lat="46.06931" lon="4.54331">
        <ele>790.621643066</ele>
        <time>2015-09-10T10:32:56.198Z</time>
      </trkpt>
      <trkpt lat="46.0693" lon="4.5433">
        <ele>790.591918945</ele>
        <time>2015-09-10T10:32:57.135Z</time>
      </trkpt>
      <trkpt lat="46.06922" lon="4.54327">
        <ele>790.394470215</ele>
        <time>2015-09-10T10:33:04.184Z</time>
      </trkpt>
      <trkpt lat="46.06921" lon="4.54326">
        <ele>790.376831055</ele>
        <time>2015-09-10T10:33:05.135Z</time>
      </trkpt>
      <trkpt lat="46.06913" lon="4.54321">
        <ele>790.25201416</ele>
        <time>2015-09-10T10:33:12.196Z</time>
      </trkpt>
      <trkpt lat="46.06912" lon="4.5432">
        <ele>790.237365723</ele>
        <time>2015-09-10T10:33:13.137Z</time>
      </trkpt>
      <trkpt lat="46.06905" lon="4.54316">
        <ele>790.047790527</ele>
        <time>2015-09-10T10:33:19.193Z</time>
      </trkpt>
      <trkpt lat="46.06904" lon="4.54315">
        <ele>789.99810791</ele>
        <time>2015-09-10T10:33:20.172Z</time>
      </trkpt>
      <trkpt lat="46.06897" lon="4.54311">
        <ele>789.679016113</ele>
        <time>2015-09-10T10:33:26.2Z</time>
      </trkpt>
      <trkpt lat="46.06896" lon="4.54309">
        <ele>789.582092285</ele>
        <time>2015-09-10T10:33:27.162Z</time>
      </trkpt>
      <trkpt lat="46.06888" lon="4.54305">
        <ele>788.830505371</ele>
        <time>2015-09-10T10:33:34.197Z</time>
      </trkpt>
      <trkpt lat="46.06887" lon="4.54304">
        <ele>788.74798584</ele>
        <time>2015-09-10T10:33:35.163Z</time>
      </trkpt>
      <trkpt lat="46.06879" lon="4.54299">
        <ele>788.245605469</ele>
        <time>2015-09-10T10:33:42.2Z</time>
      </trkpt>
      <trkpt lat="46.06877" lon="4.54298">
        <ele>788.14276123</ele>
        <time>2015-09-10T10:33:43.168Z</time>
      </trkpt>
      <trkpt lat="46.0687" lon="4.54292">
        <ele>787.337097168</ele>
        <time>2015-09-10T10:33:50.24Z</time>
      </trkpt>
      <trkpt lat="46.06869" lon="4.54291">
        <ele>787.234985352</ele>
        <time>2015-09-10T10:33:51.157Z</time>
      </trkpt>
      <trkpt lat="46.06861" lon="4.54288">
        <ele>786.803588867</ele>
        <time>2015-09-10T10:33:58.186Z</time>
      </trkpt>
      <trkpt lat="46.0686" lon="4.54288">
        <ele>786.772521973</ele>
        <time>2015-09-10T10:33:59.151Z</time>
      </trkpt>
      <trkpt lat="46.06853" lon="4.54282">
        <ele>786.427124023</ele>
        <time>2015-09-10T10:34:05.176Z</time>
      </trkpt>
      <trkpt lat="46.06852" lon="4.54281">
        <ele>786.316955566</ele>
        <time>2015-09-10T10:34:06.172Z</time>
      </trkpt>
      <trkpt lat="46.06844" lon="4.54274">
        <ele>785.646850586</ele>
        <time>2015-09-10T10:34:13.175Z</time>
      </trkpt>
      <trkpt lat="46.06843" lon="4.54274">
        <ele>785.591186523</ele>
        <time>2015-09-10T10:34:14.162Z</time>
      </trkpt>
      <trkpt lat="46.06835" lon="4.54269">
        <ele>785.313659668</ele>
        <time>2015-09-10T10:34:21.183Z</time>
      </trkpt>
      <trkpt lat="46.06834" lon="4.54268">
        <ele>785.286254883</ele>
        <time>2015-09-10T10:34:22.154Z</time>
      </trkpt>
      <trkpt lat="46.06827" lon="4.54263">
        <ele>785.136108398</ele>
        <time>2015-09-10T10:34:28.2Z</time>
      </trkpt>
      <trkpt lat="46.06826" lon="4.54262">
        <ele>785.116943359</ele>
        <time>2015-09-10T10:34:29.143Z</time>
      </trkpt>
      <trkpt lat="46.06819" lon="4.54256">
        <ele>784.919128418</ele>
        <time>2015-09-10T10:34:36.225Z</time>
      </trkpt>
      <trkpt lat="46.06818" lon="4.54255">
        <ele>784.874633789</ele>
        <time>2015-09-10T10:34:37.157Z</time>
      </trkpt>
      <trkpt lat="46.06811" lon="4.54249">
        <ele>784.630004883</ele>
        <time>2015-09-10T10:34:44.186Z</time>
      </trkpt>
      <trkpt lat="46.0681" lon="4.54247">
        <ele>784.584228516</ele>
        <time>2015-09-10T10:34:45.143Z</time>
      </trkpt>
      <trkpt lat="46.06804" lon="4.54239">
        <ele>784.180541992</ele>
        <time>2015-09-10T10:34:52.194Z</time>
      </trkpt>
      <trkpt lat="46.06803" lon="4.54237">
        <ele>784.105041504</ele>
        <time>2015-09-10T10:34:53.143Z</time>
      </trkpt>
      <trkpt lat="46.06798" lon="4.54227">
        <ele>783.649963379</ele>
        <time>2015-09-10T10:35:00.205Z</time>
      </trkpt>
      <trkpt lat="46.06797" lon="4.54226">
        <ele>783.606140137</ele>
        <time>2015-09-10T10:35:01.145Z</time>
      </trkpt>
      <trkpt lat="46.06791" lon="4.54217">
        <ele>783.350891113</ele>
        <time>2015-09-10T10:35:08.191Z</time>
      </trkpt>
      <trkpt lat="46.0679" lon="4.54216">
        <ele>783.321411133</ele>
        <time>2015-09-10T10:35:09.148Z</time>
      </trkpt>
      <trkpt lat="46.06785" lon="4.54207">
        <ele>783.000671387</ele>
        <time>2015-09-10T10:35:15.187Z</time>
      </trkpt>
      <trkpt lat="46.06784" lon="4.54206">
        <ele>782.943969727</ele>
        <time>2015-09-10T10:35:16.171Z</time>
      </trkpt>
      <trkpt lat="46.06779" lon="4.54197">
        <ele>782.676452637</ele>
        <time>2015-09-10T10:35:22.209Z</time>
      </trkpt>
      <trkpt lat="46.06778" lon="4.54196">
        <ele>782.615722656</ele>
        <time>2015-09-10T10:35:23.171Z</time>
      </trkpt>
      <trkpt lat="46.06773" lon="4.54186">
        <ele>782.432006836</ele>
        <time>2015-09-10T10:35:30.203Z</time>
      </trkpt>
      <trkpt lat="46.06772" lon="4.54185">
        <ele>782.444824219</ele>
        <time>2015-09-10T10:35:31.172Z</time>
      </trkpt>
      <trkpt lat="46.06768" lon="4.54174">
        <ele>782.840087891</ele>
        <time>2015-09-10T10:35:39.193Z</time>
      </trkpt>
      <trkpt lat="46.06768" lon="4.54172">
        <ele>782.890991211</ele>
        <time>2015-09-10T10:35:40.16Z</time>
      </trkpt>
      <trkpt lat="46.06765" lon="4.54162">
        <ele>785.801330566</ele>
        <time>2015-09-10T10:36:00.233Z</time>
      </trkpt>
      <trkpt lat="46.06764" lon="4.5416">
        <ele>786.017089844</ele>
        <time>2015-09-10T10:36:01.163Z</time>
      </trkpt>
      <trkpt lat="46.06758" lon="4.54151">
        <ele>787.471130371</ele>
        <time>2015-09-10T10:36:07.224Z</time>
      </trkpt>
      <trkpt lat="46.06757" lon="4.5415">
        <ele>787.800170898</ele>
        <time>2015-09-10T10:36:08.187Z</time>
      </trkpt>
      <trkpt lat="46.06751" lon="4.54143">
        <ele>790.343139648</ele>
        <time>2015-09-10T10:36:15.205Z</time>
      </trkpt>
      <trkpt lat="46.0675" lon="4.54142">
        <ele>790.62097168</ele>
        <time>2015-09-10T10:36:16.162Z</time>
      </trkpt>
      <trkpt lat="46.06744" lon="4.54134">
        <ele>793.228942871</ele>
        <time>2015-09-10T10:36:24.214Z</time>
      </trkpt>
      <trkpt lat="46.06743" lon="4.54133">
        <ele>793.587646484</ele>
        <time>2015-09-10T10:36:25.174Z</time>
      </trkpt>
      <trkpt lat="46.06735" lon="4.54128">
        <ele>795.457763672</ele>
        <time>2015-09-10T10:36:31.209Z</time>
      </trkpt>
      <trkpt lat="46.06734" lon="4.54127">
        <ele>795.713989258</ele>
        <time>2015-09-10T10:36:32.174Z</time>
      </trkpt>
      <trkpt lat="46.06725" lon="4.54122">
        <ele>797.383056641</ele>
        <time>2015-09-10T10:36:38.188Z</time>
      </trkpt>
      <trkpt lat="46.06724" lon="4.54122">
        <ele>797.741027832</ele>
        <time>2015-09-10T10:36:39.169Z</time>
      </trkpt>
      <trkpt lat="46.06718" lon="4.54117">
        <ele>799.320800781</ele>
        <time>2015-09-10T10:36:47.213Z</time>
      </trkpt>
      <trkpt lat="46.06716" lon="4.54116">
        <ele>799.439880371</ele>
        <time>2015-09-10T10:36:48.168Z</time>
      </trkpt>
      <trkpt lat="46.06707" lon="4.54112">
        <ele>801.071166992</ele>
        <time>2015-09-10T10:36:56.22Z</time>
      </trkpt>
      <trkpt lat="46.06706" lon="4.54112">
        <ele>801.289367676</ele>
        <time>2015-09-10T10:36:57.169Z</time>
      </trkpt>
      <trkpt lat="46.06698" lon="4.54106">
        <ele>802.707946777</ele>
        <time>2015-09-10T10:37:05.219Z</time>
      </trkpt>
      <trkpt lat="46.06697" lon="4.54106">
        <ele>802.661376953</ele>
        <time>2015-09-10T10:37:06.154Z</time>
      </trkpt>
      <trkpt lat="46.06689" lon="4.541">
        <ele>802.942932129</ele>
        <time>2015-09-10T10:37:14.181Z</time>
      </trkpt>
      <trkpt lat="46.06688" lon="4.54099">
        <ele>802.999755859</ele>
        <time>2015-09-10T10:37:15.162Z</time>
      </trkpt>
      <trkpt lat="46.0668" lon="4.54092">
        <ele>803.31451416</ele>
        <time>2015-09-10T10:37:21.215Z</time>
      </trkpt>
      <trkpt lat="46.06679" lon="4.54091">
        <ele>803.222229004</ele>
        <time>2015-09-10T10:37:22.156Z</time>
      </trkpt>
      <trkpt lat="46.06671" lon="4.54085">
        <ele>802.761291504</ele>
        <time>2015-09-10T10:37:28.212Z</time>
      </trkpt>
      <trkpt lat="46.0667" lon="4.54084">
        <ele>802.766906738</ele>
        <time>2015-09-10T10:37:29.176Z</time>
      </trkpt>
      <trkpt lat="46.06662" lon="4.54078">
        <ele>802.371826172</ele>
        <time>2015-09-10T10:37:37.213Z</time>
      </trkpt>
      <trkpt lat="46.06661" lon="4.54078">
        <ele>802.348144531</ele>
        <time>2015-09-10T10:37:38.162Z</time>
      </trkpt>
      <trkpt lat="46.06653" lon="4.54075">
        <ele>802.159057617</ele>
        <time>2015-09-10T10:37:46.214Z</time>
      </trkpt>
      <trkpt lat="46.06652" lon="4.54075">
        <ele>802.185546875</ele>
        <time>2015-09-10T10:37:47.158Z</time>
      </trkpt>
      <trkpt lat="46.06644" lon="4.54082">
        <ele>803.59765625</ele>
        <time>2015-09-10T10:38:03.174Z</time>
      </trkpt>
      <trkpt lat="46.06644" lon="4.54083">
        <ele>803.662719727</ele>
        <time>2015-09-10T10:38:04.153Z</time>
      </trkpt>
      <trkpt lat="46.06645" lon="4.54095">
        <ele>801.317565918</ele>
        <time>2015-09-10T10:46:01.182Z</time>
      </trkpt>
      <trkpt lat="46.06645" lon="4.54096">
        <ele>801.285400391</ele>
        <time>2015-09-10T10:46:02.152Z</time>
      </trkpt>
      <trkpt lat="46.06639" lon="4.54087">
        <ele>801.581115723</ele>
        <time>2015-09-10T10:46:51.219Z</time>
      </trkpt>
      <trkpt lat="46.06639" lon="4.54086">
        <ele>801.604003906</ele>
        <time>2015-09-10T10:46:52.159Z</time>
      </trkpt>
      <trkpt lat="46.06643" lon="4.54097">
        <ele>802.495605469</ele>
        <time>2015-09-10T10:47:32.216Z</time>
      </trkpt>
      <trkpt lat="46.06643" lon="4.54098">
        <ele>802.524169922</ele>
        <time>2015-09-10T10:47:33.152Z</time>
      </trkpt>
      <trkpt lat="46.0664" lon="4.54086">
        <ele>802.334838867</ele>
        <time>2015-09-10T10:48:03.207Z</time>
      </trkpt>
      <trkpt lat="46.06639" lon="4.54086">
        <ele>802.31817627</ele>
        <time>2015-09-10T10:48:04.168Z</time>
      </trkpt>
      <trkpt lat="46.06633" lon="4.54077">
        <ele>803.611633301</ele>
        <time>2015-09-10T10:49:59.194Z</time>
      </trkpt>
      <trkpt lat="46.06633" lon="4.54076">
        <ele>803.623718262</ele>
        <time>2015-09-10T10:50:00.174Z</time>
      </trkpt>
      <trkpt lat="46.06639" lon="4.54085">
        <ele>803.829772949</ele>
        <time>2015-09-10T10:51:42.21Z</time>
      </trkpt>
      <trkpt lat="46.0664" lon="4.54086">
        <ele>803.80847168</ele>
        <time>2015-09-10T10:51:43.165Z</time>
      </trkpt>
      <trkpt lat="46.06648" lon="4.54091">
        <ele>803.659973145</ele>
        <time>2015-09-10T10:51:51.203Z</time>
      </trkpt>
      <trkpt lat="46.06648" lon="4.54092">
        <ele>803.656738281</ele>
        <time>2015-09-10T10:51:52.17Z</time>
      </trkpt>
      <trkpt lat="46.06641" lon="4.54085">
        <ele>803.501708984</ele>
        <time>2015-09-10T10:53:23.217Z</time>
      </trkpt>
      <trkpt lat="46.0664" lon="4.54085">
        <ele>803.516845703</ele>
        <time>2015-09-10T10:53:24.174Z</time>
      </trkpt>
      <trkpt lat="46.06631" lon="4.54085">
        <ele>803.72869873</ele>
        <time>2015-09-10T10:53:40.181Z</time>
      </trkpt>
      <trkpt lat="46.06631" lon="4.54084">
        <ele>803.709960938</ele>
        <time>2015-09-10T10:53:41.14Z</time>
      </trkpt>
      <trkpt lat="46.06639" lon="4.54083">
        <ele>803.930053711</ele>
        <time>2015-09-10T10:54:37.191Z</time>
      </trkpt>
      <trkpt lat="46.06641" lon="4.54082">
        <ele>803.931762695</ele>
        <time>2015-09-10T10:54:38.146Z</time>
      </trkpt>
      <trkpt lat="46.06649" lon="4.54079">
        <ele>803.982421875</ele>
        <time>2015-09-10T10:54:45.181Z</time>
      </trkpt>
      <trkpt lat="46.06649" lon="4.54079">
        <ele>803.992614746</ele>
        <time>2015-09-10T10:54:46.145Z</time>
      </trkpt>
      <trkpt lat="46.06642" lon="4.54086">
        <ele>803.37322998</ele>
        <time>2015-09-10T10:57:29.202Z</time>
      </trkpt>
      <trkpt lat="46.06642" lon="4.54086">
        <ele>803.371948242</ele>
        <time>2015-09-10T10:57:30.143Z</time>
      </trkpt>
      <trkpt lat="46.0664" lon="4.54074">
        <ele>796.908691406</ele>
        <time>2015-09-10T11:22:20.172Z</time>
      </trkpt>
      <trkpt lat="46.06639" lon="4.54073">
        <ele>796.94921875</ele>
        <time>2015-09-10T11:22:21.143Z</time>
      </trkpt>
      <trkpt lat="46.06635" lon="4.54062">
        <ele>797.263366699</ele>
        <time>2015-09-10T11:22:34.18Z</time>
      </trkpt>
      <trkpt lat="46.06634" lon="4.54062">
        <ele>797.26940918</ele>
        <time>2015-09-10T11:22:35.143Z</time>
      </trkpt>
      <trkpt lat="46.06628" lon="4.54052">
        <ele>797.982971191</ele>
        <time>2015-09-10T11:22:46.167Z</time>
      </trkpt>
      <trkpt lat="46.06628" lon="4.5405">
        <ele>798.112976074</ele>
        <time>2015-09-10T11:22:47.147Z</time>
      </trkpt>
      <trkpt lat="46.06623" lon="4.5404">
        <ele>799.291625977</ele>
        <time>2015-09-10T11:22:58.16Z</time>
      </trkpt>
      <trkpt lat="46.06622" lon="4.54039">
        <ele>799.274780273</ele>
        <time>2015-09-10T11:22:59.148Z</time>
      </trkpt>
      <trkpt lat="46.06615" lon="4.54031">
        <ele>800.131774902</ele>
        <time>2015-09-10T11:23:11.198Z</time>
      </trkpt>
      <trkpt lat="46.06614" lon="4.54029">
        <ele>800.00994873</ele>
        <time>2015-09-10T11:23:12.147Z</time>
      </trkpt>
      <trkpt lat="46.06608" lon="4.54023">
        <ele>799.812561035</ele>
        <time>2015-09-10T11:23:19.201Z</time>
      </trkpt>
      <trkpt lat="46.06607" lon="4.54022">
        <ele>799.98828125</ele>
        <time>2015-09-10T11:23:20.147Z</time>
      </trkpt>
      <trkpt lat="46.06599" lon="4.54016">
        <ele>801.299194336</ele>
        <time>2015-09-10T11:23:27.18Z</time>
      </trkpt>
      <trkpt lat="46.06599" lon="4.54015">
        <ele>801.502563477</ele>
        <time>2015-09-10T11:23:28.146Z</time>
      </trkpt>
      <trkpt lat="46.06592" lon="4.54009">
        <ele>801.676940918</ele>
        <time>2015-09-10T11:23:34.166Z</time>
      </trkpt>
      <trkpt lat="46.0659" lon="4.54008">
        <ele>801.721923828</ele>
        <time>2015-09-10T11:23:35.151Z</time>
      </trkpt>
      <trkpt lat="46.06583" lon="4.54002">
        <ele>804.143127441</ele>
        <time>2015-09-10T11:23:45.197Z</time>
      </trkpt>
      <trkpt lat="46.06582" lon="4.54002">
        <ele>804.460021973</ele>
        <time>2015-09-10T11:23:46.162Z</time>
      </trkpt>
      <trkpt lat="46.06574" lon="4.53999">
        <ele>806.303222656</ele>
        <time>2015-09-10T11:23:54.209Z</time>
      </trkpt>
      <trkpt lat="46.06573" lon="4.53999">
        <ele>806.489868164</ele>
        <time>2015-09-10T11:23:55.144Z</time>
      </trkpt>
      <trkpt lat="46.06565" lon="4.53993">
        <ele>807.751037598</ele>
        <time>2015-09-10T11:24:02.182Z</time>
      </trkpt>
      <trkpt lat="46.06563" lon="4.53992">
        <ele>807.848571777</ele>
        <time>2015-09-10T11:24:03.162Z</time>
      </trkpt>
      <trkpt lat="46.06555" lon="4.53988">
        <ele>807.440612793</ele>
        <time>2015-09-10T11:24:08.208Z</time>
      </trkpt>
      <trkpt lat="46.06554" lon="4.53987">
        <ele>807.475219727</ele>
        <time>2015-09-10T11:24:09.136Z</time>
      </trkpt>
      <trkpt lat="46.06546" lon="4.53983">
        <ele>807.814575195</ele>
        <time>2015-09-10T11:24:16.175Z</time>
      </trkpt>
      <trkpt lat="46.06544" lon="4.53983">
        <ele>807.713317871</ele>
        <time>2015-09-10T11:24:17.14Z</time>
      </trkpt>
      <trkpt lat="46.06536" lon="4.53979">
        <ele>807.734680176</ele>
        <time>2015-09-10T11:24:22.193Z</time>
      </trkpt>
      <trkpt lat="46.06534" lon="4.53978">
        <ele>807.780456543</ele>
        <time>2015-09-10T11:24:23.156Z</time>
      </trkpt>
      <trkpt lat="46.06526" lon="4.53974">
        <ele>808.387939453</ele>
        <time>2015-09-10T11:24:34.186Z</time>
      </trkpt>
      <trkpt lat="46.06523" lon="4.53974">
        <ele>808.642211914</ele>
        <time>2015-09-10T11:24:35.151Z</time>
      </trkpt>
      <trkpt lat="46.06516" lon="4.53969">
        <ele>810.273010254</ele>
        <time>2015-09-10T11:24:45.206Z</time>
      </trkpt>
      <trkpt lat="46.06515" lon="4.53969">
        <ele>810.415405273</ele>
        <time>2015-09-10T11:24:46.139Z</time>
      </trkpt>
      <trkpt lat="46.06507" lon="4.53966">
        <ele>811.10559082</ele>
        <time>2015-09-10T11:24:52.173Z</time>
      </trkpt>
      <trkpt lat="46.06506" lon="4.53964">
        <ele>811.12109375</ele>
        <time>2015-09-10T11:24:53.155Z</time>
      </trkpt>
      <trkpt lat="46.06498" lon="4.53958">
        <ele>811.347290039</ele>
        <time>2015-09-10T11:25:01.204Z</time>
      </trkpt>
      <trkpt lat="46.06497" lon="4.53957">
        <ele>811.372375488</ele>
        <time>2015-09-10T11:25:02.16Z</time>
      </trkpt>
      <trkpt lat="46.06489" lon="4.53951">
        <ele>812.368530273</ele>
        <time>2015-09-10T11:25:13.165Z</time>
      </trkpt>
      <trkpt lat="46.06488" lon="4.53951">
        <ele>812.536437988</ele>
        <time>2015-09-10T11:25:14.137Z</time>
      </trkpt>
      <trkpt lat="46.0648" lon="4.53947">
        <ele>812.442626953</ele>
        <time>2015-09-10T11:25:23.182Z</time>
      </trkpt>
      <trkpt lat="46.06479" lon="4.53946">
        <ele>812.288513184</ele>
        <time>2015-09-10T11:25:24.12Z</time>
      </trkpt>
      <trkpt lat="46.0647" lon="4.53943">
        <ele>813.492126465</ele>
        <time>2015-09-10T11:25:35.173Z</time>
      </trkpt>
      <trkpt lat="46.0647" lon="4.53943">
        <ele>813.696716309</ele>
        <time>2015-09-10T11:25:36.117Z</time>
      </trkpt>
      <trkpt lat="46.06461" lon="4.5394">
        <ele>814.390197754</ele>
        <time>2015-09-10T11:25:47.187Z</time>
      </trkpt>
      <trkpt lat="46.06461" lon="4.53939">
        <ele>814.40802002</ele>
        <time>2015-09-10T11:25:48.12Z</time>
      </trkpt>
      <trkpt lat="46.06453" lon="4.53935">
        <ele>815.094787598</ele>
        <time>2015-09-10T11:25:59.179Z</time>
      </trkpt>
      <trkpt lat="46.06452" lon="4.53934">
        <ele>815.38067627</ele>
        <time>2015-09-10T11:26:00.122Z</time>
      </trkpt>
      <trkpt lat="46.06444" lon="4.53932">
        <ele>817.282226562</ele>
        <time>2015-09-10T11:26:08.17Z</time>
      </trkpt>
      <trkpt lat="46.06441" lon="4.53931">
        <ele>817.53894043</ele>
        <time>2015-09-10T11:26:09.134Z</time>
      </trkpt>
      <trkpt lat="46.06432" lon="4.53928">
        <ele>819.085021973</ele>
        <time>2015-09-10T11:26:18.193Z</time>
      </trkpt>
      <trkpt lat="46.06431" lon="4.53928">
        <ele>819.214660645</ele>
        <time>2015-09-10T11:26:19.135Z</time>
      </trkpt>
      <trkpt lat="46.06423" lon="4.53929">
        <ele>820.299438477</ele>
        <time>2015-09-10T11:26:26.185Z</time>
      </trkpt>
      <trkpt lat="46.06421" lon="4.53929">
        <ele>820.523254395</ele>
        <time>2015-09-10T11:26:27.144Z</time>
      </trkpt>
      <trkpt lat="46.06412" lon="4.53929">
        <ele>822.242980957</ele>
        <time>2015-09-10T11:26:34.183Z</time>
      </trkpt>
      <trkpt lat="46.0641" lon="4.53929">
        <ele>822.450378418</ele>
        <time>2015-09-10T11:26:35.137Z</time>
      </trkpt>
      <trkpt lat="46.06402" lon="4.53929">
        <ele>822.983581543</ele>
        <time>2015-09-10T11:26:41.195Z</time>
      </trkpt>
      <trkpt lat="46.064" lon="4.53929">
        <ele>823.070556641</ele>
        <time>2015-09-10T11:26:42.136Z</time>
      </trkpt>
      <trkpt lat="46.06392" lon="4.53928">
        <ele>824.130065918</ele>
        <time>2015-09-10T11:26:48.147Z</time>
      </trkpt>
      <trkpt lat="46.06391" lon="4.53928">
        <ele>824.332885742</ele>
        <time>2015-09-10T11:26:49.137Z</time>
      </trkpt>
      <trkpt lat="46.06382" lon="4.53928">
        <ele>825.897521973</ele>
        <time>2015-09-10T11:26:55.176Z</time>
      </trkpt>
      <trkpt lat="46.06381" lon="4.53928">
        <ele>826.171325684</ele>
        <time>2015-09-10T11:26:56.132Z</time>
      </trkpt>
      <trkpt lat="46.06373" lon="4.53926">
        <ele>827.748046875</ele>
        <time>2015-09-10T11:27:05.18Z</time>
      </trkpt>
      <trkpt lat="46.06372" lon="4.53925">
        <ele>827.74230957</ele>
        <time>2015-09-10T11:27:06.124Z</time>
      </trkpt>
      <trkpt lat="46.06363" lon="4.53923">
        <ele>827.496459961</ele>
        <time>2015-09-10T11:27:10.19Z</time>
      </trkpt>
      <trkpt lat="46.06362" lon="4.53922">
        <ele>827.364318848</ele>
        <time>2015-09-10T11:27:11.136Z</time>
      </trkpt>
      <trkpt lat="46.06353" lon="4.53918">
        <ele>825.488830566</ele>
        <time>2015-09-10T11:27:21.174Z</time>
      </trkpt>
      <trkpt lat="46.06353" lon="4.53918">
        <ele>825.420959473</ele>
        <time>2015-09-10T11:27:22.142Z</time>
      </trkpt>
      <trkpt lat="46.06344" lon="4.53917">
        <ele>825.532104492</ele>
        <time>2015-09-10T11:27:32.185Z</time>
      </trkpt>
      <trkpt lat="46.06344" lon="4.53917">
        <ele>825.660461426</ele>
        <time>2015-09-10T11:27:33.143Z</time>
      </trkpt>
      <trkpt lat="46.06336" lon="4.53914">
        <ele>826.651306152</ele>
        <time>2015-09-10T11:27:45.183Z</time>
      </trkpt>
      <trkpt lat="46.06335" lon="4.53914">
        <ele>826.703125</ele>
        <time>2015-09-10T11:27:46.147Z</time>
      </trkpt>
      <trkpt lat="46.06327" lon="4.53909">
        <ele>827.486022949</ele>
        <time>2015-09-10T11:27:54.31Z</time>
      </trkpt>
      <trkpt lat="46.06325" lon="4.53908">
        <ele>827.661010742</ele>
        <time>2015-09-10T11:27:55.127Z</time>
      </trkpt>
      <trkpt lat="46.06317" lon="4.53903">
        <ele>828.966674805</ele>
        <time>2015-09-10T11:28:04.186Z</time>
      </trkpt>
      <trkpt lat="46.06316" lon="4.53903">
        <ele>828.97442627</ele>
        <time>2015-09-10T11:28:05.143Z</time>
      </trkpt>
      <trkpt lat="46.06308" lon="4.53899">
        <ele>829.287963867</ele>
        <time>2015-09-10T11:28:19.155Z</time>
      </trkpt>
      <trkpt lat="46.06306" lon="4.53898">
        <ele>829.334533691</ele>
        <time>2015-09-10T11:28:20.144Z</time>
      </trkpt>
      <trkpt lat="46.06299" lon="4.53894">
        <ele>830.10748291</ele>
        <time>2015-09-10T11:28:28.189Z</time>
      </trkpt>
      <trkpt lat="46.06297" lon="4.53894">
        <ele>830.231506348</ele>
        <time>2015-09-10T11:28:29.146Z</time>
      </trkpt>
      <trkpt lat="46.06289" lon="4.53893">
        <ele>830.848815918</ele>
        <time>2015-09-10T11:28:35.177Z</time>
      </trkpt>
      <trkpt lat="46.06288" lon="4.53893">
        <ele>830.969482422</ele>
        <time>2015-09-10T11:28:36.154Z</time>
      </trkpt>
      <trkpt lat="46.06281" lon="4.53892">
        <ele>831.387695312</ele>
        <time>2015-09-10T11:28:40.187Z</time>
      </trkpt>
      <trkpt lat="46.06278" lon="4.53891">
        <ele>831.400390625</ele>
        <time>2015-09-10T11:28:41.145Z</time>
      </trkpt>
      <trkpt lat="46.06271" lon="4.53889">
        <ele>831.330810547</ele>
        <time>2015-09-10T11:28:45.197Z</time>
      </trkpt>
      <trkpt lat="46.06269" lon="4.53889">
        <ele>831.46685791</ele>
        <time>2015-09-10T11:28:46.146Z</time>
      </trkpt>
      <trkpt lat="46.0626" lon="4.53888">
        <ele>831.639404297</ele>
        <time>2015-09-10T11:28:52.185Z</time>
      </trkpt>
      <trkpt lat="46.06259" lon="4.53889">
        <ele>831.692260742</ele>
        <time>2015-09-10T11:28:53.158Z</time>
      </trkpt>
      <trkpt lat="46.06252" lon="4.53891">
        <ele>832.845397949</ele>
        <time>2015-09-10T11:28:59.184Z</time>
      </trkpt>
      <trkpt lat="46.06249" lon="4.53892">
        <ele>833.078979492</ele>
        <time>2015-09-10T11:29:00.132Z</time>
      </trkpt>
      <trkpt lat="46.06241" lon="4.53894">
        <ele>833.838317871</ele>
        <time>2015-09-10T11:29:11.19Z</time>
      </trkpt>
      <trkpt lat="46.0624" lon="4.53895">
        <ele>833.848999023</ele>
        <time>2015-09-10T11:29:12.138Z</time>
      </trkpt>
      <trkpt lat="46.06231" lon="4.53897">
        <ele>833.698181152</ele>
        <time>2015-09-10T11:29:16.159Z</time>
      </trkpt>
      <trkpt lat="46.0623" lon="4.53897">
        <ele>833.663269043</ele>
        <time>2015-09-10T11:29:17.163Z</time>
      </trkpt>
      <trkpt lat="46.06222" lon="4.53897">
        <ele>833.983703613</ele>
        <time>2015-09-10T11:29:23.204Z</time>
      </trkpt>
      <trkpt lat="46.06221" lon="4.53897">
        <ele>834.03112793</ele>
        <time>2015-09-10T11:29:24.134Z</time>
      </trkpt>
      <trkpt lat="46.06212" lon="4.53896">
        <ele>833.65234375</ele>
        <time>2015-09-10T11:29:29.196Z</time>
      </trkpt>
      <trkpt lat="46.06211" lon="4.53895">
        <ele>833.596069336</ele>
        <time>2015-09-10T11:29:30.164Z</time>
      </trkpt>
      <trkpt lat="46.06203" lon="4.53894">
        <ele>833.437988281</ele>
        <time>2015-09-10T11:29:35.186Z</time>
      </trkpt>
      <trkpt lat="46.06202" lon="4.53894">
        <ele>833.510314941</ele>
        <time>2015-09-10T11:29:36.139Z</time>
      </trkpt>
      <trkpt lat="46.06193" lon="4.53892">
        <ele>833.537902832</ele>
        <time>2015-09-10T11:29:44.162Z</time>
      </trkpt>
      <trkpt lat="46.06192" lon="4.53892">
        <ele>833.553405762</ele>
        <time>2015-09-10T11:29:45.157Z</time>
      </trkpt>
      <trkpt lat="46.06184" lon="4.5389">
        <ele>833.575012207</ele>
        <time>2015-09-10T11:29:49.165Z</time>
      </trkpt>
      <trkpt lat="46.06182" lon="4.5389">
        <ele>833.471557617</ele>
        <time>2015-09-10T11:29:50.164Z</time>
      </trkpt>
      <trkpt lat="46.06174" lon="4.5389">
        <ele>833.110595703</ele>
        <time>2015-09-10T11:29:54.195Z</time>
      </trkpt>
      <trkpt lat="46.06173" lon="4.53889">
        <ele>833.002685547</ele>
        <time>2015-09-10T11:29:55.137Z</time>
      </trkpt>
      <trkpt lat="46.06165" lon="4.53884">
        <ele>830.847961426</ele>
        <time>2015-09-10T11:30:05.21Z</time>
      </trkpt>
      <trkpt lat="46.06164" lon="4.53884">
        <ele>830.627624512</ele>
        <time>2015-09-10T11:30:06.137Z</time>
      </trkpt>
      <trkpt lat="46.06156" lon="4.5388">
        <ele>829.73626709</ele>
        <time>2015-09-10T11:30:11.208Z</time>
      </trkpt>
      <trkpt lat="46.06155" lon="4.53879">
        <ele>829.521484375</ele>
        <time>2015-09-10T11:30:12.138Z</time>
      </trkpt>
      <trkpt lat="46.06147" lon="4.53876">
        <ele>828.068969727</ele>
        <time>2015-09-10T11:30:20.167Z</time>
      </trkpt>
      <trkpt lat="46.06146" lon="4.53875">
        <ele>827.894165039</ele>
        <time>2015-09-10T11:30:21.171Z</time>
      </trkpt>
      <trkpt lat="46.06138" lon="4.5387">
        <ele>826.230224609</ele>
        <time>2015-09-10T11:30:33.18Z</time>
      </trkpt>
      <trkpt lat="46.06137" lon="4.5387">
        <ele>826.112548828</ele>
        <time>2015-09-10T11:30:34.13Z</time>
      </trkpt>
      <trkpt lat="46.06128" lon="4.53866">
        <ele>825.010009766</ele>
        <time>2015-09-10T11:30:43.175Z</time>
      </trkpt>
      <trkpt lat="46.06127" lon="4.53866">
        <ele>824.904663086</ele>
        <time>2015-09-10T11:30:44.115Z</time>
      </trkpt>
      <trkpt lat="46.06119" lon="4.53863">
        <ele>823.709533691</ele>
        <time>2015-09-10T11:30:52.144Z</time>
      </trkpt>
      <trkpt lat="46.06117" lon="4.53862">
        <ele>823.612609863</ele>
        <time>2015-09-10T11:30:53.13Z</time>
      </trkpt>
      <trkpt lat="46.06109" lon="4.53857">
        <ele>822.258361816</ele>
        <time>2015-09-10T11:31:01.152Z</time>
      </trkpt>
      <trkpt lat="46.06108" lon="4.53857">
        <ele>822.132995605</ele>
        <time>2015-09-10T11:31:02.132Z</time>
      </trkpt>
      <trkpt lat="46.06099" lon="4.53852">
        <ele>820.844665527</ele>
        <time>2015-09-10T11:31:10.197Z</time>
      </trkpt>
      <trkpt lat="46.06099" lon="4.53851">
        <ele>820.655944824</ele>
        <time>2015-09-10T11:31:11.146Z</time>
      </trkpt>
      <trkpt lat="46.06092" lon="4.53846">
        <ele>819.378967285</ele>
        <time>2015-09-10T11:31:21.19Z</time>
      </trkpt>
      <trkpt lat="46.0609" lon="4.53845">
        <ele>819.25177002</ele>
        <time>2015-09-10T11:31:22.135Z</time>
      </trkpt>
      <trkpt lat="46.06083" lon="4.5384">
        <ele>818.30871582</ele>
        <time>2015-09-10T11:31:32.162Z</time>
      </trkpt>
      <trkpt lat="46.06081" lon="4.53839">
        <ele>818.197998047</ele>
        <time>2015-09-10T11:31:33.142Z</time>
      </trkpt>
      <trkpt lat="46.06073" lon="4.53834">
        <ele>817.075500488</ele>
        <time>2015-09-10T11:31:41.194Z</time>
      </trkpt>
      <trkpt lat="46.06071" lon="4.53833">
        <ele>817.041015625</ele>
        <time>2015-09-10T11:31:42.146Z</time>
      </trkpt>
      <trkpt lat="46.06063" lon="4.53827">
        <ele>816.134094238</ele>
        <time>2015-09-10T11:31:51.196Z</time>
      </trkpt>
      <trkpt lat="46.06062" lon="4.53826">
        <ele>815.961853027</ele>
        <time>2015-09-10T11:31:52.119Z</time>
      </trkpt>
      <trkpt lat="46.06054" lon="4.53822">
        <ele>814.519104004</ele>
        <time>2015-09-10T11:32:00.148Z</time>
      </trkpt>
      <trkpt lat="46.06052" lon="4.53822">
        <ele>814.407958984</ele>
        <time>2015-09-10T11:32:01.146Z</time>
      </trkpt>
      <trkpt lat="46.06044" lon="4.53818">
        <ele>813.452880859</ele>
        <time>2015-09-10T11:32:08.19Z</time>
      </trkpt>
      <trkpt lat="46.06043" lon="4.53818">
        <ele>813.293518066</ele>
        <time>2015-09-10T11:32:09.14Z</time>
      </trkpt>
      <trkpt lat="46.06035" lon="4.53812">
        <ele>811.818847656</ele>
        <time>2015-09-10T11:32:18.178Z</time>
      </trkpt>
      <trkpt lat="46.06034" lon="4.53812">
        <ele>811.725646973</ele>
        <time>2015-09-10T11:32:19.136Z</time>
      </trkpt>
      <trkpt lat="46.06026" lon="4.53806">
        <ele>810.874084473</ele>
        <time>2015-09-10T11:32:28.165Z</time>
      </trkpt>
      <trkpt lat="46.06025" lon="4.53805">
        <ele>810.807495117</ele>
        <time>2015-09-10T11:32:29.14Z</time>
      </trkpt>
      <trkpt lat="46.06018" lon="4.53799">
        <ele>808.726074219</ele>
        <time>2015-09-10T11:32:40.189Z</time>
      </trkpt>
      <trkpt lat="46.06017" lon="4.53799">
        <ele>808.476074219</ele>
        <time>2015-09-10T11:32:41.139Z</time>
      </trkpt>
      <trkpt lat="46.06009" lon="4.53793">
        <ele>806.124816895</ele>
        <time>2015-09-10T11:32:54.183Z</time>
      </trkpt>
      <trkpt lat="46.06008" lon="4.53792">
        <ele>805.898681641</ele>
        <time>2015-09-10T11:32:55.125Z</time>
      </trkpt>
      <trkpt lat="46.06" lon="4.53789">
        <ele>804.465332031</ele>
        <time>2015-09-10T11:33:01.183Z</time>
      </trkpt>
      <trkpt lat="46.05999" lon="4.53788">
        <ele>804.25402832</ele>
        <time>2015-09-10T11:33:02.147Z</time>
      </trkpt>
      <trkpt lat="46.05991" lon="4.53784">
        <ele>803.320556641</ele>
        <time>2015-09-10T11:33:13.164Z</time>
      </trkpt>
      <trkpt lat="46.0599" lon="4.53784">
        <ele>803.259399414</ele>
        <time>2015-09-10T11:33:14.147Z</time>
      </trkpt>
      <trkpt lat="46.05981" lon="4.53781">
        <ele>802.970153809</ele>
        <time>2015-09-10T11:33:20.152Z</time>
      </trkpt>
      <trkpt lat="46.0598" lon="4.53781">
        <ele>803.011474609</ele>
        <time>2015-09-10T11:33:21.141Z</time>
      </trkpt>
      <trkpt lat="46.05973" lon="4.53776">
        <ele>802.484008789</ele>
        <time>2015-09-10T11:33:30.195Z</time>
      </trkpt>
      <trkpt lat="46.05972" lon="4.53776">
        <ele>802.383300781</ele>
        <time>2015-09-10T11:33:31.147Z</time>
      </trkpt>
      <trkpt lat="46.05964" lon="4.53772">
        <ele>801.873046875</ele>
        <time>2015-09-10T11:33:38.181Z</time>
      </trkpt>
      <trkpt lat="46.05962" lon="4.53771">
        <ele>801.849304199</ele>
        <time>2015-09-10T11:33:39.147Z</time>
      </trkpt>
      <trkpt lat="46.05956" lon="4.5377">
        <ele>801.738037109</ele>
        <time>2015-09-10T11:33:48.178Z</time>
      </trkpt>
      <trkpt lat="46.05953" lon="4.53769">
        <ele>801.554382324</ele>
        <time>2015-09-10T11:33:49.154Z</time>
      </trkpt>
      <trkpt lat="46.05945" lon="4.53766">
        <ele>800.186645508</ele>
        <time>2015-09-10T11:33:59.2Z</time>
      </trkpt>
      <trkpt lat="46.05943" lon="4.53766">
        <ele>800.156616211</ele>
        <time>2015-09-10T11:34:00.13Z</time>
      </trkpt>
      <trkpt lat="46.05937" lon="4.53771">
        <ele>799.973999023</ele>
        <time>2015-09-10T11:34:11.195Z</time>
      </trkpt>
      <trkpt lat="46.05935" lon="4.53773">
        <ele>799.907348633</ele>
        <time>2015-09-10T11:34:12.132Z</time>
      </trkpt>
      <trkpt lat="46.05929" lon="4.53782">
        <ele>799.237731934</ele>
        <time>2015-09-10T11:34:18.195Z</time>
      </trkpt>
      <trkpt lat="46.05928" lon="4.53782">
        <ele>799.039672852</ele>
        <time>2015-09-10T11:34:19.146Z</time>
      </trkpt>
      <trkpt lat="46.05924" lon="4.53793">
        <ele>797.595092773</ele>
        <time>2015-09-10T11:34:30.164Z</time>
      </trkpt>
      <trkpt lat="46.05924" lon="4.53794">
        <ele>797.690429688</ele>
        <time>2015-09-10T11:34:31.15Z</time>
      </trkpt>
      <trkpt lat="46.0592" lon="4.53804">
        <ele>797.830688477</ele>
        <time>2015-09-10T11:34:43.196Z</time>
      </trkpt>
      <trkpt lat="46.05919" lon="4.53806">
        <ele>797.768554688</ele>
        <time>2015-09-10T11:34:44.133Z</time>
      </trkpt>
      <trkpt lat="46.05914" lon="4.53815">
        <ele>796.780273438</ele>
        <time>2015-09-10T11:34:54.186Z</time>
      </trkpt>
      <trkpt lat="46.05913" lon="4.53816">
        <ele>796.664855957</ele>
        <time>2015-09-10T11:34:55.14Z</time>
      </trkpt>
      <trkpt lat="46.05905" lon="4.53823">
        <ele>795.752197266</ele>
        <time>2015-09-10T11:35:15.203Z</time>
      </trkpt>
      <trkpt lat="46.05903" lon="4.53823">
        <ele>795.819519043</ele>
        <time>2015-09-10T11:35:16.136Z</time>
      </trkpt>
      <trkpt lat="46.05896" lon="4.53827">
        <ele>796.062683105</ele>
        <time>2015-09-10T11:35:19.203Z</time>
      </trkpt>
      <trkpt lat="46.05894" lon="4.53828">
        <ele>796.091918945</ele>
        <time>2015-09-10T11:35:20.14Z</time>
      </trkpt>
      <trkpt lat="46.05887" lon="4.53832">
        <ele>795.983642578</ele>
        <time>2015-09-10T11:35:23.185Z</time>
      </trkpt>
      <trkpt lat="46.05884" lon="4.53832">
        <ele>795.847045898</ele>
        <time>2015-09-10T11:35:24.137Z</time>
      </trkpt>
      <trkpt lat="46.05877" lon="4.5384">
        <ele>795.223266602</ele>
        <time>2015-09-10T11:35:31.202Z</time>
      </trkpt>
      <trkpt lat="46.05876" lon="4.53841">
        <ele>795.246765137</ele>
        <time>2015-09-10T11:35:32.155Z</time>
      </trkpt>
      <trkpt lat="46.0587" lon="4.53847">
        <ele>795.375732422</ele>
        <time>2015-09-10T11:35:41.166Z</time>
      </trkpt>
      <trkpt lat="46.05869" lon="4.53848">
        <ele>795.20892334</ele>
        <time>2015-09-10T11:35:42.128Z</time>
      </trkpt>
      <trkpt lat="46.05862" lon="4.53854">
        <ele>794.346984863</ele>
        <time>2015-09-10T11:35:48.225Z</time>
      </trkpt>
      <trkpt lat="46.05861" lon="4.53855">
        <ele>794.122741699</ele>
        <time>2015-09-10T11:35:49.149Z</time>
      </trkpt>
      <trkpt lat="46.05852" lon="4.53859">
        <ele>792.925354004</ele>
        <time>2015-09-10T11:35:54.17Z</time>
      </trkpt>
      <trkpt lat="46.0585" lon="4.5386">
        <ele>792.628723145</ele>
        <time>2015-09-10T11:35:55.123Z</time>
      </trkpt>
      <trkpt lat="46.05843" lon="4.53865">
        <ele>790.834594727</ele>
        <time>2015-09-10T11:36:04.175Z</time>
      </trkpt>
      <trkpt lat="46.05842" lon="4.53865">
        <ele>790.514587402</ele>
        <time>2015-09-10T11:36:05.118Z</time>
      </trkpt>
      <trkpt lat="46.05835" lon="4.53873">
        <ele>788.314819336</ele>
        <time>2015-09-10T11:36:15.166Z</time>
      </trkpt>
      <trkpt lat="46.05834" lon="4.53873">
        <ele>788.304321289</ele>
        <time>2015-09-10T11:36:16.114Z</time>
      </trkpt>
      <trkpt lat="46.05827" lon="4.53879">
        <ele>786.623596191</ele>
        <time>2015-09-10T11:36:25.172Z</time>
      </trkpt>
      <trkpt lat="46.05826" lon="4.5388">
        <ele>786.400512695</ele>
        <time>2015-09-10T11:36:26.134Z</time>
      </trkpt>
      <trkpt lat="46.05819" lon="4.53885">
        <ele>784.661560059</ele>
        <time>2015-09-10T11:36:36.165Z</time>
      </trkpt>
      <trkpt lat="46.05818" lon="4.53885">
        <ele>784.454101562</ele>
        <time>2015-09-10T11:36:37.148Z</time>
      </trkpt>
      <trkpt lat="46.0581" lon="4.53891">
        <ele>782.937438965</ele>
        <time>2015-09-10T11:36:45.178Z</time>
      </trkpt>
      <trkpt lat="46.05809" lon="4.53891">
        <ele>782.915344238</ele>
        <time>2015-09-10T11:36:46.146Z</time>
      </trkpt>
      <trkpt lat="46.05804" lon="4.539">
        <ele>781.056945801</ele>
        <time>2015-09-10T11:36:53.166Z</time>
      </trkpt>
      <trkpt lat="46.05802" lon="4.53901">
        <ele>780.810791016</ele>
        <time>2015-09-10T11:36:54.136Z</time>
      </trkpt>
      <trkpt lat="46.05796" lon="4.53909">
        <ele>779.166320801</ele>
        <time>2015-09-10T11:37:01.183Z</time>
      </trkpt>
      <trkpt lat="46.05795" lon="4.5391">
        <ele>778.869140625</ele>
        <time>2015-09-10T11:37:02.145Z</time>
      </trkpt>
      <trkpt lat="46.05787" lon="4.53917">
        <ele>777.259399414</ele>
        <time>2015-09-10T11:37:12.196Z</time>
      </trkpt>
      <trkpt lat="46.05787" lon="4.53918">
        <ele>777.088867188</ele>
        <time>2015-09-10T11:37:13.142Z</time>
      </trkpt>
      <trkpt lat="46.0578" lon="4.53926">
        <ele>776.288879395</ele>
        <time>2015-09-10T11:37:20.141Z</time>
      </trkpt>
      <trkpt lat="46.05779" lon="4.53927">
        <ele>776.137817383</ele>
        <time>2015-09-10T11:37:21.14Z</time>
      </trkpt>
      <trkpt lat="46.05771" lon="4.53933">
        <ele>775.69342041</ele>
        <time>2015-09-10T11:37:26.176Z</time>
      </trkpt>
      <trkpt lat="46.0577" lon="4.53934">
        <ele>775.621520996</ele>
        <time>2015-09-10T11:37:27.149Z</time>
      </trkpt>
      <trkpt lat="46.05762" lon="4.53939">
        <ele>774.704467773</ele>
        <time>2015-09-10T11:37:37.191Z</time>
      </trkpt>
      <trkpt lat="46.0576" lon="4.5394">
        <ele>774.515625</ele>
        <time>2015-09-10T11:37:38.134Z</time>
      </trkpt>
      <trkpt lat="46.05753" lon="4.53944">
        <ele>773.549133301</ele>
        <time>2015-09-10T11:37:42.3Z</time>
      </trkpt>
      <trkpt lat="46.05751" lon="4.53944">
        <ele>773.242492676</ele>
        <time>2015-09-10T11:37:43.15Z</time>
      </trkpt>
      <trkpt lat="46.05743" lon="4.53948">
        <ele>771.581237793</ele>
        <time>2015-09-10T11:37:48.189Z</time>
      </trkpt>
      <trkpt lat="46.05742" lon="4.53948">
        <ele>771.307434082</ele>
        <time>2015-09-10T11:37:49.137Z</time>
      </trkpt>
      <trkpt lat="46.05734" lon="4.53951">
        <ele>769.019287109</ele>
        <time>2015-09-10T11:37:57.188Z</time>
      </trkpt>
      <trkpt lat="46.05733" lon="4.53951">
        <ele>768.773254395</ele>
        <time>2015-09-10T11:37:58.122Z</time>
      </trkpt>
      <trkpt lat="46.05725" lon="4.53954">
        <ele>766.78894043</ele>
        <time>2015-09-10T11:38:06.183Z</time>
      </trkpt>
      <trkpt lat="46.05723" lon="4.53955">
        <ele>766.473632812</ele>
        <time>2015-09-10T11:38:07.138Z</time>
      </trkpt>
      <trkpt lat="46.05715" lon="4.53959">
        <ele>764.644775391</ele>
        <time>2015-09-10T11:38:15.205Z</time>
      </trkpt>
      <trkpt lat="46.05714" lon="4.5396">
        <ele>764.423522949</ele>
        <time>2015-09-10T11:38:16.132Z</time>
      </trkpt>
      <trkpt lat="46.05707" lon="4.53963">
        <ele>763.657287598</ele>
        <time>2015-09-10T11:38:20.183Z</time>
      </trkpt>
      <trkpt lat="46.05705" lon="4.53963">
        <ele>763.51965332</ele>
        <time>2015-09-10T11:38:21.145Z</time>
      </trkpt>
      <trkpt lat="46.05697" lon="4.53965">
        <ele>762.23046875</ele>
        <time>2015-09-10T11:38:30.185Z</time>
      </trkpt>
      <trkpt lat="46.05695" lon="4.53965">
        <ele>762.123352051</ele>
        <time>2015-09-10T11:38:31.155Z</time>
      </trkpt>
      <trkpt lat="46.05687" lon="4.53967">
        <ele>761.209106445</ele>
        <time>2015-09-10T11:38:39.198Z</time>
      </trkpt>
      <trkpt lat="46.05685" lon="4.53966">
        <ele>761.098327637</ele>
        <time>2015-09-10T11:38:40.139Z</time>
      </trkpt>
      <trkpt lat="46.05677" lon="4.53968">
        <ele>760.012512207</ele>
        <time>2015-09-10T11:38:47.148Z</time>
      </trkpt>
      <trkpt lat="46.05676" lon="4.53968">
        <ele>759.873962402</ele>
        <time>2015-09-10T11:38:48.153Z</time>
      </trkpt>
      <trkpt lat="46.05671" lon="4.53978">
        <ele>757.398071289</ele>
        <time>2015-09-10T11:39:02.194Z</time>
      </trkpt>
      <trkpt lat="46.05671" lon="4.53979">
        <ele>757.184753418</ele>
        <time>2015-09-10T11:39:03.131Z</time>
      </trkpt>
      <trkpt lat="46.0567" lon="4.5399">
        <ele>756.21270752</ele>
        <time>2015-09-10T11:39:12.176Z</time>
      </trkpt>
      <trkpt lat="46.0567" lon="4.53993">
        <ele>756.13659668</ele>
        <time>2015-09-10T11:39:13.164Z</time>
      </trkpt>
      <trkpt lat="46.05664" lon="4.54002">
        <ele>757.878295898</ele>
        <time>2015-09-10T11:39:23.174Z</time>
      </trkpt>
      <trkpt lat="46.05663" lon="4.54004">
        <ele>758.020080566</ele>
        <time>2015-09-10T11:39:24.164Z</time>
      </trkpt>
      <trkpt lat="46.0566" lon="4.54015">
        <ele>759.742248535</ele>
        <time>2015-09-10T11:39:31.181Z</time>
      </trkpt>
      <trkpt lat="46.0566" lon="4.54016">
        <ele>759.973571777</ele>
        <time>2015-09-10T11:39:32.159Z</time>
      </trkpt>
      <trkpt lat="46.05657" lon="4.54027">
        <ele>760.988037109</ele>
        <time>2015-09-10T11:39:40.17Z</time>
      </trkpt>
      <trkpt lat="46.05657" lon="4.54028">
        <ele>761.203857422</ele>
        <time>2015-09-10T11:39:41.144Z</time>
      </trkpt>
      <trkpt lat="46.05652" lon="4.54038">
        <ele>761.03137207</ele>
        <time>2015-09-10T11:39:44.181Z</time>
      </trkpt>
      <trkpt lat="46.05652" lon="4.54039">
        <ele>760.955078125</ele>
        <time>2015-09-10T11:39:45.133Z</time>
      </trkpt>
      <trkpt lat="46.05648" lon="4.54051">
        <ele>761.048095703</ele>
        <time>2015-09-10T11:39:54.23Z</time>
      </trkpt>
      <trkpt lat="46.05647" lon="4.54052">
        <ele>761.007995605</ele>
        <time>2015-09-10T11:39:55.132Z</time>
      </trkpt>
      <trkpt lat="46.05644" lon="4.54062">
        <ele>760.042053223</ele>
        <time>2015-09-10T11:39:59.205Z</time>
      </trkpt>
      <trkpt lat="46.05643" lon="4.54064">
        <ele>759.693115234</ele>
        <time>2015-09-10T11:40:00.155Z</time>
      </trkpt>
      <trkpt lat="46.0564" lon="4.54073">
        <ele>758.579956055</ele>
        <time>2015-09-10T11:40:03.198Z</time>
      </trkpt>
      <trkpt lat="46.05638" lon="4.54075">
        <ele>758.28503418</ele>
        <time>2015-09-10T11:40:04.148Z</time>
      </trkpt>
      <trkpt lat="46.05633" lon="4.54084">
        <ele>756.637390137</ele>
        <time>2015-09-10T11:40:11.164Z</time>
      </trkpt>
      <trkpt lat="46.05632" lon="4.54085">
        <ele>756.460144043</ele>
        <time>2015-09-10T11:40:12.14Z</time>
      </trkpt>
      <trkpt lat="46.05628" lon="4.54096">
        <ele>754.986206055</ele>
        <time>2015-09-10T11:40:19.191Z</time>
      </trkpt>
      <trkpt lat="46.05628" lon="4.54098">
        <ele>754.763793945</ele>
        <time>2015-09-10T11:40:20.156Z</time>
      </trkpt>
      <trkpt lat="46.05623" lon="4.54109">
        <ele>752.033569336</ele>
        <time>2015-09-10T11:40:28.194Z</time>
      </trkpt>
      <trkpt lat="46.05623" lon="4.5411">
        <ele>751.695800781</ele>
        <time>2015-09-10T11:40:29.153Z</time>
      </trkpt>
      <trkpt lat="46.0562" lon="4.54121">
        <ele>747.888671875</ele>
        <time>2015-09-10T11:40:42.206Z</time>
      </trkpt>
      <trkpt lat="46.05619" lon="4.54124">
        <ele>747.520263672</ele>
        <time>2015-09-10T11:40:43.166Z</time>
      </trkpt>
      <trkpt lat="46.05615" lon="4.54135">
        <ele>746.094604492</ele>
        <time>2015-09-10T11:40:47.191Z</time>
      </trkpt>
      <trkpt lat="46.05614" lon="4.54136">
        <ele>745.756652832</ele>
        <time>2015-09-10T11:40:48.15Z</time>
      </trkpt>
      <trkpt lat="46.0561" lon="4.54146">
        <ele>742.405639648</ele>
        <time>2015-09-10T11:40:56.215Z</time>
      </trkpt>
      <trkpt lat="46.0561" lon="4.54148">
        <ele>741.925415039</ele>
        <time>2015-09-10T11:40:57.133Z</time>
      </trkpt>
      <trkpt lat="46.05605" lon="4.54157">
        <ele>740.416870117</ele>
        <time>2015-09-10T11:41:01.166Z</time>
      </trkpt>
      <trkpt lat="46.05604" lon="4.5416">
        <ele>739.981506348</ele>
        <time>2015-09-10T11:41:02.127Z</time>
      </trkpt>
      <trkpt lat="46.05599" lon="4.5417">
        <ele>736.748657227</ele>
        <time>2015-09-10T11:41:09.262Z</time>
      </trkpt>
      <trkpt lat="46.05599" lon="4.54171">
        <ele>736.286804199</ele>
        <time>2015-09-10T11:41:10.112Z</time>
      </trkpt>
      <trkpt lat="46.05596" lon="4.54182">
        <ele>733.146057129</ele>
        <time>2015-09-10T11:41:18.161Z</time>
      </trkpt>
      <trkpt lat="46.05595" lon="4.54184">
        <ele>732.75</ele>
        <time>2015-09-10T11:41:19.128Z</time>
      </trkpt>
      <trkpt lat="46.05594" lon="4.54196">
        <ele>728.959594727</ele>
        <time>2015-09-10T11:41:26.18Z</time>
      </trkpt>
      <trkpt lat="46.05594" lon="4.54198">
        <ele>728.507568359</ele>
        <time>2015-09-10T11:41:27.141Z</time>
      </trkpt>
      <trkpt lat="46.05593" lon="4.54211">
        <ele>726.55255127</ele>
        <time>2015-09-10T11:41:33.179Z</time>
      </trkpt>
      <trkpt lat="46.05592" lon="4.54212">
        <ele>726.273193359</ele>
        <time>2015-09-10T11:41:34.138Z</time>
      </trkpt>
      <trkpt lat="46.05591" lon="4.54225">
        <ele>724.116149902</ele>
        <time>2015-09-10T11:41:41.165Z</time>
      </trkpt>
      <trkpt lat="46.05591" lon="4.54227">
        <ele>723.74407959</ele>
        <time>2015-09-10T11:41:42.131Z</time>
      </trkpt>
      <trkpt lat="46.0559" lon="4.54239">
        <ele>722.330627441</ele>
        <time>2015-09-10T11:41:47.182Z</time>
      </trkpt>
      <trkpt lat="46.0559" lon="4.54241">
        <ele>722.015991211</ele>
        <time>2015-09-10T11:41:48.141Z</time>
      </trkpt>
      <trkpt lat="46.0559" lon="4.54253">
        <ele>721.131835938</ele>
        <time>2015-09-10T11:41:53.162Z</time>
      </trkpt>
      <trkpt lat="46.0559" lon="4.54255">
        <ele>720.928710938</ele>
        <time>2015-09-10T11:41:54.13Z</time>
      </trkpt>
      <trkpt lat="46.05588" lon="4.54267">
        <ele>719.450866699</ele>
        <time>2015-09-10T11:42:03.175Z</time>
      </trkpt>
      <trkpt lat="46.05588" lon="4.54268">
        <ele>719.225219727</ele>
        <time>2015-09-10T11:42:04.131Z</time>
      </trkpt>
      <trkpt lat="46.05586" lon="4.54278">
        <ele>716.723815918</ele>
        <time>2015-09-10T11:42:14.174Z</time>
      </trkpt>
      <trkpt lat="46.05585" lon="4.5428">
        <ele>716.617370605</ele>
        <time>2015-09-10T11:42:15.134Z</time>
      </trkpt>
      <trkpt lat="46.05584" lon="4.54292">
        <ele>715.278137207</ele>
        <time>2015-09-10T11:42:21.139Z</time>
      </trkpt>
      <trkpt lat="46.05583" lon="4.54294">
        <ele>715.099609375</ele>
        <time>2015-09-10T11:42:22.136Z</time>
      </trkpt>
      <trkpt lat="46.05582" lon="4.54306">
        <ele>714.751037598</ele>
        <time>2015-09-10T11:42:29.156Z</time>
      </trkpt>
      <trkpt lat="46.05582" lon="4.54307">
        <ele>714.629211426</ele>
        <time>2015-09-10T11:42:30.133Z</time>
      </trkpt>
      <trkpt lat="46.05583" lon="4.54313">
        <ele>714.332214355</ele>
        <time>2015-09-10T11:42:32.171Z</time>
      </trkpt>
      <trkpt lat="46.05583" lon="4.5432">
        <ele>714.141357422</ele>
        <time>2015-09-10T11:42:33.122Z</time>
      </trkpt>
      <trkpt lat="46.05583" lon="4.54331">
        <ele>713.506408691</ele>
        <time>2015-09-10T11:42:39.151Z</time>
      </trkpt>
      <trkpt lat="46.05584" lon="4.54334">
        <ele>713.485046387</ele>
        <time>2015-09-10T11:42:40.136Z</time>
      </trkpt>
      <trkpt lat="46.05582" lon="4.54346">
        <ele>713.919433594</ele>
        <time>2015-09-10T11:42:48.204Z</time>
      </trkpt>
      <trkpt lat="46.05582" lon="4.54348">
        <ele>713.926940918</ele>
        <time>2015-09-10T11:42:49.12Z</time>
      </trkpt>
      <trkpt lat="46.05582" lon="4.54358">
        <ele>713.520385742</ele>
        <time>2015-09-10T11:42:56.191Z</time>
      </trkpt>
      <trkpt lat="46.05582" lon="4.54361">
        <ele>713.456176758</ele>
        <time>2015-09-10T11:42:57.122Z</time>
      </trkpt>
      <trkpt lat="46.0558" lon="4.54373">
        <ele>713.264831543</ele>
        <time>2015-09-10T11:43:04.184Z</time>
      </trkpt>
      <trkpt lat="46.0558" lon="4.54374">
        <ele>713.218688965</ele>
        <time>2015-09-10T11:43:05.122Z</time>
      </trkpt>
      <trkpt lat="46.05577" lon="4.54386">
        <ele>712.096557617</ele>
        <time>2015-09-10T11:43:12.173Z</time>
      </trkpt>
      <trkpt lat="46.05577" lon="4.54388">
        <ele>711.905944824</ele>
        <time>2015-09-10T11:43:13.141Z</time>
      </trkpt>
      <trkpt lat="46.05574" lon="4.54398">
        <ele>711.57208252</ele>
        <time>2015-09-10T11:43:18.181Z</time>
      </trkpt>
      <trkpt lat="46.05574" lon="4.544">
        <ele>711.40020752</ele>
        <time>2015-09-10T11:43:19.134Z</time>
      </trkpt>
      <trkpt lat="46.05572" lon="4.54412">
        <ele>710.494995117</ele>
        <time>2015-09-10T11:43:26.18Z</time>
      </trkpt>
      <trkpt lat="46.05572" lon="4.54414">
        <ele>710.39251709</ele>
        <time>2015-09-10T11:43:27.137Z</time>
      </trkpt>
      <trkpt lat="46.05572" lon="4.54425">
        <ele>710.080993652</ele>
        <time>2015-09-10T11:43:36.177Z</time>
      </trkpt>
      <trkpt lat="46.05572" lon="4.54427">
        <ele>710.014648438</ele>
        <time>2015-09-10T11:43:37.127Z</time>
      </trkpt>
      <trkpt lat="46.05573" lon="4.54439">
        <ele>709.283447266</ele>
        <time>2015-09-10T11:43:48.183Z</time>
      </trkpt>
      <trkpt lat="46.05572" lon="4.54441">
        <ele>709.194702148</ele>
        <time>2015-09-10T11:43:49.125Z</time>
      </trkpt>
      <trkpt lat="46.05573" lon="4.54452">
        <ele>709.092956543</ele>
        <time>2015-09-10T11:43:52.184Z</time>
      </trkpt>
      <trkpt lat="46.05573" lon="4.54455">
        <ele>709.012023926</ele>
        <time>2015-09-10T11:43:53.124Z</time>
      </trkpt>
      <trkpt lat="46.05575" lon="4.54467">
        <ele>708.229187012</ele>
        <time>2015-09-10T11:44:02.309Z</time>
      </trkpt>
      <trkpt lat="46.05575" lon="4.5447">
        <ele>707.988830566</ele>
        <time>2015-09-10T11:44:03.124Z</time>
      </trkpt>
      <trkpt lat="46.05576" lon="4.54481">
        <ele>707.247741699</ele>
        <time>2015-09-10T11:44:11.188Z</time>
      </trkpt>
      <trkpt lat="46.05576" lon="4.54483">
        <ele>707.186157227</ele>
        <time>2015-09-10T11:44:12.147Z</time>
      </trkpt>
      <trkpt lat="46.05578" lon="4.54496">
        <ele>706.548034668</ele>
        <time>2015-09-10T11:44:21.164Z</time>
      </trkpt>
      <trkpt lat="46.05578" lon="4.54497">
        <ele>706.388244629</ele>
        <time>2015-09-10T11:44:22.126Z</time>
      </trkpt>
      <trkpt lat="46.05579" lon="4.54509">
        <ele>703.842590332</ele>
        <time>2015-09-10T11:44:31.197Z</time>
      </trkpt>
      <trkpt lat="46.05578" lon="4.5451">
        <ele>703.567443848</ele>
        <time>2015-09-10T11:44:32.151Z</time>
      </trkpt>
      <trkpt lat="46.0558" lon="4.54523">
        <ele>700.213806152</ele>
        <time>2015-09-10T11:44:43.192Z</time>
      </trkpt>
      <trkpt lat="46.0558" lon="4.54524">
        <ele>699.837524414</ele>
        <time>2015-09-10T11:44:44.156Z</time>
      </trkpt>
      <trkpt lat="46.0558" lon="4.54536">
        <ele>697.5</ele>
        <time>2015-09-10T11:44:50.2Z</time>
      </trkpt>
      <trkpt lat="46.0558" lon="4.54539">
        <ele>697.226318359</ele>
        <time>2015-09-10T11:44:51.143Z</time>
      </trkpt>
      <trkpt lat="46.05581" lon="4.54551">
        <ele>694.790710449</ele>
        <time>2015-09-10T11:45:00.185Z</time>
      </trkpt>
      <trkpt lat="46.05582" lon="4.54553">
        <ele>694.599914551</ele>
        <time>2015-09-10T11:45:01.13Z</time>
      </trkpt>
      <trkpt lat="46.05583" lon="4.54565">
        <ele>692.946044922</ele>
        <time>2015-09-10T11:45:08.198Z</time>
      </trkpt>
      <trkpt lat="46.05583" lon="4.54566">
        <ele>692.690795898</ele>
        <time>2015-09-10T11:45:09.13Z</time>
      </trkpt>
      <trkpt lat="46.05583" lon="4.54576">
        <ele>691.929504395</ele>
        <time>2015-09-10T11:45:12.194Z</time>
      </trkpt>
      <trkpt lat="46.05584" lon="4.5458">
        <ele>691.726867676</ele>
        <time>2015-09-10T11:45:13.136Z</time>
      </trkpt>
      <trkpt lat="46.05586" lon="4.54592">
        <ele>690.515380859</ele>
        <time>2015-09-10T11:45:21.179Z</time>
      </trkpt>
      <trkpt lat="46.05586" lon="4.54593">
        <ele>690.328491211</ele>
        <time>2015-09-10T11:45:22.158Z</time>
      </trkpt>
      <trkpt lat="46.05586" lon="4.54606">
        <ele>690.051086426</ele>
        <time>2015-09-10T11:45:24.178Z</time>
      </trkpt>
      <trkpt lat="46.05587" lon="4.54607">
        <ele>689.916259766</ele>
        <time>2015-09-10T11:45:25.134Z</time>
      </trkpt>
      <trkpt lat="46.05586" lon="4.54616">
        <ele>689.27130127</ele>
        <time>2015-09-10T11:45:29.197Z</time>
      </trkpt>
      <trkpt lat="46.05586" lon="4.5462">
        <ele>689.112243652</ele>
        <time>2015-09-10T11:45:30.16Z</time>
      </trkpt>
      <trkpt lat="46.05589" lon="4.54629">
        <ele>688.484741211</ele>
        <time>2015-09-10T11:45:35.157Z</time>
      </trkpt>
      <trkpt lat="46.0559" lon="4.54633">
        <ele>688.385986328</ele>
        <time>2015-09-10T11:45:36.16Z</time>
      </trkpt>
      <trkpt lat="46.0559" lon="4.54645">
        <ele>687.838317871</ele>
        <time>2015-09-10T11:45:41.184Z</time>
      </trkpt>
      <trkpt lat="46.0559" lon="4.54646">
        <ele>687.75592041</ele>
        <time>2015-09-10T11:45:42.147Z</time>
      </trkpt>
      <trkpt lat="46.0559" lon="4.54656">
        <ele>687.155395508</ele>
        <time>2015-09-10T11:45:47.165Z</time>
      </trkpt>
      <trkpt lat="46.0559" lon="4.54659">
        <ele>687.013427734</ele>
        <time>2015-09-10T11:45:48.16Z</time>
      </trkpt>
      <trkpt lat="46.05591" lon="4.54669">
        <ele>686.305297852</ele>
        <time>2015-09-10T11:45:53.181Z</time>
      </trkpt>
      <trkpt lat="46.05592" lon="4.54673">
        <ele>686.194458008</ele>
        <time>2015-09-10T11:45:54.16Z</time>
      </trkpt>
      <trkpt lat="46.05593" lon="4.54684">
        <ele>685.442199707</ele>
        <time>2015-09-10T11:45:59.212Z</time>
      </trkpt>
      <trkpt lat="46.05594" lon="4.54688">
        <ele>685.290283203</ele>
        <time>2015-09-10T11:46:00.223Z</time>
      </trkpt>
      <trkpt lat="46.05596" lon="4.54698">
        <ele>684.368896484</ele>
        <time>2015-09-10T11:46:06.189Z</time>
      </trkpt>
      <trkpt lat="46.05597" lon="4.547">
        <ele>684.251281738</ele>
        <time>2015-09-10T11:46:07.146Z</time>
      </trkpt>
      <trkpt lat="46.05605" lon="4.54706">
        <ele>683.667236328</ele>
        <time>2015-09-10T11:46:13.188Z</time>
      </trkpt>
      <trkpt lat="46.05605" lon="4.54707">
        <ele>683.557678223</ele>
        <time>2015-09-10T11:46:14.124Z</time>
      </trkpt>
      <trkpt lat="46.05603" lon="4.54718">
        <ele>681.637939453</ele>
        <time>2015-09-10T11:47:09.159Z</time>
      </trkpt>
      <trkpt lat="46.05602" lon="4.5472">
        <ele>681.497192383</ele>
        <time>2015-09-10T11:47:10.122Z</time>
      </trkpt>
      <trkpt lat="46.056" lon="4.54732">
        <ele>680.267883301</ele>
        <time>2015-09-10T11:47:18.162Z</time>
      </trkpt>
      <trkpt lat="46.056" lon="4.54734">
        <ele>680.121337891</ele>
        <time>2015-09-10T11:47:19.144Z</time>
      </trkpt>
      <trkpt lat="46.05599" lon="4.54746">
        <ele>679.449279785</ele>
        <time>2015-09-10T11:47:25.135Z</time>
      </trkpt>
      <trkpt lat="46.05599" lon="4.54747">
        <ele>679.366516113</ele>
        <time>2015-09-10T11:47:26.129Z</time>
      </trkpt>
      <trkpt lat="46.05598" lon="4.54759">
        <ele>678.583679199</ele>
        <time>2015-09-10T11:47:34.16Z</time>
      </trkpt>
      <trkpt lat="46.05598" lon="4.5476">
        <ele>678.483154297</ele>
        <time>2015-09-10T11:47:35.116Z</time>
      </trkpt>
      <trkpt lat="46.05598" lon="4.54773">
        <ele>677.655883789</ele>
        <time>2015-09-10T11:47:44.164Z</time>
      </trkpt>
      <trkpt lat="46.05598" lon="4.54774">
        <ele>677.562072754</ele>
        <time>2015-09-10T11:47:45.117Z</time>
      </trkpt>
      <trkpt lat="46.05597" lon="4.54787">
        <ele>675.987182617</ele>
        <time>2015-09-10T11:47:57.165Z</time>
      </trkpt>
      <trkpt lat="46.05597" lon="4.54787">
        <ele>675.839477539</ele>
        <time>2015-09-10T11:47:58.144Z</time>
      </trkpt>
      <trkpt lat="46.056" lon="4.54799">
        <ele>674.016113281</ele>
        <time>2015-09-10T11:48:46.168Z</time>
      </trkpt>
      <trkpt lat="46.056" lon="4.54799">
        <ele>674.002685547</ele>
        <time>2015-09-10T11:48:47.137Z</time>
      </trkpt>
      <trkpt lat="46.05598" lon="4.54811">
        <ele>673.16003418</ele>
        <time>2015-09-10T11:50:11.196Z</time>
      </trkpt>
      <trkpt lat="46.05597" lon="4.54812">
        <ele>673.082946777</ele>
        <time>2015-09-10T11:50:12.222Z</time>
      </trkpt>
      <trkpt lat="46.05593" lon="4.54822">
        <ele>672.151916504</ele>
        <time>2015-09-10T11:50:20.156Z</time>
      </trkpt>
      <trkpt lat="46.05592" lon="4.54823">
        <ele>672.011657715</ele>
        <time>2015-09-10T11:50:21.146Z</time>
      </trkpt>
      <trkpt lat="46.05588" lon="4.54833">
        <ele>670.797607422</ele>
        <time>2015-09-10T11:50:29.198Z</time>
      </trkpt>
      <trkpt lat="46.05588" lon="4.54834">
        <ele>670.621887207</ele>
        <time>2015-09-10T11:50:30.161Z</time>
      </trkpt>
      <trkpt lat="46.05585" lon="4.54845">
        <ele>669.332946777</ele>
        <time>2015-09-10T11:50:37.182Z</time>
      </trkpt>
      <trkpt lat="46.05585" lon="4.54847">
        <ele>669.127746582</ele>
        <time>2015-09-10T11:50:38.143Z</time>
      </trkpt>
      <trkpt lat="46.05583" lon="4.54859">
        <ele>667.571533203</ele>
        <time>2015-09-10T11:50:46.188Z</time>
      </trkpt>
      <trkpt lat="46.05583" lon="4.5486">
        <ele>667.359436035</ele>
        <time>2015-09-10T11:50:47.161Z</time>
      </trkpt>
      <trkpt lat="46.05585" lon="4.54871">
        <ele>665.973083496</ele>
        <time>2015-09-10T11:50:54.194Z</time>
      </trkpt>
      <trkpt lat="46.05585" lon="4.54873">
        <ele>665.773803711</ele>
        <time>2015-09-10T11:50:55.132Z</time>
      </trkpt>
      <trkpt lat="46.05587" lon="4.54884">
        <ele>664.381896973</ele>
        <time>2015-09-10T11:51:03.169Z</time>
      </trkpt>
      <trkpt lat="46.05587" lon="4.54886">
        <ele>664.21887207</ele>
        <time>2015-09-10T11:51:04.145Z</time>
      </trkpt>
      <trkpt lat="46.05588" lon="4.54898">
        <ele>662.58807373</ele>
        <time>2015-09-10T11:51:12.197Z</time>
      </trkpt>
      <trkpt lat="46.05588" lon="4.54899">
        <ele>662.391784668</ele>
        <time>2015-09-10T11:51:13.151Z</time>
      </trkpt>
      <trkpt lat="46.05585" lon="4.54911">
        <ele>660.33984375</ele>
        <time>2015-09-10T11:51:25.188Z</time>
      </trkpt>
      <trkpt lat="46.05585" lon="4.54913">
        <ele>660.124145508</ele>
        <time>2015-09-10T11:51:26.149Z</time>
      </trkpt>
      <trkpt lat="46.05583" lon="4.54924">
        <ele>658.604614258</ele>
        <time>2015-09-10T11:51:34.169Z</time>
      </trkpt>
      <trkpt lat="46.05583" lon="4.54925">
        <ele>658.392883301</ele>
        <time>2015-09-10T11:51:35.113Z</time>
      </trkpt>
      <trkpt lat="46.05582" lon="4.54938">
        <ele>656.600524902</ele>
        <time>2015-09-10T11:51:45.162Z</time>
      </trkpt>
      <trkpt lat="46.05582" lon="4.54939">
        <ele>656.48248291</ele>
        <time>2015-09-10T11:51:46.128Z</time>
      </trkpt>
      <trkpt lat="46.05583" lon="4.54951">
        <ele>655.076416016</ele>
        <time>2015-09-10T11:51:55.141Z</time>
      </trkpt>
      <trkpt lat="46.05583" lon="4.54953">
        <ele>654.864562988</ele>
        <time>2015-09-10T11:51:56.136Z</time>
      </trkpt>
      <trkpt lat="46.0558" lon="4.54964">
        <ele>653.550231934</ele>
        <time>2015-09-10T11:52:04.174Z</time>
      </trkpt>
      <trkpt lat="46.05579" lon="4.54965">
        <ele>653.345336914</ele>
        <time>2015-09-10T11:52:05.141Z</time>
      </trkpt>
      <trkpt lat="46.05577" lon="4.54978">
        <ele>651.329650879</ele>
        <time>2015-09-10T11:52:14.164Z</time>
      </trkpt>
      <trkpt lat="46.05577" lon="4.54979">
        <ele>651.094299316</ele>
        <time>2015-09-10T11:52:15.122Z</time>
      </trkpt>
      <trkpt lat="46.05574" lon="4.5499">
        <ele>648.118347168</ele>
        <time>2015-09-10T11:52:28.176Z</time>
      </trkpt>
      <trkpt lat="46.05574" lon="4.54991">
        <ele>647.903930664</ele>
        <time>2015-09-10T11:52:29.134Z</time>
      </trkpt>
      <trkpt lat="46.0557" lon="4.55003">
        <ele>646.111206055</ele>
        <time>2015-09-10T11:52:39.235Z</time>
      </trkpt>
      <trkpt lat="46.0557" lon="4.55004">
        <ele>645.961791992</ele>
        <time>2015-09-10T11:52:40.122Z</time>
      </trkpt>
      <trkpt lat="46.05564" lon="4.55014">
        <ele>643.952453613</ele>
        <time>2015-09-10T11:52:53.184Z</time>
      </trkpt>
      <trkpt lat="46.05563" lon="4.55014">
        <ele>643.78302002</ele>
        <time>2015-09-10T11:52:54.137Z</time>
      </trkpt>
      <trkpt lat="46.05556" lon="4.55019">
        <ele>642.185974121</ele>
        <time>2015-09-10T11:53:04.137Z</time>
      </trkpt>
      <trkpt lat="46.05555" lon="4.5502">
        <ele>642.003356934</ele>
        <time>2015-09-10T11:53:05.14Z</time>
      </trkpt>
      <trkpt lat="46.05548" lon="4.55024">
        <ele>641.098632812</ele>
        <time>2015-09-10T11:53:14.197Z</time>
      </trkpt>
      <trkpt lat="46.05547" lon="4.55025">
        <ele>641.029541016</ele>
        <time>2015-09-10T11:53:15.138Z</time>
      </trkpt>
      <trkpt lat="46.05539" lon="4.55031">
        <ele>640.410217285</ele>
        <time>2015-09-10T11:53:24.179Z</time>
      </trkpt>
      <trkpt lat="46.05538" lon="4.55032">
        <ele>640.333190918</ele>
        <time>2015-09-10T11:53:25.137Z</time>
      </trkpt>
      <trkpt lat="46.05529" lon="4.55035">
        <ele>639.208557129</ele>
        <time>2015-09-10T11:53:35.295Z</time>
      </trkpt>
      <trkpt lat="46.05529" lon="4.55035">
        <ele>639.051086426</ele>
        <time>2015-09-10T11:53:36.14Z</time>
      </trkpt>
      <trkpt lat="46.0552" lon="4.55035">
        <ele>637.937927246</ele>
        <time>2015-09-10T11:53:45.183Z</time>
      </trkpt>
      <trkpt lat="46.05519" lon="4.55035">
        <ele>637.862487793</ele>
        <time>2015-09-10T11:53:46.119Z</time>
      </trkpt>
      <trkpt lat="46.0551" lon="4.55032">
        <ele>637.266967773</ele>
        <time>2015-09-10T11:53:56.183Z</time>
      </trkpt>
      <trkpt lat="46.05509" lon="4.55032">
        <ele>637.229919434</ele>
        <time>2015-09-10T11:53:57.137Z</time>
      </trkpt>
      <trkpt lat="46.05501" lon="4.55028">
        <ele>636.052001953</ele>
        <time>2015-09-10T11:54:06.155Z</time>
      </trkpt>
      <trkpt lat="46.055" lon="4.55027">
        <ele>635.967102051</ele>
        <time>2015-09-10T11:54:07.139Z</time>
      </trkpt>
      <trkpt lat="46.05492" lon="4.55023">
        <ele>635.445251465</ele>
        <time>2015-09-10T11:54:16.181Z</time>
      </trkpt>
      <trkpt lat="46.05491" lon="4.55023">
        <ele>635.447387695</ele>
        <time>2015-09-10T11:54:17.132Z</time>
      </trkpt>
      <trkpt lat="46.05484" lon="4.55019">
        <ele>634.864196777</ele>
        <time>2015-09-10T11:54:24.192Z</time>
      </trkpt>
      <trkpt lat="46.05482" lon="4.55019">
        <ele>634.692749023</ele>
        <time>2015-09-10T11:54:25.153Z</time>
      </trkpt>
      <trkpt lat="46.05475" lon="4.55011">
        <ele>633.002502441</ele>
        <time>2015-09-10T11:54:35.171Z</time>
      </trkpt>
      <trkpt lat="46.05474" lon="4.55011">
        <ele>632.913818359</ele>
        <time>2015-09-10T11:54:36.136Z</time>
      </trkpt>
      <trkpt lat="46.05466" lon="4.55005">
        <ele>631.757507324</ele>
        <time>2015-09-10T11:54:45.322Z</time>
      </trkpt>
      <trkpt lat="46.05466" lon="4.55004">
        <ele>631.694763184</ele>
        <time>2015-09-10T11:54:46.133Z</time>
      </trkpt>
      <trkpt lat="46.05459" lon="4.54999">
        <ele>630.321472168</ele>
        <time>2015-09-10T11:54:52.183Z</time>
      </trkpt>
      <trkpt lat="46.05458" lon="4.54997">
        <ele>630.051879883</ele>
        <time>2015-09-10T11:54:53.154Z</time>
      </trkpt>
      <trkpt lat="46.05451" lon="4.5499">
        <ele>628.579589844</ele>
        <time>2015-09-10T11:55:00.184Z</time>
      </trkpt>
      <trkpt lat="46.0545" lon="4.54988">
        <ele>628.407775879</ele>
        <time>2015-09-10T11:55:01.126Z</time>
      </trkpt>
      <trkpt lat="46.05444" lon="4.54981">
        <ele>627.504333496</ele>
        <time>2015-09-10T11:55:06.166Z</time>
      </trkpt>
      <trkpt lat="46.05443" lon="4.54979">
        <ele>627.291870117</ele>
        <time>2015-09-10T11:55:07.138Z</time>
      </trkpt>
      <trkpt lat="46.05437" lon="4.54971">
        <ele>625.885437012</ele>
        <time>2015-09-10T11:55:13.198Z</time>
      </trkpt>
      <trkpt lat="46.05435" lon="4.5497">
        <ele>625.652648926</ele>
        <time>2015-09-10T11:55:14.134Z</time>
      </trkpt>
      <trkpt lat="46.05429" lon="4.54963">
        <ele>624.086853027</ele>
        <time>2015-09-10T11:55:20.186Z</time>
      </trkpt>
      <trkpt lat="46.05428" lon="4.54962">
        <ele>623.755065918</ele>
        <time>2015-09-10T11:55:21.166Z</time>
      </trkpt>
      <trkpt lat="46.05423" lon="4.54951">
        <ele>621.485839844</ele>
        <time>2015-09-10T11:55:28.204Z</time>
      </trkpt>
      <trkpt lat="46.05422" lon="4.54949">
        <ele>621.214782715</ele>
        <time>2015-09-10T11:55:29.149Z</time>
      </trkpt>
      <trkpt lat="46.05418" lon="4.54938">
        <ele>620.099609375</ele>
        <time>2015-09-10T11:55:36.198Z</time>
      </trkpt>
      <trkpt lat="46.05418" lon="4.54937">
        <ele>620.053527832</ele>
        <time>2015-09-10T11:55:37.161Z</time>
      </trkpt>
      <trkpt lat="46.05415" lon="4.54925">
        <ele>618.891540527</ele>
        <time>2015-09-10T11:55:44.187Z</time>
      </trkpt>
      <trkpt lat="46.05415" lon="4.54924">
        <ele>618.666259766</ele>
        <time>2015-09-10T11:55:45.158Z</time>
      </trkpt>
      <trkpt lat="46.05412" lon="4.54913">
        <ele>617.54119873</ele>
        <time>2015-09-10T11:55:52.27Z</time>
      </trkpt>
      <trkpt lat="46.05411" lon="4.54911">
        <ele>617.409729004</ele>
        <time>2015-09-10T11:55:53.131Z</time>
      </trkpt>
      <trkpt lat="46.0541" lon="4.54898">
        <ele>616.525695801</ele>
        <time>2015-09-10T11:55:59.199Z</time>
      </trkpt>
      <trkpt lat="46.05409" lon="4.54896">
        <ele>616.392883301</ele>
        <time>2015-09-10T11:56:00.153Z</time>
      </trkpt>
      <trkpt lat="46.05408" lon="4.54884">
        <ele>614.92565918</ele>
        <time>2015-09-10T11:56:08.153Z</time>
      </trkpt>
      <trkpt lat="46.05408" lon="4.54883">
        <ele>614.784973145</ele>
        <time>2015-09-10T11:56:09.135Z</time>
      </trkpt>
      <trkpt lat="46.05406" lon="4.54872">
        <ele>613.398986816</ele>
        <time>2015-09-10T11:56:21.178Z</time>
      </trkpt>
      <trkpt lat="46.05405" lon="4.5487">
        <ele>613.416748047</ele>
        <time>2015-09-10T11:56:22.148Z</time>
      </trkpt>
      <trkpt lat="46.05398" lon="4.54876">
        <ele>613.411865234</ele>
        <time>2015-09-10T11:56:42.207Z</time>
      </trkpt>
      <trkpt lat="46.05397" lon="4.54877">
        <ele>613.273376465</ele>
        <time>2015-09-10T11:56:43.133Z</time>
      </trkpt>
      <trkpt lat="46.05392" lon="4.54886">
        <ele>612.137756348</ele>
        <time>2015-09-10T11:56:50.194Z</time>
      </trkpt>
      <trkpt lat="46.05391" lon="4.54887">
        <ele>611.967712402</ele>
        <time>2015-09-10T11:56:51.124Z</time>
      </trkpt>
      <trkpt lat="46.0539" lon="4.54899">
        <ele>611.199768066</ele>
        <time>2015-09-10T11:57:00.183Z</time>
      </trkpt>
      <trkpt lat="46.05389" lon="4.54901">
        <ele>611.124145508</ele>
        <time>2015-09-10T11:57:01.123Z</time>
      </trkpt>
      <trkpt lat="46.05387" lon="4.54911">
        <ele>610.781921387</ele>
        <time>2015-09-10T11:57:08.165Z</time>
      </trkpt>
      <trkpt lat="46.05385" lon="4.54917">
        <ele>610.650146484</ele>
        <time>2015-09-10T11:57:09.108Z</time>
      </trkpt>
      <trkpt lat="46.05381" lon="4.54926">
        <ele>609.85748291</ele>
        <time>2015-09-10T11:57:13.161Z</time>
      </trkpt>
      <trkpt lat="46.05381" lon="4.54928">
        <ele>609.631347656</ele>
        <time>2015-09-10T11:57:14.123Z</time>
      </trkpt>
      <trkpt lat="46.05379" lon="4.54941">
        <ele>608.039306641</ele>
        <time>2015-09-10T11:57:21.168Z</time>
      </trkpt>
      <trkpt lat="46.05379" lon="4.54942">
        <ele>607.822814941</ele>
        <time>2015-09-10T11:57:22.162Z</time>
      </trkpt>
      <trkpt lat="46.05378" lon="4.54954">
        <ele>605.646179199</ele>
        <time>2015-09-10T11:57:32.167Z</time>
      </trkpt>
      <trkpt lat="46.05378" lon="4.54956">
        <ele>605.440063477</ele>
        <time>2015-09-10T11:57:33.117Z</time>
      </trkpt>
      <trkpt lat="46.05375" lon="4.54968">
        <ele>603.52532959</ele>
        <time>2015-09-10T11:57:41.146Z</time>
      </trkpt>
      <trkpt lat="46.05375" lon="4.54969">
        <ele>603.366699219</ele>
        <time>2015-09-10T11:57:42.136Z</time>
      </trkpt>
      <trkpt lat="46.05373" lon="4.54982">
        <ele>602.336853027</ele>
        <time>2015-09-10T11:57:49.174Z</time>
      </trkpt>
      <trkpt lat="46.05373" lon="4.54984">
        <ele>602.180786133</ele>
        <time>2015-09-10T11:57:50.128Z</time>
      </trkpt>
      <trkpt lat="46.05374" lon="4.54995">
        <ele>600.791259766</ele>
        <time>2015-09-10T11:57:57.158Z</time>
      </trkpt>
      <trkpt lat="46.05374" lon="4.54997">
        <ele>600.516540527</ele>
        <time>2015-09-10T11:57:58.141Z</time>
      </trkpt>
      <trkpt lat="46.05376" lon="4.55009">
        <ele>598.128173828</ele>
        <time>2015-09-10T11:58:08.174Z</time>
      </trkpt>
      <trkpt lat="46.05376" lon="4.5501">
        <ele>597.931640625</ele>
        <time>2015-09-10T11:58:09.146Z</time>
      </trkpt>
      <trkpt lat="46.05383" lon="4.55017">
        <ele>597.597045898</ele>
        <time>2015-09-10T11:58:11.156Z</time>
      </trkpt>
      <trkpt lat="46.05384" lon="4.55019">
        <ele>597.454101562</ele>
        <time>2015-09-10T11:58:12.143Z</time>
      </trkpt>
      <trkpt lat="46.05377" lon="4.55015">
        <ele>596.335571289</ele>
        <time>2015-09-10T11:58:20.143Z</time>
      </trkpt>
      <trkpt lat="46.05376" lon="4.55014">
        <ele>596.184692383</ele>
        <time>2015-09-10T11:58:21.146Z</time>
      </trkpt>
      <trkpt lat="46.05371" lon="4.55004">
        <ele>595.156738281</ele>
        <time>2015-09-10T11:58:28.159Z</time>
      </trkpt>
      <trkpt lat="46.0537" lon="4.55003">
        <ele>594.96472168</ele>
        <time>2015-09-10T11:58:29.129Z</time>
      </trkpt>
      <trkpt lat="46.05363" lon="4.54995">
        <ele>593.840454102</ele>
        <time>2015-09-10T11:58:35.157Z</time>
      </trkpt>
      <trkpt lat="46.05363" lon="4.54993">
        <ele>593.623779297</ele>
        <time>2015-09-10T11:58:36.144Z</time>
      </trkpt>
      <trkpt lat="46.05358" lon="4.54983">
        <ele>592.018615723</ele>
        <time>2015-09-10T11:58:45.194Z</time>
      </trkpt>
      <trkpt lat="46.05358" lon="4.54982">
        <ele>591.834106445</ele>
        <time>2015-09-10T11:58:46.142Z</time>
      </trkpt>
      <trkpt lat="46.05354" lon="4.54972">
        <ele>590.719055176</ele>
        <time>2015-09-10T11:58:51.171Z</time>
      </trkpt>
      <trkpt lat="46.05353" lon="4.54971">
        <ele>590.469116211</ele>
        <time>2015-09-10T11:58:52.137Z</time>
      </trkpt>
      <trkpt lat="46.05346" lon="4.54976">
        <ele>586.454345703</ele>
        <time>2015-09-10T11:59:11.181Z</time>
      </trkpt>
      <trkpt lat="46.05345" lon="4.54978">
        <ele>586.239807129</ele>
        <time>2015-09-10T11:59:12.122Z</time>
      </trkpt>
      <trkpt lat="46.05341" lon="4.54989">
        <ele>584.896240234</ele>
        <time>2015-09-10T11:59:21.177Z</time>
      </trkpt>
      <trkpt lat="46.05341" lon="4.5499">
        <ele>584.703063965</ele>
        <time>2015-09-10T11:59:22.138Z</time>
      </trkpt>
      <trkpt lat="46.05336" lon="4.55">
        <ele>582.880310059</ele>
        <time>2015-09-10T11:59:32.188Z</time>
      </trkpt>
      <trkpt lat="46.05336" lon="4.55001">
        <ele>582.657165527</ele>
        <time>2015-09-10T11:59:33.133Z</time>
      </trkpt>
      <trkpt lat="46.05333" lon="4.55013">
        <ele>580.744445801</ele>
        <time>2015-09-10T11:59:41.197Z</time>
      </trkpt>
      <trkpt lat="46.05333" lon="4.55015">
        <ele>580.503845215</ele>
        <time>2015-09-10T11:59:42.138Z</time>
      </trkpt>
      <trkpt lat="46.05332" lon="4.55027">
        <ele>578.596923828</ele>
        <time>2015-09-10T11:59:49.178Z</time>
      </trkpt>
      <trkpt lat="46.05332" lon="4.55028">
        <ele>578.344726562</ele>
        <time>2015-09-10T11:59:50.128Z</time>
      </trkpt>
      <trkpt lat="46.05331" lon="4.55041">
        <ele>576.513244629</ele>
        <time>2015-09-10T11:59:58.179Z</time>
      </trkpt>
      <trkpt lat="46.05331" lon="4.55043">
        <ele>576.313110352</ele>
        <time>2015-09-10T11:59:59.141Z</time>
      </trkpt>
      <trkpt lat="46.05332" lon="4.55053">
        <ele>574.446716309</ele>
        <time>2015-09-10T12:00:06.197Z</time>
      </trkpt>
      <trkpt lat="46.05333" lon="4.55056">
        <ele>574.145629883</ele>
        <time>2015-09-10T12:00:07.138Z</time>
      </trkpt>
      <trkpt lat="46.05333" lon="4.55068">
        <ele>572.052429199</ele>
        <time>2015-09-10T12:00:15.154Z</time>
      </trkpt>
      <trkpt lat="46.05333" lon="4.55069">
        <ele>571.772338867</ele>
        <time>2015-09-10T12:00:16.143Z</time>
      </trkpt>
      <trkpt lat="46.05333" lon="4.55081">
        <ele>569.346923828</ele>
        <time>2015-09-10T12:00:25.192Z</time>
      </trkpt>
      <trkpt lat="46.05333" lon="4.55083">
        <ele>569.068115234</ele>
        <time>2015-09-10T12:00:26.145Z</time>
      </trkpt>
      <trkpt lat="46.05335" lon="4.55095">
        <ele>566.70123291</ele>
        <time>2015-09-10T12:00:36.174Z</time>
      </trkpt>
      <trkpt lat="46.05335" lon="4.55096">
        <ele>566.40637207</ele>
        <time>2015-09-10T12:00:37.144Z</time>
      </trkpt>
      <trkpt lat="46.05338" lon="4.55107">
        <ele>564.700378418</ele>
        <time>2015-09-10T12:00:45.164Z</time>
      </trkpt>
      <trkpt lat="46.05339" lon="4.55109">
        <ele>564.462768555</ele>
        <time>2015-09-10T12:00:46.14Z</time>
      </trkpt>
      <trkpt lat="46.05341" lon="4.5512">
        <ele>561.781555176</ele>
        <time>2015-09-10T12:00:57.199Z</time>
      </trkpt>
      <trkpt lat="46.05342" lon="4.55121">
        <ele>561.479309082</ele>
        <time>2015-09-10T12:00:58.154Z</time>
      </trkpt>
      <trkpt lat="46.05344" lon="4.55132">
        <ele>559.865600586</ele>
        <time>2015-09-10T12:01:05.153Z</time>
      </trkpt>
      <trkpt lat="46.05345" lon="4.55134">
        <ele>559.674560547</ele>
        <time>2015-09-10T12:01:06.139Z</time>
      </trkpt>
      <trkpt lat="46.05346" lon="4.55146">
        <ele>557.634765625</ele>
        <time>2015-09-10T12:01:16.155Z</time>
      </trkpt>
      <trkpt lat="46.05347" lon="4.55148">
        <ele>557.432434082</ele>
        <time>2015-09-10T12:01:17.153Z</time>
      </trkpt>
      <trkpt lat="46.05348" lon="4.5516">
        <ele>555.147705078</ele>
        <time>2015-09-10T12:01:28.18Z</time>
      </trkpt>
      <trkpt lat="46.05348" lon="4.5516">
        <ele>554.942626953</ele>
        <time>2015-09-10T12:01:29.161Z</time>
      </trkpt>
      <trkpt lat="46.0535" lon="4.55172">
        <ele>552.945983887</ele>
        <time>2015-09-10T12:01:44.185Z</time>
      </trkpt>
      <trkpt lat="46.0535" lon="4.55174">
        <ele>552.803588867</ele>
        <time>2015-09-10T12:01:45.157Z</time>
      </trkpt>
      <trkpt lat="46.05351" lon="4.55186">
        <ele>551.373535156</ele>
        <time>2015-09-10T12:01:56.175Z</time>
      </trkpt>
      <trkpt lat="46.05351" lon="4.55187">
        <ele>551.228637695</ele>
        <time>2015-09-10T12:01:57.144Z</time>
      </trkpt>
      <trkpt lat="46.05356" lon="4.55197">
        <ele>550.244934082</ele>
        <time>2015-09-10T12:02:04.144Z</time>
      </trkpt>
      <trkpt lat="46.05357" lon="4.55199">
        <ele>550.086364746</ele>
        <time>2015-09-10T12:02:05.128Z</time>
      </trkpt>
      <trkpt lat="46.05363" lon="4.55205">
        <ele>549.115844727</ele>
        <time>2015-09-10T12:02:10.297Z</time>
      </trkpt>
      <trkpt lat="46.05364" lon="4.55208">
        <ele>548.878356934</ele>
        <time>2015-09-10T12:02:11.135Z</time>
      </trkpt>
      <trkpt lat="46.05369" lon="4.55217">
        <ele>547.319458008</ele>
        <time>2015-09-10T12:02:20.148Z</time>
      </trkpt>
      <trkpt lat="46.0537" lon="4.55218">
        <ele>547.18347168</ele>
        <time>2015-09-10T12:02:21.126Z</time>
      </trkpt>
      <trkpt lat="46.05376" lon="4.55228">
        <ele>546.079101562</ele>
        <time>2015-09-10T12:02:28.179Z</time>
      </trkpt>
      <trkpt lat="46.05377" lon="4.55228">
        <ele>545.9296875</ele>
        <time>2015-09-10T12:02:29.108Z</time>
      </trkpt>
      <trkpt lat="46.05383" lon="4.55234">
        <ele>544.325012207</ele>
        <time>2015-09-10T12:02:36.137Z</time>
      </trkpt>
      <trkpt lat="46.05385" lon="4.55236">
        <ele>544.061767578</ele>
        <time>2015-09-10T12:02:37.125Z</time>
      </trkpt>
      <trkpt lat="46.05391" lon="4.55243">
        <ele>541.569763184</ele>
        <time>2015-09-10T12:02:46.16Z</time>
      </trkpt>
      <trkpt lat="46.05393" lon="4.55244">
        <ele>541.28729248</ele>
        <time>2015-09-10T12:02:47.132Z</time>
      </trkpt>
      <trkpt lat="46.054" lon="4.55251">
        <ele>539.975219727</ele>
        <time>2015-09-10T12:02:53.177Z</time>
      </trkpt>
      <trkpt lat="46.05401" lon="4.55252">
        <ele>539.694091797</ele>
        <time>2015-09-10T12:02:54.143Z</time>
      </trkpt>
      <trkpt lat="46.05409" lon="4.55258">
        <ele>537.054870605</ele>
        <time>2015-09-10T12:03:03.163Z</time>
      </trkpt>
      <trkpt lat="46.0541" lon="4.55259">
        <ele>536.774353027</ele>
        <time>2015-09-10T12:03:04.111Z</time>
      </trkpt>
      <trkpt lat="46.05418" lon="4.55264">
        <ele>534.745239258</ele>
        <time>2015-09-10T12:03:13.17Z</time>
      </trkpt>
      <trkpt lat="46.05419" lon="4.55265">
        <ele>534.626281738</ele>
        <time>2015-09-10T12:03:14.135Z</time>
      </trkpt>
      <trkpt lat="46.05427" lon="4.5527">
        <ele>533.61340332</ele>
        <time>2015-09-10T12:03:27.15Z</time>
      </trkpt>
      <trkpt lat="46.05428" lon="4.55271">
        <ele>533.49206543</ele>
        <time>2015-09-10T12:03:28.125Z</time>
      </trkpt>
      <trkpt lat="46.05435" lon="4.55276">
        <ele>535.396850586</ele>
        <time>2015-09-10T12:03:38.162Z</time>
      </trkpt>
      <trkpt lat="46.05436" lon="4.55277">
        <ele>535.635070801</ele>
        <time>2015-09-10T12:03:39.116Z</time>
      </trkpt>
      <trkpt lat="46.05443" lon="4.55284">
        <ele>537.054626465</ele>
        <time>2015-09-10T12:03:47.157Z</time>
      </trkpt>
      <trkpt lat="46.05444" lon="4.55284">
        <ele>537.065429688</ele>
        <time>2015-09-10T12:03:48.14Z</time>
      </trkpt>
      <trkpt lat="46.05449" lon="4.55295">
        <ele>532.296325684</ele>
        <time>2015-09-10T12:04:10.174Z</time>
      </trkpt>
      <trkpt lat="46.05449" lon="4.55296">
        <ele>532.043640137</ele>
        <time>2015-09-10T12:04:11.132Z</time>
      </trkpt>
      <trkpt lat="46.05451" lon="4.55308">
        <ele>526.912475586</ele>
        <time>2015-09-10T12:04:23.184Z</time>
      </trkpt>
      <trkpt lat="46.05451" lon="4.55309">
        <ele>526.41229248</ele>
        <time>2015-09-10T12:04:24.143Z</time>
      </trkpt>
      <trkpt lat="46.0545" lon="4.55321">
        <ele>521.45880127</ele>
        <time>2015-09-10T12:04:35.183Z</time>
      </trkpt>
      <trkpt lat="46.0545" lon="4.55323">
        <ele>521.096801758</ele>
        <time>2015-09-10T12:04:36.144Z</time>
      </trkpt>
      <trkpt lat="46.05453" lon="4.55335">
        <ele>518.878112793</ele>
        <time>2015-09-10T12:04:42.191Z</time>
      </trkpt>
      <trkpt lat="46.05453" lon="4.55336">
        <ele>518.52520752</ele>
        <time>2015-09-10T12:04:43.146Z</time>
      </trkpt>
      <trkpt lat="46.05455" lon="4.55348">
        <ele>516.360412598</ele>
        <time>2015-09-10T12:04:50.196Z</time>
      </trkpt>
      <trkpt lat="46.05456" lon="4.5535">
        <ele>515.983825684</ele>
        <time>2015-09-10T12:04:51.133Z</time>
      </trkpt>
      <trkpt lat="46.05461" lon="4.5536">
        <ele>513.910888672</ele>
        <time>2015-09-10T12:04:58.173Z</time>
      </trkpt>
      <trkpt lat="46.05461" lon="4.55361">
        <ele>513.540771484</ele>
        <time>2015-09-10T12:04:59.135Z</time>
      </trkpt>
      <trkpt lat="46.05468" lon="4.55369">
        <ele>510.933868408</ele>
        <time>2015-09-10T12:05:06.188Z</time>
      </trkpt>
      <trkpt lat="46.05469" lon="4.5537">
        <ele>510.587493896</ele>
        <time>2015-09-10T12:05:07.152Z</time>
      </trkpt>
      <trkpt lat="46.05475" lon="4.55378">
        <ele>509.413513184</ele>
        <time>2015-09-10T12:05:12.183Z</time>
      </trkpt>
      <trkpt lat="46.05476" lon="4.55381">
        <ele>509.295471191</ele>
        <time>2015-09-10T12:05:13.123Z</time>
      </trkpt>
      <trkpt lat="46.05482" lon="4.5539">
        <ele>508.498809814</ele>
        <time>2015-09-10T12:05:18.182Z</time>
      </trkpt>
      <trkpt lat="46.05483" lon="4.55393">
        <ele>508.389282227</ele>
        <time>2015-09-10T12:05:19.137Z</time>
      </trkpt>
      <trkpt lat="46.05489" lon="4.55402">
        <ele>507.452026367</ele>
        <time>2015-09-10T12:05:27.203Z</time>
      </trkpt>
      <trkpt lat="46.0549" lon="4.55404">
        <ele>507.313995361</ele>
        <time>2015-09-10T12:05:28.138Z</time>
      </trkpt>
      <trkpt lat="46.05496" lon="4.55413">
        <ele>505.681396484</ele>
        <time>2015-09-10T12:05:38.175Z</time>
      </trkpt>
      <trkpt lat="46.05496" lon="4.55414">
        <ele>505.485015869</ele>
        <time>2015-09-10T12:05:39.14Z</time>
      </trkpt>
      <trkpt lat="46.05501" lon="4.55423">
        <ele>502.775390625</ele>
        <time>2015-09-10T12:05:53.161Z</time>
      </trkpt>
      <trkpt lat="46.05501" lon="4.55424">
        <ele>502.512451172</ele>
        <time>2015-09-10T12:05:54.152Z</time>
      </trkpt>
      <trkpt lat="46.05504" lon="4.55435">
        <ele>499.010040283</ele>
        <time>2015-09-10T12:06:04.189Z</time>
      </trkpt>
      <trkpt lat="46.05504" lon="4.55437">
        <ele>498.822174072</ele>
        <time>2015-09-10T12:06:05.132Z</time>
      </trkpt>
      <trkpt lat="46.05507" lon="4.55448">
        <ele>497.878112793</ele>
        <time>2015-09-10T12:06:12.179Z</time>
      </trkpt>
      <trkpt lat="46.05508" lon="4.5545">
        <ele>497.763458252</ele>
        <time>2015-09-10T12:06:13.134Z</time>
      </trkpt>
      <trkpt lat="46.05511" lon="4.5546">
        <ele>496.551147461</ele>
        <time>2015-09-10T12:06:19.208Z</time>
      </trkpt>
      <trkpt lat="46.05512" lon="4.55462">
        <ele>496.373474121</ele>
        <time>2015-09-10T12:06:20.125Z</time>
      </trkpt>
      <trkpt lat="46.05515" lon="4.55472">
        <ele>495.479125977</ele>
        <time>2015-09-10T12:06:27.187Z</time>
      </trkpt>
      <trkpt lat="46.05516" lon="4.55474">
        <ele>495.41998291</ele>
        <time>2015-09-10T12:06:28.147Z</time>
      </trkpt>
      <trkpt lat="46.05519" lon="4.55486">
        <ele>495.672119141</ele>
        <time>2015-09-10T12:06:33.158Z</time>
      </trkpt>
      <trkpt lat="46.0552" lon="4.55489">
        <ele>495.836547852</ele>
        <time>2015-09-10T12:06:34.159Z</time>
      </trkpt>
      <trkpt lat="46.05523" lon="4.55499">
        <ele>496.647460938</ele>
        <time>2015-09-10T12:06:39.184Z</time>
      </trkpt>
      <trkpt lat="46.05524" lon="4.55501">
        <ele>496.755310059</ele>
        <time>2015-09-10T12:06:40.141Z</time>
      </trkpt>
      <trkpt lat="46.05528" lon="4.55512">
        <ele>496.736846924</ele>
        <time>2015-09-10T12:06:45.151Z</time>
      </trkpt>
      <trkpt lat="46.05529" lon="4.55514">
        <ele>496.724731445</ele>
        <time>2015-09-10T12:06:46.143Z</time>
      </trkpt>
      <trkpt lat="46.05534" lon="4.55524">
        <ele>496.418212891</ele>
        <time>2015-09-10T12:06:50.312Z</time>
      </trkpt>
      <trkpt lat="46.05535" lon="4.55527">
        <ele>496.296203613</ele>
        <time>2015-09-10T12:06:51.138Z</time>
      </trkpt>
      <trkpt lat="46.05541" lon="4.55535">
        <ele>495.982147217</ele>
        <time>2015-09-10T12:06:55.192Z</time>
      </trkpt>
      <trkpt lat="46.05542" lon="4.55537">
        <ele>495.911590576</ele>
        <time>2015-09-10T12:06:56.145Z</time>
      </trkpt>
      <trkpt lat="46.05548" lon="4.55547">
        <ele>495.5909729</ele>
        <time>2015-09-10T12:07:04.183Z</time>
      </trkpt>
      <trkpt lat="46.05549" lon="4.55549">
        <ele>495.596405029</ele>
        <time>2015-09-10T12:07:05.129Z</time>
      </trkpt>
      <trkpt lat="46.05555" lon="4.55558">
        <ele>494.428649902</ele>
        <time>2015-09-10T12:07:40.158Z</time>
      </trkpt>
      <trkpt lat="46.05555" lon="4.55559">
        <ele>494.515258789</ele>
        <time>2015-09-10T12:07:41.122Z</time>
      </trkpt>
      <trkpt lat="46.0555" lon="4.55569">
        <ele>495.287658691</ele>
        <time>2015-09-10T12:07:58.225Z</time>
      </trkpt>
      <trkpt lat="46.05548" lon="4.55569">
        <ele>495.205352783</ele>
        <time>2015-09-10T12:07:59.134Z</time>
      </trkpt>
      <trkpt lat="46.05541" lon="4.55564">
        <ele>495.247497559</ele>
        <time>2015-09-10T12:08:06.142Z</time>
      </trkpt>
      <trkpt lat="46.0554" lon="4.55563">
        <ele>495.247741699</ele>
        <time>2015-09-10T12:08:07.109Z</time>
      </trkpt>
      <trkpt lat="46.05534" lon="4.55555">
        <ele>495.057128906</ele>
        <time>2015-09-10T12:08:16.167Z</time>
      </trkpt>
      <trkpt lat="46.05533" lon="4.55554">
        <ele>495.13168335</ele>
        <time>2015-09-10T12:08:17.126Z</time>
      </trkpt>
      <trkpt lat="46.05526" lon="4.55547">
        <ele>495.349853516</ele>
        <time>2015-09-10T12:08:24.154Z</time>
      </trkpt>
      <trkpt lat="46.05525" lon="4.55546">
        <ele>495.355712891</ele>
        <time>2015-09-10T12:08:25.128Z</time>
      </trkpt>
      <trkpt lat="46.05519" lon="4.55538">
        <ele>495.758117676</ele>
        <time>2015-09-10T12:08:32.18Z</time>
      </trkpt>
      <trkpt lat="46.05518" lon="4.55538">
        <ele>495.844146729</ele>
        <time>2015-09-10T12:08:33.132Z</time>
      </trkpt>
      <trkpt lat="46.0551" lon="4.55532">
        <ele>496.407958984</ele>
        <time>2015-09-10T12:08:40.173Z</time>
      </trkpt>
      <trkpt lat="46.05509" lon="4.55531">
        <ele>496.421722412</ele>
        <time>2015-09-10T12:08:41.13Z</time>
      </trkpt>
      <trkpt lat="46.05502" lon="4.55524">
        <ele>495.840393066</ele>
        <time>2015-09-10T12:08:47.155Z</time>
      </trkpt>
      <trkpt lat="46.05501" lon="4.55523">
        <ele>495.65411377</ele>
        <time>2015-09-10T12:08:48.128Z</time>
      </trkpt>
      <trkpt lat="46.05493" lon="4.55517">
        <ele>494.320800781</ele>
        <time>2015-09-10T12:08:54.151Z</time>
      </trkpt>
      <trkpt lat="46.05492" lon="4.55516">
        <ele>494.178131104</ele>
        <time>2015-09-10T12:08:55.127Z</time>
      </trkpt>
      <trkpt lat="46.05484" lon="4.55511">
        <ele>493.177947998</ele>
        <time>2015-09-10T12:09:03.166Z</time>
      </trkpt>
      <trkpt lat="46.05483" lon="4.5551">
        <ele>493.067169189</ele>
        <time>2015-09-10T12:09:04.153Z</time>
      </trkpt>
      <trkpt lat="46.05476" lon="4.55504">
        <ele>492.093963623</ele>
        <time>2015-09-10T12:09:10.157Z</time>
      </trkpt>
      <trkpt lat="46.05475" lon="4.55502">
        <ele>491.872375488</ele>
        <time>2015-09-10T12:09:11.112Z</time>
      </trkpt>
      <trkpt lat="46.05467" lon="4.55496">
        <ele>489.873687744</ele>
        <time>2015-09-10T12:09:17.159Z</time>
      </trkpt>
      <trkpt lat="46.05466" lon="4.55495">
        <ele>489.602630615</ele>
        <time>2015-09-10T12:09:18.116Z</time>
      </trkpt>
      <trkpt lat="46.05461" lon="4.55486">
        <ele>488.102111816</ele>
        <time>2015-09-10T12:09:27.164Z</time>
      </trkpt>
      <trkpt lat="46.0546" lon="4.55485">
        <ele>487.99331665</ele>
        <time>2015-09-10T12:09:28.128Z</time>
      </trkpt>
      <trkpt lat="46.05452" lon="4.55479">
        <ele>487.209960938</ele>
        <time>2015-09-10T12:09:35.177Z</time>
      </trkpt>
      <trkpt lat="46.05451" lon="4.55478">
        <ele>487.117034912</ele>
        <time>2015-09-10T12:09:36.127Z</time>
      </trkpt>
      <trkpt lat="46.05444" lon="4.55484">
        <ele>492.075439453</ele>
        <time>2015-09-10T12:10:26.176Z</time>
      </trkpt>
      <trkpt lat="46.05443" lon="4.55486">
        <ele>492.094146729</ele>
        <time>2015-09-10T12:10:27.134Z</time>
      </trkpt>
      <trkpt lat="46.05442" lon="4.55497">
        <ele>492.026000977</ele>
        <time>2015-09-10T12:10:33.153Z</time>
      </trkpt>
      <trkpt lat="46.05441" lon="4.555">
        <ele>491.976409912</ele>
        <time>2015-09-10T12:10:34.118Z</time>
      </trkpt>
      <trkpt lat="46.0544" lon="4.55511">
        <ele>492.024871826</ele>
        <time>2015-09-10T12:10:38.173Z</time>
      </trkpt>
      <trkpt lat="46.0544" lon="4.55514">
        <ele>492.015228271</ele>
        <time>2015-09-10T12:10:39.135Z</time>
      </trkpt>
      <trkpt lat="46.05441" lon="4.55526">
        <ele>492.274230957</ele>
        <time>2015-09-10T12:10:47.183Z</time>
      </trkpt>
      <trkpt lat="46.05441" lon="4.55528">
        <ele>492.378234863</ele>
        <time>2015-09-10T12:10:48.135Z</time>
      </trkpt>
      <trkpt lat="46.05442" lon="4.55539">
        <ele>492.900054932</ele>
        <time>2015-09-10T12:10:54.186Z</time>
      </trkpt>
      <trkpt lat="46.05443" lon="4.55541">
        <ele>492.995239258</ele>
        <time>2015-09-10T12:10:55.138Z</time>
      </trkpt>
      <trkpt lat="46.05445" lon="4.55552">
        <ele>493.473236084</ele>
        <time>2015-09-10T12:11:01.185Z</time>
      </trkpt>
      <trkpt lat="46.05446" lon="4.55553">
        <ele>493.55871582</ele>
        <time>2015-09-10T12:11:02.137Z</time>
      </trkpt>
      <trkpt lat="46.05448" lon="4.55564">
        <ele>493.603179932</ele>
        <time>2015-09-10T12:11:08.179Z</time>
      </trkpt>
      <trkpt lat="46.05448" lon="4.55566">
        <ele>493.517547607</ele>
        <time>2015-09-10T12:11:09.137Z</time>
      </trkpt>
      <trkpt lat="46.05449" lon="4.55578">
        <ele>492.971160889</ele>
        <time>2015-09-10T12:11:15.19Z</time>
      </trkpt>
      <trkpt lat="46.0545" lon="4.5558">
        <ele>492.876251221</ele>
        <time>2015-09-10T12:11:16.134Z</time>
      </trkpt>
      <trkpt lat="46.05452" lon="4.5559">
        <ele>492.344818115</ele>
        <time>2015-09-10T12:11:22.25Z</time>
      </trkpt>
      <trkpt lat="46.05453" lon="4.55595">
        <ele>492.280914307</ele>
        <time>2015-09-10T12:11:23.136Z</time>
      </trkpt>
      <trkpt lat="46.05455" lon="4.55606">
        <ele>491.880767822</ele>
        <time>2015-09-10T12:11:31.185Z</time>
      </trkpt>
      <trkpt lat="46.05456" lon="4.55608">
        <ele>491.846008301</ele>
        <time>2015-09-10T12:11:32.141Z</time>
      </trkpt>
      <trkpt lat="46.05459" lon="4.55619">
        <ele>491.564178467</ele>
        <time>2015-09-10T12:11:38.173Z</time>
      </trkpt>
      <trkpt lat="46.05459" lon="4.5562">
        <ele>491.499450684</ele>
        <time>2015-09-10T12:11:39.141Z</time>
      </trkpt>
      <trkpt lat="46.0546" lon="4.55633">
        <ele>490.921661377</ele>
        <time>2015-09-10T12:11:47.199Z</time>
      </trkpt>
      <trkpt lat="46.0546" lon="4.55634">
        <ele>490.864685059</ele>
        <time>2015-09-10T12:11:48.126Z</time>
      </trkpt>
      <trkpt lat="46.0546" lon="4.55645">
        <ele>490.482757568</ele>
        <time>2015-09-10T12:11:56.149Z</time>
      </trkpt>
      <trkpt lat="46.0546" lon="4.55647">
        <ele>490.490203857</ele>
        <time>2015-09-10T12:11:57.126Z</time>
      </trkpt>
      <trkpt lat="46.05462" lon="4.55659">
        <ele>490.685577393</ele>
        <time>2015-09-10T12:12:04.197Z</time>
      </trkpt>
      <trkpt lat="46.05462" lon="4.5566">
        <ele>490.717529297</ele>
        <time>2015-09-10T12:12:05.127Z</time>
      </trkpt>
      <trkpt lat="46.05461" lon="4.55672">
        <ele>491.131408691</ele>
        <time>2015-09-10T12:12:13.184Z</time>
      </trkpt>
      <trkpt lat="46.05461" lon="4.55674">
        <ele>491.200653076</ele>
        <time>2015-09-10T12:12:14.139Z</time>
      </trkpt>
      <trkpt lat="46.05461" lon="4.55686">
        <ele>491.74508667</ele>
        <time>2015-09-10T12:12:22.188Z</time>
      </trkpt>
      <trkpt lat="46.0546" lon="4.55688">
        <ele>491.820770264</ele>
        <time>2015-09-10T12:12:23.153Z</time>
      </trkpt>
      <trkpt lat="46.05461" lon="4.557">
        <ele>492.385498047</ele>
        <time>2015-09-10T12:12:31.153Z</time>
      </trkpt>
      <trkpt lat="46.05462" lon="4.55701">
        <ele>492.46887207</ele>
        <time>2015-09-10T12:12:32.123Z</time>
      </trkpt>
      <trkpt lat="46.05463" lon="4.55713">
        <ele>493.019042969</ele>
        <time>2015-09-10T12:12:38.141Z</time>
      </trkpt>
      <trkpt lat="46.05463" lon="4.55714">
        <ele>493.101989746</ele>
        <time>2015-09-10T12:12:39.12Z</time>
      </trkpt>
      <trkpt lat="46.05464" lon="4.55727">
        <ele>493.813232422</ele>
        <time>2015-09-10T12:12:49.178Z</time>
      </trkpt>
      <trkpt lat="46.05464" lon="4.55728">
        <ele>493.890838623</ele>
        <time>2015-09-10T12:12:50.121Z</time>
      </trkpt>
      <trkpt lat="46.05466" lon="4.55741">
        <ele>494.5625</ele>
        <time>2015-09-10T12:12:58.152Z</time>
      </trkpt>
      <trkpt lat="46.05466" lon="4.55742">
        <ele>494.646148682</ele>
        <time>2015-09-10T12:12:59.108Z</time>
      </trkpt>
      <trkpt lat="46.05469" lon="4.55754">
        <ele>495.557678223</ele>
        <time>2015-09-10T12:13:08.177Z</time>
      </trkpt>
      <trkpt lat="46.0547" lon="4.55755">
        <ele>495.673065186</ele>
        <time>2015-09-10T12:13:09.135Z</time>
      </trkpt>
      <trkpt lat="46.05473" lon="4.55767">
        <ele>496.885375977</ele>
        <time>2015-09-10T12:13:18.152Z</time>
      </trkpt>
      <trkpt lat="46.05473" lon="4.55768">
        <ele>497.050109863</ele>
        <time>2015-09-10T12:13:19.107Z</time>
      </trkpt>
      <trkpt lat="46.05476" lon="4.5578">
        <ele>498.520751953</ele>
        <time>2015-09-10T12:13:29.154Z</time>
      </trkpt>
      <trkpt lat="46.05476" lon="4.55781">
        <ele>498.709564209</ele>
        <time>2015-09-10T12:13:30.126Z</time>
      </trkpt>
      <trkpt lat="46.05479" lon="4.55793">
        <ele>499.922973633</ele>
        <time>2015-09-10T12:13:37.155Z</time>
      </trkpt>
      <trkpt lat="46.05479" lon="4.55795">
        <ele>500.082244873</ele>
        <time>2015-09-10T12:13:38.133Z</time>
      </trkpt>
      <trkpt lat="46.05481" lon="4.55805">
        <ele>500.870361328</ele>
        <time>2015-09-10T12:13:44.187Z</time>
      </trkpt>
      <trkpt lat="46.05482" lon="4.55807">
        <ele>500.987335205</ele>
        <time>2015-09-10T12:13:45.139Z</time>
      </trkpt>
      <trkpt lat="46.05483" lon="4.55819">
        <ele>502.064666748</ele>
        <time>2015-09-10T12:13:54.174Z</time>
      </trkpt>
      <trkpt lat="46.05483" lon="4.5582">
        <ele>502.175628662</ele>
        <time>2015-09-10T12:13:55.108Z</time>
      </trkpt>
      <trkpt lat="46.05484" lon="4.55832">
        <ele>503.14944458</ele>
        <time>2015-09-10T12:14:03.133Z</time>
      </trkpt>
      <trkpt lat="46.05484" lon="4.55834">
        <ele>503.274108887</ele>
        <time>2015-09-10T12:14:04.142Z</time>
      </trkpt>
      <trkpt lat="46.05485" lon="4.55846">
        <ele>504.523010254</ele>
        <time>2015-09-10T12:14:12.152Z</time>
      </trkpt>
      <trkpt lat="46.05486" lon="4.55848">
        <ele>504.685241699</ele>
        <time>2015-09-10T12:14:13.129Z</time>
      </trkpt>
      <trkpt lat="46.05487" lon="4.55859">
        <ele>505.533081055</ele>
        <time>2015-09-10T12:14:19.138Z</time>
      </trkpt>
      <trkpt lat="46.05488" lon="4.55861">
        <ele>505.664428711</ele>
        <time>2015-09-10T12:14:20.136Z</time>
      </trkpt>
      <trkpt lat="46.0549" lon="4.55872">
        <ele>506.503295898</ele>
        <time>2015-09-10T12:14:27.136Z</time>
      </trkpt>
      <trkpt lat="46.05491" lon="4.55873">
        <ele>506.623046875</ele>
        <time>2015-09-10T12:14:28.144Z</time>
      </trkpt>
      <trkpt lat="46.05498" lon="4.55881">
        <ele>507.549621582</ele>
        <time>2015-09-10T12:14:37.164Z</time>
      </trkpt>
      <trkpt lat="46.05499" lon="4.55882">
        <ele>507.643280029</ele>
        <time>2015-09-10T12:14:38.144Z</time>
      </trkpt>
      <trkpt lat="46.05505" lon="4.55888">
        <ele>508.377441406</ele>
        <time>2015-09-10T12:14:45.176Z</time>
      </trkpt>
      <trkpt lat="46.05506" lon="4.55889">
        <ele>508.487487793</ele>
        <time>2015-09-10T12:14:46.157Z</time>
      </trkpt>
      <trkpt lat="46.05513" lon="4.55897">
        <ele>509.108917236</ele>
        <time>2015-09-10T12:14:52.174Z</time>
      </trkpt>
      <trkpt lat="46.05514" lon="4.55898">
        <ele>509.20123291</ele>
        <time>2015-09-10T12:14:53.128Z</time>
      </trkpt>
      <trkpt lat="46.05518" lon="4.55907">
        <ele>509.797241211</ele>
        <time>2015-09-10T12:15:00.137Z</time>
      </trkpt>
      <trkpt lat="46.05519" lon="4.55909">
        <ele>509.883789062</ele>
        <time>2015-09-10T12:15:01.12Z</time>
      </trkpt>
      <trkpt lat="46.05522" lon="4.55921">
        <ele>510.733673096</ele>
        <time>2015-09-10T12:15:09.181Z</time>
      </trkpt>
      <trkpt lat="46.05522" lon="4.55923">
        <ele>510.841491699</ele>
        <time>2015-09-10T12:15:10.146Z</time>
      </trkpt>
      <trkpt lat="46.0552" lon="4.55934">
        <ele>511.600341797</ele>
        <time>2015-09-10T12:15:18.177Z</time>
      </trkpt>
      <trkpt lat="46.05519" lon="4.55936">
        <ele>511.696777344</ele>
        <time>2015-09-10T12:15:19.135Z</time>
      </trkpt>
      <trkpt lat="46.05513" lon="4.55945">
        <ele>513.008728027</ele>
        <time>2015-09-10T12:15:30.217Z</time>
      </trkpt>
      <trkpt lat="46.05513" lon="4.55945">
        <ele>513.126831055</ele>
        <time>2015-09-10T12:15:31.118Z</time>
      </trkpt>
      <trkpt lat="46.05505" lon="4.55949">
        <ele>514.620056152</ele>
        <time>2015-09-10T12:17:26.175Z</time>
      </trkpt>
      <trkpt lat="46.05504" lon="4.55949">
        <ele>514.68560791</ele>
        <time>2015-09-10T12:17:27.14Z</time>
      </trkpt>
      <trkpt lat="46.05495" lon="4.55951">
        <ele>515.344848633</ele>
        <time>2015-09-10T12:17:47.152Z</time>
      </trkpt>
      <trkpt lat="46.05495" lon="4.55951">
        <ele>515.348388672</ele>
        <time>2015-09-10T12:17:48.142Z</time>
      </trkpt>
      <trkpt lat="46.05489" lon="4.55943">
        <ele>516.713745117</ele>
        <time>2015-09-10T12:18:46.175Z</time>
      </trkpt>
      <trkpt lat="46.05487" lon="4.55941">
        <ele>516.797241211</ele>
        <time>2015-09-10T12:18:47.143Z</time>
      </trkpt>
      <trkpt lat="46.05481" lon="4.55934">
        <ele>517.113037109</ele>
        <time>2015-09-10T12:18:53.136Z</time>
      </trkpt>
      <trkpt lat="46.0548" lon="4.55933">
        <ele>517.159179688</ele>
        <time>2015-09-10T12:18:54.152Z</time>
      </trkpt>
      <trkpt lat="46.05474" lon="4.55924">
        <ele>517.494812012</ele>
        <time>2015-09-10T12:19:02.154Z</time>
      </trkpt>
      <trkpt lat="46.05473" lon="4.55922">
        <ele>517.534667969</ele>
        <time>2015-09-10T12:19:03.134Z</time>
      </trkpt>
      <trkpt lat="46.05467" lon="4.55914">
        <ele>517.604248047</ele>
        <time>2015-09-10T12:19:10.172Z</time>
      </trkpt>
      <trkpt lat="46.05466" lon="4.55912">
        <ele>517.635864258</ele>
        <time>2015-09-10T12:19:11.153Z</time>
      </trkpt>
      <trkpt lat="46.0546" lon="4.55904">
        <ele>517.924377441</ele>
        <time>2015-09-10T12:19:18.178Z</time>
      </trkpt>
      <trkpt lat="46.05458" lon="4.55903">
        <ele>517.982666016</ele>
        <time>2015-09-10T12:19:19.126Z</time>
      </trkpt>
      <trkpt lat="46.05451" lon="4.55899">
        <ele>518.485168457</ele>
        <time>2015-09-10T12:19:26.156Z</time>
      </trkpt>
      <trkpt lat="46.05449" lon="4.55899">
        <ele>518.547790527</ele>
        <time>2015-09-10T12:19:27.118Z</time>
      </trkpt>
      <trkpt lat="46.05441" lon="4.559">
        <ele>518.867004395</ele>
        <time>2015-09-10T12:19:33.184Z</time>
      </trkpt>
      <trkpt lat="46.0544" lon="4.55901">
        <ele>518.920410156</ele>
        <time>2015-09-10T12:19:34.127Z</time>
      </trkpt>
      <trkpt lat="46.05432" lon="4.55905">
        <ele>519.472839355</ele>
        <time>2015-09-10T12:19:42.164Z</time>
      </trkpt>
      <trkpt lat="46.05431" lon="4.55906">
        <ele>519.567993164</ele>
        <time>2015-09-10T12:19:43.125Z</time>
      </trkpt>
      <trkpt lat="46.05424" lon="4.55912">
        <ele>520.049621582</ele>
        <time>2015-09-10T12:19:49.178Z</time>
      </trkpt>
      <trkpt lat="46.05423" lon="4.55913">
        <ele>520.125549316</ele>
        <time>2015-09-10T12:19:50.137Z</time>
      </trkpt>
      <trkpt lat="46.05415" lon="4.55919">
        <ele>521.089355469</ele>
        <time>2015-09-10T12:19:58.243Z</time>
      </trkpt>
      <trkpt lat="46.05414" lon="4.5592">
        <ele>521.246948242</ele>
        <time>2015-09-10T12:19:59.124Z</time>
      </trkpt>
      <trkpt lat="46.05407" lon="4.55925">
        <ele>522.476989746</ele>
        <time>2015-09-10T12:20:07.145Z</time>
      </trkpt>
      <trkpt lat="46.05406" lon="4.55925">
        <ele>522.631408691</ele>
        <time>2015-09-10T12:20:08.128Z</time>
      </trkpt>
      <trkpt lat="46.05398" lon="4.55931">
        <ele>523.695922852</ele>
        <time>2015-09-10T12:20:15.163Z</time>
      </trkpt>
      <trkpt lat="46.05397" lon="4.55931">
        <ele>523.832336426</ele>
        <time>2015-09-10T12:20:16.142Z</time>
      </trkpt>
      <trkpt lat="46.05388" lon="4.55933">
        <ele>524.778808594</ele>
        <time>2015-09-10T12:20:23.179Z</time>
      </trkpt>
      <trkpt lat="46.05387" lon="4.55933">
        <ele>524.948852539</ele>
        <time>2015-09-10T12:20:24.129Z</time>
      </trkpt>
      <trkpt lat="46.0538" lon="4.55935">
        <ele>526.283874512</ele>
        <time>2015-09-10T12:20:32.156Z</time>
      </trkpt>
      <trkpt lat="46.05378" lon="4.55935">
        <ele>526.446777344</ele>
        <time>2015-09-10T12:20:33.134Z</time>
      </trkpt>
      <trkpt lat="46.05369" lon="4.55935">
        <ele>527.828552246</ele>
        <time>2015-09-10T12:20:41.166Z</time>
      </trkpt>
      <trkpt lat="46.05368" lon="4.55935">
        <ele>528.003601074</ele>
        <time>2015-09-10T12:20:42.132Z</time>
      </trkpt>
      <trkpt lat="46.05361" lon="4.55933">
        <ele>529.158874512</ele>
        <time>2015-09-10T12:20:49.169Z</time>
      </trkpt>
      <trkpt lat="46.05359" lon="4.55933">
        <ele>529.301635742</ele>
        <time>2015-09-10T12:20:50.123Z</time>
      </trkpt>
      <trkpt lat="46.05351" lon="4.55931">
        <ele>530.4140625</ele>
        <time>2015-09-10T12:20:57.142Z</time>
      </trkpt>
      <trkpt lat="46.0535" lon="4.55931">
        <ele>530.567199707</ele>
        <time>2015-09-10T12:20:58.127Z</time>
      </trkpt>
      <trkpt lat="46.05341" lon="4.5593">
        <ele>531.715515137</ele>
        <time>2015-09-10T12:21:06.158Z</time>
      </trkpt>
      <trkpt lat="46.0534" lon="4.5593">
        <ele>531.84564209</ele>
        <time>2015-09-10T12:21:07.132Z</time>
      </trkpt>
      <trkpt lat="46.05333" lon="4.5593">
        <ele>532.811767578</ele>
        <time>2015-09-10T12:21:14.147Z</time>
      </trkpt>
      <trkpt lat="46.05331" lon="4.5593">
        <ele>532.975769043</ele>
        <time>2015-09-10T12:21:15.124Z</time>
      </trkpt>
      <trkpt lat="46.05323" lon="4.55931">
        <ele>533.840026855</ele>
        <time>2015-09-10T12:21:20.168Z</time>
      </trkpt>
      <trkpt lat="46.05322" lon="4.55931">
        <ele>533.975891113</ele>
        <time>2015-09-10T12:21:21.092Z</time>
      </trkpt>
      <trkpt lat="46.05314" lon="4.55932">
        <ele>534.924621582</ele>
        <time>2015-09-10T12:21:28.138Z</time>
      </trkpt>
      <trkpt lat="46.05313" lon="4.55932">
        <ele>535.044006348</ele>
        <time>2015-09-10T12:21:29.119Z</time>
      </trkpt>
      <trkpt lat="46.05305" lon="4.55934">
        <ele>535.89251709</ele>
        <time>2015-09-10T12:21:36.15Z</time>
      </trkpt>
      <trkpt lat="46.05304" lon="4.55935">
        <ele>535.988952637</ele>
        <time>2015-09-10T12:21:37.115Z</time>
      </trkpt>
      <trkpt lat="46.05296" lon="4.55937">
        <ele>536.674316406</ele>
        <time>2015-09-10T12:21:44.118Z</time>
      </trkpt>
      <trkpt lat="46.05294" lon="4.55937">
        <ele>536.758789062</ele>
        <time>2015-09-10T12:21:45.121Z</time>
      </trkpt>
      <trkpt lat="46.05286" lon="4.55939">
        <ele>537.215881348</ele>
        <time>2015-09-10T12:21:52.157Z</time>
      </trkpt>
      <trkpt lat="46.05285" lon="4.55939">
        <ele>537.287109375</ele>
        <time>2015-09-10T12:21:53.124Z</time>
      </trkpt>
      <trkpt lat="46.05277" lon="4.55941">
        <ele>537.816650391</ele>
        <time>2015-09-10T12:22:00.15Z</time>
      </trkpt>
      <trkpt lat="46.05275" lon="4.55941">
        <ele>537.888305664</ele>
        <time>2015-09-10T12:22:01.112Z</time>
      </trkpt>
      <trkpt lat="46.05266" lon="4.55942">
        <ele>538.213134766</ele>
        <time>2015-09-10T12:22:07.16Z</time>
      </trkpt>
      <trkpt lat="46.05265" lon="4.55943">
        <ele>538.263916016</ele>
        <time>2015-09-10T12:22:08.103Z</time>
      </trkpt>
      <trkpt lat="46.05257" lon="4.55943">
        <ele>538.516662598</ele>
        <time>2015-09-10T12:22:14.153Z</time>
      </trkpt>
      <trkpt lat="46.05256" lon="4.55943">
        <ele>538.552734375</ele>
        <time>2015-09-10T12:22:15.113Z</time>
      </trkpt>
      <trkpt lat="46.05247" lon="4.55943">
        <ele>538.871826172</ele>
        <time>2015-09-10T12:22:22.147Z</time>
      </trkpt>
      <trkpt lat="46.05246" lon="4.55943">
        <ele>538.901794434</ele>
        <time>2015-09-10T12:22:23.112Z</time>
      </trkpt>
      <trkpt lat="46.05238" lon="4.55942">
        <ele>539.072692871</ele>
        <time>2015-09-10T12:22:29.16Z</time>
      </trkpt>
      <trkpt lat="46.05236" lon="4.55942">
        <ele>539.097839355</ele>
        <time>2015-09-10T12:22:30.112Z</time>
      </trkpt>
      <trkpt lat="46.05228" lon="4.55941">
        <ele>539.18145752</ele>
        <time>2015-09-10T12:22:36.174Z</time>
      </trkpt>
      <trkpt lat="46.05226" lon="4.5594">
        <ele>539.192138672</ele>
        <time>2015-09-10T12:22:37.124Z</time>
      </trkpt>
      <trkpt lat="46.05218" lon="4.55937">
        <ele>539.198059082</ele>
        <time>2015-09-10T12:22:43.168Z</time>
      </trkpt>
      <trkpt lat="46.05217" lon="4.55936">
        <ele>539.178039551</ele>
        <time>2015-09-10T12:22:44.097Z</time>
      </trkpt>
      <trkpt lat="46.05209" lon="4.55933">
        <ele>539.084533691</ele>
        <time>2015-09-10T12:22:50.175Z</time>
      </trkpt>
      <trkpt lat="46.05208" lon="4.55932">
        <ele>539.037841797</ele>
        <time>2015-09-10T12:22:51.123Z</time>
      </trkpt>
      <trkpt lat="46.052" lon="4.55928">
        <ele>538.933288574</ele>
        <time>2015-09-10T12:22:57.159Z</time>
      </trkpt>
      <trkpt lat="46.05198" lon="4.55927">
        <ele>538.952575684</ele>
        <time>2015-09-10T12:22:58.124Z</time>
      </trkpt>
      <trkpt lat="46.0519" lon="4.55924">
        <ele>538.860107422</ele>
        <time>2015-09-10T12:23:04.157Z</time>
      </trkpt>
      <trkpt lat="46.05189" lon="4.55924">
        <ele>538.82421875</ele>
        <time>2015-09-10T12:23:05.117Z</time>
      </trkpt>
      <trkpt lat="46.05181" lon="4.55922">
        <ele>538.633483887</ele>
        <time>2015-09-10T12:23:10.198Z</time>
      </trkpt>
      <trkpt lat="46.0518" lon="4.55922">
        <ele>538.571716309</ele>
        <time>2015-09-10T12:23:11.118Z</time>
      </trkpt>
      <trkpt lat="46.05171" lon="4.55923">
        <ele>538.204650879</ele>
        <time>2015-09-10T12:23:18.15Z</time>
      </trkpt>
      <trkpt lat="46.0517" lon="4.55924">
        <ele>538.141601562</ele>
        <time>2015-09-10T12:23:19.131Z</time>
      </trkpt>
      <trkpt lat="46.05162" lon="4.55927">
        <ele>537.790893555</ele>
        <time>2015-09-10T12:23:24.154Z</time>
      </trkpt>
      <trkpt lat="46.05161" lon="4.55927">
        <ele>537.697143555</ele>
        <time>2015-09-10T12:23:25.108Z</time>
      </trkpt>
      <trkpt lat="46.05154" lon="4.55933">
        <ele>537.486572266</ele>
        <time>2015-09-10T12:23:31.155Z</time>
      </trkpt>
      <trkpt lat="46.05152" lon="4.55934">
        <ele>537.468078613</ele>
        <time>2015-09-10T12:23:32.118Z</time>
      </trkpt>
      <trkpt lat="46.05146" lon="4.55941">
        <ele>537.204528809</ele>
        <time>2015-09-10T12:23:38.154Z</time>
      </trkpt>
      <trkpt lat="46.05145" lon="4.55943">
        <ele>537.161193848</ele>
        <time>2015-09-10T12:23:39.132Z</time>
      </trkpt>
      <trkpt lat="46.05139" lon="4.5595">
        <ele>536.887390137</ele>
        <time>2015-09-10T12:23:45.16Z</time>
      </trkpt>
      <trkpt lat="46.05137" lon="4.55951">
        <ele>536.846252441</ele>
        <time>2015-09-10T12:23:46.126Z</time>
      </trkpt>
      <trkpt lat="46.05131" lon="4.55958">
        <ele>536.370483398</ele>
        <time>2015-09-10T12:23:51.166Z</time>
      </trkpt>
      <trkpt lat="46.05129" lon="4.55959">
        <ele>536.268005371</ele>
        <time>2015-09-10T12:23:52.119Z</time>
      </trkpt>
      <trkpt lat="46.05122" lon="4.55967">
        <ele>535.625610352</ele>
        <time>2015-09-10T12:23:59.16Z</time>
      </trkpt>
      <trkpt lat="46.05121" lon="4.55969">
        <ele>535.596069336</ele>
        <time>2015-09-10T12:24:00.137Z</time>
      </trkpt>
      <trkpt lat="46.05115" lon="4.55977">
        <ele>535.438659668</ele>
        <time>2015-09-10T12:24:05.165Z</time>
      </trkpt>
      <trkpt lat="46.05114" lon="4.55979">
        <ele>535.397094727</ele>
        <time>2015-09-10T12:24:06.119Z</time>
      </trkpt>
      <trkpt lat="46.05108" lon="4.55987">
        <ele>535.339416504</ele>
        <time>2015-09-10T12:24:11.165Z</time>
      </trkpt>
      <trkpt lat="46.05107" lon="4.55989">
        <ele>535.34161377</ele>
        <time>2015-09-10T12:24:12.122Z</time>
      </trkpt>
      <trkpt lat="46.05102" lon="4.55999">
        <ele>535.383911133</ele>
        <time>2015-09-10T12:24:19.153Z</time>
      </trkpt>
      <trkpt lat="46.05101" lon="4.56001">
        <ele>535.389221191</ele>
        <time>2015-09-10T12:24:20.124Z</time>
      </trkpt>
      <trkpt lat="46.05098" lon="4.56011">
        <ele>535.29083252</ele>
        <time>2015-09-10T12:24:25.158Z</time>
      </trkpt>
      <trkpt lat="46.05097" lon="4.56013">
        <ele>535.267333984</ele>
        <time>2015-09-10T12:24:26.125Z</time>
      </trkpt>
      <trkpt lat="46.05095" lon="4.56023">
        <ele>535.167724609</ele>
        <time>2015-09-10T12:24:32.166Z</time>
      </trkpt>
      <trkpt lat="46.05094" lon="4.56026">
        <ele>535.169006348</ele>
        <time>2015-09-10T12:24:33.135Z</time>
      </trkpt>
      <trkpt lat="46.05093" lon="4.56037">
        <ele>535.072937012</ele>
        <time>2015-09-10T12:24:39.184Z</time>
      </trkpt>
      <trkpt lat="46.05092" lon="4.56039">
        <ele>535.062866211</ele>
        <time>2015-09-10T12:24:40.132Z</time>
      </trkpt>
      <trkpt lat="46.05089" lon="4.5605">
        <ele>535.030761719</ele>
        <time>2015-09-10T12:24:46.148Z</time>
      </trkpt>
      <trkpt lat="46.05088" lon="4.56052">
        <ele>535.00201416</ele>
        <time>2015-09-10T12:24:47.133Z</time>
      </trkpt>
      <trkpt lat="46.05089" lon="4.56065">
        <ele>535.000793457</ele>
        <time>2015-09-10T12:24:52.155Z</time>
      </trkpt>
      <trkpt lat="46.05089" lon="4.56066">
        <ele>535.012451172</ele>
        <time>2015-09-10T12:24:53.133Z</time>
      </trkpt>
      <trkpt lat="46.0509" lon="4.56078">
        <ele>535.059692383</ele>
        <time>2015-09-10T12:24:59.168Z</time>
      </trkpt>
      <trkpt lat="46.0509" lon="4.56081">
        <ele>535.080627441</ele>
        <time>2015-09-10T12:25:00.123Z</time>
      </trkpt>
      <trkpt lat="46.0509" lon="4.56092">
        <ele>535.224304199</ele>
        <time>2015-09-10T12:25:07.151Z</time>
      </trkpt>
      <trkpt lat="46.0509" lon="4.56094">
        <ele>535.328369141</ele>
        <time>2015-09-10T12:25:08.124Z</time>
      </trkpt>
      <trkpt lat="46.05089" lon="4.56106">
        <ele>535.626342773</ele>
        <time>2015-09-10T12:25:14.155Z</time>
      </trkpt>
      <trkpt lat="46.05089" lon="4.56108">
        <ele>535.655883789</ele>
        <time>2015-09-10T12:25:15.124Z</time>
      </trkpt>
      <trkpt lat="46.05089" lon="4.56119">
        <ele>535.727050781</ele>
        <time>2015-09-10T12:25:20.17Z</time>
      </trkpt>
      <trkpt lat="46.05089" lon="4.56121">
        <ele>535.727111816</ele>
        <time>2015-09-10T12:25:21.138Z</time>
      </trkpt>
      <trkpt lat="46.05087" lon="4.56134">
        <ele>535.782226562</ele>
        <time>2015-09-10T12:25:28.15Z</time>
      </trkpt>
      <trkpt lat="46.05087" lon="4.56136">
        <ele>535.837585449</ele>
        <time>2015-09-10T12:25:29.113Z</time>
      </trkpt>
      <trkpt lat="46.05088" lon="4.56148">
        <ele>535.96105957</ele>
        <time>2015-09-10T12:25:35.156Z</time>
      </trkpt>
      <trkpt lat="46.05088" lon="4.5615">
        <ele>536.008483887</ele>
        <time>2015-09-10T12:25:36.153Z</time>
      </trkpt>
      <trkpt lat="46.05089" lon="4.5616">
        <ele>536.313720703</ele>
        <time>2015-09-10T12:25:42.151Z</time>
      </trkpt>
      <trkpt lat="46.0509" lon="4.56163">
        <ele>536.362915039</ele>
        <time>2015-09-10T12:25:43.128Z</time>
      </trkpt>
      <trkpt lat="46.05092" lon="4.56174">
        <ele>536.661743164</ele>
        <time>2015-09-10T12:25:47.162Z</time>
      </trkpt>
      <trkpt lat="46.05092" lon="4.56176">
        <ele>536.721069336</ele>
        <time>2015-09-10T12:25:48.144Z</time>
      </trkpt>
      <trkpt lat="46.05092" lon="4.56188">
        <ele>537.222839355</ele>
        <time>2015-09-10T12:25:55.156Z</time>
      </trkpt>
      <trkpt lat="46.05092" lon="4.5619">
        <ele>537.266479492</ele>
        <time>2015-09-10T12:25:56.127Z</time>
      </trkpt>
      <trkpt lat="46.05093" lon="4.56201">
        <ele>537.651916504</ele>
        <time>2015-09-10T12:26:01.121Z</time>
      </trkpt>
      <trkpt lat="46.05093" lon="4.56204">
        <ele>537.74798584</ele>
        <time>2015-09-10T12:26:02.123Z</time>
      </trkpt>
      <trkpt lat="46.05094" lon="4.56215">
        <ele>537.824584961</ele>
        <time>2015-09-10T12:26:07.161Z</time>
      </trkpt>
      <trkpt lat="46.05095" lon="4.56217">
        <ele>537.802246094</ele>
        <time>2015-09-10T12:26:08.151Z</time>
      </trkpt>
      <trkpt lat="46.05099" lon="4.56228">
        <ele>537.744750977</ele>
        <time>2015-09-10T12:26:13.163Z</time>
      </trkpt>
      <trkpt lat="46.051" lon="4.56229">
        <ele>537.759521484</ele>
        <time>2015-09-10T12:26:14.116Z</time>
      </trkpt>
      <trkpt lat="46.05105" lon="4.56238">
        <ele>537.85723877</ele>
        <time>2015-09-10T12:26:21.115Z</time>
      </trkpt>
      <trkpt lat="46.05106" lon="4.5624">
        <ele>537.834106445</ele>
        <time>2015-09-10T12:26:22.123Z</time>
      </trkpt>
      <trkpt lat="46.0511" lon="4.5625">
        <ele>537.530883789</ele>
        <time>2015-09-10T12:26:27.153Z</time>
      </trkpt>
      <trkpt lat="46.05111" lon="4.56253">
        <ele>537.441162109</ele>
        <time>2015-09-10T12:26:28.181Z</time>
      </trkpt>
      <trkpt lat="46.05116" lon="4.56263">
        <ele>536.876159668</ele>
        <time>2015-09-10T12:26:35.145Z</time>
      </trkpt>
      <trkpt lat="46.05117" lon="4.56264">
        <ele>536.833740234</ele>
        <time>2015-09-10T12:26:36.131Z</time>
      </trkpt>
      <trkpt lat="46.0512" lon="4.56275">
        <ele>536.73059082</ele>
        <time>2015-09-10T12:26:42.153Z</time>
      </trkpt>
      <trkpt lat="46.05121" lon="4.56277">
        <ele>536.679748535</ele>
        <time>2015-09-10T12:26:43.124Z</time>
      </trkpt>
      <trkpt lat="46.05124" lon="4.56287">
        <ele>536.646484375</ele>
        <time>2015-09-10T12:26:49.147Z</time>
      </trkpt>
      <trkpt lat="46.05124" lon="4.56289">
        <ele>536.621582031</ele>
        <time>2015-09-10T12:26:50.126Z</time>
      </trkpt>
      <trkpt lat="46.05128" lon="4.563">
        <ele>536.51159668</ele>
        <time>2015-09-10T12:26:56.226Z</time>
      </trkpt>
      <trkpt lat="46.05129" lon="4.56302">
        <ele>536.470275879</ele>
        <time>2015-09-10T12:26:57.131Z</time>
      </trkpt>
      <trkpt lat="46.05133" lon="4.56312">
        <ele>536.318725586</ele>
        <time>2015-09-10T12:27:03.144Z</time>
      </trkpt>
      <trkpt lat="46.05133" lon="4.56314">
        <ele>536.304321289</ele>
        <time>2015-09-10T12:27:04.122Z</time>
      </trkpt>
      <trkpt lat="46.05136" lon="4.56326">
        <ele>536.080871582</ele>
        <time>2015-09-10T12:27:10.116Z</time>
      </trkpt>
      <trkpt lat="46.05136" lon="4.56327">
        <ele>536.05645752</ele>
        <time>2015-09-10T12:27:11.13Z</time>
      </trkpt>
      <trkpt lat="46.05139" lon="4.56339">
        <ele>536.021179199</ele>
        <time>2015-09-10T12:27:17.154Z</time>
      </trkpt>
      <trkpt lat="46.0514" lon="4.5634">
        <ele>535.99420166</ele>
        <time>2015-09-10T12:27:18.093Z</time>
      </trkpt>
      <trkpt lat="46.05144" lon="4.56352">
        <ele>535.757568359</ele>
        <time>2015-09-10T12:27:24.141Z</time>
      </trkpt>
      <trkpt lat="46.05144" lon="4.56354">
        <ele>535.725952148</ele>
        <time>2015-09-10T12:27:25.116Z</time>
      </trkpt>
      <trkpt lat="46.05148" lon="4.56365">
        <ele>535.514953613</ele>
        <time>2015-09-10T12:27:31.19Z</time>
      </trkpt>
      <trkpt lat="46.05149" lon="4.56367">
        <ele>535.462341309</ele>
        <time>2015-09-10T12:27:32.123Z</time>
      </trkpt>
      <trkpt lat="46.05153" lon="4.56377">
        <ele>534.964172363</ele>
        <time>2015-09-10T12:27:38.146Z</time>
      </trkpt>
      <trkpt lat="46.05154" lon="4.5638">
        <ele>534.870666504</ele>
        <time>2015-09-10T12:27:39.114Z</time>
      </trkpt>
      <trkpt lat="46.05157" lon="4.56391">
        <ele>534.326477051</ele>
        <time>2015-09-10T12:27:44.146Z</time>
      </trkpt>
      <trkpt lat="46.05158" lon="4.56392">
        <ele>534.216125488</ele>
        <time>2015-09-10T12:27:45.127Z</time>
      </trkpt>
      <trkpt lat="46.0516" lon="4.56403">
        <ele>533.671447754</ele>
        <time>2015-09-10T12:27:50.149Z</time>
      </trkpt>
      <trkpt lat="46.05161" lon="4.56405">
        <ele>533.557617188</ele>
        <time>2015-09-10T12:27:51.127Z</time>
      </trkpt>
      <trkpt lat="46.05163" lon="4.56416">
        <ele>532.89855957</ele>
        <time>2015-09-10T12:27:57.157Z</time>
      </trkpt>
      <trkpt lat="46.05164" lon="4.56418">
        <ele>532.795959473</ele>
        <time>2015-09-10T12:27:58.123Z</time>
      </trkpt>
      <trkpt lat="46.05166" lon="4.5643">
        <ele>532.16015625</ele>
        <time>2015-09-10T12:28:04.156Z</time>
      </trkpt>
      <trkpt lat="46.05167" lon="4.56432">
        <ele>532.045410156</ele>
        <time>2015-09-10T12:28:05.13Z</time>
      </trkpt>
      <trkpt lat="46.05168" lon="4.56444">
        <ele>531.36151123</ele>
        <time>2015-09-10T12:28:11.127Z</time>
      </trkpt>
      <trkpt lat="46.05169" lon="4.56446">
        <ele>531.209960938</ele>
        <time>2015-09-10T12:28:12.116Z</time>
      </trkpt>
      <trkpt lat="46.0517" lon="4.56457">
        <ele>530.399169922</ele>
        <time>2015-09-10T12:28:18.212Z</time>
      </trkpt>
      <trkpt lat="46.0517" lon="4.56459">
        <ele>530.292358398</ele>
        <time>2015-09-10T12:28:19.118Z</time>
      </trkpt>
      <trkpt lat="46.05172" lon="4.5647">
        <ele>529.63104248</ele>
        <time>2015-09-10T12:28:25.153Z</time>
      </trkpt>
      <trkpt lat="46.05172" lon="4.56472">
        <ele>529.53515625</ele>
        <time>2015-09-10T12:28:26.13Z</time>
      </trkpt>
      <trkpt lat="46.05174" lon="4.56484">
        <ele>529.059936523</ele>
        <time>2015-09-10T12:28:33.155Z</time>
      </trkpt>
      <trkpt lat="46.05174" lon="4.56486">
        <ele>529.017211914</ele>
        <time>2015-09-10T12:28:34.115Z</time>
      </trkpt>
      <trkpt lat="46.05176" lon="4.56497">
        <ele>528.708007812</ele>
        <time>2015-09-10T12:28:40.119Z</time>
      </trkpt>
      <trkpt lat="46.05176" lon="4.56499">
        <ele>528.641052246</ele>
        <time>2015-09-10T12:28:41.13Z</time>
      </trkpt>
      <trkpt lat="46.05177" lon="4.56511">
        <ele>528.188537598</ele>
        <time>2015-09-10T12:28:48.15Z</time>
      </trkpt>
      <trkpt lat="46.05178" lon="4.56513">
        <ele>528.138305664</ele>
        <time>2015-09-10T12:28:49.117Z</time>
      </trkpt>
      <trkpt lat="46.05179" lon="4.56526">
        <ele>527.703430176</ele>
        <time>2015-09-10T12:28:55.14Z</time>
      </trkpt>
      <trkpt lat="46.05179" lon="4.56527">
        <ele>527.628967285</ele>
        <time>2015-09-10T12:28:56.123Z</time>
      </trkpt>
      <trkpt lat="46.05181" lon="4.56538">
        <ele>527.174316406</ele>
        <time>2015-09-10T12:29:02.158Z</time>
      </trkpt>
      <trkpt lat="46.05181" lon="4.5654">
        <ele>527.098693848</ele>
        <time>2015-09-10T12:29:03.119Z</time>
      </trkpt>
      <trkpt lat="46.05182" lon="4.56552">
        <ele>526.624816895</ele>
        <time>2015-09-10T12:29:10.154Z</time>
      </trkpt>
      <trkpt lat="46.05182" lon="4.56554">
        <ele>526.562561035</ele>
        <time>2015-09-10T12:29:11.121Z</time>
      </trkpt>
      <trkpt lat="46.05183" lon="4.56565">
        <ele>526.105834961</ele>
        <time>2015-09-10T12:29:16.14Z</time>
      </trkpt>
      <trkpt lat="46.05183" lon="4.56567">
        <ele>525.977600098</ele>
        <time>2015-09-10T12:29:17.126Z</time>
      </trkpt>
      <trkpt lat="46.05183" lon="4.56578">
        <ele>525.33605957</ele>
        <time>2015-09-10T12:29:24.158Z</time>
      </trkpt>
      <trkpt lat="46.05183" lon="4.5658">
        <ele>525.326660156</ele>
        <time>2015-09-10T12:29:25.132Z</time>
      </trkpt>
      <trkpt lat="46.05182" lon="4.56593">
        <ele>525.217712402</ele>
        <time>2015-09-10T12:29:33.135Z</time>
      </trkpt>
      <trkpt lat="46.05182" lon="4.56595">
        <ele>525.170532227</ele>
        <time>2015-09-10T12:29:34.124Z</time>
      </trkpt>
      <trkpt lat="46.0518" lon="4.56606">
        <ele>525.546081543</ele>
        <time>2015-09-10T12:29:41.145Z</time>
      </trkpt>
      <trkpt lat="46.0518" lon="4.56608">
        <ele>525.661560059</ele>
        <time>2015-09-10T12:29:42.105Z</time>
      </trkpt>
      <trkpt lat="46.05178" lon="4.56619">
        <ele>526.339111328</ele>
        <time>2015-09-10T12:29:49.17Z</time>
      </trkpt>
      <trkpt lat="46.05178" lon="4.56621">
        <ele>526.393798828</ele>
        <time>2015-09-10T12:29:50.135Z</time>
      </trkpt>
      <trkpt lat="46.05176" lon="4.56632">
        <ele>526.612121582</ele>
        <time>2015-09-10T12:29:57.153Z</time>
      </trkpt>
      <trkpt lat="46.05175" lon="4.56634">
        <ele>526.623291016</ele>
        <time>2015-09-10T12:29:58.125Z</time>
      </trkpt>
      <trkpt lat="46.05174" lon="4.56646">
        <ele>526.837646484</ele>
        <time>2015-09-10T12:30:05.162Z</time>
      </trkpt>
      <trkpt lat="46.05174" lon="4.56648">
        <ele>526.932861328</ele>
        <time>2015-09-10T12:30:06.118Z</time>
      </trkpt>
      <trkpt lat="46.05171" lon="4.5666">
        <ele>527.902587891</ele>
        <time>2015-09-10T12:30:13.153Z</time>
      </trkpt>
      <trkpt lat="46.05171" lon="4.56661">
        <ele>527.973937988</ele>
        <time>2015-09-10T12:30:14.126Z</time>
      </trkpt>
      <trkpt lat="46.05173" lon="4.56674">
        <ele>528.41619873</ele>
        <time>2015-09-10T12:30:21.15Z</time>
      </trkpt>
      <trkpt lat="46.05173" lon="4.56675">
        <ele>528.446411133</ele>
        <time>2015-09-10T12:30:22.133Z</time>
      </trkpt>
      <trkpt lat="46.05174" lon="4.56688">
        <ele>528.719909668</ele>
        <time>2015-09-10T12:30:30.146Z</time>
      </trkpt>
      <trkpt lat="46.05174" lon="4.56689">
        <ele>528.697143555</ele>
        <time>2015-09-10T12:30:31.126Z</time>
      </trkpt>
      <trkpt lat="46.05178" lon="4.567">
        <ele>528.447875977</ele>
        <time>2015-09-10T12:30:39.148Z</time>
      </trkpt>
      <trkpt lat="46.05179" lon="4.56701">
        <ele>528.400756836</ele>
        <time>2015-09-10T12:30:40.108Z</time>
      </trkpt>
      <trkpt lat="46.05183" lon="4.56712">
        <ele>528.159729004</ele>
        <time>2015-09-10T12:31:07.166Z</time>
      </trkpt>
      <trkpt lat="46.05183" lon="4.56713">
        <ele>528.143676758</ele>
        <time>2015-09-10T12:31:08.115Z</time>
      </trkpt>
      <trkpt lat="46.05186" lon="4.56725">
        <ele>527.823364258</ele>
        <time>2015-09-10T12:31:15.152Z</time>
      </trkpt>
      <trkpt lat="46.05187" lon="4.56727">
        <ele>527.768737793</ele>
        <time>2015-09-10T12:31:16.114Z</time>
      </trkpt>
      <trkpt lat="46.05189" lon="4.56739">
        <ele>527.305480957</ele>
        <time>2015-09-10T12:31:23.153Z</time>
      </trkpt>
      <trkpt lat="46.05189" lon="4.5674">
        <ele>527.243286133</ele>
        <time>2015-09-10T12:31:24.122Z</time>
      </trkpt>
      <trkpt lat="46.05193" lon="4.56751">
        <ele>526.744140625</ele>
        <time>2015-09-10T12:31:32.164Z</time>
      </trkpt>
      <trkpt lat="46.05193" lon="4.56752">
        <ele>526.678588867</ele>
        <time>2015-09-10T12:31:33.1Z</time>
      </trkpt>
      <trkpt lat="46.05194" lon="4.56764">
        <ele>526.130187988</ele>
        <time>2015-09-10T12:31:40.109Z</time>
      </trkpt>
      <trkpt lat="46.05195" lon="4.56766">
        <ele>526.02923584</ele>
        <time>2015-09-10T12:31:41.112Z</time>
      </trkpt>
      <trkpt lat="46.05199" lon="4.56777">
        <ele>525.216430664</ele>
        <time>2015-09-10T12:31:48.147Z</time>
      </trkpt>
      <trkpt lat="46.05199" lon="4.56779">
        <ele>525.082458496</ele>
        <time>2015-09-10T12:31:49.096Z</time>
      </trkpt>
      <trkpt lat="46.05202" lon="4.56791">
        <ele>524.287231445</ele>
        <time>2015-09-10T12:31:57.172Z</time>
      </trkpt>
      <trkpt lat="46.05203" lon="4.56793">
        <ele>524.187194824</ele>
        <time>2015-09-10T12:31:58.122Z</time>
      </trkpt>
      <trkpt lat="46.05206" lon="4.56804">
        <ele>523.539245605</ele>
        <time>2015-09-10T12:32:05.152Z</time>
      </trkpt>
      <trkpt lat="46.05206" lon="4.56807">
        <ele>523.440307617</ele>
        <time>2015-09-10T12:32:06.092Z</time>
      </trkpt>
      <trkpt lat="46.05209" lon="4.56817">
        <ele>522.942016602</ele>
        <time>2015-09-10T12:32:11.155Z</time>
      </trkpt>
      <trkpt lat="46.0521" lon="4.56819">
        <ele>522.840209961</ele>
        <time>2015-09-10T12:32:12.123Z</time>
      </trkpt>
      <trkpt lat="46.05213" lon="4.56831">
        <ele>522.224914551</ele>
        <time>2015-09-10T12:32:19.156Z</time>
      </trkpt>
      <trkpt lat="46.05213" lon="4.56832">
        <ele>522.153869629</ele>
        <time>2015-09-10T12:32:20.091Z</time>
      </trkpt>
      <trkpt lat="46.05215" lon="4.56845">
        <ele>521.638305664</ele>
        <time>2015-09-10T12:32:27.148Z</time>
      </trkpt>
      <trkpt lat="46.05216" lon="4.56847">
        <ele>521.566101074</ele>
        <time>2015-09-10T12:32:28.112Z</time>
      </trkpt>
      <trkpt lat="46.05218" lon="4.56858">
        <ele>521.04095459</ele>
        <time>2015-09-10T12:32:34.151Z</time>
      </trkpt>
      <trkpt lat="46.05219" lon="4.5686">
        <ele>520.940795898</ele>
        <time>2015-09-10T12:32:35.094Z</time>
      </trkpt>
      <trkpt lat="46.05221" lon="4.56871">
        <ele>520.335754395</ele>
        <time>2015-09-10T12:32:41.145Z</time>
      </trkpt>
      <trkpt lat="46.05222" lon="4.56872">
        <ele>520.256835938</ele>
        <time>2015-09-10T12:32:42.123Z</time>
      </trkpt>
      <trkpt lat="46.05224" lon="4.56884">
        <ele>519.862915039</ele>
        <time>2015-09-10T12:32:49.146Z</time>
      </trkpt>
      <trkpt lat="46.05224" lon="4.56886">
        <ele>519.850219727</ele>
        <time>2015-09-10T12:32:50.12Z</time>
      </trkpt>
      <trkpt lat="46.05224" lon="4.56897">
        <ele>519.910583496</ele>
        <time>2015-09-10T12:32:57.157Z</time>
      </trkpt>
      <trkpt lat="46.05224" lon="4.56899">
        <ele>519.928955078</ele>
        <time>2015-09-10T12:32:58.116Z</time>
      </trkpt>
      <trkpt lat="46.05225" lon="4.5691">
        <ele>519.971435547</ele>
        <time>2015-09-10T12:33:03.147Z</time>
      </trkpt>
      <trkpt lat="46.05225" lon="4.56913">
        <ele>519.955566406</ele>
        <time>2015-09-10T12:33:04.132Z</time>
      </trkpt>
      <trkpt lat="46.05226" lon="4.56925">
        <ele>519.844665527</ele>
        <time>2015-09-10T12:33:11.161Z</time>
      </trkpt>
      <trkpt lat="46.05226" lon="4.56927">
        <ele>519.83605957</ele>
        <time>2015-09-10T12:33:12.119Z</time>
      </trkpt>
      <trkpt lat="46.05226" lon="4.56939">
        <ele>519.727050781</ele>
        <time>2015-09-10T12:33:18.155Z</time>
      </trkpt>
      <trkpt lat="46.05227" lon="4.5694">
        <ele>519.680175781</ele>
        <time>2015-09-10T12:33:19.131Z</time>
      </trkpt>
      <trkpt lat="46.05227" lon="4.56952">
        <ele>519.406005859</ele>
        <time>2015-09-10T12:33:25.156Z</time>
      </trkpt>
      <trkpt lat="46.05227" lon="4.56954">
        <ele>519.37109375</ele>
        <time>2015-09-10T12:33:26.131Z</time>
      </trkpt>
      <trkpt lat="46.05228" lon="4.56966">
        <ele>519.183349609</ele>
        <time>2015-09-10T12:33:32.149Z</time>
      </trkpt>
      <trkpt lat="46.05228" lon="4.56969">
        <ele>519.111816406</ele>
        <time>2015-09-10T12:33:33.129Z</time>
      </trkpt>
      <trkpt lat="46.05228" lon="4.5698">
        <ele>518.74822998</ele>
        <time>2015-09-10T12:33:39.153Z</time>
      </trkpt>
      <trkpt lat="46.05228" lon="4.56982">
        <ele>518.71697998</ele>
        <time>2015-09-10T12:33:40.131Z</time>
      </trkpt>
      <trkpt lat="46.05229" lon="4.56994">
        <ele>518.555603027</ele>
        <time>2015-09-10T12:33:46.18Z</time>
      </trkpt>
      <trkpt lat="46.05229" lon="4.56995">
        <ele>518.53326416</ele>
        <time>2015-09-10T12:33:47.12Z</time>
      </trkpt>
      <trkpt lat="46.0523" lon="4.57006">
        <ele>518.382080078</ele>
        <time>2015-09-10T12:33:53.144Z</time>
      </trkpt>
      <trkpt lat="46.0523" lon="4.57008">
        <ele>518.353759766</ele>
        <time>2015-09-10T12:33:54.123Z</time>
      </trkpt>
      <trkpt lat="46.0523" lon="4.5702">
        <ele>518.190307617</ele>
        <time>2015-09-10T12:34:00.148Z</time>
      </trkpt>
      <trkpt lat="46.0523" lon="4.57022">
        <ele>518.173278809</ele>
        <time>2015-09-10T12:34:01.132Z</time>
      </trkpt>
      <trkpt lat="46.0523" lon="4.57034">
        <ele>517.974365234</ele>
        <time>2015-09-10T12:34:07.15Z</time>
      </trkpt>
      <trkpt lat="46.0523" lon="4.57036">
        <ele>517.929138184</ele>
        <time>2015-09-10T12:34:08.118Z</time>
      </trkpt>
      <trkpt lat="46.05231" lon="4.57048">
        <ele>517.745239258</ele>
        <time>2015-09-10T12:34:15.15Z</time>
      </trkpt>
      <trkpt lat="46.05231" lon="4.5705">
        <ele>517.74395752</ele>
        <time>2015-09-10T12:34:16.099Z</time>
      </trkpt>
      <trkpt lat="46.05232" lon="4.57063">
        <ele>517.768310547</ele>
        <time>2015-09-10T12:34:22.157Z</time>
      </trkpt>
      <trkpt lat="46.05232" lon="4.57065">
        <ele>517.744018555</ele>
        <time>2015-09-10T12:34:23.122Z</time>
      </trkpt>
      <trkpt lat="46.05232" lon="4.57077">
        <ele>517.649108887</ele>
        <time>2015-09-10T12:34:29.155Z</time>
      </trkpt>
      <trkpt lat="46.05232" lon="4.57078">
        <ele>517.638977051</ele>
        <time>2015-09-10T12:34:30.117Z</time>
      </trkpt>
      <trkpt lat="46.05233" lon="4.5709">
        <ele>517.56829834</ele>
        <time>2015-09-10T12:34:36.166Z</time>
      </trkpt>
      <trkpt lat="46.05233" lon="4.57092">
        <ele>517.531066895</ele>
        <time>2015-09-10T12:34:37.115Z</time>
      </trkpt>
      <trkpt lat="46.05233" lon="4.57105">
        <ele>517.349365234</ele>
        <time>2015-09-10T12:34:44.155Z</time>
      </trkpt>
      <trkpt lat="46.05233" lon="4.57107">
        <ele>517.340270996</ele>
        <time>2015-09-10T12:34:45.117Z</time>
      </trkpt>
      <trkpt lat="46.05233" lon="4.57118">
        <ele>517.30255127</ele>
        <time>2015-09-10T12:34:51.13Z</time>
      </trkpt>
      <trkpt lat="46.05232" lon="4.5712">
        <ele>517.25592041</ele>
        <time>2015-09-10T12:34:52.127Z</time>
      </trkpt>
      <trkpt lat="46.05239" lon="4.57128">
        <ele>516.979370117</ele>
        <time>2015-09-10T12:34:59.294Z</time>
      </trkpt>
      <trkpt lat="46.0524" lon="4.57128">
        <ele>516.963378906</ele>
        <time>2015-09-10T12:35:00.103Z</time>
      </trkpt>
      <trkpt lat="46.05249" lon="4.57127">
        <ele>516.736572266</ele>
        <time>2015-09-10T12:35:08.144Z</time>
      </trkpt>
      <trkpt lat="46.0525" lon="4.57127">
        <ele>516.748901367</ele>
        <time>2015-09-10T12:35:09.132Z</time>
      </trkpt>
      <trkpt lat="46.05258" lon="4.57129">
        <ele>516.833251953</ele>
        <time>2015-09-10T12:35:17.189Z</time>
      </trkpt>
      <trkpt lat="46.05259" lon="4.5713">
        <ele>516.847717285</ele>
        <time>2015-09-10T12:35:18.121Z</time>
      </trkpt>
      <trkpt lat="46.05267" lon="4.57135">
        <ele>517.297973633</ele>
        <time>2015-09-10T12:35:25.155Z</time>
      </trkpt>
      <trkpt lat="46.05267" lon="4.57136">
        <ele>517.337280273</ele>
        <time>2015-09-10T12:35:26.104Z</time>
      </trkpt>
      <trkpt lat="46.05272" lon="4.57147">
        <ele>517.270324707</ele>
        <time>2015-09-10T12:35:33.155Z</time>
      </trkpt>
      <trkpt lat="46.05273" lon="4.57149">
        <ele>517.257751465</ele>
        <time>2015-09-10T12:35:34.123Z</time>
      </trkpt>
      <trkpt lat="46.05277" lon="4.5716">
        <ele>517.30847168</ele>
        <time>2015-09-10T12:35:41.175Z</time>
      </trkpt>
      <trkpt lat="46.05278" lon="4.57162">
        <ele>517.322021484</ele>
        <time>2015-09-10T12:35:42.121Z</time>
      </trkpt>
      <trkpt lat="46.05281" lon="4.57173">
        <ele>517.374511719</ele>
        <time>2015-09-10T12:35:49.17Z</time>
      </trkpt>
      <trkpt lat="46.05281" lon="4.57175">
        <ele>517.391052246</ele>
        <time>2015-09-10T12:35:50.122Z</time>
      </trkpt>
      <trkpt lat="46.05284" lon="4.57186">
        <ele>517.652587891</ele>
        <time>2015-09-10T12:35:57.157Z</time>
      </trkpt>
      <trkpt lat="46.05285" lon="4.57187">
        <ele>517.703369141</ele>
        <time>2015-09-10T12:35:58.126Z</time>
      </trkpt>
      <trkpt lat="46.05286" lon="4.57198">
        <ele>518.264404297</ele>
        <time>2015-09-10T12:36:06.158Z</time>
      </trkpt>
      <trkpt lat="46.05286" lon="4.572">
        <ele>518.356506348</ele>
        <time>2015-09-10T12:36:07.114Z</time>
      </trkpt>
      <trkpt lat="46.05286" lon="4.57212">
        <ele>519.33984375</ele>
        <time>2015-09-10T12:36:16.142Z</time>
      </trkpt>
      <trkpt lat="46.05286" lon="4.57213">
        <ele>519.498168945</ele>
        <time>2015-09-10T12:36:17.121Z</time>
      </trkpt>
      <trkpt lat="46.05285" lon="4.57226">
        <ele>520.992248535</ele>
        <time>2015-09-10T12:36:27.161Z</time>
      </trkpt>
      <trkpt lat="46.05285" lon="4.57227">
        <ele>521.096008301</ele>
        <time>2015-09-10T12:36:28.209Z</time>
      </trkpt>
      <trkpt lat="46.05284" lon="4.57239">
        <ele>522.579528809</ele>
        <time>2015-09-10T12:36:38.165Z</time>
      </trkpt>
      <trkpt lat="46.05283" lon="4.5724">
        <ele>522.722229004</ele>
        <time>2015-09-10T12:36:39.126Z</time>
      </trkpt>
      <trkpt lat="46.05282" lon="4.57252">
        <ele>524.22277832</ele>
        <time>2015-09-10T12:36:49.155Z</time>
      </trkpt>
      <trkpt lat="46.05282" lon="4.57254">
        <ele>524.388671875</ele>
        <time>2015-09-10T12:36:50.099Z</time>
      </trkpt>
      <trkpt lat="46.05282" lon="4.57266">
        <ele>525.543273926</ele>
        <time>2015-09-10T12:36:59.156Z</time>
      </trkpt>
      <trkpt lat="46.05282" lon="4.57268">
        <ele>525.661437988</ele>
        <time>2015-09-10T12:37:00.092Z</time>
      </trkpt>
      <trkpt lat="46.05283" lon="4.57279">
        <ele>527.24041748</ele>
        <time>2015-09-10T12:37:11.13Z</time>
      </trkpt>
      <trkpt lat="46.05283" lon="4.57281">
        <ele>527.378417969</ele>
        <time>2015-09-10T12:37:12.116Z</time>
      </trkpt>
      <trkpt lat="46.05284" lon="4.57293">
        <ele>529.063415527</ele>
        <time>2015-09-10T12:37:22.288Z</time>
      </trkpt>
      <trkpt lat="46.05283" lon="4.57294">
        <ele>529.224121094</ele>
        <time>2015-09-10T12:37:23.123Z</time>
      </trkpt>
      <trkpt lat="46.0528" lon="4.57305">
        <ele>531.038085938</ele>
        <time>2015-09-10T12:37:33.155Z</time>
      </trkpt>
      <trkpt lat="46.0528" lon="4.57306">
        <ele>531.204589844</ele>
        <time>2015-09-10T12:37:34.116Z</time>
      </trkpt>
      <trkpt lat="46.05276" lon="4.57317">
        <ele>532.752990723</ele>
        <time>2015-09-10T12:37:43.115Z</time>
      </trkpt>
      <trkpt lat="46.05276" lon="4.57318">
        <ele>532.910705566</ele>
        <time>2015-09-10T12:37:44.123Z</time>
      </trkpt>
      <trkpt lat="46.05277" lon="4.57331">
        <ele>534.40246582</ele>
        <time>2015-09-10T12:37:54.163Z</time>
      </trkpt>
      <trkpt lat="46.05277" lon="4.57332">
        <ele>534.570129395</ele>
        <time>2015-09-10T12:37:55.125Z</time>
      </trkpt>
      <trkpt lat="46.05283" lon="4.57341">
        <ele>536.66204834</ele>
        <time>2015-09-10T12:38:11.209Z</time>
      </trkpt>
      <trkpt lat="46.05283" lon="4.57341">
        <ele>536.827392578</ele>
        <time>2015-09-10T12:38:12.136Z</time>
      </trkpt>
      <trkpt lat="46.05286" lon="4.57352">
        <ele>538.840881348</ele>
        <time>2015-09-10T12:39:01.158Z</time>
      </trkpt>
      <trkpt lat="46.05286" lon="4.57354">
        <ele>538.936584473</ele>
        <time>2015-09-10T12:39:02.112Z</time>
      </trkpt>
      <trkpt lat="46.05291" lon="4.57365">
        <ele>539.979553223</ele>
        <time>2015-09-10T12:39:10.12Z</time>
      </trkpt>
      <trkpt lat="46.05291" lon="4.57366">
        <ele>540.112121582</ele>
        <time>2015-09-10T12:39:11.124Z</time>
      </trkpt>
      <trkpt lat="46.05295" lon="4.57377">
        <ele>541.073852539</ele>
        <time>2015-09-10T12:39:19.159Z</time>
      </trkpt>
      <trkpt lat="46.05296" lon="4.57379">
        <ele>541.187988281</ele>
        <time>2015-09-10T12:39:20.125Z</time>
      </trkpt>
      <trkpt lat="46.05299" lon="4.5739">
        <ele>541.951293945</ele>
        <time>2015-09-10T12:39:28.153Z</time>
      </trkpt>
      <trkpt lat="46.053" lon="4.57393">
        <ele>542.001403809</ele>
        <time>2015-09-10T12:39:29.096Z</time>
      </trkpt>
      <trkpt lat="46.05303" lon="4.57403">
        <ele>542.472473145</ele>
        <time>2015-09-10T12:39:36.286Z</time>
      </trkpt>
      <trkpt lat="46.05304" lon="4.57405">
        <ele>542.55267334</ele>
        <time>2015-09-10T12:39:37.098Z</time>
      </trkpt>
      <trkpt lat="46.05308" lon="4.57416">
        <ele>542.914794922</ele>
        <time>2015-09-10T12:39:45.144Z</time>
      </trkpt>
      <trkpt lat="46.05309" lon="4.57417">
        <ele>542.953308105</ele>
        <time>2015-09-10T12:39:46.131Z</time>
      </trkpt>
      <trkpt lat="46.05313" lon="4.57429">
        <ele>543.11126709</ele>
        <time>2015-09-10T12:39:53.165Z</time>
      </trkpt>
      <trkpt lat="46.05313" lon="4.57431">
        <ele>543.138793945</ele>
        <time>2015-09-10T12:39:54.112Z</time>
      </trkpt>
      <trkpt lat="46.05318" lon="4.57441">
        <ele>543.180664062</ele>
        <time>2015-09-10T12:40:00.168Z</time>
      </trkpt>
      <trkpt lat="46.05318" lon="4.57442">
        <ele>543.15411377</ele>
        <time>2015-09-10T12:40:01.124Z</time>
      </trkpt>
      <trkpt lat="46.05323" lon="4.57452">
        <ele>543.084960938</ele>
        <time>2015-09-10T12:40:09.169Z</time>
      </trkpt>
      <trkpt lat="46.05323" lon="4.57454">
        <ele>543.065124512</ele>
        <time>2015-09-10T12:40:10.11Z</time>
      </trkpt>
      <trkpt lat="46.05329" lon="4.57462">
        <ele>543.071533203</ele>
        <time>2015-09-10T12:40:17.168Z</time>
      </trkpt>
      <trkpt lat="46.0533" lon="4.57464">
        <ele>543.076293945</ele>
        <time>2015-09-10T12:40:18.114Z</time>
      </trkpt>
      <trkpt lat="46.05335" lon="4.57473">
        <ele>542.874206543</ele>
        <time>2015-09-10T12:40:24.156Z</time>
      </trkpt>
      <trkpt lat="46.05336" lon="4.57475">
        <ele>542.83807373</ele>
        <time>2015-09-10T12:40:25.137Z</time>
      </trkpt>
      <trkpt lat="46.05341" lon="4.57485">
        <ele>542.287475586</ele>
        <time>2015-09-10T12:40:33.133Z</time>
      </trkpt>
      <trkpt lat="46.05341" lon="4.57486">
        <ele>542.249267578</ele>
        <time>2015-09-10T12:40:34.125Z</time>
      </trkpt>
      <trkpt lat="46.05346" lon="4.57495">
        <ele>542.138183594</ele>
        <time>2015-09-10T12:40:41.13Z</time>
      </trkpt>
      <trkpt lat="46.05346" lon="4.57497">
        <ele>542.164428711</ele>
        <time>2015-09-10T12:40:42.132Z</time>
      </trkpt>
      <trkpt lat="46.05351" lon="4.57508">
        <ele>542.36932373</ele>
        <time>2015-09-10T12:40:49.152Z</time>
      </trkpt>
      <trkpt lat="46.05352" lon="4.57509">
        <ele>542.388122559</ele>
        <time>2015-09-10T12:40:50.105Z</time>
      </trkpt>
      <trkpt lat="46.05356" lon="4.5752">
        <ele>544.250549316</ele>
        <time>2015-09-10T12:41:09.176Z</time>
      </trkpt>
      <trkpt lat="46.05357" lon="4.57522">
        <ele>544.330078125</ele>
        <time>2015-09-10T12:41:10.133Z</time>
      </trkpt>
      <trkpt lat="46.0536" lon="4.57532">
        <ele>544.859130859</ele>
        <time>2015-09-10T12:41:16.169Z</time>
      </trkpt>
      <trkpt lat="46.05361" lon="4.57533">
        <ele>544.911865234</ele>
        <time>2015-09-10T12:41:17.124Z</time>
      </trkpt>
      <trkpt lat="46.05365" lon="4.57544">
        <ele>545.290283203</ele>
        <time>2015-09-10T12:41:24.157Z</time>
      </trkpt>
      <trkpt lat="46.05365" lon="4.57545">
        <ele>545.322875977</ele>
        <time>2015-09-10T12:41:25.122Z</time>
      </trkpt>
      <trkpt lat="46.05368" lon="4.57555">
        <ele>545.285644531</ele>
        <time>2015-09-10T12:41:31.154Z</time>
      </trkpt>
      <trkpt lat="46.05369" lon="4.57557">
        <ele>545.293945312</ele>
        <time>2015-09-10T12:41:32.133Z</time>
      </trkpt>
      <trkpt lat="46.05374" lon="4.57567">
        <ele>545.401123047</ele>
        <time>2015-09-10T12:41:39.21Z</time>
      </trkpt>
      <trkpt lat="46.05374" lon="4.57568">
        <ele>545.386779785</ele>
        <time>2015-09-10T12:41:40.124Z</time>
      </trkpt>
      <trkpt lat="46.05379" lon="4.57576">
        <ele>545.424438477</ele>
        <time>2015-09-10T12:41:46.178Z</time>
      </trkpt>
      <trkpt lat="46.05379" lon="4.57578">
        <ele>545.365905762</ele>
        <time>2015-09-10T12:41:47.122Z</time>
      </trkpt>
      <trkpt lat="46.05385" lon="4.57588">
        <ele>545.136657715</ele>
        <time>2015-09-10T12:41:55.154Z</time>
      </trkpt>
      <trkpt lat="46.05386" lon="4.57589">
        <ele>545.160705566</ele>
        <time>2015-09-10T12:41:56.121Z</time>
      </trkpt>
      <trkpt lat="46.05393" lon="4.57595">
        <ele>545.488342285</ele>
        <time>2015-09-10T12:42:02.165Z</time>
      </trkpt>
      <trkpt lat="46.05394" lon="4.57596">
        <ele>545.608337402</ele>
        <time>2015-09-10T12:42:03.12Z</time>
      </trkpt>
      <trkpt lat="46.054" lon="4.57604">
        <ele>546.082458496</ele>
        <time>2015-09-10T12:42:10.117Z</time>
      </trkpt>
      <trkpt lat="46.05402" lon="4.57606">
        <ele>546.115661621</ele>
        <time>2015-09-10T12:42:11.092Z</time>
      </trkpt>
      <trkpt lat="46.05408" lon="4.57611">
        <ele>546.405944824</ele>
        <time>2015-09-10T12:42:18.168Z</time>
      </trkpt>
      <trkpt lat="46.0541" lon="4.57612">
        <ele>546.454406738</ele>
        <time>2015-09-10T12:42:19.141Z</time>
      </trkpt>
      <trkpt lat="46.05416" lon="4.57621">
        <ele>546.31048584</ele>
        <time>2015-09-10T12:42:25.166Z</time>
      </trkpt>
      <trkpt lat="46.05416" lon="4.57622">
        <ele>546.24005127</ele>
        <time>2015-09-10T12:42:26.132Z</time>
      </trkpt>
      <trkpt lat="46.05423" lon="4.57629">
        <ele>545.480529785</ele>
        <time>2015-09-10T12:42:32.171Z</time>
      </trkpt>
      <trkpt lat="46.05423" lon="4.5763">
        <ele>545.288085938</ele>
        <time>2015-09-10T12:42:33.125Z</time>
      </trkpt>
      <trkpt lat="46.05431" lon="4.57635">
        <ele>544.192504883</ele>
        <time>2015-09-10T12:42:41.151Z</time>
      </trkpt>
      <trkpt lat="46.05432" lon="4.57636">
        <ele>544.067504883</ele>
        <time>2015-09-10T12:42:42.119Z</time>
      </trkpt>
      <trkpt lat="46.05438" lon="4.57642">
        <ele>543.464233398</ele>
        <time>2015-09-10T12:42:47.158Z</time>
      </trkpt>
      <trkpt lat="46.0544" lon="4.57644">
        <ele>543.348510742</ele>
        <time>2015-09-10T12:42:48.117Z</time>
      </trkpt>
      <trkpt lat="46.05446" lon="4.57651">
        <ele>542.536193848</ele>
        <time>2015-09-10T12:42:53.146Z</time>
      </trkpt>
      <trkpt lat="46.05447" lon="4.57653">
        <ele>542.392700195</ele>
        <time>2015-09-10T12:42:54.104Z</time>
      </trkpt>
      <trkpt lat="46.0545" lon="4.57664">
        <ele>540.900390625</ele>
        <time>2015-09-10T12:43:01.152Z</time>
      </trkpt>
      <trkpt lat="46.05451" lon="4.57666">
        <ele>540.717224121</ele>
        <time>2015-09-10T12:43:02.126Z</time>
      </trkpt>
      <trkpt lat="46.05455" lon="4.57677">
        <ele>539.077087402</ele>
        <time>2015-09-10T12:43:09.148Z</time>
      </trkpt>
      <trkpt lat="46.05455" lon="4.57679">
        <ele>538.801574707</ele>
        <time>2015-09-10T12:43:10.126Z</time>
      </trkpt>
      <trkpt lat="46.05459" lon="4.5769">
        <ele>537.421508789</ele>
        <time>2015-09-10T12:43:16.151Z</time>
      </trkpt>
      <trkpt lat="46.05459" lon="4.57691">
        <ele>537.211547852</ele>
        <time>2015-09-10T12:43:17.117Z</time>
      </trkpt>
      <trkpt lat="46.05462" lon="4.57703">
        <ele>535.46496582</ele>
        <time>2015-09-10T12:43:24.187Z</time>
      </trkpt>
      <trkpt lat="46.05462" lon="4.57705">
        <ele>535.235351562</ele>
        <time>2015-09-10T12:43:25.123Z</time>
      </trkpt>
      <trkpt lat="46.05465" lon="4.57716">
        <ele>533.930114746</ele>
        <time>2015-09-10T12:43:31.166Z</time>
      </trkpt>
      <trkpt lat="46.05465" lon="4.57718">
        <ele>533.758544922</ele>
        <time>2015-09-10T12:43:32.131Z</time>
      </trkpt>
      <trkpt lat="46.0547" lon="4.57727">
        <ele>532.847900391</ele>
        <time>2015-09-10T12:43:40.153Z</time>
      </trkpt>
      <trkpt lat="46.05471" lon="4.57728">
        <ele>532.794250488</ele>
        <time>2015-09-10T12:43:41.14Z</time>
      </trkpt>
      <trkpt lat="46.05479" lon="4.57733">
        <ele>532.604980469</ele>
        <time>2015-09-10T12:43:49.15Z</time>
      </trkpt>
      <trkpt lat="46.05479" lon="4.57734">
        <ele>532.588317871</ele>
        <time>2015-09-10T12:43:50.092Z</time>
      </trkpt>
      <trkpt lat="46.05484" lon="4.57744">
        <ele>532.809875488</ele>
        <time>2015-09-10T12:43:58.146Z</time>
      </trkpt>
      <trkpt lat="46.05484" lon="4.57745">
        <ele>532.890319824</ele>
        <time>2015-09-10T12:43:59.122Z</time>
      </trkpt>
      <trkpt lat="46.05492" lon="4.5775">
        <ele>534.175231934</ele>
        <time>2015-09-10T12:44:07.14Z</time>
      </trkpt>
      <trkpt lat="46.05492" lon="4.57751">
        <ele>534.316223145</ele>
        <time>2015-09-10T12:44:08.124Z</time>
      </trkpt>
      <trkpt lat="46.05499" lon="4.57758">
        <ele>534.612731934</ele>
        <time>2015-09-10T12:44:16.15Z</time>
      </trkpt>
      <trkpt lat="46.055" lon="4.57759">
        <ele>534.60723877</ele>
        <time>2015-09-10T12:44:17.104Z</time>
      </trkpt>
      <trkpt lat="46.05507" lon="4.57765">
        <ele>534.895202637</ele>
        <time>2015-09-10T12:44:26.145Z</time>
      </trkpt>
      <trkpt lat="46.05507" lon="4.57766">
        <ele>534.941345215</ele>
        <time>2015-09-10T12:44:27.14Z</time>
      </trkpt>
      <trkpt lat="46.05506" lon="4.57778">
        <ele>535.67578125</ele>
        <time>2015-09-10T12:44:37.164Z</time>
      </trkpt>
      <trkpt lat="46.05506" lon="4.57779">
        <ele>535.75213623</ele>
        <time>2015-09-10T12:44:38.118Z</time>
      </trkpt>
      <trkpt lat="46.05503" lon="4.57791">
        <ele>536.757873535</ele>
        <time>2015-09-10T12:44:49.159Z</time>
      </trkpt>
      <trkpt lat="46.05503" lon="4.57791">
        <ele>536.869445801</ele>
        <time>2015-09-10T12:44:50.109Z</time>
      </trkpt>
      <trkpt lat="46.055" lon="4.57802">
        <ele>538.18371582</ele>
        <time>2015-09-10T12:45:00.128Z</time>
      </trkpt>
      <trkpt lat="46.05499" lon="4.57803">
        <ele>538.320007324</ele>
        <time>2015-09-10T12:45:01.1Z</time>
      </trkpt>
      <trkpt lat="46.05497" lon="4.57815">
        <ele>539.156982422</ele>
        <time>2015-09-10T12:45:08.217Z</time>
      </trkpt>
      <trkpt lat="46.05497" lon="4.57816">
        <ele>539.25177002</ele>
        <time>2015-09-10T12:45:09.123Z</time>
      </trkpt>
      <trkpt lat="46.05494" lon="4.57827">
        <ele>540.039428711</ele>
        <time>2015-09-10T12:45:18.163Z</time>
      </trkpt>
      <trkpt lat="46.05494" lon="4.57829">
        <ele>540.136901855</ele>
        <time>2015-09-10T12:45:19.125Z</time>
      </trkpt>
      <trkpt lat="46.05493" lon="4.5784">
        <ele>540.854492188</ele>
        <time>2015-09-10T12:45:27.162Z</time>
      </trkpt>
      <trkpt lat="46.05493" lon="4.57842">
        <ele>540.942016602</ele>
        <time>2015-09-10T12:45:28.117Z</time>
      </trkpt>
      <trkpt lat="46.05495" lon="4.57853">
        <ele>542.023742676</ele>
        <time>2015-09-10T12:45:37.166Z</time>
      </trkpt>
      <trkpt lat="46.05495" lon="4.57854">
        <ele>542.118591309</ele>
        <time>2015-09-10T12:45:38.12Z</time>
      </trkpt>
      <trkpt lat="46.05501" lon="4.57864">
        <ele>543.411987305</ele>
        <time>2015-09-10T12:45:47.18Z</time>
      </trkpt>
      <trkpt lat="46.05502" lon="4.57864">
        <ele>543.611022949</ele>
        <time>2015-09-10T12:45:48.133Z</time>
      </trkpt>
      <trkpt lat="46.05507" lon="4.57874">
        <ele>544.927429199</ele>
        <time>2015-09-10T12:45:56.144Z</time>
      </trkpt>
      <trkpt lat="46.05507" lon="4.57875">
        <ele>545.01574707</ele>
        <time>2015-09-10T12:45:57.101Z</time>
      </trkpt>
      <trkpt lat="46.05512" lon="4.57885">
        <ele>546.245422363</ele>
        <time>2015-09-10T12:46:07.161Z</time>
      </trkpt>
      <trkpt lat="46.05512" lon="4.57886">
        <ele>546.38848877</ele>
        <time>2015-09-10T12:46:08.115Z</time>
      </trkpt>
      <trkpt lat="46.05519" lon="4.57895">
        <ele>547.818481445</ele>
        <time>2015-09-10T12:46:18.158Z</time>
      </trkpt>
      <trkpt lat="46.05519" lon="4.57895">
        <ele>548.037536621</ele>
        <time>2015-09-10T12:46:19.135Z</time>
      </trkpt>
      <trkpt lat="46.05528" lon="4.57896">
        <ele>550.617980957</ele>
        <time>2015-09-10T12:46:30.134Z</time>
      </trkpt>
      <trkpt lat="46.05528" lon="4.57896">
        <ele>550.784484863</ele>
        <time>2015-09-10T12:46:31.134Z</time>
      </trkpt>
      <trkpt lat="46.05521" lon="4.57903">
        <ele>555.115966797</ele>
        <time>2015-09-10T12:50:35.133Z</time>
      </trkpt>
      <trkpt lat="46.0552" lon="4.57904">
        <ele>555.132263184</ele>
        <time>2015-09-10T12:50:36.113Z</time>
      </trkpt>
      <trkpt lat="46.05514" lon="4.57912">
        <ele>555.236450195</ele>
        <time>2015-09-10T12:50:43.138Z</time>
      </trkpt>
      <trkpt lat="46.05513" lon="4.57913">
        <ele>555.1875</ele>
        <time>2015-09-10T12:50:44.13Z</time>
      </trkpt>
      <trkpt lat="46.05507" lon="4.57923">
        <ele>553.911193848</ele>
        <time>2015-09-10T12:50:57.154Z</time>
      </trkpt>
      <trkpt lat="46.05507" lon="4.57923">
        <ele>553.788330078</ele>
        <time>2015-09-10T12:50:58.116Z</time>
      </trkpt>
      <trkpt lat="46.05501" lon="4.57932">
        <ele>552.272521973</ele>
        <time>2015-09-10T12:51:10.156Z</time>
      </trkpt>
      <trkpt lat="46.05501" lon="4.57933">
        <ele>552.102111816</ele>
        <time>2015-09-10T12:51:11.113Z</time>
      </trkpt>
      <trkpt lat="46.05503" lon="4.57945">
        <ele>550.665161133</ele>
        <time>2015-09-10T12:51:19.139Z</time>
      </trkpt>
      <trkpt lat="46.05503" lon="4.57947">
        <ele>550.49017334</ele>
        <time>2015-09-10T12:51:20.116Z</time>
      </trkpt>
      <trkpt lat="46.05506" lon="4.57958">
        <ele>549.233459473</ele>
        <time>2015-09-10T12:51:27.157Z</time>
      </trkpt>
      <trkpt lat="46.05507" lon="4.57959">
        <ele>549.036743164</ele>
        <time>2015-09-10T12:51:28.123Z</time>
      </trkpt>
      <trkpt lat="46.05513" lon="4.57967">
        <ele>547.777404785</ele>
        <time>2015-09-10T12:51:35.162Z</time>
      </trkpt>
      <trkpt lat="46.05514" lon="4.57968">
        <ele>547.594604492</ele>
        <time>2015-09-10T12:51:36.116Z</time>
      </trkpt>
      <trkpt lat="46.05521" lon="4.57973">
        <ele>546.528808594</ele>
        <time>2015-09-10T12:51:43.161Z</time>
      </trkpt>
      <trkpt lat="46.05523" lon="4.57974">
        <ele>546.421447754</ele>
        <time>2015-09-10T12:51:44.106Z</time>
      </trkpt>
      <trkpt lat="46.05529" lon="4.57979">
        <ele>545.415771484</ele>
        <time>2015-09-10T12:51:50.154Z</time>
      </trkpt>
      <trkpt lat="46.05531" lon="4.57979">
        <ele>545.35925293</ele>
        <time>2015-09-10T12:51:51.125Z</time>
      </trkpt>
      <trkpt lat="46.0553" lon="4.57992">
        <ele>543.517700195</ele>
        <time>2015-09-10T12:52:09.145Z</time>
      </trkpt>
      <trkpt lat="46.05529" lon="4.57993">
        <ele>543.39074707</ele>
        <time>2015-09-10T12:52:10.123Z</time>
      </trkpt>
      <trkpt lat="46.0552" lon="4.57993">
        <ele>542.144226074</ele>
        <time>2015-09-10T12:52:19.145Z</time>
      </trkpt>
      <trkpt lat="46.05519" lon="4.57992">
        <ele>541.99432373</ele>
        <time>2015-09-10T12:52:20.124Z</time>
      </trkpt>
      <trkpt lat="46.05513" lon="4.58001">
        <ele>540.612487793</ele>
        <time>2015-09-10T12:52:28.152Z</time>
      </trkpt>
      <trkpt lat="46.05513" lon="4.58002">
        <ele>540.427490234</ele>
        <time>2015-09-10T12:52:29.107Z</time>
      </trkpt>
      <trkpt lat="46.05521" lon="4.58008">
        <ele>539.363891602</ele>
        <time>2015-09-10T12:52:37.153Z</time>
      </trkpt>
      <trkpt lat="46.05522" lon="4.58009">
        <ele>539.300842285</ele>
        <time>2015-09-10T12:52:38.112Z</time>
      </trkpt>
      <trkpt lat="46.05528" lon="4.58016">
        <ele>538.680541992</ele>
        <time>2015-09-10T12:52:45.126Z</time>
      </trkpt>
      <trkpt lat="46.05529" lon="4.58018">
        <ele>538.577148438</ele>
        <time>2015-09-10T12:52:46.082Z</time>
      </trkpt>
      <trkpt lat="46.05534" lon="4.58027">
        <ele>537.35736084</ele>
        <time>2015-09-10T12:52:53.14Z</time>
      </trkpt>
      <trkpt lat="46.05535" lon="4.58028">
        <ele>537.152038574</ele>
        <time>2015-09-10T12:52:54.114Z</time>
      </trkpt>
      <trkpt lat="46.05541" lon="4.58036">
        <ele>535.709960938</ele>
        <time>2015-09-10T12:53:02.155Z</time>
      </trkpt>
      <trkpt lat="46.05542" lon="4.58037">
        <ele>535.607299805</ele>
        <time>2015-09-10T12:53:03.112Z</time>
      </trkpt>
      <trkpt lat="46.05551" lon="4.5804">
        <ele>533.505432129</ele>
        <time>2015-09-10T12:53:11.144Z</time>
      </trkpt>
      <trkpt lat="46.05553" lon="4.5804">
        <ele>533.254150391</ele>
        <time>2015-09-10T12:53:12.114Z</time>
      </trkpt>
      <trkpt lat="46.0556" lon="4.58038">
        <ele>531.804748535</ele>
        <time>2015-09-10T12:53:18.137Z</time>
      </trkpt>
      <trkpt lat="46.05562" lon="4.58038">
        <ele>531.534362793</ele>
        <time>2015-09-10T12:53:19.085Z</time>
      </trkpt>
      <trkpt lat="46.0557" lon="4.58037">
        <ele>529.926574707</ele>
        <time>2015-09-10T12:53:26.136Z</time>
      </trkpt>
      <trkpt lat="46.05571" lon="4.58037">
        <ele>529.704589844</ele>
        <time>2015-09-10T12:53:27.113Z</time>
      </trkpt>
      <trkpt lat="46.0558" lon="4.5804">
        <ele>527.648376465</ele>
        <time>2015-09-10T12:53:37.114Z</time>
      </trkpt>
      <trkpt lat="46.0558" lon="4.58041">
        <ele>527.483154297</ele>
        <time>2015-09-10T12:53:38.105Z</time>
      </trkpt>
      <trkpt lat="46.05579" lon="4.58053">
        <ele>526.25402832</ele>
        <time>2015-09-10T12:53:45.135Z</time>
      </trkpt>
      <trkpt lat="46.05578" lon="4.58055">
        <ele>526.075317383</ele>
        <time>2015-09-10T12:53:46.106Z</time>
      </trkpt>
      <trkpt lat="46.05574" lon="4.58066">
        <ele>524.681945801</ele>
        <time>2015-09-10T12:53:55.141Z</time>
      </trkpt>
      <trkpt lat="46.05574" lon="4.58067">
        <ele>524.569702148</ele>
        <time>2015-09-10T12:53:56.114Z</time>
      </trkpt>
      <trkpt lat="46.05571" lon="4.58078">
        <ele>523.656677246</ele>
        <time>2015-09-10T12:54:02.263Z</time>
      </trkpt>
      <trkpt lat="46.0557" lon="4.5808">
        <ele>523.517822266</ele>
        <time>2015-09-10T12:54:03.113Z</time>
      </trkpt>
      <trkpt lat="46.05567" lon="4.58089">
        <ele>522.407836914</ele>
        <time>2015-09-10T12:54:09.121Z</time>
      </trkpt>
      <trkpt lat="46.05566" lon="4.58092">
        <ele>522.184020996</ele>
        <time>2015-09-10T12:54:10.103Z</time>
      </trkpt>
      <trkpt lat="46.0556" lon="4.581">
        <ele>520.723388672</ele>
        <time>2015-09-10T12:54:17.144Z</time>
      </trkpt>
      <trkpt lat="46.05559" lon="4.58101">
        <ele>520.492248535</ele>
        <time>2015-09-10T12:54:18.091Z</time>
      </trkpt>
      <trkpt lat="46.05553" lon="4.58109">
        <ele>519.163696289</ele>
        <time>2015-09-10T12:54:27.191Z</time>
      </trkpt>
      <trkpt lat="46.05551" lon="4.58111">
        <ele>518.993408203</ele>
        <time>2015-09-10T12:54:28.121Z</time>
      </trkpt>
      <trkpt lat="46.05544" lon="4.58115">
        <ele>517.798034668</ele>
        <time>2015-09-10T12:54:35.134Z</time>
      </trkpt>
      <trkpt lat="46.05543" lon="4.58116">
        <ele>517.639709473</ele>
        <time>2015-09-10T12:54:36.126Z</time>
      </trkpt>
      <trkpt lat="46.05534" lon="4.58116">
        <ele>516.122070312</ele>
        <time>2015-09-10T12:54:45.135Z</time>
      </trkpt>
      <trkpt lat="46.05533" lon="4.58116">
        <ele>515.975769043</ele>
        <time>2015-09-10T12:54:46.09Z</time>
      </trkpt>
      <trkpt lat="46.05525" lon="4.58111">
        <ele>514.88671875</ele>
        <time>2015-09-10T12:54:55.135Z</time>
      </trkpt>
      <trkpt lat="46.05524" lon="4.5811">
        <ele>514.821411133</ele>
        <time>2015-09-10T12:54:56.117Z</time>
      </trkpt>
      <trkpt lat="46.05516" lon="4.58104">
        <ele>514.584899902</ele>
        <time>2015-09-10T12:55:03.147Z</time>
      </trkpt>
      <trkpt lat="46.05515" lon="4.58104">
        <ele>514.532470703</ele>
        <time>2015-09-10T12:55:04.123Z</time>
      </trkpt>
      <trkpt lat="46.05508" lon="4.58096">
        <ele>514.217285156</ele>
        <time>2015-09-10T12:55:11.155Z</time>
      </trkpt>
      <trkpt lat="46.05507" lon="4.58095">
        <ele>514.221069336</ele>
        <time>2015-09-10T12:55:12.104Z</time>
      </trkpt>
      <trkpt lat="46.05502" lon="4.58088">
        <ele>513.852233887</ele>
        <time>2015-09-10T12:55:18.145Z</time>
      </trkpt>
      <trkpt lat="46.055" lon="4.58087">
        <ele>513.724182129</ele>
        <time>2015-09-10T12:55:19.114Z</time>
      </trkpt>
      <trkpt lat="46.05501" lon="4.58099">
        <ele>511.620666504</ele>
        <time>2015-09-10T12:55:33.141Z</time>
      </trkpt>
      <trkpt lat="46.05502" lon="4.58101">
        <ele>511.387481689</ele>
        <time>2015-09-10T12:55:34.105Z</time>
      </trkpt>
      <trkpt lat="46.05509" lon="4.58109">
        <ele>509.968292236</ele>
        <time>2015-09-10T12:55:42.149Z</time>
      </trkpt>
      <trkpt lat="46.0551" lon="4.5811">
        <ele>509.770263672</ele>
        <time>2015-09-10T12:55:43.11Z</time>
      </trkpt>
      <trkpt lat="46.05517" lon="4.58116">
        <ele>508.96963501</ele>
        <time>2015-09-10T12:55:49.12Z</time>
      </trkpt>
      <trkpt lat="46.05519" lon="4.58118">
        <ele>508.803100586</ele>
        <time>2015-09-10T12:55:50.11Z</time>
      </trkpt>
      <trkpt lat="46.05523" lon="4.58129">
        <ele>507.532684326</ele>
        <time>2015-09-10T12:55:57.165Z</time>
      </trkpt>
      <trkpt lat="46.05524" lon="4.58131">
        <ele>507.350921631</ele>
        <time>2015-09-10T12:55:58.117Z</time>
      </trkpt>
      <trkpt lat="46.05526" lon="4.58141">
        <ele>506.288543701</ele>
        <time>2015-09-10T12:56:05.15Z</time>
      </trkpt>
      <trkpt lat="46.05527" lon="4.58143">
        <ele>506.129730225</ele>
        <time>2015-09-10T12:56:06.115Z</time>
      </trkpt>
      <trkpt lat="46.05528" lon="4.58155">
        <ele>505.199462891</ele>
        <time>2015-09-10T12:56:15.141Z</time>
      </trkpt>
      <trkpt lat="46.05529" lon="4.58157">
        <ele>505.141937256</ele>
        <time>2015-09-10T12:56:16.112Z</time>
      </trkpt>
      <trkpt lat="46.05532" lon="4.58166">
        <ele>504.827850342</ele>
        <time>2015-09-10T12:56:21.148Z</time>
      </trkpt>
      <trkpt lat="46.05533" lon="4.58169">
        <ele>504.74005127</ele>
        <time>2015-09-10T12:56:22.118Z</time>
      </trkpt>
      <trkpt lat="46.05536" lon="4.5818">
        <ele>504.200714111</ele>
        <time>2015-09-10T12:56:27.148Z</time>
      </trkpt>
      <trkpt lat="46.05537" lon="4.58182">
        <ele>504.055328369</ele>
        <time>2015-09-10T12:56:28.116Z</time>
      </trkpt>
      <trkpt lat="46.0554" lon="4.58194">
        <ele>503.203094482</ele>
        <time>2015-09-10T12:56:34.154Z</time>
      </trkpt>
      <trkpt lat="46.05541" lon="4.58196">
        <ele>503.039245605</ele>
        <time>2015-09-10T12:56:35.11Z</time>
      </trkpt>
      <trkpt lat="46.05545" lon="4.58207">
        <ele>502.213562012</ele>
        <time>2015-09-10T12:56:41.176Z</time>
      </trkpt>
      <trkpt lat="46.05546" lon="4.58209">
        <ele>502.10723877</ele>
        <time>2015-09-10T12:56:42.103Z</time>
      </trkpt>
      <trkpt lat="46.05549" lon="4.5822">
        <ele>501.324249268</ele>
        <time>2015-09-10T12:56:48.148Z</time>
      </trkpt>
      <trkpt lat="46.05549" lon="4.58221">
        <ele>501.182037354</ele>
        <time>2015-09-10T12:56:49.113Z</time>
      </trkpt>
      <trkpt lat="46.05554" lon="4.58232">
        <ele>500.221466064</ele>
        <time>2015-09-10T12:56:56.154Z</time>
      </trkpt>
      <trkpt lat="46.05554" lon="4.58234">
        <ele>500.099639893</ele>
        <time>2015-09-10T12:56:57.114Z</time>
      </trkpt>
      <trkpt lat="46.05557" lon="4.58245">
        <ele>499.245788574</ele>
        <time>2015-09-10T12:57:03.16Z</time>
      </trkpt>
      <trkpt lat="46.05558" lon="4.58247">
        <ele>499.102203369</ele>
        <time>2015-09-10T12:57:04.124Z</time>
      </trkpt>
      <trkpt lat="46.05562" lon="4.58258">
        <ele>498.387420654</ele>
        <time>2015-09-10T12:57:10.18Z</time>
      </trkpt>
      <trkpt lat="46.05562" lon="4.58259">
        <ele>498.251586914</ele>
        <time>2015-09-10T12:57:11.124Z</time>
      </trkpt>
      <trkpt lat="46.05566" lon="4.58271">
        <ele>497.389556885</ele>
        <time>2015-09-10T12:57:18.164Z</time>
      </trkpt>
      <trkpt lat="46.05566" lon="4.58273">
        <ele>497.29006958</ele>
        <time>2015-09-10T12:57:19.117Z</time>
      </trkpt>
      <trkpt lat="46.05569" lon="4.58285">
        <ele>496.390136719</ele>
        <time>2015-09-10T12:57:26.127Z</time>
      </trkpt>
      <trkpt lat="46.0557" lon="4.58287">
        <ele>496.2784729</ele>
        <time>2015-09-10T12:57:27.118Z</time>
      </trkpt>
      <trkpt lat="46.05573" lon="4.58298">
        <ele>495.531799316</ele>
        <time>2015-09-10T12:57:33.148Z</time>
      </trkpt>
      <trkpt lat="46.05573" lon="4.583">
        <ele>495.389373779</ele>
        <time>2015-09-10T12:57:34.112Z</time>
      </trkpt>
      <trkpt lat="46.05575" lon="4.5831">
        <ele>494.510406494</ele>
        <time>2015-09-10T12:57:40.14Z</time>
      </trkpt>
      <trkpt lat="46.05575" lon="4.58313">
        <ele>494.38961792</ele>
        <time>2015-09-10T12:57:41.115Z</time>
      </trkpt>
      <trkpt lat="46.05577" lon="4.58324">
        <ele>493.583129883</ele>
        <time>2015-09-10T12:57:47.157Z</time>
      </trkpt>
      <trkpt lat="46.05577" lon="4.58326">
        <ele>493.4347229</ele>
        <time>2015-09-10T12:57:48.121Z</time>
      </trkpt>
      <trkpt lat="46.05579" lon="4.58338">
        <ele>492.339935303</ele>
        <time>2015-09-10T12:57:55.147Z</time>
      </trkpt>
      <trkpt lat="46.05579" lon="4.5834">
        <ele>492.188812256</ele>
        <time>2015-09-10T12:57:56.091Z</time>
      </trkpt>
      <trkpt lat="46.05581" lon="4.58352">
        <ele>490.977478027</ele>
        <time>2015-09-10T12:58:03.158Z</time>
      </trkpt>
      <trkpt lat="46.05581" lon="4.58354">
        <ele>490.828491211</ele>
        <time>2015-09-10T12:58:04.117Z</time>
      </trkpt>
      <trkpt lat="46.05583" lon="4.58366">
        <ele>490.05557251</ele>
        <time>2015-09-10T12:58:11.141Z</time>
      </trkpt>
      <trkpt lat="46.05584" lon="4.58367">
        <ele>489.951721191</ele>
        <time>2015-09-10T12:58:12.125Z</time>
      </trkpt>
      <trkpt lat="46.05585" lon="4.58379">
        <ele>489.695373535</ele>
        <time>2015-09-10T12:58:18.14Z</time>
      </trkpt>
      <trkpt lat="46.05585" lon="4.58381">
        <ele>489.665649414</ele>
        <time>2015-09-10T12:58:19.109Z</time>
      </trkpt>
      <trkpt lat="46.05586" lon="4.58394">
        <ele>489.193206787</ele>
        <time>2015-09-10T12:58:26.139Z</time>
      </trkpt>
      <trkpt lat="46.05586" lon="4.58396">
        <ele>489.133087158</ele>
        <time>2015-09-10T12:58:27.088Z</time>
      </trkpt>
      <trkpt lat="46.05586" lon="4.58408">
        <ele>488.404754639</ele>
        <time>2015-09-10T12:58:32.151Z</time>
      </trkpt>
      <trkpt lat="46.05586" lon="4.58409">
        <ele>488.264282227</ele>
        <time>2015-09-10T12:58:33.114Z</time>
      </trkpt>
      <trkpt lat="46.05587" lon="4.5842">
        <ele>487.526702881</ele>
        <time>2015-09-10T12:58:39.19Z</time>
      </trkpt>
      <trkpt lat="46.05587" lon="4.58422">
        <ele>487.372344971</ele>
        <time>2015-09-10T12:58:40.1Z</time>
      </trkpt>
      <trkpt lat="46.05588" lon="4.58435">
        <ele>486.574920654</ele>
        <time>2015-09-10T12:58:46.135Z</time>
      </trkpt>
      <trkpt lat="46.05588" lon="4.58436">
        <ele>486.413848877</ele>
        <time>2015-09-10T12:58:47.115Z</time>
      </trkpt>
      <trkpt lat="46.05589" lon="4.58449">
        <ele>485.287963867</ele>
        <time>2015-09-10T12:58:54.147Z</time>
      </trkpt>
      <trkpt lat="46.0559" lon="4.5845">
        <ele>485.129302979</ele>
        <time>2015-09-10T12:58:55.115Z</time>
      </trkpt>
      <trkpt lat="46.05591" lon="4.58462">
        <ele>484.256378174</ele>
        <time>2015-09-10T12:59:01.152Z</time>
      </trkpt>
      <trkpt lat="46.05591" lon="4.58464">
        <ele>484.069549561</ele>
        <time>2015-09-10T12:59:02.122Z</time>
      </trkpt>
      <trkpt lat="46.05593" lon="4.58476">
        <ele>482.978393555</ele>
        <time>2015-09-10T12:59:09.173Z</time>
      </trkpt>
      <trkpt lat="46.05594" lon="4.58478">
        <ele>482.85345459</ele>
        <time>2015-09-10T12:59:10.113Z</time>
      </trkpt>
      <trkpt lat="46.05597" lon="4.5849">
        <ele>482.063537598</ele>
        <time>2015-09-10T12:59:16.15Z</time>
      </trkpt>
      <trkpt lat="46.05597" lon="4.58491">
        <ele>481.943115234</ele>
        <time>2015-09-10T12:59:17.106Z</time>
      </trkpt>
      <trkpt lat="46.05602" lon="4.58501">
        <ele>481.326477051</ele>
        <time>2015-09-10T12:59:23.146Z</time>
      </trkpt>
      <trkpt lat="46.05603" lon="4.58503">
        <ele>481.26574707</ele>
        <time>2015-09-10T12:59:24.121Z</time>
      </trkpt>
      <trkpt lat="46.05607" lon="4.58513">
        <ele>480.721252441</ele>
        <time>2015-09-10T12:59:30.114Z</time>
      </trkpt>
      <trkpt lat="46.05608" lon="4.58515">
        <ele>480.601837158</ele>
        <time>2015-09-10T12:59:31.114Z</time>
      </trkpt>
      <trkpt lat="46.05613" lon="4.58526">
        <ele>479.787841797</ele>
        <time>2015-09-10T12:59:37.131Z</time>
      </trkpt>
      <trkpt lat="46.05613" lon="4.58527">
        <ele>479.651855469</ele>
        <time>2015-09-10T12:59:38.085Z</time>
      </trkpt>
      <trkpt lat="46.05618" lon="4.58537">
        <ele>478.964294434</ele>
        <time>2015-09-10T12:59:44.14Z</time>
      </trkpt>
      <trkpt lat="46.05619" lon="4.58539">
        <ele>478.878662109</ele>
        <time>2015-09-10T12:59:45.107Z</time>
      </trkpt>
      <trkpt lat="46.05624" lon="4.58549">
        <ele>477.98638916</ele>
        <time>2015-09-10T12:59:52.134Z</time>
      </trkpt>
      <trkpt lat="46.05625" lon="4.5855">
        <ele>477.855102539</ele>
        <time>2015-09-10T12:59:53.114Z</time>
      </trkpt>
      <trkpt lat="46.05629" lon="4.58559">
        <ele>477.147491455</ele>
        <time>2015-09-10T13:00:00.201Z</time>
      </trkpt>
      <trkpt lat="46.05631" lon="4.58562">
        <ele>477.090698242</ele>
        <time>2015-09-10T13:00:01.088Z</time>
      </trkpt>
      <trkpt lat="46.05635" lon="4.58572">
        <ele>476.829742432</ele>
        <time>2015-09-10T13:00:08.159Z</time>
      </trkpt>
      <trkpt lat="46.05635" lon="4.58574">
        <ele>476.792266846</ele>
        <time>2015-09-10T13:00:09.121Z</time>
      </trkpt>
      <trkpt lat="46.05637" lon="4.58586">
        <ele>476.295532227</ele>
        <time>2015-09-10T13:00:15.139Z</time>
      </trkpt>
      <trkpt lat="46.05637" lon="4.58588">
        <ele>476.169372559</ele>
        <time>2015-09-10T13:00:16.114Z</time>
      </trkpt>
      <trkpt lat="46.05638" lon="4.586">
        <ele>475.144622803</ele>
        <time>2015-09-10T13:00:23.165Z</time>
      </trkpt>
      <trkpt lat="46.05638" lon="4.58602">
        <ele>474.993438721</ele>
        <time>2015-09-10T13:00:24.106Z</time>
      </trkpt>
      <trkpt lat="46.05639" lon="4.58615">
        <ele>474.057098389</ele>
        <time>2015-09-10T13:00:31.132Z</time>
      </trkpt>
      <trkpt lat="46.05639" lon="4.58617">
        <ele>473.91305542</ele>
        <time>2015-09-10T13:00:32.121Z</time>
      </trkpt>
      <trkpt lat="46.0564" lon="4.58628">
        <ele>473.005981445</ele>
        <time>2015-09-10T13:00:38.141Z</time>
      </trkpt>
      <trkpt lat="46.0564" lon="4.5863">
        <ele>472.838012695</ele>
        <time>2015-09-10T13:00:39.122Z</time>
      </trkpt>
      <trkpt lat="46.05642" lon="4.58642">
        <ele>472.155975342</ele>
        <time>2015-09-10T13:00:45.146Z</time>
      </trkpt>
      <trkpt lat="46.05642" lon="4.58643">
        <ele>472.050109863</ele>
        <time>2015-09-10T13:00:46.105Z</time>
      </trkpt>
      <trkpt lat="46.05643" lon="4.58656">
        <ele>471.904266357</ele>
        <time>2015-09-10T13:00:55.138Z</time>
      </trkpt>
      <trkpt lat="46.05643" lon="4.58657">
        <ele>472.005157471</ele>
        <time>2015-09-10T13:00:56.113Z</time>
      </trkpt>
      <trkpt lat="46.05645" lon="4.58669">
        <ele>472.556976318</ele>
        <time>2015-09-10T13:01:03.121Z</time>
      </trkpt>
      <trkpt lat="46.05645" lon="4.58671">
        <ele>472.590484619</ele>
        <time>2015-09-10T13:01:04.092Z</time>
      </trkpt>
      <trkpt lat="46.05645" lon="4.58683">
        <ele>472.720489502</ele>
        <time>2015-09-10T13:01:11.145Z</time>
      </trkpt>
      <trkpt lat="46.05645" lon="4.58686">
        <ele>472.788818359</ele>
        <time>2015-09-10T13:01:12.092Z</time>
      </trkpt>
      <trkpt lat="46.05647" lon="4.58697">
        <ele>473.288421631</ele>
        <time>2015-09-10T13:01:21.165Z</time>
      </trkpt>
      <trkpt lat="46.05647" lon="4.58699">
        <ele>473.340759277</ele>
        <time>2015-09-10T13:01:22.126Z</time>
      </trkpt>
      <trkpt lat="46.05648" lon="4.58709">
        <ele>473.480041504</ele>
        <time>2015-09-10T13:01:26.143Z</time>
      </trkpt>
      <trkpt lat="46.05648" lon="4.58712">
        <ele>473.40411377</ele>
        <time>2015-09-10T13:01:27.105Z</time>
      </trkpt>
      <trkpt lat="46.05648" lon="4.58723">
        <ele>472.590179443</ele>
        <time>2015-09-10T13:01:32.149Z</time>
      </trkpt>
      <trkpt lat="46.05648" lon="4.58725">
        <ele>472.423126221</ele>
        <time>2015-09-10T13:01:33.113Z</time>
      </trkpt>
      <trkpt lat="46.05648" lon="4.58737">
        <ele>471.369049072</ele>
        <time>2015-09-10T13:01:40.128Z</time>
      </trkpt>
      <trkpt lat="46.05648" lon="4.58739">
        <ele>471.262939453</ele>
        <time>2015-09-10T13:01:41.113Z</time>
      </trkpt>
      <trkpt lat="46.0565" lon="4.58751">
        <ele>470.356719971</ele>
        <time>2015-09-10T13:01:48.135Z</time>
      </trkpt>
      <trkpt lat="46.05651" lon="4.58752">
        <ele>470.272949219</ele>
        <time>2015-09-10T13:01:49.115Z</time>
      </trkpt>
      <trkpt lat="46.05653" lon="4.58763">
        <ele>469.493347168</ele>
        <time>2015-09-10T13:01:55.122Z</time>
      </trkpt>
      <trkpt lat="46.05653" lon="4.58765">
        <ele>469.379486084</ele>
        <time>2015-09-10T13:01:56.122Z</time>
      </trkpt>
      <trkpt lat="46.05654" lon="4.58776">
        <ele>468.637207031</ele>
        <time>2015-09-10T13:02:02.155Z</time>
      </trkpt>
      <trkpt lat="46.05654" lon="4.58779">
        <ele>468.501190186</ele>
        <time>2015-09-10T13:02:03.113Z</time>
      </trkpt>
      <trkpt lat="46.05656" lon="4.58791">
        <ele>467.282867432</ele>
        <time>2015-09-10T13:02:10.138Z</time>
      </trkpt>
      <trkpt lat="46.05656" lon="4.58793">
        <ele>467.201049805</ele>
        <time>2015-09-10T13:02:11.098Z</time>
      </trkpt>
      <trkpt lat="46.05658" lon="4.58803">
        <ele>466.808746338</ele>
        <time>2015-09-10T13:02:18.138Z</time>
      </trkpt>
      <trkpt lat="46.05658" lon="4.58805">
        <ele>466.717071533</ele>
        <time>2015-09-10T13:02:19.112Z</time>
      </trkpt>
      <trkpt lat="46.0566" lon="4.58816">
        <ele>466.218536377</ele>
        <time>2015-09-10T13:02:24.148Z</time>
      </trkpt>
      <trkpt lat="46.0566" lon="4.58818">
        <ele>466.039550781</ele>
        <time>2015-09-10T13:02:25.1Z</time>
      </trkpt>
      <trkpt lat="46.05663" lon="4.58829">
        <ele>464.936523438</ele>
        <time>2015-09-10T13:02:31.148Z</time>
      </trkpt>
      <trkpt lat="46.05663" lon="4.58831">
        <ele>464.786895752</ele>
        <time>2015-09-10T13:02:32.128Z</time>
      </trkpt>
      <trkpt lat="46.05665" lon="4.58841">
        <ele>463.593475342</ele>
        <time>2015-09-10T13:02:39.167Z</time>
      </trkpt>
      <trkpt lat="46.05665" lon="4.58843">
        <ele>463.446929932</ele>
        <time>2015-09-10T13:02:40.134Z</time>
      </trkpt>
      <trkpt lat="46.05668" lon="4.58853">
        <ele>462.649627686</ele>
        <time>2015-09-10T13:02:45.1Z</time>
      </trkpt>
      <trkpt lat="46.05669" lon="4.58855">
        <ele>462.485198975</ele>
        <time>2015-09-10T13:02:46.121Z</time>
      </trkpt>
      <trkpt lat="46.05672" lon="4.58865">
        <ele>461.277557373</ele>
        <time>2015-09-10T13:02:53.148Z</time>
      </trkpt>
      <trkpt lat="46.05673" lon="4.58867">
        <ele>461.111694336</ele>
        <time>2015-09-10T13:02:54.104Z</time>
      </trkpt>
      <trkpt lat="46.05677" lon="4.58877">
        <ele>460.205474854</ele>
        <time>2015-09-10T13:03:00.151Z</time>
      </trkpt>
      <trkpt lat="46.05678" lon="4.58878">
        <ele>460.014556885</ele>
        <time>2015-09-10T13:03:01.075Z</time>
      </trkpt>
      <trkpt lat="46.05683" lon="4.58888">
        <ele>458.62399292</ele>
        <time>2015-09-10T13:03:09.229Z</time>
      </trkpt>
      <trkpt lat="46.05684" lon="4.58888">
        <ele>458.583068848</ele>
        <time>2015-09-10T13:03:10.076Z</time>
      </trkpt>
      <trkpt lat="46.05688" lon="4.58899">
        <ele>458.410583496</ele>
        <time>2015-09-10T13:03:15.128Z</time>
      </trkpt>
      <trkpt lat="46.05688" lon="4.58901">
        <ele>458.353607178</ele>
        <time>2015-09-10T13:03:16.108Z</time>
      </trkpt>
      <trkpt lat="46.05693" lon="4.58911">
        <ele>457.834716797</ele>
        <time>2015-09-10T13:03:21.109Z</time>
      </trkpt>
      <trkpt lat="46.05694" lon="4.58913">
        <ele>457.689788818</ele>
        <time>2015-09-10T13:03:22.099Z</time>
      </trkpt>
      <trkpt lat="46.05699" lon="4.58922">
        <ele>457.020202637</ele>
        <time>2015-09-10T13:03:29.153Z</time>
      </trkpt>
      <trkpt lat="46.05699" lon="4.58923">
        <ele>457.091644287</ele>
        <time>2015-09-10T13:03:30.098Z</time>
      </trkpt>
      <trkpt lat="46.05704" lon="4.58934">
        <ele>457.785949707</ele>
        <time>2015-09-10T13:03:38.125Z</time>
      </trkpt>
      <trkpt lat="46.05705" lon="4.58936">
        <ele>457.676208496</ele>
        <time>2015-09-10T13:03:39.078Z</time>
      </trkpt>
      <trkpt lat="46.05708" lon="4.58947">
        <ele>457.073150635</ele>
        <time>2015-09-10T13:03:44.137Z</time>
      </trkpt>
      <trkpt lat="46.05709" lon="4.58948">
        <ele>457.014556885</ele>
        <time>2015-09-10T13:03:45.104Z</time>
      </trkpt>
      <trkpt lat="46.05713" lon="4.5896">
        <ele>456.744049072</ele>
        <time>2015-09-10T13:03:53.148Z</time>
      </trkpt>
      <trkpt lat="46.05713" lon="4.58961">
        <ele>456.71697998</ele>
        <time>2015-09-10T13:03:54.104Z</time>
      </trkpt>
      <trkpt lat="46.05713" lon="4.58973">
        <ele>456.89642334</ele>
        <time>2015-09-10T13:04:00.142Z</time>
      </trkpt>
      <trkpt lat="46.05713" lon="4.58975">
        <ele>456.969268799</ele>
        <time>2015-09-10T13:04:01.08Z</time>
      </trkpt>
      <trkpt lat="46.05714" lon="4.58986">
        <ele>457.056213379</ele>
        <time>2015-09-10T13:04:07.144Z</time>
      </trkpt>
      <trkpt lat="46.05714" lon="4.58987">
        <ele>456.986083984</ele>
        <time>2015-09-10T13:04:08.1Z</time>
      </trkpt>
      <trkpt lat="46.05716" lon="4.58998">
        <ele>456.841400146</ele>
        <time>2015-09-10T13:04:14.127Z</time>
      </trkpt>
      <trkpt lat="46.05716" lon="4.59">
        <ele>456.886322021</ele>
        <time>2015-09-10T13:04:15.082Z</time>
      </trkpt>
      <trkpt lat="46.05718" lon="4.59013">
        <ele>456.609771729</ele>
        <time>2015-09-10T13:04:21.144Z</time>
      </trkpt>
      <trkpt lat="46.05718" lon="4.59015">
        <ele>456.593719482</ele>
        <time>2015-09-10T13:04:22.081Z</time>
      </trkpt>
      <trkpt lat="46.05721" lon="4.59026">
        <ele>456.246948242</ele>
        <time>2015-09-10T13:04:28.13Z</time>
      </trkpt>
      <trkpt lat="46.05721" lon="4.59027">
        <ele>456.223846436</ele>
        <time>2015-09-10T13:04:29.121Z</time>
      </trkpt>
      <trkpt lat="46.05724" lon="4.5904">
        <ele>456.088165283</ele>
        <time>2015-09-10T13:04:37.14Z</time>
      </trkpt>
      <trkpt lat="46.05725" lon="4.59041">
        <ele>456.081756592</ele>
        <time>2015-09-10T13:04:38.122Z</time>
      </trkpt>
      <trkpt lat="46.05729" lon="4.59052">
        <ele>455.912536621</ele>
        <time>2015-09-10T13:04:45.16Z</time>
      </trkpt>
      <trkpt lat="46.05729" lon="4.59053">
        <ele>455.859466553</ele>
        <time>2015-09-10T13:04:46.108Z</time>
      </trkpt>
      <trkpt lat="46.05738" lon="4.59055">
        <ele>454.802520752</ele>
        <time>2015-09-10T13:05:08.153Z</time>
      </trkpt>
      <trkpt lat="46.05739" lon="4.59055">
        <ele>454.789398193</ele>
        <time>2015-09-10T13:05:09.103Z</time>
      </trkpt>
      <trkpt lat="46.05745" lon="4.59047">
        <ele>454.769195557</ele>
        <time>2015-09-10T13:05:43.138Z</time>
      </trkpt>
      <trkpt lat="46.05746" lon="4.59046">
        <ele>454.765045166</ele>
        <time>2015-09-10T13:05:44.112Z</time>
      </trkpt>
      <trkpt lat="46.05755" lon="4.59044">
        <ele>455.359802246</ele>
        <time>2015-09-10T13:06:20.179Z</time>
      </trkpt>
      <trkpt lat="46.05755" lon="4.59044">
        <ele>455.372131348</ele>
        <time>2015-09-10T13:06:21.117Z</time>
      </trkpt>
      <trkpt lat="46.05747" lon="4.5905">
        <ele>455.096862793</ele>
        <time>2015-09-10T13:06:50.139Z</time>
      </trkpt>
      <trkpt lat="46.05747" lon="4.5905">
        <ele>455.093994141</ele>
        <time>2015-09-10T13:06:51.115Z</time>
      </trkpt>
      <trkpt lat="46.05738" lon="4.59055">
        <ele>454.463653564</ele>
        <time>2015-09-10T13:06:59.143Z</time>
      </trkpt>
      <trkpt lat="46.05738" lon="4.59055">
        <ele>454.331054688</ele>
        <time>2015-09-10T13:07:00.108Z</time>
      </trkpt>
      <trkpt lat="46.05734" lon="4.59066">
        <ele>453.342559814</ele>
        <time>2015-09-10T13:07:14.137Z</time>
      </trkpt>
      <trkpt lat="46.05734" lon="4.59067">
        <ele>453.309936523</ele>
        <time>2015-09-10T13:07:15.108Z</time>
      </trkpt>
      <trkpt lat="46.05737" lon="4.59078">
        <ele>452.599121094</ele>
        <time>2015-09-10T13:07:28.152Z</time>
      </trkpt>
      <trkpt lat="46.05737" lon="4.59079">
        <ele>452.511413574</ele>
        <time>2015-09-10T13:07:29.096Z</time>
      </trkpt>
      <trkpt lat="46.0574" lon="4.5909">
        <ele>451.676605225</ele>
        <time>2015-09-10T13:07:38.146Z</time>
      </trkpt>
      <trkpt lat="46.0574" lon="4.59092">
        <ele>451.587402344</ele>
        <time>2015-09-10T13:07:39.125Z</time>
      </trkpt>
      <trkpt lat="46.05743" lon="4.59103">
        <ele>451.112121582</ele>
        <time>2015-09-10T13:07:46.145Z</time>
      </trkpt>
      <trkpt lat="46.05743" lon="4.59104">
        <ele>451.076263428</ele>
        <time>2015-09-10T13:07:47.117Z</time>
      </trkpt>
      <trkpt lat="46.05746" lon="4.59115">
        <ele>450.98626709</ele>
        <time>2015-09-10T13:07:55.162Z</time>
      </trkpt>
      <trkpt lat="46.05746" lon="4.59117">
        <ele>450.999969482</ele>
        <time>2015-09-10T13:07:56.113Z</time>
      </trkpt>
      <trkpt lat="46.0575" lon="4.59128">
        <ele>451.614471436</ele>
        <time>2015-09-10T13:08:07.143Z</time>
      </trkpt>
      <trkpt lat="46.0575" lon="4.5913">
        <ele>451.644104004</ele>
        <time>2015-09-10T13:08:08.113Z</time>
      </trkpt>
      <trkpt lat="46.05752" lon="4.59141">
        <ele>451.610321045</ele>
        <time>2015-09-10T13:08:15.155Z</time>
      </trkpt>
      <trkpt lat="46.05753" lon="4.59142">
        <ele>451.602722168</ele>
        <time>2015-09-10T13:08:16.1Z</time>
      </trkpt>
      <trkpt lat="46.05757" lon="4.59153">
        <ele>451.875213623</ele>
        <time>2015-09-10T13:08:25.153Z</time>
      </trkpt>
      <trkpt lat="46.05757" lon="4.59155">
        <ele>451.964294434</ele>
        <time>2015-09-10T13:08:26.078Z</time>
      </trkpt>
      <trkpt lat="46.0576" lon="4.59166">
        <ele>452.311859131</ele>
        <time>2015-09-10T13:08:34.106Z</time>
      </trkpt>
      <trkpt lat="46.0576" lon="4.59169">
        <ele>452.270507812</ele>
        <time>2015-09-10T13:08:35.093Z</time>
      </trkpt>
      <trkpt lat="46.05763" lon="4.5918">
        <ele>452.204437256</ele>
        <time>2015-09-10T13:08:42.142Z</time>
      </trkpt>
      <trkpt lat="46.05763" lon="4.59181">
        <ele>452.257598877</ele>
        <time>2015-09-10T13:08:43.108Z</time>
      </trkpt>
      <trkpt lat="46.05765" lon="4.59192">
        <ele>452.044952393</ele>
        <time>2015-09-10T13:08:49.16Z</time>
      </trkpt>
      <trkpt lat="46.05766" lon="4.59194">
        <ele>452.038269043</ele>
        <time>2015-09-10T13:08:50.076Z</time>
      </trkpt>
      <trkpt lat="46.05768" lon="4.59205">
        <ele>452.290466309</ele>
        <time>2015-09-10T13:08:57.149Z</time>
      </trkpt>
      <trkpt lat="46.05768" lon="4.59207">
        <ele>452.249023438</ele>
        <time>2015-09-10T13:08:58.081Z</time>
      </trkpt>
      <trkpt lat="46.0577" lon="4.59219">
        <ele>451.804534912</ele>
        <time>2015-09-10T13:09:04.146Z</time>
      </trkpt>
      <trkpt lat="46.0577" lon="4.5922">
        <ele>451.711456299</ele>
        <time>2015-09-10T13:09:05.113Z</time>
      </trkpt>
      <trkpt lat="46.05774" lon="4.59232">
        <ele>451.330078125</ele>
        <time>2015-09-10T13:09:11.112Z</time>
      </trkpt>
      <trkpt lat="46.05774" lon="4.59233">
        <ele>451.266082764</ele>
        <time>2015-09-10T13:09:12.101Z</time>
      </trkpt>
      <trkpt lat="46.05778" lon="4.59243">
        <ele>451.859283447</ele>
        <time>2015-09-10T13:09:20.107Z</time>
      </trkpt>
      <trkpt lat="46.05778" lon="4.59245">
        <ele>451.977478027</ele>
        <time>2015-09-10T13:09:21.121Z</time>
      </trkpt>
      <trkpt lat="46.05778" lon="4.59258">
        <ele>451.756988525</ele>
        <time>2015-09-10T13:09:25.141Z</time>
      </trkpt>
      <trkpt lat="46.05778" lon="4.5926">
        <ele>451.595245361</ele>
        <time>2015-09-10T13:09:26.081Z</time>
      </trkpt>
      <trkpt lat="46.0578" lon="4.59272">
        <ele>450.3515625</ele>
        <time>2015-09-10T13:09:33.139Z</time>
      </trkpt>
      <trkpt lat="46.05781" lon="4.59273">
        <ele>450.154815674</ele>
        <time>2015-09-10T13:09:34.113Z</time>
      </trkpt>
      <trkpt lat="46.05783" lon="4.59285">
        <ele>448.937225342</ele>
        <time>2015-09-10T13:09:41.141Z</time>
      </trkpt>
      <trkpt lat="46.05783" lon="4.59286">
        <ele>448.806060791</ele>
        <time>2015-09-10T13:09:42.089Z</time>
      </trkpt>
      <trkpt lat="46.05786" lon="4.59297">
        <ele>448.019836426</ele>
        <time>2015-09-10T13:09:49.143Z</time>
      </trkpt>
      <trkpt lat="46.05786" lon="4.59299">
        <ele>447.877197266</ele>
        <time>2015-09-10T13:09:50.081Z</time>
      </trkpt>
      <trkpt lat="46.05786" lon="4.59311">
        <ele>446.938262939</ele>
        <time>2015-09-10T13:09:57.137Z</time>
      </trkpt>
      <trkpt lat="46.05787" lon="4.59313">
        <ele>446.811553955</ele>
        <time>2015-09-10T13:09:58.082Z</time>
      </trkpt>
      <trkpt lat="46.05789" lon="4.59325">
        <ele>445.734161377</ele>
        <time>2015-09-10T13:10:05.142Z</time>
      </trkpt>
      <trkpt lat="46.05789" lon="4.59327">
        <ele>445.63092041</ele>
        <time>2015-09-10T13:10:06.082Z</time>
      </trkpt>
      <trkpt lat="46.05789" lon="4.59338">
        <ele>445.123138428</ele>
        <time>2015-09-10T13:10:13.138Z</time>
      </trkpt>
      <trkpt lat="46.0579" lon="4.5934">
        <ele>445.067474365</ele>
        <time>2015-09-10T13:10:14.087Z</time>
      </trkpt>
      <trkpt lat="46.05791" lon="4.59352">
        <ele>444.32901001</ele>
        <time>2015-09-10T13:10:20.152Z</time>
      </trkpt>
      <trkpt lat="46.05791" lon="4.59354">
        <ele>444.194366455</ele>
        <time>2015-09-10T13:10:21.103Z</time>
      </trkpt>
      <trkpt lat="46.05794" lon="4.59364">
        <ele>443.3934021</ele>
        <time>2015-09-10T13:10:27.196Z</time>
      </trkpt>
      <trkpt lat="46.05794" lon="4.59366">
        <ele>443.243713379</ele>
        <time>2015-09-10T13:10:28.097Z</time>
      </trkpt>
      <trkpt lat="46.05795" lon="4.59378">
        <ele>442.44619751</ele>
        <time>2015-09-10T13:10:35.153Z</time>
      </trkpt>
      <trkpt lat="46.05796" lon="4.5938">
        <ele>442.330780029</ele>
        <time>2015-09-10T13:10:36.098Z</time>
      </trkpt>
      <trkpt lat="46.05797" lon="4.59392">
        <ele>441.485321045</ele>
        <time>2015-09-10T13:10:43.138Z</time>
      </trkpt>
      <trkpt lat="46.05798" lon="4.59393">
        <ele>441.382720947</ele>
        <time>2015-09-10T13:10:44.113Z</time>
      </trkpt>
      <trkpt lat="46.05798" lon="4.59406">
        <ele>440.549713135</ele>
        <time>2015-09-10T13:10:52.139Z</time>
      </trkpt>
      <trkpt lat="46.05798" lon="4.59408">
        <ele>440.458709717</ele>
        <time>2015-09-10T13:10:53.099Z</time>
      </trkpt>
      <trkpt lat="46.05797" lon="4.5942">
        <ele>439.750213623</ele>
        <time>2015-09-10T13:11:01.113Z</time>
      </trkpt>
      <trkpt lat="46.05797" lon="4.59422">
        <ele>439.693267822</ele>
        <time>2015-09-10T13:11:02.092Z</time>
      </trkpt>
      <trkpt lat="46.05793" lon="4.59433">
        <ele>439.111602783</ele>
        <time>2015-09-10T13:11:09.128Z</time>
      </trkpt>
      <trkpt lat="46.05792" lon="4.59434">
        <ele>439.061523438</ele>
        <time>2015-09-10T13:11:10.086Z</time>
      </trkpt>
      <trkpt lat="46.05789" lon="4.59445">
        <ele>438.74206543</ele>
        <time>2015-09-10T13:11:17.137Z</time>
      </trkpt>
      <trkpt lat="46.05789" lon="4.59447">
        <ele>438.657623291</ele>
        <time>2015-09-10T13:11:18.107Z</time>
      </trkpt>
      <trkpt lat="46.05792" lon="4.59458">
        <ele>438.26663208</ele>
        <time>2015-09-10T13:11:26.14Z</time>
      </trkpt>
      <trkpt lat="46.05792" lon="4.5946">
        <ele>438.263305664</ele>
        <time>2015-09-10T13:11:27.123Z</time>
      </trkpt>
      <trkpt lat="46.05797" lon="4.59471">
        <ele>438.267730713</ele>
        <time>2015-09-10T13:11:34.148Z</time>
      </trkpt>
      <trkpt lat="46.05797" lon="4.59472">
        <ele>438.269897461</ele>
        <time>2015-09-10T13:11:35.105Z</time>
      </trkpt>
      <trkpt lat="46.05801" lon="4.59481">
        <ele>438.262451172</ele>
        <time>2015-09-10T13:11:41.135Z</time>
      </trkpt>
      <trkpt lat="46.05802" lon="4.59483">
        <ele>438.28994751</ele>
        <time>2015-09-10T13:11:42.113Z</time>
      </trkpt>
      <trkpt lat="46.05805" lon="4.59494">
        <ele>438.113250732</ele>
        <time>2015-09-10T13:11:49.136Z</time>
      </trkpt>
      <trkpt lat="46.05805" lon="4.59496">
        <ele>437.991424561</ele>
        <time>2015-09-10T13:11:50.119Z</time>
      </trkpt>
      <trkpt lat="46.0581" lon="4.59506">
        <ele>437.291015625</ele>
        <time>2015-09-10T13:11:56.145Z</time>
      </trkpt>
      <trkpt lat="46.05811" lon="4.59508">
        <ele>437.178405762</ele>
        <time>2015-09-10T13:11:57.105Z</time>
      </trkpt>
      <trkpt lat="46.05816" lon="4.59518">
        <ele>436.564086914</ele>
        <time>2015-09-10T13:12:04.151Z</time>
      </trkpt>
      <trkpt lat="46.05816" lon="4.59519">
        <ele>436.443664551</ele>
        <time>2015-09-10T13:12:05.104Z</time>
      </trkpt>
      <trkpt lat="46.0582" lon="4.59531">
        <ele>435.48059082</ele>
        <time>2015-09-10T13:12:12.159Z</time>
      </trkpt>
      <trkpt lat="46.0582" lon="4.59532">
        <ele>435.333404541</ele>
        <time>2015-09-10T13:12:13.121Z</time>
      </trkpt>
      <trkpt lat="46.05822" lon="4.59545">
        <ele>434.112426758</ele>
        <time>2015-09-10T13:12:31.117Z</time>
      </trkpt>
      <trkpt lat="46.05822" lon="4.59545">
        <ele>434.046356201</ele>
        <time>2015-09-10T13:12:32.122Z</time>
      </trkpt>
      <trkpt lat="46.05828" lon="4.59556">
        <ele>433.416107178</ele>
        <time>2015-09-10T13:12:40.147Z</time>
      </trkpt>
      <trkpt lat="46.05828" lon="4.59558">
        <ele>433.316314697</ele>
        <time>2015-09-10T13:12:41.111Z</time>
      </trkpt>
      <trkpt lat="46.05831" lon="4.59569">
        <ele>432.615844727</ele>
        <time>2015-09-10T13:12:47.209Z</time>
      </trkpt>
      <trkpt lat="46.05832" lon="4.5957">
        <ele>432.491546631</ele>
        <time>2015-09-10T13:12:48.115Z</time>
      </trkpt>
      <trkpt lat="46.05835" lon="4.59581">
        <ele>431.719696045</ele>
        <time>2015-09-10T13:12:54.139Z</time>
      </trkpt>
      <trkpt lat="46.05836" lon="4.59583">
        <ele>431.577301025</ele>
        <time>2015-09-10T13:12:55.108Z</time>
      </trkpt>
      <trkpt lat="46.0584" lon="4.59593">
        <ele>430.518188477</ele>
        <time>2015-09-10T13:13:02.152Z</time>
      </trkpt>
      <trkpt lat="46.05841" lon="4.59595">
        <ele>430.363433838</ele>
        <time>2015-09-10T13:13:03.098Z</time>
      </trkpt>
      <trkpt lat="46.05845" lon="4.59604">
        <ele>429.263519287</ele>
        <time>2015-09-10T13:13:10.208Z</time>
      </trkpt>
      <trkpt lat="46.05845" lon="4.59606">
        <ele>429.121124268</ele>
        <time>2015-09-10T13:13:11.095Z</time>
      </trkpt>
      <trkpt lat="46.05849" lon="4.59616">
        <ele>428.109375</ele>
        <time>2015-09-10T13:13:17.132Z</time>
      </trkpt>
      <trkpt lat="46.05849" lon="4.59618">
        <ele>427.933929443</ele>
        <time>2015-09-10T13:13:18.099Z</time>
      </trkpt>
      <trkpt lat="46.05851" lon="4.59629">
        <ele>426.657165527</ele>
        <time>2015-09-10T13:13:25.127Z</time>
      </trkpt>
      <trkpt lat="46.05852" lon="4.59631">
        <ele>426.484649658</ele>
        <time>2015-09-10T13:13:26.091Z</time>
      </trkpt>
      <trkpt lat="46.05853" lon="4.59643">
        <ele>425.475738525</ele>
        <time>2015-09-10T13:13:33.133Z</time>
      </trkpt>
      <trkpt lat="46.05853" lon="4.59644">
        <ele>425.342315674</ele>
        <time>2015-09-10T13:13:34.111Z</time>
      </trkpt>
      <trkpt lat="46.05855" lon="4.59655">
        <ele>424.465637207</ele>
        <time>2015-09-10T13:13:41.131Z</time>
      </trkpt>
      <trkpt lat="46.05855" lon="4.59657">
        <ele>424.332061768</ele>
        <time>2015-09-10T13:13:42.102Z</time>
      </trkpt>
      <trkpt lat="46.05856" lon="4.59669">
        <ele>423.72164917</ele>
        <time>2015-09-10T13:13:49.172Z</time>
      </trkpt>
      <trkpt lat="46.05856" lon="4.59671">
        <ele>423.641967773</ele>
        <time>2015-09-10T13:13:50.118Z</time>
      </trkpt>
      <trkpt lat="46.05858" lon="4.59683">
        <ele>423.069244385</ele>
        <time>2015-09-10T13:13:57.135Z</time>
      </trkpt>
      <trkpt lat="46.05858" lon="4.59684">
        <ele>422.979034424</ele>
        <time>2015-09-10T13:13:58.107Z</time>
      </trkpt>
      <trkpt lat="46.05861" lon="4.59695">
        <ele>422.512390137</ele>
        <time>2015-09-10T13:14:04.133Z</time>
      </trkpt>
      <trkpt lat="46.05862" lon="4.59696">
        <ele>422.41897583</ele>
        <time>2015-09-10T13:14:05.094Z</time>
      </trkpt>
      <trkpt lat="46.05864" lon="4.59707">
        <ele>421.94329834</ele>
        <time>2015-09-10T13:14:11.128Z</time>
      </trkpt>
      <trkpt lat="46.05865" lon="4.59709">
        <ele>421.853820801</ele>
        <time>2015-09-10T13:14:12.103Z</time>
      </trkpt>
      <trkpt lat="46.05868" lon="4.5972">
        <ele>421.264862061</ele>
        <time>2015-09-10T13:14:18.137Z</time>
      </trkpt>
      <trkpt lat="46.05868" lon="4.59721">
        <ele>421.15335083</ele>
        <time>2015-09-10T13:14:19.112Z</time>
      </trkpt>
      <trkpt lat="46.05871" lon="4.59732">
        <ele>420.496612549</ele>
        <time>2015-09-10T13:14:25.145Z</time>
      </trkpt>
      <trkpt lat="46.05872" lon="4.59734">
        <ele>420.384033203</ele>
        <time>2015-09-10T13:14:26.097Z</time>
      </trkpt>
      <trkpt lat="46.05874" lon="4.59745">
        <ele>419.817504883</ele>
        <time>2015-09-10T13:14:33.098Z</time>
      </trkpt>
      <trkpt lat="46.05875" lon="4.59747">
        <ele>419.769989014</ele>
        <time>2015-09-10T13:14:34.09Z</time>
      </trkpt>
      <trkpt lat="46.05877" lon="4.59758">
        <ele>419.271087646</ele>
        <time>2015-09-10T13:14:40.136Z</time>
      </trkpt>
      <trkpt lat="46.05878" lon="4.5976">
        <ele>419.212860107</ele>
        <time>2015-09-10T13:14:41.076Z</time>
      </trkpt>
      <trkpt lat="46.0588" lon="4.59773">
        <ele>418.888702393</ele>
        <time>2015-09-10T13:14:48.127Z</time>
      </trkpt>
      <trkpt lat="46.0588" lon="4.59774">
        <ele>418.835021973</ele>
        <time>2015-09-10T13:14:49.097Z</time>
      </trkpt>
      <trkpt lat="46.05881" lon="4.59786">
        <ele>418.513061523</ele>
        <time>2015-09-10T13:14:56.122Z</time>
      </trkpt>
      <trkpt lat="46.05882" lon="4.59788">
        <ele>418.485321045</ele>
        <time>2015-09-10T13:14:57.097Z</time>
      </trkpt>
      <trkpt lat="46.05883" lon="4.59799">
        <ele>418.309082031</ele>
        <time>2015-09-10T13:15:03.127Z</time>
      </trkpt>
      <trkpt lat="46.05883" lon="4.59801">
        <ele>418.296539307</ele>
        <time>2015-09-10T13:15:04.097Z</time>
      </trkpt>
      <trkpt lat="46.05884" lon="4.59813">
        <ele>418.138427734</ele>
        <time>2015-09-10T13:15:12.12Z</time>
      </trkpt>
      <trkpt lat="46.05884" lon="4.59814">
        <ele>418.149841309</ele>
        <time>2015-09-10T13:15:13.111Z</time>
      </trkpt>
      <trkpt lat="46.05885" lon="4.59826">
        <ele>417.92590332</ele>
        <time>2015-09-10T13:15:20.139Z</time>
      </trkpt>
      <trkpt lat="46.05885" lon="4.59827">
        <ele>417.856414795</ele>
        <time>2015-09-10T13:15:21.103Z</time>
      </trkpt>
      <trkpt lat="46.05885" lon="4.59838">
        <ele>417.355072021</ele>
        <time>2015-09-10T13:15:28.397Z</time>
      </trkpt>
      <trkpt lat="46.05885" lon="4.5984">
        <ele>417.258148193</ele>
        <time>2015-09-10T13:15:29.114Z</time>
      </trkpt>
      <trkpt lat="46.05885" lon="4.59852">
        <ele>416.438079834</ele>
        <time>2015-09-10T13:15:36.132Z</time>
      </trkpt>
      <trkpt lat="46.05885" lon="4.59854">
        <ele>416.32901001</ele>
        <time>2015-09-10T13:15:37.096Z</time>
      </trkpt>
      <trkpt lat="46.05886" lon="4.59866">
        <ele>415.417755127</ele>
        <time>2015-09-10T13:15:45.125Z</time>
      </trkpt>
      <trkpt lat="46.05886" lon="4.59867">
        <ele>415.304656982</ele>
        <time>2015-09-10T13:15:46.099Z</time>
      </trkpt>
      <trkpt lat="46.05887" lon="4.59879">
        <ele>414.435241699</ele>
        <time>2015-09-10T13:15:53.129Z</time>
      </trkpt>
      <trkpt lat="46.05887" lon="4.59881">
        <ele>414.29788208</ele>
        <time>2015-09-10T13:15:54.111Z</time>
      </trkpt>
      <trkpt lat="46.05888" lon="4.59892">
        <ele>413.438446045</ele>
        <time>2015-09-10T13:16:01.133Z</time>
      </trkpt>
      <trkpt lat="46.05888" lon="4.59894">
        <ele>413.31262207</ele>
        <time>2015-09-10T13:16:02.128Z</time>
      </trkpt>
      <trkpt lat="46.05888" lon="4.59906">
        <ele>412.561340332</ele>
        <time>2015-09-10T13:16:08.142Z</time>
      </trkpt>
      <trkpt lat="46.05889" lon="4.59908">
        <ele>412.494903564</ele>
        <time>2015-09-10T13:16:09.112Z</time>
      </trkpt>
      <trkpt lat="46.0589" lon="4.5992">
        <ele>411.833953857</ele>
        <time>2015-09-10T13:16:17.15Z</time>
      </trkpt>
      <trkpt lat="46.0589" lon="4.59922">
        <ele>411.731292725</ele>
        <time>2015-09-10T13:16:18.101Z</time>
      </trkpt>
      <trkpt lat="46.0589" lon="4.59932">
        <ele>410.592529297</ele>
        <time>2015-09-10T13:16:25.137Z</time>
      </trkpt>
      <trkpt lat="46.05891" lon="4.59934">
        <ele>410.420379639</ele>
        <time>2015-09-10T13:16:26.131Z</time>
      </trkpt>
      <trkpt lat="46.05891" lon="4.59947">
        <ele>409.112304688</ele>
        <time>2015-09-10T13:16:33.133Z</time>
      </trkpt>
      <trkpt lat="46.05891" lon="4.59949">
        <ele>408.925964355</ele>
        <time>2015-09-10T13:16:34.112Z</time>
      </trkpt>
      <trkpt lat="46.05892" lon="4.5996">
        <ele>407.806732178</ele>
        <time>2015-09-10T13:16:40.131Z</time>
      </trkpt>
      <trkpt lat="46.05892" lon="4.59962">
        <ele>407.610656738</ele>
        <time>2015-09-10T13:16:41.105Z</time>
      </trkpt>
      <trkpt lat="46.05893" lon="4.59974">
        <ele>405.542755127</ele>
        <time>2015-09-10T13:16:50.129Z</time>
      </trkpt>
      <trkpt lat="46.05893" lon="4.59976">
        <ele>405.325317383</ele>
        <time>2015-09-10T13:16:51.113Z</time>
      </trkpt>
      <trkpt lat="46.05894" lon="4.59987">
        <ele>403.558013916</ele>
        <time>2015-09-10T13:16:59.147Z</time>
      </trkpt>
      <trkpt lat="46.05895" lon="4.59989">
        <ele>403.362426758</ele>
        <time>2015-09-10T13:17:00.106Z</time>
      </trkpt>
      <trkpt lat="46.05897" lon="4.6">
        <ele>401.640716553</ele>
        <time>2015-09-10T13:17:09.13Z</time>
      </trkpt>
      <trkpt lat="46.05897" lon="4.60001">
        <ele>401.455505371</ele>
        <time>2015-09-10T13:17:10.112Z</time>
      </trkpt>
      <trkpt lat="46.059" lon="4.60013">
        <ele>399.666656494</ele>
        <time>2015-09-10T13:17:20.222Z</time>
      </trkpt>
      <trkpt lat="46.05901" lon="4.60015">
        <ele>399.5284729</ele>
        <time>2015-09-10T13:17:21.103Z</time>
      </trkpt>
      <trkpt lat="46.05904" lon="4.60025">
        <ele>398.461547852</ele>
        <time>2015-09-10T13:17:28.137Z</time>
      </trkpt>
      <trkpt lat="46.05905" lon="4.60027">
        <ele>398.296325684</ele>
        <time>2015-09-10T13:17:29.102Z</time>
      </trkpt>
      <trkpt lat="46.05907" lon="4.60039">
        <ele>396.341400146</ele>
        <time>2015-09-10T13:17:39.145Z</time>
      </trkpt>
      <trkpt lat="46.05907" lon="4.6004">
        <ele>396.112426758</ele>
        <time>2015-09-10T13:17:40.108Z</time>
      </trkpt>
      <trkpt lat="46.05908" lon="4.60053">
        <ele>394.109802246</ele>
        <time>2015-09-10T13:17:52.183Z</time>
      </trkpt>
      <trkpt lat="46.05908" lon="4.60054">
        <ele>393.968780518</ele>
        <time>2015-09-10T13:17:53.122Z</time>
      </trkpt>
      <trkpt lat="46.0591" lon="4.60066">
        <ele>392.883972168</ele>
        <time>2015-09-10T13:18:01.139Z</time>
      </trkpt>
      <trkpt lat="46.0591" lon="4.60068">
        <ele>392.752319336</ele>
        <time>2015-09-10T13:18:02.096Z</time>
      </trkpt>
      <trkpt lat="46.05912" lon="4.60079">
        <ele>391.757965088</ele>
        <time>2015-09-10T13:18:10.11Z</time>
      </trkpt>
      <trkpt lat="46.05912" lon="4.60081">
        <ele>391.678527832</ele>
        <time>2015-09-10T13:18:11.105Z</time>
      </trkpt>
      <trkpt lat="46.05912" lon="4.60093">
        <ele>391.026245117</ele>
        <time>2015-09-10T13:18:19.135Z</time>
      </trkpt>
      <trkpt lat="46.05912" lon="4.60095">
        <ele>391.023040771</ele>
        <time>2015-09-10T13:18:20.111Z</time>
      </trkpt>
      <trkpt lat="46.05914" lon="4.60107">
        <ele>390.492462158</ele>
        <time>2015-09-10T13:18:27.146Z</time>
      </trkpt>
      <trkpt lat="46.05915" lon="4.60109">
        <ele>390.383422852</ele>
        <time>2015-09-10T13:18:28.108Z</time>
      </trkpt>
      <trkpt lat="46.05917" lon="4.6012">
        <ele>389.590515137</ele>
        <time>2015-09-10T13:18:34.144Z</time>
      </trkpt>
      <trkpt lat="46.05918" lon="4.60121">
        <ele>389.454437256</ele>
        <time>2015-09-10T13:18:35.096Z</time>
      </trkpt>
      <trkpt lat="46.05921" lon="4.60133">
        <ele>388.366821289</ele>
        <time>2015-09-10T13:18:43.132Z</time>
      </trkpt>
      <trkpt lat="46.05921" lon="4.60134">
        <ele>388.20703125</ele>
        <time>2015-09-10T13:18:44.112Z</time>
      </trkpt>
      <trkpt lat="46.05922" lon="4.60146">
        <ele>387.068817139</ele>
        <time>2015-09-10T13:18:52.128Z</time>
      </trkpt>
      <trkpt lat="46.05923" lon="4.60147">
        <ele>386.898681641</ele>
        <time>2015-09-10T13:18:53.107Z</time>
      </trkpt>
      <trkpt lat="46.05927" lon="4.60158">
        <ele>385.778045654</ele>
        <time>2015-09-10T13:19:01.143Z</time>
      </trkpt>
      <trkpt lat="46.05928" lon="4.6016">
        <ele>385.714813232</ele>
        <time>2015-09-10T13:19:02.096Z</time>
      </trkpt>
      <trkpt lat="46.05931" lon="4.60171">
        <ele>385.122406006</ele>
        <time>2015-09-10T13:19:08.122Z</time>
      </trkpt>
      <trkpt lat="46.05932" lon="4.60173">
        <ele>384.984771729</ele>
        <time>2015-09-10T13:19:09.094Z</time>
      </trkpt>
      <trkpt lat="46.05935" lon="4.60184">
        <ele>384.058319092</ele>
        <time>2015-09-10T13:19:15.12Z</time>
      </trkpt>
      <trkpt lat="46.05935" lon="4.60186">
        <ele>383.851806641</ele>
        <time>2015-09-10T13:19:16.074Z</time>
      </trkpt>
      <trkpt lat="46.05937" lon="4.60197">
        <ele>382.508758545</ele>
        <time>2015-09-10T13:19:22.136Z</time>
      </trkpt>
      <trkpt lat="46.05937" lon="4.60199">
        <ele>382.245178223</ele>
        <time>2015-09-10T13:19:23.078Z</time>
      </trkpt>
      <trkpt lat="46.05939" lon="4.60211">
        <ele>380.75592041</ele>
        <time>2015-09-10T13:19:30.137Z</time>
      </trkpt>
      <trkpt lat="46.05939" lon="4.60212">
        <ele>380.55960083</ele>
        <time>2015-09-10T13:19:31.089Z</time>
      </trkpt>
      <trkpt lat="46.0594" lon="4.60223">
        <ele>379.348693848</ele>
        <time>2015-09-10T13:19:36.152Z</time>
      </trkpt>
      <trkpt lat="46.05939" lon="4.60225">
        <ele>379.141143799</ele>
        <time>2015-09-10T13:19:37.104Z</time>
      </trkpt>
      <trkpt lat="46.05936" lon="4.60237">
        <ele>377.368469238</ele>
        <time>2015-09-10T13:19:44.097Z</time>
      </trkpt>
      <trkpt lat="46.05935" lon="4.60238">
        <ele>377.11706543</ele>
        <time>2015-09-10T13:19:45.103Z</time>
      </trkpt>
      <trkpt lat="46.0593" lon="4.60249">
        <ele>375.483947754</ele>
        <time>2015-09-10T13:19:52.249Z</time>
      </trkpt>
      <trkpt lat="46.0593" lon="4.6025">
        <ele>375.260040283</ele>
        <time>2015-09-10T13:19:53.105Z</time>
      </trkpt>
      <trkpt lat="46.05926" lon="4.60261">
        <ele>372.980163574</ele>
        <time>2015-09-10T13:20:01.096Z</time>
      </trkpt>
      <trkpt lat="46.05925" lon="4.60262">
        <ele>372.666656494</ele>
        <time>2015-09-10T13:20:02.112Z</time>
      </trkpt>
      <trkpt lat="46.05919" lon="4.60269">
        <ele>370.935119629</ele>
        <time>2015-09-10T13:20:09.232Z</time>
      </trkpt>
      <trkpt lat="46.05918" lon="4.6027">
        <ele>370.710693359</ele>
        <time>2015-09-10T13:20:10.076Z</time>
      </trkpt>
      <trkpt lat="46.05913" lon="4.60281">
        <ele>369.482635498</ele>
        <time>2015-09-10T13:20:18.257Z</time>
      </trkpt>
      <trkpt lat="46.05912" lon="4.60282">
        <ele>369.355560303</ele>
        <time>2015-09-10T13:20:19.096Z</time>
      </trkpt>
      <trkpt lat="46.0591" lon="4.60292">
        <ele>368.586486816</ele>
        <time>2015-09-10T13:20:25.125Z</time>
      </trkpt>
      <trkpt lat="46.0591" lon="4.60295">
        <ele>368.426971436</ele>
        <time>2015-09-10T13:20:26.077Z</time>
      </trkpt>
      <trkpt lat="46.05908" lon="4.60307">
        <ele>367.354003906</ele>
        <time>2015-09-10T13:20:32.137Z</time>
      </trkpt>
      <trkpt lat="46.05907" lon="4.60309">
        <ele>367.116882324</ele>
        <time>2015-09-10T13:20:33.098Z</time>
      </trkpt>
      <trkpt lat="46.05906" lon="4.60321">
        <ele>366.141082764</ele>
        <time>2015-09-10T13:20:40.124Z</time>
      </trkpt>
      <trkpt lat="46.05906" lon="4.60323">
        <ele>365.989044189</ele>
        <time>2015-09-10T13:20:41.112Z</time>
      </trkpt>
      <trkpt lat="46.05907" lon="4.60336">
        <ele>365.18850708</ele>
        <time>2015-09-10T13:20:48.126Z</time>
      </trkpt>
      <trkpt lat="46.05908" lon="4.60338">
        <ele>365.100219727</ele>
        <time>2015-09-10T13:20:49.102Z</time>
      </trkpt>
      <trkpt lat="46.05908" lon="4.60349">
        <ele>364.528930664</ele>
        <time>2015-09-10T13:20:55.125Z</time>
      </trkpt>
      <trkpt lat="46.05909" lon="4.60352">
        <ele>364.384124756</ele>
        <time>2015-09-10T13:20:56.104Z</time>
      </trkpt>
      <trkpt lat="46.05909" lon="4.60363">
        <ele>363.628936768</ele>
        <time>2015-09-10T13:21:02.125Z</time>
      </trkpt>
      <trkpt lat="46.05908" lon="4.60365">
        <ele>363.507080078</ele>
        <time>2015-09-10T13:21:03.097Z</time>
      </trkpt>
      <trkpt lat="46.05906" lon="4.60377">
        <ele>362.63458252</ele>
        <time>2015-09-10T13:21:10.107Z</time>
      </trkpt>
      <trkpt lat="46.05906" lon="4.60379">
        <ele>362.483276367</ele>
        <time>2015-09-10T13:21:11.104Z</time>
      </trkpt>
      <trkpt lat="46.05904" lon="4.60391">
        <ele>361.715026855</ele>
        <time>2015-09-10T13:21:17.33Z</time>
      </trkpt>
      <trkpt lat="46.05904" lon="4.60393">
        <ele>361.537658691</ele>
        <time>2015-09-10T13:21:18.11Z</time>
      </trkpt>
      <trkpt lat="46.05902" lon="4.60403">
        <ele>360.675170898</ele>
        <time>2015-09-10T13:21:23.132Z</time>
      </trkpt>
      <trkpt lat="46.05901" lon="4.60405">
        <ele>360.527709961</ele>
        <time>2015-09-10T13:21:24.103Z</time>
      </trkpt>
      <trkpt lat="46.05897" lon="4.60417">
        <ele>359.04989624</ele>
        <time>2015-09-10T13:21:32.123Z</time>
      </trkpt>
      <trkpt lat="46.05897" lon="4.60418">
        <ele>358.876800537</ele>
        <time>2015-09-10T13:21:33.094Z</time>
      </trkpt>
      <trkpt lat="46.05891" lon="4.60427">
        <ele>357.349304199</ele>
        <time>2015-09-10T13:21:40.125Z</time>
      </trkpt>
      <trkpt lat="46.0589" lon="4.60428">
        <ele>357.13092041</ele>
        <time>2015-09-10T13:21:41.096Z</time>
      </trkpt>
      <trkpt lat="46.05883" lon="4.60432">
        <ele>355.202301025</ele>
        <time>2015-09-10T13:21:49.135Z</time>
      </trkpt>
      <trkpt lat="46.05881" lon="4.60432">
        <ele>354.958770752</ele>
        <time>2015-09-10T13:21:50.103Z</time>
      </trkpt>
      <trkpt lat="46.05881" lon="4.60444">
        <ele>349.783843994</ele>
        <time>2015-09-10T13:22:27.138Z</time>
      </trkpt>
      <trkpt lat="46.05881" lon="4.60445">
        <ele>349.687469482</ele>
        <time>2015-09-10T13:22:28.098Z</time>
      </trkpt>
      <trkpt lat="46.05879" lon="4.60456">
        <ele>349.005950928</ele>
        <time>2015-09-10T13:22:35.153Z</time>
      </trkpt>
      <trkpt lat="46.05879" lon="4.60459">
        <ele>348.904998779</ele>
        <time>2015-09-10T13:22:36.101Z</time>
      </trkpt>
      <trkpt lat="46.05878" lon="4.60471">
        <ele>348.00213623</ele>
        <time>2015-09-10T13:22:45.175Z</time>
      </trkpt>
      <trkpt lat="46.05878" lon="4.60473">
        <ele>347.929504395</ele>
        <time>2015-09-10T13:22:46.107Z</time>
      </trkpt>
      <trkpt lat="46.05875" lon="4.60485">
        <ele>347.423828125</ele>
        <time>2015-09-10T13:22:55.143Z</time>
      </trkpt>
      <trkpt lat="46.05875" lon="4.60487">
        <ele>347.364593506</ele>
        <time>2015-09-10T13:22:56.107Z</time>
      </trkpt>
      <trkpt lat="46.05874" lon="4.605">
        <ele>346.051452637</ele>
        <time>2015-09-10T13:23:05.134Z</time>
      </trkpt>
      <trkpt lat="46.05874" lon="4.60501">
        <ele>345.857635498</ele>
        <time>2015-09-10T13:23:06.09Z</time>
      </trkpt>
      <trkpt lat="46.05873" lon="4.60514">
        <ele>345.368988037</ele>
        <time>2015-09-10T13:23:15.144Z</time>
      </trkpt>
      <trkpt lat="46.05872" lon="4.60516">
        <ele>345.373138428</ele>
        <time>2015-09-10T13:23:16.101Z</time>
      </trkpt>
      <trkpt lat="46.05871" lon="4.60527">
        <ele>345.192016602</ele>
        <time>2015-09-10T13:23:24.128Z</time>
      </trkpt>
      <trkpt lat="46.05871" lon="4.60528">
        <ele>345.150726318</ele>
        <time>2015-09-10T13:23:25.096Z</time>
      </trkpt>
      <trkpt lat="46.05871" lon="4.60541">
        <ele>344.425842285</ele>
        <time>2015-09-10T13:23:34.146Z</time>
      </trkpt>
      <trkpt lat="46.05872" lon="4.60542">
        <ele>344.240234375</ele>
        <time>2015-09-10T13:23:35.105Z</time>
      </trkpt>
      <trkpt lat="46.05879" lon="4.60548">
        <ele>342.749755859</ele>
        <time>2015-09-10T13:23:45.13Z</time>
      </trkpt>
      <trkpt lat="46.05879" lon="4.60549">
        <ele>342.50894165</ele>
        <time>2015-09-10T13:23:46.087Z</time>
      </trkpt>
      <trkpt lat="46.05885" lon="4.60558">
        <ele>339.998352051</ele>
        <time>2015-09-10T13:23:59.135Z</time>
      </trkpt>
      <trkpt lat="46.05886" lon="4.6056">
        <ele>339.803344727</ele>
        <time>2015-09-10T13:24:00.067Z</time>
      </trkpt>
      <trkpt lat="46.05891" lon="4.60567">
        <ele>338.890808105</ele>
        <time>2015-09-10T13:24:07.245Z</time>
      </trkpt>
      <trkpt lat="46.05892" lon="4.60568">
        <ele>338.851287842</ele>
        <time>2015-09-10T13:24:08.067Z</time>
      </trkpt>
      <trkpt lat="46.05897" lon="4.60574">
        <ele>338.708435059</ele>
        <time>2015-09-10T13:24:11.121Z</time>
      </trkpt>
      <trkpt lat="46.059" lon="4.60576">
        <ele>338.572387695</ele>
        <time>2015-09-10T13:24:12.068Z</time>
      </trkpt>
      <trkpt lat="46.05905" lon="4.60587">
        <ele>337.066101074</ele>
        <time>2015-09-10T13:24:25.125Z</time>
      </trkpt>
      <trkpt lat="46.05905" lon="4.60589">
        <ele>337.041931152</ele>
        <time>2015-09-10T13:24:26.068Z</time>
      </trkpt>
      <trkpt lat="46.05906" lon="4.60602">
        <ele>336.311859131</ele>
        <time>2015-09-10T13:24:32.139Z</time>
      </trkpt>
      <trkpt lat="46.05906" lon="4.60603">
        <ele>336.20803833</ele>
        <time>2015-09-10T13:24:33.091Z</time>
      </trkpt>
      <trkpt lat="46.05904" lon="4.60615">
        <ele>335.913330078</ele>
        <time>2015-09-10T13:24:42.124Z</time>
      </trkpt>
      <trkpt lat="46.05903" lon="4.60617">
        <ele>335.80368042</ele>
        <time>2015-09-10T13:24:43.095Z</time>
      </trkpt>
      <trkpt lat="46.05903" lon="4.60629">
        <ele>335.439300537</ele>
        <time>2015-09-10T13:24:49.13Z</time>
      </trkpt>
      <trkpt lat="46.05902" lon="4.60631">
        <ele>335.337982178</ele>
        <time>2015-09-10T13:24:50.071Z</time>
      </trkpt>
      <trkpt lat="46.05901" lon="4.60642">
        <ele>335.039337158</ele>
        <time>2015-09-10T13:24:55.185Z</time>
      </trkpt>
      <trkpt lat="46.05901" lon="4.60644">
        <ele>334.952850342</ele>
        <time>2015-09-10T13:24:56.095Z</time>
      </trkpt>
      <trkpt lat="46.059" lon="4.60657">
        <ele>334.519378662</ele>
        <time>2015-09-10T13:25:03.14Z</time>
      </trkpt>
      <trkpt lat="46.059" lon="4.60658">
        <ele>334.493499756</ele>
        <time>2015-09-10T13:25:04.089Z</time>
      </trkpt>
      <trkpt lat="46.05898" lon="4.6067">
        <ele>334.515136719</ele>
        <time>2015-09-10T13:25:11.203Z</time>
      </trkpt>
      <trkpt lat="46.05898" lon="4.60672">
        <ele>334.533782959</ele>
        <time>2015-09-10T13:25:12.095Z</time>
      </trkpt>
      <trkpt lat="46.05896" lon="4.60684">
        <ele>334.660766602</ele>
        <time>2015-09-10T13:25:18.122Z</time>
      </trkpt>
      <trkpt lat="46.05896" lon="4.60685">
        <ele>334.640991211</ele>
        <time>2015-09-10T13:25:19.073Z</time>
      </trkpt>
      <trkpt lat="46.05897" lon="4.60697">
        <ele>334.268127441</ele>
        <time>2015-09-10T13:25:25.129Z</time>
      </trkpt>
      <trkpt lat="46.05897" lon="4.60699">
        <ele>334.153320312</ele>
        <time>2015-09-10T13:25:26.073Z</time>
      </trkpt>
      <trkpt lat="46.05897" lon="4.60712">
        <ele>333.431304932</ele>
        <time>2015-09-10T13:25:32.128Z</time>
      </trkpt>
      <trkpt lat="46.05898" lon="4.60714">
        <ele>333.319335938</ele>
        <time>2015-09-10T13:25:33.102Z</time>
      </trkpt>
      <trkpt lat="46.05898" lon="4.60725">
        <ele>332.790466309</ele>
        <time>2015-09-10T13:25:38.144Z</time>
      </trkpt>
      <trkpt lat="46.05899" lon="4.60727">
        <ele>332.627593994</ele>
        <time>2015-09-10T13:25:39.096Z</time>
      </trkpt>
      <trkpt lat="46.05899" lon="4.60739">
        <ele>331.461334229</ele>
        <time>2015-09-10T13:25:45.12Z</time>
      </trkpt>
      <trkpt lat="46.05899" lon="4.60741">
        <ele>331.271392822</ele>
        <time>2015-09-10T13:25:46.102Z</time>
      </trkpt>
      <trkpt lat="46.05898" lon="4.60754">
        <ele>330.226409912</ele>
        <time>2015-09-10T13:25:53.127Z</time>
      </trkpt>
      <trkpt lat="46.05898" lon="4.60755">
        <ele>330.107208252</ele>
        <time>2015-09-10T13:25:54.105Z</time>
      </trkpt>
      <trkpt lat="46.05896" lon="4.60767">
        <ele>329.539733887</ele>
        <time>2015-09-10T13:26:00.123Z</time>
      </trkpt>
      <trkpt lat="46.05896" lon="4.60768">
        <ele>329.477233887</ele>
        <time>2015-09-10T13:26:01.103Z</time>
      </trkpt>
      <trkpt lat="46.05894" lon="4.60781">
        <ele>329.190765381</ele>
        <time>2015-09-10T13:26:08.149Z</time>
      </trkpt>
      <trkpt lat="46.05894" lon="4.60782">
        <ele>329.152740479</ele>
        <time>2015-09-10T13:26:09.111Z</time>
      </trkpt>
      <trkpt lat="46.05893" lon="4.60793">
        <ele>329.140533447</ele>
        <time>2015-09-10T13:26:16.123Z</time>
      </trkpt>
      <trkpt lat="46.05893" lon="4.60795">
        <ele>329.113708496</ele>
        <time>2015-09-10T13:26:17.087Z</time>
      </trkpt>
      <trkpt lat="46.05891" lon="4.60808">
        <ele>329.041778564</ele>
        <time>2015-09-10T13:26:24.256Z</time>
      </trkpt>
      <trkpt lat="46.05891" lon="4.6081">
        <ele>329.012329102</ele>
        <time>2015-09-10T13:26:25.096Z</time>
      </trkpt>
      <trkpt lat="46.0589" lon="4.60822">
        <ele>329.139709473</ele>
        <time>2015-09-10T13:26:32.135Z</time>
      </trkpt>
      <trkpt lat="46.0589" lon="4.60824">
        <ele>329.164459229</ele>
        <time>2015-09-10T13:26:33.096Z</time>
      </trkpt>
      <trkpt lat="46.05891" lon="4.60836">
        <ele>328.943084717</ele>
        <time>2015-09-10T13:26:39.124Z</time>
      </trkpt>
      <trkpt lat="46.05891" lon="4.60838">
        <ele>328.927490234</ele>
        <time>2015-09-10T13:26:40.093Z</time>
      </trkpt>
      <trkpt lat="46.05891" lon="4.6085">
        <ele>328.786956787</ele>
        <time>2015-09-10T13:26:46.123Z</time>
      </trkpt>
      <trkpt lat="46.05891" lon="4.60852">
        <ele>328.751739502</ele>
        <time>2015-09-10T13:26:47.08Z</time>
      </trkpt>
      <trkpt lat="46.0589" lon="4.60863">
        <ele>328.680664062</ele>
        <time>2015-09-10T13:26:54.124Z</time>
      </trkpt>
      <trkpt lat="46.05889" lon="4.60865">
        <ele>328.699157715</ele>
        <time>2015-09-10T13:26:55.079Z</time>
      </trkpt>
      <trkpt lat="46.05889" lon="4.60877">
        <ele>329.009002686</ele>
        <time>2015-09-10T13:27:02.131Z</time>
      </trkpt>
      <trkpt lat="46.05888" lon="4.60879">
        <ele>329.028137207</ele>
        <time>2015-09-10T13:27:03.081Z</time>
      </trkpt>
      <trkpt lat="46.05888" lon="4.60891">
        <ele>329.033447266</ele>
        <time>2015-09-10T13:27:09.131Z</time>
      </trkpt>
      <trkpt lat="46.05888" lon="4.60893">
        <ele>329.044067383</ele>
        <time>2015-09-10T13:27:10.103Z</time>
      </trkpt>
      <trkpt lat="46.05887" lon="4.60905">
        <ele>329.27947998</ele>
        <time>2015-09-10T13:27:17.143Z</time>
      </trkpt>
      <trkpt lat="46.05887" lon="4.60907">
        <ele>329.273406982</ele>
        <time>2015-09-10T13:27:18.103Z</time>
      </trkpt>
      <trkpt lat="46.05886" lon="4.60919">
        <ele>329.598144531</ele>
        <time>2015-09-10T13:27:27.132Z</time>
      </trkpt>
      <trkpt lat="46.05887" lon="4.60921">
        <ele>329.577575684</ele>
        <time>2015-09-10T13:27:28.126Z</time>
      </trkpt>
      <trkpt lat="46.05894" lon="4.60928">
        <ele>329.063232422</ele>
        <time>2015-09-10T13:27:33.138Z</time>
      </trkpt>
      <trkpt lat="46.05895" lon="4.60928">
        <ele>328.942718506</ele>
        <time>2015-09-10T13:27:34.112Z</time>
      </trkpt>
      <trkpt lat="46.05903" lon="4.6093">
        <ele>328.343261719</ele>
        <time>2015-09-10T13:27:42.132Z</time>
      </trkpt>
      <trkpt lat="46.05904" lon="4.60931">
        <ele>328.315582275</ele>
        <time>2015-09-10T13:27:43.104Z</time>
      </trkpt>
      <trkpt lat="46.05912" lon="4.6093">
        <ele>327.965942383</ele>
        <time>2015-09-10T13:27:50.13Z</time>
      </trkpt>
      <trkpt lat="46.05913" lon="4.6093">
        <ele>327.901184082</ele>
        <time>2015-09-10T13:27:51.097Z</time>
      </trkpt>
      <trkpt lat="46.05922" lon="4.60933">
        <ele>327.802032471</ele>
        <time>2015-09-10T13:28:00.139Z</time>
      </trkpt>
      <trkpt lat="46.05923" lon="4.60933">
        <ele>327.844360352</ele>
        <time>2015-09-10T13:28:01.112Z</time>
      </trkpt>
      <trkpt lat="46.0593" lon="4.60938">
        <ele>327.847747803</ele>
        <time>2015-09-10T13:28:08.161Z</time>
      </trkpt>
      <trkpt lat="46.05931" lon="4.60939">
        <ele>327.844116211</ele>
        <time>2015-09-10T13:28:09.105Z</time>
      </trkpt>
      <trkpt lat="46.05939" lon="4.60944">
        <ele>328.140136719</ele>
        <time>2015-09-10T13:28:17.153Z</time>
      </trkpt>
      <trkpt lat="46.0594" lon="4.60944">
        <ele>328.214935303</ele>
        <time>2015-09-10T13:28:18.105Z</time>
      </trkpt>
      <trkpt lat="46.05948" lon="4.6095">
        <ele>328.513031006</ele>
        <time>2015-09-10T13:28:25.132Z</time>
      </trkpt>
      <trkpt lat="46.05948" lon="4.6095">
        <ele>328.538085938</ele>
        <time>2015-09-10T13:28:26.114Z</time>
      </trkpt>
      <trkpt lat="46.05955" lon="4.60955">
        <ele>328.665527344</ele>
        <time>2015-09-10T13:28:32.14Z</time>
      </trkpt>
      <trkpt lat="46.05957" lon="4.60956">
        <ele>328.642059326</ele>
        <time>2015-09-10T13:28:33.101Z</time>
      </trkpt>
      <trkpt lat="46.05964" lon="4.60959">
        <ele>328.541137695</ele>
        <time>2015-09-10T13:28:40.126Z</time>
      </trkpt>
      <trkpt lat="46.05966" lon="4.6096">
        <ele>328.55291748</ele>
        <time>2015-09-10T13:28:41.114Z</time>
      </trkpt>
      <trkpt lat="46.05973" lon="4.60965">
        <ele>329.088623047</ele>
        <time>2015-09-10T13:28:49.134Z</time>
      </trkpt>
      <trkpt lat="46.05974" lon="4.60965">
        <ele>329.114379883</ele>
        <time>2015-09-10T13:28:50.096Z</time>
      </trkpt>
      <trkpt lat="46.05983" lon="4.6097">
        <ele>329.536895752</ele>
        <time>2015-09-10T13:28:58.147Z</time>
      </trkpt>
      <trkpt lat="46.05984" lon="4.6097">
        <ele>329.572631836</ele>
        <time>2015-09-10T13:28:59.094Z</time>
      </trkpt>
      <trkpt lat="46.05992" lon="4.60975">
        <ele>329.64453125</ele>
        <time>2015-09-10T13:29:06.137Z</time>
      </trkpt>
      <trkpt lat="46.05993" lon="4.60976">
        <ele>329.635040283</ele>
        <time>2015-09-10T13:29:07.104Z</time>
      </trkpt>
      <trkpt lat="46.06001" lon="4.6098">
        <ele>329.589996338</ele>
        <time>2015-09-10T13:29:14.112Z</time>
      </trkpt>
      <trkpt lat="46.06002" lon="4.6098">
        <ele>329.572692871</ele>
        <time>2015-09-10T13:29:15.102Z</time>
      </trkpt>
      <trkpt lat="46.06011" lon="4.60983">
        <ele>329.568756104</ele>
        <time>2015-09-10T13:29:22.146Z</time>
      </trkpt>
      <trkpt lat="46.06012" lon="4.60983">
        <ele>329.567810059</ele>
        <time>2015-09-10T13:29:23.094Z</time>
      </trkpt>
      <trkpt lat="46.06019" lon="4.60987">
        <ele>329.544067383</ele>
        <time>2015-09-10T13:29:30.111Z</time>
      </trkpt>
      <trkpt lat="46.0602" lon="4.60988">
        <ele>329.56048584</ele>
        <time>2015-09-10T13:29:31.095Z</time>
      </trkpt>
      <trkpt lat="46.06027" lon="4.60995">
        <ele>330.322937012</ele>
        <time>2015-09-10T13:29:38.132Z</time>
      </trkpt>
      <trkpt lat="46.06029" lon="4.60996">
        <ele>330.450469971</ele>
        <time>2015-09-10T13:29:39.103Z</time>
      </trkpt>
      <trkpt lat="46.06033" lon="4.61005">
        <ele>330.897460938</ele>
        <time>2015-09-10T13:29:45.102Z</time>
      </trkpt>
      <trkpt lat="46.06033" lon="4.61007">
        <ele>330.97088623</ele>
        <time>2015-09-10T13:29:46.099Z</time>
      </trkpt>
      <trkpt lat="46.06038" lon="4.61017">
        <ele>332.000701904</ele>
        <time>2015-09-10T13:29:54.122Z</time>
      </trkpt>
      <trkpt lat="46.06038" lon="4.61019">
        <ele>332.131286621</ele>
        <time>2015-09-10T13:29:55.166Z</time>
      </trkpt>
      <trkpt lat="46.06042" lon="4.6103">
        <ele>332.638519287</ele>
        <time>2015-09-10T13:30:01.111Z</time>
      </trkpt>
      <trkpt lat="46.06043" lon="4.61032">
        <ele>332.732574463</ele>
        <time>2015-09-10T13:30:02.1Z</time>
      </trkpt>
      <trkpt lat="46.06044" lon="4.61043">
        <ele>333.168457031</ele>
        <time>2015-09-10T13:30:08.132Z</time>
      </trkpt>
      <trkpt lat="46.06045" lon="4.61045">
        <ele>333.209320068</ele>
        <time>2015-09-10T13:30:09.102Z</time>
      </trkpt>
      <trkpt lat="46.06049" lon="4.61056">
        <ele>333.21496582</ele>
        <time>2015-09-10T13:30:15.137Z</time>
      </trkpt>
      <trkpt lat="46.06049" lon="4.61057">
        <ele>333.240020752</ele>
        <time>2015-09-10T13:30:16.099Z</time>
      </trkpt>
      <trkpt lat="46.06051" lon="4.61069">
        <ele>333.537506104</ele>
        <time>2015-09-10T13:30:24.148Z</time>
      </trkpt>
      <trkpt lat="46.06052" lon="4.61072">
        <ele>333.559112549</ele>
        <time>2015-09-10T13:30:25.096Z</time>
      </trkpt>
      <trkpt lat="46.06054" lon="4.61084">
        <ele>333.56262207</ele>
        <time>2015-09-10T13:30:32.13Z</time>
      </trkpt>
      <trkpt lat="46.06055" lon="4.61086">
        <ele>333.553161621</ele>
        <time>2015-09-10T13:30:33.097Z</time>
      </trkpt>
      <trkpt lat="46.06057" lon="4.61097">
        <ele>333.507507324</ele>
        <time>2015-09-10T13:30:40.142Z</time>
      </trkpt>
      <trkpt lat="46.06058" lon="4.61099">
        <ele>333.518890381</ele>
        <time>2015-09-10T13:30:41.092Z</time>
      </trkpt>
      <trkpt lat="46.06059" lon="4.6111">
        <ele>333.728912354</ele>
        <time>2015-09-10T13:30:48.129Z</time>
      </trkpt>
      <trkpt lat="46.06059" lon="4.61112">
        <ele>333.751403809</ele>
        <time>2015-09-10T13:30:49.078Z</time>
      </trkpt>
      <trkpt lat="46.06061" lon="4.61124">
        <ele>334.048706055</ele>
        <time>2015-09-10T13:30:56.122Z</time>
      </trkpt>
      <trkpt lat="46.06061" lon="4.61126">
        <ele>334.077972412</ele>
        <time>2015-09-10T13:30:57.072Z</time>
      </trkpt>
      <trkpt lat="46.06063" lon="4.61138">
        <ele>334.277648926</ele>
        <time>2015-09-10T13:31:03.135Z</time>
      </trkpt>
      <trkpt lat="46.06064" lon="4.6114">
        <ele>334.303161621</ele>
        <time>2015-09-10T13:31:04.103Z</time>
      </trkpt>
      <trkpt lat="46.06067" lon="4.61152">
        <ele>334.409576416</ele>
        <time>2015-09-10T13:31:11.138Z</time>
      </trkpt>
      <trkpt lat="46.06067" lon="4.61154">
        <ele>334.432159424</ele>
        <time>2015-09-10T13:31:12.097Z</time>
      </trkpt>
      <trkpt lat="46.06073" lon="4.61163">
        <ele>334.490966797</ele>
        <time>2015-09-10T13:31:18.134Z</time>
      </trkpt>
      <trkpt lat="46.06074" lon="4.61164">
        <ele>334.483428955</ele>
        <time>2015-09-10T13:31:19.103Z</time>
      </trkpt>
      <trkpt lat="46.06081" lon="4.61173">
        <ele>334.622528076</ele>
        <time>2015-09-10T13:31:26.206Z</time>
      </trkpt>
      <trkpt lat="46.06081" lon="4.61174">
        <ele>334.699493408</ele>
        <time>2015-09-10T13:31:27.109Z</time>
      </trkpt>
      <trkpt lat="46.06088" lon="4.61181">
        <ele>335.001953125</ele>
        <time>2015-09-10T13:31:33.162Z</time>
      </trkpt>
      <trkpt lat="46.06089" lon="4.61182">
        <ele>335.054138184</ele>
        <time>2015-09-10T13:31:34.097Z</time>
      </trkpt>
      <trkpt lat="46.06095" lon="4.61191">
        <ele>335.529144287</ele>
        <time>2015-09-10T13:31:40.139Z</time>
      </trkpt>
      <trkpt lat="46.06096" lon="4.61192">
        <ele>335.597625732</ele>
        <time>2015-09-10T13:31:41.094Z</time>
      </trkpt>
      <trkpt lat="46.06102" lon="4.61201">
        <ele>336.295349121</ele>
        <time>2015-09-10T13:31:48.128Z</time>
      </trkpt>
      <trkpt lat="46.06103" lon="4.61203">
        <ele>336.4140625</ele>
        <time>2015-09-10T13:31:49.103Z</time>
      </trkpt>
      <trkpt lat="46.06106" lon="4.61214">
        <ele>336.572052002</ele>
        <time>2015-09-10T13:31:55.254Z</time>
      </trkpt>
      <trkpt lat="46.06106" lon="4.61216">
        <ele>336.537445068</ele>
        <time>2015-09-10T13:31:56.112Z</time>
      </trkpt>
      <trkpt lat="46.06104" lon="4.61227">
        <ele>336.393280029</ele>
        <time>2015-09-10T13:32:03.258Z</time>
      </trkpt>
      <trkpt lat="46.06104" lon="4.6123">
        <ele>336.375701904</ele>
        <time>2015-09-10T13:32:04.093Z</time>
      </trkpt>
      <trkpt lat="46.06105" lon="4.61243">
        <ele>336.431213379</ele>
        <time>2015-09-10T13:32:11.136Z</time>
      </trkpt>
      <trkpt lat="46.06105" lon="4.61244">
        <ele>336.457061768</ele>
        <time>2015-09-10T13:32:12.111Z</time>
      </trkpt>
      <trkpt lat="46.06104" lon="4.61256">
        <ele>336.540008545</ele>
        <time>2015-09-10T13:32:18.102Z</time>
      </trkpt>
      <trkpt lat="46.06104" lon="4.61258">
        <ele>336.548919678</ele>
        <time>2015-09-10T13:32:19.107Z</time>
      </trkpt>
      <trkpt lat="46.06104" lon="4.6127">
        <ele>336.366088867</ele>
        <time>2015-09-10T13:32:25.126Z</time>
      </trkpt>
      <trkpt lat="46.06104" lon="4.61272">
        <ele>336.312133789</ele>
        <time>2015-09-10T13:32:26.105Z</time>
      </trkpt>
      <trkpt lat="46.06105" lon="4.61283">
        <ele>336.128387451</ele>
        <time>2015-09-10T13:32:32.135Z</time>
      </trkpt>
      <trkpt lat="46.06105" lon="4.61285">
        <ele>336.095184326</ele>
        <time>2015-09-10T13:32:33.097Z</time>
      </trkpt>
      <trkpt lat="46.06103" lon="4.61297">
        <ele>335.847045898</ele>
        <time>2015-09-10T13:32:40.125Z</time>
      </trkpt>
      <trkpt lat="46.06104" lon="4.61299">
        <ele>335.758911133</ele>
        <time>2015-09-10T13:32:41.096Z</time>
      </trkpt>
      <trkpt lat="46.06103" lon="4.6131">
        <ele>335.188232422</ele>
        <time>2015-09-10T13:32:47.103Z</time>
      </trkpt>
      <trkpt lat="46.06103" lon="4.61312">
        <ele>335.079162598</ele>
        <time>2015-09-10T13:32:48.106Z</time>
      </trkpt>
      <trkpt lat="46.06102" lon="4.61324">
        <ele>334.146087646</ele>
        <time>2015-09-10T13:32:56.123Z</time>
      </trkpt>
      <trkpt lat="46.06102" lon="4.61326">
        <ele>334.016387939</ele>
        <time>2015-09-10T13:32:57.112Z</time>
      </trkpt>
      <trkpt lat="46.06101" lon="4.61338">
        <ele>332.818511963</ele>
        <time>2015-09-10T13:33:06.126Z</time>
      </trkpt>
      <trkpt lat="46.06101" lon="4.6134">
        <ele>332.723693848</ele>
        <time>2015-09-10T13:33:07.114Z</time>
      </trkpt>
      <trkpt lat="46.06107" lon="4.61349">
        <ele>331.372406006</ele>
        <time>2015-09-10T13:33:23.131Z</time>
      </trkpt>
      <trkpt lat="46.06108" lon="4.61349">
        <ele>331.294555664</ele>
        <time>2015-09-10T13:33:24.09Z</time>
      </trkpt>
      <trkpt lat="46.06116" lon="4.61346">
        <ele>330.762420654</ele>
        <time>2015-09-10T13:33:31.136Z</time>
      </trkpt>
      <trkpt lat="46.06117" lon="4.61346">
        <ele>330.724853516</ele>
        <time>2015-09-10T13:33:32.099Z</time>
      </trkpt>
      <trkpt lat="46.06126" lon="4.61344">
        <ele>330.817169189</ele>
        <time>2015-09-10T13:33:42.142Z</time>
      </trkpt>
      <trkpt lat="46.06127" lon="4.61344">
        <ele>330.856323242</ele>
        <time>2015-09-10T13:33:43.106Z</time>
      </trkpt>
      <trkpt lat="46.06136" lon="4.61343">
        <ele>330.753234863</ele>
        <time>2015-09-10T13:33:49.123Z</time>
      </trkpt>
      <trkpt lat="46.06137" lon="4.61343">
        <ele>330.70993042</ele>
        <time>2015-09-10T13:33:50.1Z</time>
      </trkpt>
      <trkpt lat="46.06145" lon="4.61342">
        <ele>330.356536865</ele>
        <time>2015-09-10T13:33:56.138Z</time>
      </trkpt>
      <trkpt lat="46.06146" lon="4.61342">
        <ele>330.279693604</ele>
        <time>2015-09-10T13:33:57.093Z</time>
      </trkpt>
      <trkpt lat="46.06154" lon="4.61345">
        <ele>330.526855469</ele>
        <time>2015-09-10T13:34:05.129Z</time>
      </trkpt>
      <trkpt lat="46.06156" lon="4.61344">
        <ele>330.522064209</ele>
        <time>2015-09-10T13:34:06.101Z</time>
      </trkpt>
      <trkpt lat="46.06164" lon="4.61343">
        <ele>330.366516113</ele>
        <time>2015-09-10T13:34:12.144Z</time>
      </trkpt>
      <trkpt lat="46.06165" lon="4.61343">
        <ele>330.335021973</ele>
        <time>2015-09-10T13:34:13.108Z</time>
      </trkpt>
      <trkpt lat="46.06173" lon="4.61341">
        <ele>330.44342041</ele>
        <time>2015-09-10T13:34:19.134Z</time>
      </trkpt>
      <trkpt lat="46.06174" lon="4.6134">
        <ele>330.451843262</ele>
        <time>2015-09-10T13:34:20.089Z</time>
      </trkpt>
      <trkpt lat="46.06182" lon="4.61338">
        <ele>330.356170654</ele>
        <time>2015-09-10T13:34:27.133Z</time>
      </trkpt>
      <trkpt lat="46.06184" lon="4.61338">
        <ele>330.359863281</ele>
        <time>2015-09-10T13:34:28.118Z</time>
      </trkpt>
      <trkpt lat="46.06192" lon="4.61339">
        <ele>331.785247803</ele>
        <time>2015-09-10T13:34:37.121Z</time>
      </trkpt>
      <trkpt lat="46.06193" lon="4.61339">
        <ele>331.976745605</ele>
        <time>2015-09-10T13:34:38.109Z</time>
      </trkpt>
      <trkpt lat="46.06201" lon="4.61344">
        <ele>333.456817627</ele>
        <time>2015-09-10T13:34:46.133Z</time>
      </trkpt>
      <trkpt lat="46.06201" lon="4.61344">
        <ele>333.70135498</ele>
        <time>2015-09-10T13:34:47.087Z</time>
      </trkpt>
      <trkpt lat="46.06209" lon="4.61351">
        <ele>334.934020996</ele>
        <time>2015-09-10T13:34:54.133Z</time>
      </trkpt>
      <trkpt lat="46.0621" lon="4.61352">
        <ele>335.0284729</ele>
        <time>2015-09-10T13:34:55.092Z</time>
      </trkpt>
      <trkpt lat="46.06217" lon="4.61359">
        <ele>335.355621338</ele>
        <time>2015-09-10T13:35:01.124Z</time>
      </trkpt>
      <trkpt lat="46.06218" lon="4.61359">
        <ele>335.37411499</ele>
        <time>2015-09-10T13:35:02.07Z</time>
      </trkpt>
      <trkpt lat="46.06225" lon="4.61364">
        <ele>335.247070312</ele>
        <time>2015-09-10T13:35:09.091Z</time>
      </trkpt>
      <trkpt lat="46.06227" lon="4.61365">
        <ele>335.164978027</ele>
        <time>2015-09-10T13:35:10.085Z</time>
      </trkpt>
      <trkpt lat="46.06235" lon="4.61367">
        <ele>334.499084473</ele>
        <time>2015-09-10T13:35:17.265Z</time>
      </trkpt>
      <trkpt lat="46.06236" lon="4.61367">
        <ele>334.424835205</ele>
        <time>2015-09-10T13:35:18.077Z</time>
      </trkpt>
      <trkpt lat="46.06237" lon="4.6138">
        <ele>335.200744629</ele>
        <time>2015-09-10T13:35:36.121Z</time>
      </trkpt>
      <trkpt lat="46.06236" lon="4.6138">
        <ele>335.203796387</ele>
        <time>2015-09-10T13:35:37.105Z</time>
      </trkpt>
      <trkpt lat="46.06231" lon="4.6139">
        <ele>335.663391113</ele>
        <time>2015-09-10T13:35:47.117Z</time>
      </trkpt>
      <trkpt lat="46.06231" lon="4.61391">
        <ele>335.68270874</ele>
        <time>2015-09-10T13:35:48.152Z</time>
      </trkpt>
      <trkpt lat="46.06225" lon="4.614">
        <ele>335.842895508</ele>
        <time>2015-09-10T13:35:58.119Z</time>
      </trkpt>
      <trkpt lat="46.06225" lon="4.61401">
        <ele>335.9168396</ele>
        <time>2015-09-10T13:35:59.113Z</time>
      </trkpt>
      <trkpt lat="46.06219" lon="4.6141">
        <ele>336.271789551</ele>
        <time>2015-09-10T13:36:09.132Z</time>
      </trkpt>
      <trkpt lat="46.06218" lon="4.6141">
        <ele>336.31640625</ele>
        <time>2015-09-10T13:36:10.073Z</time>
      </trkpt>
      <trkpt lat="46.06212" lon="4.6142">
        <ele>336.89074707</ele>
        <time>2015-09-10T13:36:19.121Z</time>
      </trkpt>
      <trkpt lat="46.06212" lon="4.61421">
        <ele>336.917205811</ele>
        <time>2015-09-10T13:36:20.115Z</time>
      </trkpt>
      <trkpt lat="46.06206" lon="4.61429">
        <ele>337.699432373</ele>
        <time>2015-09-10T13:36:29.122Z</time>
      </trkpt>
      <trkpt lat="46.06206" lon="4.6143">
        <ele>337.795196533</ele>
        <time>2015-09-10T13:36:30.072Z</time>
      </trkpt>
      <trkpt lat="46.062" lon="4.61439">
        <ele>338.647644043</ele>
        <time>2015-09-10T13:36:39.101Z</time>
      </trkpt>
      <trkpt lat="46.06199" lon="4.6144">
        <ele>338.717651367</ele>
        <time>2015-09-10T13:36:40.085Z</time>
      </trkpt>
      <trkpt lat="46.06193" lon="4.61448">
        <ele>339.49395752</ele>
        <time>2015-09-10T13:36:48.124Z</time>
      </trkpt>
      <trkpt lat="46.06192" lon="4.61449">
        <ele>339.558166504</ele>
        <time>2015-09-10T13:36:49.095Z</time>
      </trkpt>
      <trkpt lat="46.06186" lon="4.61457">
        <ele>340.762451172</ele>
        <time>2015-09-10T13:36:59.119Z</time>
      </trkpt>
      <trkpt lat="46.06185" lon="4.61459">
        <ele>340.92199707</ele>
        <time>2015-09-10T13:37:00.096Z</time>
      </trkpt>
      <trkpt lat="46.06179" lon="4.61467">
        <ele>341.913513184</ele>
        <time>2015-09-10T13:37:07.137Z</time>
      </trkpt>
      <trkpt lat="46.06178" lon="4.61468">
        <ele>342.008026123</ele>
        <time>2015-09-10T13:37:08.084Z</time>
      </trkpt>
      <trkpt lat="46.06173" lon="4.61478">
        <ele>342.637756348</ele>
        <time>2015-09-10T13:37:15.134Z</time>
      </trkpt>
      <trkpt lat="46.06173" lon="4.61479">
        <ele>342.735168457</ele>
        <time>2015-09-10T13:37:16.086Z</time>
      </trkpt>
      <trkpt lat="46.06167" lon="4.61488">
        <ele>343.129211426</ele>
        <time>2015-09-10T13:37:23.121Z</time>
      </trkpt>
      <trkpt lat="46.06167" lon="4.61489">
        <ele>343.171600342</ele>
        <time>2015-09-10T13:37:24.102Z</time>
      </trkpt>
      <trkpt lat="46.06161" lon="4.61499">
        <ele>343.575744629</ele>
        <time>2015-09-10T13:37:33.131Z</time>
      </trkpt>
      <trkpt lat="46.0616" lon="4.61501">
        <ele>343.615844727</ele>
        <time>2015-09-10T13:37:34.108Z</time>
      </trkpt>
      <trkpt lat="46.06153" lon="4.61506">
        <ele>344.863739014</ele>
        <time>2015-09-10T13:37:49.126Z</time>
      </trkpt>
      <trkpt lat="46.06152" lon="4.61508">
        <ele>344.979827881</ele>
        <time>2015-09-10T13:37:50.091Z</time>
      </trkpt>
      <trkpt lat="46.06148" lon="4.61518">
        <ele>345.871368408</ele>
        <time>2015-09-10T13:37:59.137Z</time>
      </trkpt>
      <trkpt lat="46.06148" lon="4.6152">
        <ele>345.982574463</ele>
        <time>2015-09-10T13:38:00.098Z</time>
      </trkpt>
      <trkpt lat="46.06147" lon="4.61532">
        <ele>347.178588867</ele>
        <time>2015-09-10T13:38:10.128Z</time>
      </trkpt>
      <trkpt lat="46.06147" lon="4.61533">
        <ele>347.321777344</ele>
        <time>2015-09-10T13:38:11.106Z</time>
      </trkpt>
      <trkpt lat="46.06149" lon="4.61543">
        <ele>347.953521729</ele>
        <time>2015-09-10T13:38:16.14Z</time>
      </trkpt>
      <trkpt lat="46.0615" lon="4.61546">
        <ele>347.992248535</ele>
        <time>2015-09-10T13:38:17.11Z</time>
      </trkpt>
      <trkpt lat="46.06153" lon="4.61557">
        <ele>348.226379395</ele>
        <time>2015-09-10T13:38:25.122Z</time>
      </trkpt>
      <trkpt lat="46.06153" lon="4.61558">
        <ele>348.242919922</ele>
        <time>2015-09-10T13:38:26.095Z</time>
      </trkpt>
      <trkpt lat="46.06157" lon="4.61569">
        <ele>348.312744141</ele>
        <time>2015-09-10T13:38:35.12Z</time>
      </trkpt>
      <trkpt lat="46.06157" lon="4.61571">
        <ele>348.351287842</ele>
        <time>2015-09-10T13:38:36.097Z</time>
      </trkpt>
      <trkpt lat="46.06158" lon="4.61583">
        <ele>348.590393066</ele>
        <time>2015-09-10T13:38:43.13Z</time>
      </trkpt>
      <trkpt lat="46.06159" lon="4.61585">
        <ele>348.588012695</ele>
        <time>2015-09-10T13:38:44.096Z</time>
      </trkpt>
      <trkpt lat="46.0616" lon="4.61596">
        <ele>348.523193359</ele>
        <time>2015-09-10T13:38:50.137Z</time>
      </trkpt>
      <trkpt lat="46.06161" lon="4.61598">
        <ele>348.501434326</ele>
        <time>2015-09-10T13:38:51.113Z</time>
      </trkpt>
      <trkpt lat="46.06161" lon="4.6161">
        <ele>348.420349121</ele>
        <time>2015-09-10T13:38:58.146Z</time>
      </trkpt>
      <trkpt lat="46.06161" lon="4.61612">
        <ele>348.398071289</ele>
        <time>2015-09-10T13:38:59.082Z</time>
      </trkpt>
      <trkpt lat="46.06161" lon="4.61624">
        <ele>348.425537109</ele>
        <time>2015-09-10T13:39:07.131Z</time>
      </trkpt>
      <trkpt lat="46.06162" lon="4.61626">
        <ele>348.424133301</ele>
        <time>2015-09-10T13:39:08.105Z</time>
      </trkpt>
      <trkpt lat="46.06163" lon="4.61637">
        <ele>348.456878662</ele>
        <time>2015-09-10T13:39:15.126Z</time>
      </trkpt>
      <trkpt lat="46.06163" lon="4.61639">
        <ele>348.422271729</ele>
        <time>2015-09-10T13:39:16.099Z</time>
      </trkpt>
      <trkpt lat="46.06165" lon="4.61651">
        <ele>348.16973877</ele>
        <time>2015-09-10T13:39:23.162Z</time>
      </trkpt>
      <trkpt lat="46.06165" lon="4.61652">
        <ele>348.154876709</ele>
        <time>2015-09-10T13:39:24.114Z</time>
      </trkpt>
      <trkpt lat="46.06166" lon="4.61664">
        <ele>347.900115967</ele>
        <time>2015-09-10T13:39:31.131Z</time>
      </trkpt>
      <trkpt lat="46.06166" lon="4.61665">
        <ele>347.905029297</ele>
        <time>2015-09-10T13:39:32.102Z</time>
      </trkpt>
      <trkpt lat="46.06167" lon="4.61676">
        <ele>347.822479248</ele>
        <time>2015-09-10T13:39:39.139Z</time>
      </trkpt>
      <trkpt lat="46.06167" lon="4.61678">
        <ele>347.799926758</ele>
        <time>2015-09-10T13:39:40.061Z</time>
      </trkpt>
      <trkpt lat="46.06166" lon="4.6169">
        <ele>347.879333496</ele>
        <time>2015-09-10T13:39:48.124Z</time>
      </trkpt>
      <trkpt lat="46.06166" lon="4.61692">
        <ele>347.873535156</ele>
        <time>2015-09-10T13:39:49.106Z</time>
      </trkpt>
      <trkpt lat="46.06167" lon="4.61704">
        <ele>347.703155518</ele>
        <time>2015-09-10T13:39:55.104Z</time>
      </trkpt>
      <trkpt lat="46.06168" lon="4.61706">
        <ele>347.632537842</ele>
        <time>2015-09-10T13:39:56.091Z</time>
      </trkpt>
      <trkpt lat="46.06169" lon="4.61719">
        <ele>347.267486572</ele>
        <time>2015-09-10T13:40:04.12Z</time>
      </trkpt>
      <trkpt lat="46.06169" lon="4.6172">
        <ele>347.221069336</ele>
        <time>2015-09-10T13:40:05.102Z</time>
      </trkpt>
      <trkpt lat="46.06171" lon="4.61732">
        <ele>346.982299805</ele>
        <time>2015-09-10T13:40:11.291Z</time>
      </trkpt>
      <trkpt lat="46.06171" lon="4.61734">
        <ele>346.952270508</ele>
        <time>2015-09-10T13:40:12.095Z</time>
      </trkpt>
      <trkpt lat="46.06174" lon="4.61745">
        <ele>346.560302734</ele>
        <time>2015-09-10T13:40:19.118Z</time>
      </trkpt>
      <trkpt lat="46.06174" lon="4.61746">
        <ele>346.543609619</ele>
        <time>2015-09-10T13:40:20.08Z</time>
      </trkpt>
      <trkpt lat="46.06178" lon="4.61757">
        <ele>346.098693848</ele>
        <time>2015-09-10T13:40:26.12Z</time>
      </trkpt>
      <trkpt lat="46.06178" lon="4.61758">
        <ele>345.997070312</ele>
        <time>2015-09-10T13:40:27.088Z</time>
      </trkpt>
      <trkpt lat="46.06185" lon="4.61766">
        <ele>344.750518799</ele>
        <time>2015-09-10T13:40:41.116Z</time>
      </trkpt>
      <trkpt lat="46.06185" lon="4.61766">
        <ele>344.681854248</ele>
        <time>2015-09-10T13:40:42.102Z</time>
      </trkpt>
      <trkpt lat="46.06178" lon="4.6176">
        <ele>344.046844482</ele>
        <time>2015-09-10T13:41:29.243Z</time>
      </trkpt>
      <trkpt lat="46.06178" lon="4.61759">
        <ele>344.008117676</ele>
        <time>2015-09-10T13:41:30.07Z</time>
      </trkpt>
      <trkpt lat="46.0617" lon="4.61764">
        <ele>343.824279785</ele>
        <time>2015-09-10T13:41:54.111Z</time>
      </trkpt>
      <trkpt lat="46.0617" lon="4.61765">
        <ele>343.848907471</ele>
        <time>2015-09-10T13:41:55.092Z</time>
      </trkpt>
      <trkpt lat="46.06171" lon="4.61777">
        <ele>343.693603516</ele>
        <time>2015-09-10T13:42:04.113Z</time>
      </trkpt>
      <trkpt lat="46.06172" lon="4.61778">
        <ele>343.647735596</ele>
        <time>2015-09-10T13:42:05.093Z</time>
      </trkpt>
      <trkpt lat="46.06171" lon="4.61791">
        <ele>343.215484619</ele>
        <time>2015-09-10T13:42:15.111Z</time>
      </trkpt>
      <trkpt lat="46.06171" lon="4.61792">
        <ele>343.139221191</ele>
        <time>2015-09-10T13:42:16.103Z</time>
      </trkpt>
      <trkpt lat="46.06168" lon="4.61804">
        <ele>342.61605835</ele>
        <time>2015-09-10T13:42:23.113Z</time>
      </trkpt>
      <trkpt lat="46.06168" lon="4.61806">
        <ele>342.572540283</ele>
        <time>2015-09-10T13:42:24.097Z</time>
      </trkpt>
      <trkpt lat="46.06164" lon="4.61817">
        <ele>341.865081787</ele>
        <time>2015-09-10T13:42:31.126Z</time>
      </trkpt>
      <trkpt lat="46.06164" lon="4.61818">
        <ele>341.723876953</ele>
        <time>2015-09-10T13:42:32.077Z</time>
      </trkpt>
      <trkpt lat="46.0616" lon="4.6183">
        <ele>340.541442871</ele>
        <time>2015-09-10T13:42:41.131Z</time>
      </trkpt>
      <trkpt lat="46.0616" lon="4.61832">
        <ele>340.483673096</ele>
        <time>2015-09-10T13:42:42.087Z</time>
      </trkpt>
      <trkpt lat="46.06156" lon="4.61842">
        <ele>339.772216797</ele>
        <time>2015-09-10T13:42:50.124Z</time>
      </trkpt>
      <trkpt lat="46.06156" lon="4.61843">
        <ele>339.707336426</ele>
        <time>2015-09-10T13:42:51.09Z</time>
      </trkpt>
      <trkpt lat="46.06157" lon="4.61855">
        <ele>339.048034668</ele>
        <time>2015-09-10T13:42:59.103Z</time>
      </trkpt>
      <trkpt lat="46.06158" lon="4.61856">
        <ele>338.958770752</ele>
        <time>2015-09-10T13:43:00.089Z</time>
      </trkpt>
      <trkpt lat="46.06164" lon="4.61865">
        <ele>338.147491455</ele>
        <time>2015-09-10T13:43:09.134Z</time>
      </trkpt>
      <trkpt lat="46.06165" lon="4.61865">
        <ele>338.077178955</ele>
        <time>2015-09-10T13:43:10.11Z</time>
      </trkpt>
      <trkpt lat="46.06172" lon="4.61872">
        <ele>337.571228027</ele>
        <time>2015-09-10T13:43:18.125Z</time>
      </trkpt>
      <trkpt lat="46.06172" lon="4.61873">
        <ele>337.514587402</ele>
        <time>2015-09-10T13:43:19.08Z</time>
      </trkpt>
      <trkpt lat="46.06175" lon="4.61884">
        <ele>337.32510376</ele>
        <time>2015-09-10T13:43:27.12Z</time>
      </trkpt>
      <trkpt lat="46.06175" lon="4.61886">
        <ele>337.336975098</ele>
        <time>2015-09-10T13:43:28.076Z</time>
      </trkpt>
      <trkpt lat="46.06174" lon="4.61896">
        <ele>337.597717285</ele>
        <time>2015-09-10T13:43:36.123Z</time>
      </trkpt>
      <trkpt lat="46.06174" lon="4.61898">
        <ele>337.630187988</ele>
        <time>2015-09-10T13:43:37.103Z</time>
      </trkpt>
      <trkpt lat="46.06174" lon="4.6191">
        <ele>337.965667725</ele>
        <time>2015-09-10T13:43:44.125Z</time>
      </trkpt>
      <trkpt lat="46.06174" lon="4.61912">
        <ele>338.050750732</ele>
        <time>2015-09-10T13:43:45.08Z</time>
      </trkpt>
      <trkpt lat="46.06174" lon="4.61923">
        <ele>338.548797607</ele>
        <time>2015-09-10T13:43:52.131Z</time>
      </trkpt>
      <trkpt lat="46.06174" lon="4.61925">
        <ele>338.617828369</ele>
        <time>2015-09-10T13:43:53.101Z</time>
      </trkpt>
      <trkpt lat="46.06174" lon="4.61937">
        <ele>338.785400391</ele>
        <time>2015-09-10T13:43:59.125Z</time>
      </trkpt>
      <trkpt lat="46.06174" lon="4.61938">
        <ele>338.763702393</ele>
        <time>2015-09-10T13:44:00.097Z</time>
      </trkpt>
      <trkpt lat="46.06178" lon="4.61947">
        <ele>338.65057373</ele>
        <time>2015-09-10T13:44:12.109Z</time>
      </trkpt>
      <trkpt lat="46.0618" lon="4.61949">
        <ele>338.637268066</ele>
        <time>2015-09-10T13:44:13.097Z</time>
      </trkpt>
      <trkpt lat="46.06188" lon="4.61952">
        <ele>338.576629639</ele>
        <time>2015-09-10T13:44:20.145Z</time>
      </trkpt>
      <trkpt lat="46.06189" lon="4.61953">
        <ele>338.573608398</ele>
        <time>2015-09-10T13:44:21.1Z</time>
      </trkpt>
      <trkpt lat="46.06197" lon="4.61953">
        <ele>338.549072266</ele>
        <time>2015-09-10T13:44:29.128Z</time>
      </trkpt>
      <trkpt lat="46.06198" lon="4.61953">
        <ele>338.559692383</ele>
        <time>2015-09-10T13:44:30.082Z</time>
      </trkpt>
      <trkpt lat="46.06206" lon="4.61951">
        <ele>338.606018066</ele>
        <time>2015-09-10T13:44:38.135Z</time>
      </trkpt>
      <trkpt lat="46.06207" lon="4.61951">
        <ele>338.619384766</ele>
        <time>2015-09-10T13:44:39.102Z</time>
      </trkpt>
      <trkpt lat="46.06215" lon="4.61948">
        <ele>338.78012085</ele>
        <time>2015-09-10T13:44:47.118Z</time>
      </trkpt>
      <trkpt lat="46.06216" lon="4.61948">
        <ele>338.79107666</ele>
        <time>2015-09-10T13:44:48.103Z</time>
      </trkpt>
      <trkpt lat="46.06225" lon="4.61945">
        <ele>338.843841553</ele>
        <time>2015-09-10T13:44:56.121Z</time>
      </trkpt>
      <trkpt lat="46.06226" lon="4.61944">
        <ele>338.847717285</ele>
        <time>2015-09-10T13:44:57.102Z</time>
      </trkpt>
      <trkpt lat="46.06233" lon="4.6194">
        <ele>338.959991455</ele>
        <time>2015-09-10T13:45:04.122Z</time>
      </trkpt>
      <trkpt lat="46.06234" lon="4.6194">
        <ele>338.986633301</ele>
        <time>2015-09-10T13:45:05.084Z</time>
      </trkpt>
      <trkpt lat="46.06242" lon="4.61935">
        <ele>339.229034424</ele>
        <time>2015-09-10T13:45:13.125Z</time>
      </trkpt>
      <trkpt lat="46.06243" lon="4.61935">
        <ele>339.269287109</ele>
        <time>2015-09-10T13:45:14.095Z</time>
      </trkpt>
      <trkpt lat="46.06251" lon="4.61931">
        <ele>339.510101318</ele>
        <time>2015-09-10T13:45:21.109Z</time>
      </trkpt>
      <trkpt lat="46.06252" lon="4.6193">
        <ele>339.555145264</ele>
        <time>2015-09-10T13:45:22.096Z</time>
      </trkpt>
      <trkpt lat="46.0626" lon="4.61927">
        <ele>339.926483154</ele>
        <time>2015-09-10T13:45:29.128Z</time>
      </trkpt>
      <trkpt lat="46.06261" lon="4.61927">
        <ele>339.98626709</ele>
        <time>2015-09-10T13:45:30.065Z</time>
      </trkpt>
      <trkpt lat="46.06268" lon="4.61923">
        <ele>340.402069092</ele>
        <time>2015-09-10T13:45:37.121Z</time>
      </trkpt>
      <trkpt lat="46.06269" lon="4.61922">
        <ele>340.474975586</ele>
        <time>2015-09-10T13:45:38.093Z</time>
      </trkpt>
      <trkpt lat="46.06278" lon="4.61919">
        <ele>340.885528564</ele>
        <time>2015-09-10T13:45:46.121Z</time>
      </trkpt>
      <trkpt lat="46.06279" lon="4.61918">
        <ele>340.935028076</ele>
        <time>2015-09-10T13:45:47.101Z</time>
      </trkpt>
      <trkpt lat="46.06287" lon="4.61913">
        <ele>341.286132812</ele>
        <time>2015-09-10T13:45:54.111Z</time>
      </trkpt>
      <trkpt lat="46.06288" lon="4.61912">
        <ele>341.338897705</ele>
        <time>2015-09-10T13:45:55.08Z</time>
      </trkpt>
      <trkpt lat="46.06295" lon="4.61907">
        <ele>341.842926025</ele>
        <time>2015-09-10T13:46:03.121Z</time>
      </trkpt>
      <trkpt lat="46.06297" lon="4.61906">
        <ele>341.91418457</ele>
        <time>2015-09-10T13:46:04.086Z</time>
      </trkpt>
      <trkpt lat="46.06304" lon="4.61903">
        <ele>342.436187744</ele>
        <time>2015-09-10T13:46:11.111Z</time>
      </trkpt>
      <trkpt lat="46.06305" lon="4.61902">
        <ele>342.506072998</ele>
        <time>2015-09-10T13:46:12.083Z</time>
      </trkpt>
      <trkpt lat="46.06313" lon="4.61899">
        <ele>342.965911865</ele>
        <time>2015-09-10T13:46:20.116Z</time>
      </trkpt>
      <trkpt lat="46.06315" lon="4.61899">
        <ele>343.031402588</ele>
        <time>2015-09-10T13:46:21.091Z</time>
      </trkpt>
      <trkpt lat="46.06322" lon="4.61894">
        <ele>343.360107422</ele>
        <time>2015-09-10T13:46:28.13Z</time>
      </trkpt>
      <trkpt lat="46.06324" lon="4.61893">
        <ele>343.402709961</ele>
        <time>2015-09-10T13:46:29.083Z</time>
      </trkpt>
      <trkpt lat="46.06331" lon="4.6189">
        <ele>343.60925293</ele>
        <time>2015-09-10T13:46:36.237Z</time>
      </trkpt>
      <trkpt lat="46.06332" lon="4.61889">
        <ele>343.643463135</ele>
        <time>2015-09-10T13:46:37.103Z</time>
      </trkpt>
      <trkpt lat="46.0634" lon="4.61883">
        <ele>344.0909729</ele>
        <time>2015-09-10T13:46:44.137Z</time>
      </trkpt>
      <trkpt lat="46.06341" lon="4.61882">
        <ele>344.173461914</ele>
        <time>2015-09-10T13:46:45.101Z</time>
      </trkpt>
      <trkpt lat="46.0635" lon="4.61879">
        <ele>344.644287109</ele>
        <time>2015-09-10T13:46:53.233Z</time>
      </trkpt>
      <trkpt lat="46.0635" lon="4.61879">
        <ele>344.703369141</ele>
        <time>2015-09-10T13:46:54.092Z</time>
      </trkpt>
      <trkpt lat="46.06358" lon="4.61874">
        <ele>345.187957764</ele>
        <time>2015-09-10T13:47:01.09Z</time>
      </trkpt>
      <trkpt lat="46.06359" lon="4.61874">
        <ele>345.248901367</ele>
        <time>2015-09-10T13:47:02.08Z</time>
      </trkpt>
      <trkpt lat="46.06368" lon="4.61877">
        <ele>345.537078857</ele>
        <time>2015-09-10T13:47:09.119Z</time>
      </trkpt>
      <trkpt lat="46.06369" lon="4.61878">
        <ele>345.564849854</ele>
        <time>2015-09-10T13:47:10.101Z</time>
      </trkpt>
      <trkpt lat="46.06375" lon="4.61884">
        <ele>345.846282959</ele>
        <time>2015-09-10T13:47:17.121Z</time>
      </trkpt>
      <trkpt lat="46.06376" lon="4.61885">
        <ele>345.888702393</ele>
        <time>2015-09-10T13:47:18.087Z</time>
      </trkpt>
      <trkpt lat="46.06383" lon="4.61892">
        <ele>346.201385498</ele>
        <time>2015-09-10T13:47:25.127Z</time>
      </trkpt>
      <trkpt lat="46.06384" lon="4.61892">
        <ele>346.254821777</ele>
        <time>2015-09-10T13:47:26.1Z</time>
      </trkpt>
      <trkpt lat="46.06392" lon="4.61899">
        <ele>346.552062988</ele>
        <time>2015-09-10T13:47:33.138Z</time>
      </trkpt>
      <trkpt lat="46.06393" lon="4.619">
        <ele>346.583129883</ele>
        <time>2015-09-10T13:47:34.085Z</time>
      </trkpt>
      <trkpt lat="46.06401" lon="4.61906">
        <ele>346.699493408</ele>
        <time>2015-09-10T13:47:41.155Z</time>
      </trkpt>
      <trkpt lat="46.06402" lon="4.61907">
        <ele>346.716430664</ele>
        <time>2015-09-10T13:47:42.089Z</time>
      </trkpt>
      <trkpt lat="46.06408" lon="4.61913">
        <ele>346.797332764</ele>
        <time>2015-09-10T13:47:48.121Z</time>
      </trkpt>
      <trkpt lat="46.06409" lon="4.61915">
        <ele>346.8125</ele>
        <time>2015-09-10T13:47:49.08Z</time>
      </trkpt>
      <trkpt lat="46.06416" lon="4.61921">
        <ele>346.783691406</ele>
        <time>2015-09-10T13:47:56.116Z</time>
      </trkpt>
      <trkpt lat="46.06417" lon="4.61922">
        <ele>346.793243408</ele>
        <time>2015-09-10T13:47:57.09Z</time>
      </trkpt>
      <trkpt lat="46.06424" lon="4.61929">
        <ele>346.74798584</ele>
        <time>2015-09-10T13:48:05.124Z</time>
      </trkpt>
      <trkpt lat="46.06425" lon="4.61929">
        <ele>346.721954346</ele>
        <time>2015-09-10T13:48:06.072Z</time>
      </trkpt>
      <trkpt lat="46.06425" lon="4.61941">
        <ele>347.118621826</ele>
        <time>2015-09-10T13:48:38.123Z</time>
      </trkpt>
      <trkpt lat="46.06424" lon="4.61943">
        <ele>347.180664062</ele>
        <time>2015-09-10T13:48:39.103Z</time>
      </trkpt>
      <trkpt lat="46.0642" lon="4.61953">
        <ele>347.682769775</ele>
        <time>2015-09-10T13:48:46.121Z</time>
      </trkpt>
      <trkpt lat="46.06419" lon="4.61954">
        <ele>347.743499756</ele>
        <time>2015-09-10T13:48:47.088Z</time>
      </trkpt>
      <trkpt lat="46.06419" lon="4.61966">
        <ele>348.381652832</ele>
        <time>2015-09-10T13:48:56.137Z</time>
      </trkpt>
      <trkpt lat="46.0642" lon="4.61968">
        <ele>348.425933838</ele>
        <time>2015-09-10T13:48:57.092Z</time>
      </trkpt>
      <trkpt lat="46.06426" lon="4.61974">
        <ele>348.599700928</ele>
        <time>2015-09-10T13:49:04.126Z</time>
      </trkpt>
      <trkpt lat="46.06427" lon="4.61975">
        <ele>348.622467041</ele>
        <time>2015-09-10T13:49:05.088Z</time>
      </trkpt>
      <trkpt lat="46.06434" lon="4.61983">
        <ele>348.893127441</ele>
        <time>2015-09-10T13:49:15.132Z</time>
      </trkpt>
      <trkpt lat="46.06435" lon="4.61983">
        <ele>348.930389404</ele>
        <time>2015-09-10T13:49:16.091Z</time>
      </trkpt>
      <trkpt lat="46.06442" lon="4.6199">
        <ele>349.226348877</ele>
        <time>2015-09-10T13:49:23.128Z</time>
      </trkpt>
      <trkpt lat="46.06443" lon="4.61991">
        <ele>349.265045166</ele>
        <time>2015-09-10T13:49:24.097Z</time>
      </trkpt>
      <trkpt lat="46.06451" lon="4.61997">
        <ele>349.364562988</ele>
        <time>2015-09-10T13:49:30.124Z</time>
      </trkpt>
      <trkpt lat="46.06451" lon="4.61997">
        <ele>349.360198975</ele>
        <time>2015-09-10T13:49:31.103Z</time>
      </trkpt>
      <trkpt lat="46.06458" lon="4.62005">
        <ele>349.361541748</ele>
        <time>2015-09-10T13:49:39.138Z</time>
      </trkpt>
      <trkpt lat="46.06459" lon="4.62006">
        <ele>349.36114502</ele>
        <time>2015-09-10T13:49:40.097Z</time>
      </trkpt>
      <trkpt lat="46.06466" lon="4.62012">
        <ele>349.427825928</ele>
        <time>2015-09-10T13:49:47.136Z</time>
      </trkpt>
      <trkpt lat="46.06467" lon="4.62013">
        <ele>349.429840088</ele>
        <time>2015-09-10T13:49:48.091Z</time>
      </trkpt>
      <trkpt lat="46.06474" lon="4.62018">
        <ele>349.438812256</ele>
        <time>2015-09-10T13:49:54.135Z</time>
      </trkpt>
      <trkpt lat="46.06475" lon="4.62019">
        <ele>349.416442871</ele>
        <time>2015-09-10T13:49:55.102Z</time>
      </trkpt>
      <trkpt lat="46.06481" lon="4.62026">
        <ele>349.25479126</ele>
        <time>2015-09-10T13:50:03.112Z</time>
      </trkpt>
      <trkpt lat="46.06482" lon="4.62027">
        <ele>349.230621338</ele>
        <time>2015-09-10T13:50:04.082Z</time>
      </trkpt>
      <trkpt lat="46.0649" lon="4.62034">
        <ele>349.040710449</ele>
        <time>2015-09-10T13:50:11.111Z</time>
      </trkpt>
      <trkpt lat="46.06491" lon="4.62035">
        <ele>349.003112793</ele>
        <time>2015-09-10T13:50:12.085Z</time>
      </trkpt>
      <trkpt lat="46.06498" lon="4.6204">
        <ele>348.569000244</ele>
        <time>2015-09-10T13:50:20.114Z</time>
      </trkpt>
      <trkpt lat="46.06499" lon="4.6204">
        <ele>348.503112793</ele>
        <time>2015-09-10T13:50:21.073Z</time>
      </trkpt>
      <trkpt lat="46.06507" lon="4.62036">
        <ele>348.028411865</ele>
        <time>2015-09-10T13:50:28.127Z</time>
      </trkpt>
      <trkpt lat="46.06508" lon="4.62035">
        <ele>347.978210449</ele>
        <time>2015-09-10T13:50:29.076Z</time>
      </trkpt>
      <trkpt lat="46.06516" lon="4.6203">
        <ele>347.449157715</ele>
        <time>2015-09-10T13:50:37.137Z</time>
      </trkpt>
      <trkpt lat="46.06517" lon="4.62029">
        <ele>347.401275635</ele>
        <time>2015-09-10T13:50:38.083Z</time>
      </trkpt>
      <trkpt lat="46.06523" lon="4.62023">
        <ele>347.02255249</ele>
        <time>2015-09-10T13:50:46.113Z</time>
      </trkpt>
      <trkpt lat="46.06524" lon="4.62022">
        <ele>347.004455566</ele>
        <time>2015-09-10T13:50:47.093Z</time>
      </trkpt>
      <trkpt lat="46.06531" lon="4.62014">
        <ele>346.733551025</ele>
        <time>2015-09-10T13:50:54.128Z</time>
      </trkpt>
      <trkpt lat="46.06532" lon="4.62013">
        <ele>346.699798584</ele>
        <time>2015-09-10T13:50:55.09Z</time>
      </trkpt>
      <trkpt lat="46.06537" lon="4.62005">
        <ele>346.48034668</ele>
        <time>2015-09-10T13:51:02.129Z</time>
      </trkpt>
      <trkpt lat="46.06539" lon="4.62004">
        <ele>346.454986572</ele>
        <time>2015-09-10T13:51:03.061Z</time>
      </trkpt>
      <trkpt lat="46.06544" lon="4.61996">
        <ele>346.290008545</ele>
        <time>2015-09-10T13:51:10.126Z</time>
      </trkpt>
      <trkpt lat="46.06545" lon="4.61994">
        <ele>346.276184082</ele>
        <time>2015-09-10T13:51:11.077Z</time>
      </trkpt>
      <trkpt lat="46.06551" lon="4.61987">
        <ele>346.190124512</ele>
        <time>2015-09-10T13:51:17.129Z</time>
      </trkpt>
      <trkpt lat="46.06552" lon="4.61986">
        <ele>346.1690979</ele>
        <time>2015-09-10T13:51:18.082Z</time>
      </trkpt>
      <trkpt lat="46.06559" lon="4.61979">
        <ele>346.07598877</ele>
        <time>2015-09-10T13:51:27.188Z</time>
      </trkpt>
      <trkpt lat="46.0656" lon="4.61977">
        <ele>346.060546875</ele>
        <time>2015-09-10T13:51:28.077Z</time>
      </trkpt>
      <trkpt lat="46.06566" lon="4.61969">
        <ele>346.16595459</ele>
        <time>2015-09-10T13:51:35.111Z</time>
      </trkpt>
      <trkpt lat="46.06567" lon="4.61968">
        <ele>346.173400879</ele>
        <time>2015-09-10T13:51:36.085Z</time>
      </trkpt>
      <trkpt lat="46.06572" lon="4.6196">
        <ele>346.204315186</ele>
        <time>2015-09-10T13:51:42.132Z</time>
      </trkpt>
      <trkpt lat="46.06573" lon="4.61958">
        <ele>346.204742432</ele>
        <time>2015-09-10T13:51:43.094Z</time>
      </trkpt>
      <trkpt lat="46.06581" lon="4.61955">
        <ele>346.168823242</ele>
        <time>2015-09-10T13:51:50.281Z</time>
      </trkpt>
      <trkpt lat="46.06583" lon="4.61956">
        <ele>346.130065918</ele>
        <time>2015-09-10T13:51:51.083Z</time>
      </trkpt>
      <trkpt lat="46.06591" lon="4.61961">
        <ele>345.859985352</ele>
        <time>2015-09-10T13:51:58.113Z</time>
      </trkpt>
      <trkpt lat="46.06592" lon="4.61962">
        <ele>345.81237793</ele>
        <time>2015-09-10T13:51:59.133Z</time>
      </trkpt>
      <trkpt lat="46.06599" lon="4.61967">
        <ele>345.277648926</ele>
        <time>2015-09-10T13:52:12.129Z</time>
      </trkpt>
      <trkpt lat="46.066" lon="4.61967">
        <ele>345.224243164</ele>
        <time>2015-09-10T13:52:13.082Z</time>
      </trkpt>
      <trkpt lat="46.06607" lon="4.6196">
        <ele>344.973205566</ele>
        <time>2015-09-10T13:52:29.118Z</time>
      </trkpt>
      <trkpt lat="46.06607" lon="4.6196">
        <ele>344.966369629</ele>
        <time>2015-09-10T13:52:30.091Z</time>
      </trkpt>
      <trkpt lat="46.06614" lon="4.61951">
        <ele>345.145111084</ele>
        <time>2015-09-10T13:52:45.118Z</time>
      </trkpt>
      <trkpt lat="46.06615" lon="4.61952">
        <ele>345.154815674</ele>
        <time>2015-09-10T13:52:46.085Z</time>
      </trkpt>
      <trkpt lat="46.06624" lon="4.61951">
        <ele>345.134490967</ele>
        <time>2015-09-10T13:52:59.126Z</time>
      </trkpt>
      <trkpt lat="46.06624" lon="4.61952">
        <ele>345.115203857</ele>
        <time>2015-09-10T13:53:00.085Z</time>
      </trkpt>
      <trkpt lat="46.06629" lon="4.61963">
        <ele>345.306152344</ele>
        <time>2015-09-10T13:53:14.127Z</time>
      </trkpt>
      <trkpt lat="46.06629" lon="4.61964">
        <ele>345.312255859</ele>
        <time>2015-09-10T13:53:15.088Z</time>
      </trkpt>
      <trkpt lat="46.06635" lon="4.61974">
        <ele>345.368591309</ele>
        <time>2015-09-10T13:53:24.259Z</time>
      </trkpt>
      <trkpt lat="46.06635" lon="4.61975">
        <ele>345.362976074</ele>
        <time>2015-09-10T13:53:25.082Z</time>
      </trkpt>
      <trkpt lat="46.06642" lon="4.61983">
        <ele>345.489013672</ele>
        <time>2015-09-10T13:53:33.125Z</time>
      </trkpt>
      <trkpt lat="46.06642" lon="4.61984">
        <ele>345.52255249</ele>
        <time>2015-09-10T13:53:34.088Z</time>
      </trkpt>
      <trkpt lat="46.06649" lon="4.61993">
        <ele>345.747833252</ele>
        <time>2015-09-10T13:53:43.151Z</time>
      </trkpt>
      <trkpt lat="46.06649" lon="4.61994">
        <ele>345.782714844</ele>
        <time>2015-09-10T13:53:44.087Z</time>
      </trkpt>
      <trkpt lat="46.06655" lon="4.62003">
        <ele>346.104858398</ele>
        <time>2015-09-10T13:53:52.141Z</time>
      </trkpt>
      <trkpt lat="46.06656" lon="4.62004">
        <ele>346.139770508</ele>
        <time>2015-09-10T13:53:53.093Z</time>
      </trkpt>
      <trkpt lat="46.06661" lon="4.62015">
        <ele>346.365325928</ele>
        <time>2015-09-10T13:54:02.143Z</time>
      </trkpt>
      <trkpt lat="46.06661" lon="4.62015">
        <ele>346.396026611</ele>
        <time>2015-09-10T13:54:03.095Z</time>
      </trkpt>
      <trkpt lat="46.06669" lon="4.6201">
        <ele>347.14465332</ele>
        <time>2015-09-10T13:54:18.14Z</time>
      </trkpt>
      <trkpt lat="46.06669" lon="4.62009">
        <ele>347.200775146</ele>
        <time>2015-09-10T13:54:19.087Z</time>
      </trkpt>
      <trkpt lat="46.06673" lon="4.61998">
        <ele>347.549224854</ele>
        <time>2015-09-10T13:54:25.122Z</time>
      </trkpt>
      <trkpt lat="46.06674" lon="4.61997">
        <ele>347.597503662</ele>
        <time>2015-09-10T13:54:26.084Z</time>
      </trkpt>
      <trkpt lat="46.06678" lon="4.61986">
        <ele>347.978607178</ele>
        <time>2015-09-10T13:54:34.126Z</time>
      </trkpt>
      <trkpt lat="46.06679" lon="4.61984">
        <ele>348.016448975</ele>
        <time>2015-09-10T13:54:35.091Z</time>
      </trkpt>
      <trkpt lat="46.06682" lon="4.61973">
        <ele>348.279937744</ele>
        <time>2015-09-10T13:54:43.288Z</time>
      </trkpt>
      <trkpt lat="46.06683" lon="4.6197">
        <ele>348.30557251</ele>
        <time>2015-09-10T13:54:44.091Z</time>
      </trkpt>
      <trkpt lat="46.06689" lon="4.61962">
        <ele>348.718841553</ele>
        <time>2015-09-10T13:54:53.113Z</time>
      </trkpt>
      <trkpt lat="46.0669" lon="4.61962">
        <ele>348.784820557</ele>
        <time>2015-09-10T13:54:54.09Z</time>
      </trkpt>
      <trkpt lat="46.06698" lon="4.61965">
        <ele>349.087402344</ele>
        <time>2015-09-10T13:55:02.117Z</time>
      </trkpt>
      <trkpt lat="46.067" lon="4.61965">
        <ele>349.115142822</ele>
        <time>2015-09-10T13:55:03.1Z</time>
      </trkpt>
      <trkpt lat="46.06707" lon="4.61971">
        <ele>349.251861572</ele>
        <time>2015-09-10T13:55:10.098Z</time>
      </trkpt>
      <trkpt lat="46.06708" lon="4.61972">
        <ele>349.283691406</ele>
        <time>2015-09-10T13:55:11.094Z</time>
      </trkpt>
      <trkpt lat="46.06715" lon="4.61977">
        <ele>349.568756104</ele>
        <time>2015-09-10T13:55:18.084Z</time>
      </trkpt>
      <trkpt lat="46.06716" lon="4.61978">
        <ele>349.617401123</ele>
        <time>2015-09-10T13:55:19.071Z</time>
      </trkpt>
      <trkpt lat="46.06723" lon="4.61984">
        <ele>350.064666748</ele>
        <time>2015-09-10T13:55:27.08Z</time>
      </trkpt>
      <trkpt lat="46.06725" lon="4.61985">
        <ele>350.132720947</ele>
        <time>2015-09-10T13:55:28.071Z</time>
      </trkpt>
      <trkpt lat="46.06732" lon="4.6199">
        <ele>350.491607666</ele>
        <time>2015-09-10T13:55:34.121Z</time>
      </trkpt>
      <trkpt lat="46.06733" lon="4.61991">
        <ele>350.550811768</ele>
        <time>2015-09-10T13:55:35.058Z</time>
      </trkpt>
      <trkpt lat="46.06741" lon="4.61996">
        <ele>351.055145264</ele>
        <time>2015-09-10T13:55:43.119Z</time>
      </trkpt>
      <trkpt lat="46.06742" lon="4.61996">
        <ele>351.117431641</ele>
        <time>2015-09-10T13:55:44.088Z</time>
      </trkpt>
      <trkpt lat="46.06749" lon="4.62002">
        <ele>351.544067383</ele>
        <time>2015-09-10T13:55:51.112Z</time>
      </trkpt>
      <trkpt lat="46.06751" lon="4.62003">
        <ele>351.592254639</ele>
        <time>2015-09-10T13:55:52.074Z</time>
      </trkpt>
      <trkpt lat="46.06757" lon="4.62009">
        <ele>351.980987549</ele>
        <time>2015-09-10T13:55:59.113Z</time>
      </trkpt>
      <trkpt lat="46.06758" lon="4.6201">
        <ele>352.028991699</ele>
        <time>2015-09-10T13:56:00.072Z</time>
      </trkpt>
      <trkpt lat="46.06764" lon="4.62016">
        <ele>352.344238281</ele>
        <time>2015-09-10T13:56:06.112Z</time>
      </trkpt>
      <trkpt lat="46.06765" lon="4.62018">
        <ele>352.402557373</ele>
        <time>2015-09-10T13:56:07.084Z</time>
      </trkpt>
      <trkpt lat="46.0677" lon="4.62028">
        <ele>352.848510742</ele>
        <time>2015-09-10T13:56:15.108Z</time>
      </trkpt>
      <trkpt lat="46.06771" lon="4.6203">
        <ele>352.932647705</ele>
        <time>2015-09-10T13:56:16.059Z</time>
      </trkpt>
      <trkpt lat="46.06772" lon="4.62042">
        <ele>353.702667236</ele>
        <time>2015-09-10T13:56:26.116Z</time>
      </trkpt>
      <trkpt lat="46.06772" lon="4.62042">
        <ele>353.754882812</ele>
        <time>2015-09-10T13:56:27.08Z</time>
      </trkpt>
      <trkpt lat="46.06769" lon="4.62031">
        <ele>355.460845947</ele>
        <time>2015-09-10T13:57:06.128Z</time>
      </trkpt>
      <trkpt lat="46.06769" lon="4.6203">
        <ele>355.59262085</ele>
        <time>2015-09-10T13:57:07.087Z</time>
      </trkpt>
      <trkpt lat="46.06766" lon="4.62018">
        <ele>356.627197266</ele>
        <time>2015-09-10T13:57:18.125Z</time>
      </trkpt>
      <trkpt lat="46.06766" lon="4.62017">
        <ele>356.674530029</ele>
        <time>2015-09-10T13:57:19.076Z</time>
      </trkpt>
      <trkpt lat="46.06766" lon="4.62004">
        <ele>357.050415039</ele>
        <time>2015-09-10T13:57:30.105Z</time>
      </trkpt>
      <trkpt lat="46.06765" lon="4.62003">
        <ele>357.103363037</ele>
        <time>2015-09-10T13:57:31.08Z</time>
      </trkpt>
      <trkpt lat="46.06762" lon="4.61992">
        <ele>357.664367676</ele>
        <time>2015-09-10T13:58:27.134Z</time>
      </trkpt>
      <trkpt lat="46.06763" lon="4.6199">
        <ele>357.674682617</ele>
        <time>2015-09-10T13:58:28.088Z</time>
      </trkpt>
      <trkpt lat="46.06765" lon="4.61979">
        <ele>357.891540527</ele>
        <time>2015-09-10T13:58:37.125Z</time>
      </trkpt>
      <trkpt lat="46.06766" lon="4.61978">
        <ele>357.935394287</ele>
        <time>2015-09-10T13:58:38.083Z</time>
      </trkpt>
      <trkpt lat="46.06774" lon="4.61973">
        <ele>358.359863281</ele>
        <time>2015-09-10T13:58:46.094Z</time>
      </trkpt>
      <trkpt lat="46.06775" lon="4.61973">
        <ele>358.412780762</ele>
        <time>2015-09-10T13:58:47.083Z</time>
      </trkpt>
      <trkpt lat="46.06783" lon="4.61967">
        <ele>358.810577393</ele>
        <time>2015-09-10T13:58:54.125Z</time>
      </trkpt>
      <trkpt lat="46.06784" lon="4.61967">
        <ele>358.862792969</ele>
        <time>2015-09-10T13:58:55.088Z</time>
      </trkpt>
      <trkpt lat="46.06792" lon="4.61962">
        <ele>359.199829102</ele>
        <time>2015-09-10T13:59:02.12Z</time>
      </trkpt>
      <trkpt lat="46.06793" lon="4.61962">
        <ele>359.247711182</ele>
        <time>2015-09-10T13:59:03.083Z</time>
      </trkpt>
      <trkpt lat="46.06801" lon="4.61957">
        <ele>359.624389648</ele>
        <time>2015-09-10T13:59:11.114Z</time>
      </trkpt>
      <trkpt lat="46.06802" lon="4.61955">
        <ele>359.66696167</ele>
        <time>2015-09-10T13:59:12.093Z</time>
      </trkpt>
      <trkpt lat="46.0681" lon="4.6195">
        <ele>360.0965271</ele>
        <time>2015-09-10T13:59:20.126Z</time>
      </trkpt>
      <trkpt lat="46.06811" lon="4.6195">
        <ele>360.148254395</ele>
        <time>2015-09-10T13:59:21.072Z</time>
      </trkpt>
      <trkpt lat="46.06818" lon="4.61944">
        <ele>360.709442139</ele>
        <time>2015-09-10T13:59:30.098Z</time>
      </trkpt>
      <trkpt lat="46.06819" lon="4.61943">
        <ele>360.798156738</ele>
        <time>2015-09-10T13:59:31.089Z</time>
      </trkpt>
      <trkpt lat="46.06827" lon="4.61938">
        <ele>361.368621826</ele>
        <time>2015-09-10T13:59:39.119Z</time>
      </trkpt>
      <trkpt lat="46.06828" lon="4.61938">
        <ele>361.452209473</ele>
        <time>2015-09-10T13:59:40.077Z</time>
      </trkpt>
      <trkpt lat="46.06836" lon="4.61933">
        <ele>361.922515869</ele>
        <time>2015-09-10T13:59:47.122Z</time>
      </trkpt>
      <trkpt lat="46.06837" lon="4.61932">
        <ele>361.986206055</ele>
        <time>2015-09-10T13:59:48.089Z</time>
      </trkpt>
      <trkpt lat="46.06845" lon="4.61927">
        <ele>362.529266357</ele>
        <time>2015-09-10T13:59:56.13Z</time>
      </trkpt>
      <trkpt lat="46.06847" lon="4.61926">
        <ele>362.589691162</ele>
        <time>2015-09-10T13:59:57.089Z</time>
      </trkpt>
      <trkpt lat="46.06854" lon="4.61921">
        <ele>363.131835938</ele>
        <time>2015-09-10T14:00:04.142Z</time>
      </trkpt>
      <trkpt lat="46.06855" lon="4.6192">
        <ele>363.211914062</ele>
        <time>2015-09-10T14:00:05.104Z</time>
      </trkpt>
      <trkpt lat="46.06863" lon="4.61916">
        <ele>363.747680664</ele>
        <time>2015-09-10T14:00:12.13Z</time>
      </trkpt>
      <trkpt lat="46.06864" lon="4.61915">
        <ele>363.808197021</ele>
        <time>2015-09-10T14:00:13.093Z</time>
      </trkpt>
      <trkpt lat="46.06871" lon="4.61909">
        <ele>364.096710205</ele>
        <time>2015-09-10T14:00:20.133Z</time>
      </trkpt>
      <trkpt lat="46.06872" lon="4.61908">
        <ele>364.132904053</ele>
        <time>2015-09-10T14:00:21.093Z</time>
      </trkpt>
      <trkpt lat="46.06881" lon="4.61904">
        <ele>364.480316162</ele>
        <time>2015-09-10T14:00:29.129Z</time>
      </trkpt>
      <trkpt lat="46.06882" lon="4.61904">
        <ele>364.530029297</ele>
        <time>2015-09-10T14:00:30.076Z</time>
      </trkpt>
      <trkpt lat="46.0689" lon="4.61902">
        <ele>364.993591309</ele>
        <time>2015-09-10T14:00:38.075Z</time>
      </trkpt>
      <trkpt lat="46.06892" lon="4.61902">
        <ele>365.050292969</ele>
        <time>2015-09-10T14:00:39.102Z</time>
      </trkpt>
      <trkpt lat="46.069" lon="4.619">
        <ele>365.555023193</ele>
        <time>2015-09-10T14:00:47.111Z</time>
      </trkpt>
      <trkpt lat="46.06901" lon="4.619">
        <ele>365.643768311</ele>
        <time>2015-09-10T14:00:48.087Z</time>
      </trkpt>
      <trkpt lat="46.06909" lon="4.61897">
        <ele>366.172393799</ele>
        <time>2015-09-10T14:00:55.106Z</time>
      </trkpt>
      <trkpt lat="46.06911" lon="4.61896">
        <ele>366.237609863</ele>
        <time>2015-09-10T14:00:56.075Z</time>
      </trkpt>
      <trkpt lat="46.06919" lon="4.61894">
        <ele>366.864837646</ele>
        <time>2015-09-10T14:01:04.148Z</time>
      </trkpt>
      <trkpt lat="46.0692" lon="4.61894">
        <ele>366.942901611</ele>
        <time>2015-09-10T14:01:05.1Z</time>
      </trkpt>
      <trkpt lat="46.06929" lon="4.61895">
        <ele>367.588684082</ele>
        <time>2015-09-10T14:01:13.104Z</time>
      </trkpt>
      <trkpt lat="46.0693" lon="4.61895">
        <ele>367.67276001</ele>
        <time>2015-09-10T14:01:14.083Z</time>
      </trkpt>
      <trkpt lat="46.06938" lon="4.61899">
        <ele>368.262695312</ele>
        <time>2015-09-10T14:01:22.105Z</time>
      </trkpt>
      <trkpt lat="46.06939" lon="4.619">
        <ele>368.334655762</ele>
        <time>2015-09-10T14:01:23.084Z</time>
      </trkpt>
      <trkpt lat="46.06946" lon="4.61907">
        <ele>369.23236084</ele>
        <time>2015-09-10T14:01:36.119Z</time>
      </trkpt>
      <trkpt lat="46.06946" lon="4.61908">
        <ele>369.237457275</ele>
        <time>2015-09-10T14:01:37.074Z</time>
      </trkpt>
      <trkpt lat="46.06951" lon="4.61916">
        <ele>370.492462158</ele>
        <time>2015-09-10T14:03:05.134Z</time>
      </trkpt>
      <trkpt lat="46.06952" lon="4.61918">
        <ele>370.582122803</ele>
        <time>2015-09-10T14:03:06.078Z</time>
      </trkpt>
      <trkpt lat="46.06955" lon="4.61929">
        <ele>371.303039551</ele>
        <time>2015-09-10T14:03:13.114Z</time>
      </trkpt>
      <trkpt lat="46.06955" lon="4.61931">
        <ele>371.44152832</ele>
        <time>2015-09-10T14:03:14.077Z</time>
      </trkpt>
      <trkpt lat="46.06956" lon="4.61943">
        <ele>372.178436279</ele>
        <time>2015-09-10T14:03:21.118Z</time>
      </trkpt>
      <trkpt lat="46.06956" lon="4.61945">
        <ele>372.255126953</ele>
        <time>2015-09-10T14:03:22.092Z</time>
      </trkpt>
      <trkpt lat="46.06959" lon="4.61956">
        <ele>372.452758789</ele>
        <time>2015-09-10T14:03:28.113Z</time>
      </trkpt>
      <trkpt lat="46.06959" lon="4.61958">
        <ele>372.469787598</ele>
        <time>2015-09-10T14:03:29.095Z</time>
      </trkpt>
      <trkpt lat="46.06961" lon="4.61969">
        <ele>372.659057617</ele>
        <time>2015-09-10T14:03:36.112Z</time>
      </trkpt>
      <trkpt lat="46.06961" lon="4.61971">
        <ele>372.679840088</ele>
        <time>2015-09-10T14:03:37.079Z</time>
      </trkpt>
      <trkpt lat="46.06964" lon="4.61983">
        <ele>372.82232666</ele>
        <time>2015-09-10T14:03:44.11Z</time>
      </trkpt>
      <trkpt lat="46.06964" lon="4.61984">
        <ele>372.858215332</ele>
        <time>2015-09-10T14:03:45.094Z</time>
      </trkpt>
      <trkpt lat="46.06965" lon="4.61996">
        <ele>372.935882568</ele>
        <time>2015-09-10T14:03:52.107Z</time>
      </trkpt>
      <trkpt lat="46.06966" lon="4.61997">
        <ele>372.964477539</ele>
        <time>2015-09-10T14:03:53.091Z</time>
      </trkpt>
      <trkpt lat="46.06969" lon="4.62008">
        <ele>373.043762207</ele>
        <time>2015-09-10T14:03:59.116Z</time>
      </trkpt>
      <trkpt lat="46.06969" lon="4.6201">
        <ele>373.039642334</ele>
        <time>2015-09-10T14:04:00.093Z</time>
      </trkpt>
      <trkpt lat="46.06971" lon="4.62021">
        <ele>373.439727783</ele>
        <time>2015-09-10T14:04:07.158Z</time>
      </trkpt>
      <trkpt lat="46.06971" lon="4.62023">
        <ele>373.48135376</ele>
        <time>2015-09-10T14:04:08.084Z</time>
      </trkpt>
      <trkpt lat="46.06975" lon="4.62033">
        <ele>373.900787354</ele>
        <time>2015-09-10T14:04:15.114Z</time>
      </trkpt>
      <trkpt lat="46.06976" lon="4.62034">
        <ele>373.977996826</ele>
        <time>2015-09-10T14:04:16.104Z</time>
      </trkpt>
      <trkpt lat="46.06982" lon="4.62043">
        <ele>374.344360352</ele>
        <time>2015-09-10T14:04:22.119Z</time>
      </trkpt>
      <trkpt lat="46.06983" lon="4.62044">
        <ele>374.372528076</ele>
        <time>2015-09-10T14:04:23.075Z</time>
      </trkpt>
      <trkpt lat="46.06989" lon="4.6205">
        <ele>374.567749023</ele>
        <time>2015-09-10T14:04:29.124Z</time>
      </trkpt>
      <trkpt lat="46.06991" lon="4.62051">
        <ele>374.582489014</ele>
        <time>2015-09-10T14:04:30.075Z</time>
      </trkpt>
      <trkpt lat="46.06997" lon="4.62058">
        <ele>374.539642334</ele>
        <time>2015-09-10T14:04:36.123Z</time>
      </trkpt>
      <trkpt lat="46.06998" lon="4.62059">
        <ele>374.530090332</ele>
        <time>2015-09-10T14:04:37.071Z</time>
      </trkpt>
      <trkpt lat="46.07005" lon="4.62067">
        <ele>374.458282471</ele>
        <time>2015-09-10T14:04:44.087Z</time>
      </trkpt>
      <trkpt lat="46.07006" lon="4.62068">
        <ele>374.446838379</ele>
        <time>2015-09-10T14:04:45.072Z</time>
      </trkpt>
      <trkpt lat="46.07013" lon="4.62075">
        <ele>374.393829346</ele>
        <time>2015-09-10T14:04:51.132Z</time>
      </trkpt>
      <trkpt lat="46.07014" lon="4.62076">
        <ele>374.38760376</ele>
        <time>2015-09-10T14:04:52.083Z</time>
      </trkpt>
      <trkpt lat="46.07021" lon="4.62081">
        <ele>374.380096436</ele>
        <time>2015-09-10T14:04:58.14Z</time>
      </trkpt>
      <trkpt lat="46.07022" lon="4.62081">
        <ele>374.346618652</ele>
        <time>2015-09-10T14:04:59.099Z</time>
      </trkpt>
      <trkpt lat="46.07029" lon="4.62087">
        <ele>374.172058105</ele>
        <time>2015-09-10T14:05:05.104Z</time>
      </trkpt>
      <trkpt lat="46.07031" lon="4.62089">
        <ele>374.164642334</ele>
        <time>2015-09-10T14:05:06.108Z</time>
      </trkpt>
      <trkpt lat="46.07037" lon="4.62096">
        <ele>374.198760986</ele>
        <time>2015-09-10T14:05:13.114Z</time>
      </trkpt>
      <trkpt lat="46.07038" lon="4.62097">
        <ele>374.167388916</ele>
        <time>2015-09-10T14:05:14.095Z</time>
      </trkpt>
      <trkpt lat="46.07045" lon="4.62104">
        <ele>373.91293335</ele>
        <time>2015-09-10T14:06:07.103Z</time>
      </trkpt>
      <trkpt lat="46.07045" lon="4.62105">
        <ele>373.937744141</ele>
        <time>2015-09-10T14:06:08.053Z</time>
      </trkpt>
      <trkpt lat="46.07043" lon="4.62117">
        <ele>374.610076904</ele>
        <time>2015-09-10T14:06:16.098Z</time>
      </trkpt>
      <trkpt lat="46.07043" lon="4.62119">
        <ele>374.647857666</ele>
        <time>2015-09-10T14:06:17.082Z</time>
      </trkpt>
      <trkpt lat="46.07044" lon="4.6213">
        <ele>374.816986084</ele>
        <time>2015-09-10T14:06:23.109Z</time>
      </trkpt>
      <trkpt lat="46.07044" lon="4.62132">
        <ele>374.850341797</ele>
        <time>2015-09-10T14:06:24.083Z</time>
      </trkpt>
      <trkpt lat="46.07042" lon="4.62142">
        <ele>375.215362549</ele>
        <time>2015-09-10T14:06:30.077Z</time>
      </trkpt>
      <trkpt lat="46.07041" lon="4.62144">
        <ele>375.286590576</ele>
        <time>2015-09-10T14:06:31.066Z</time>
      </trkpt>
      <trkpt lat="46.07039" lon="4.62157">
        <ele>375.316589355</ele>
        <time>2015-09-10T14:06:38.108Z</time>
      </trkpt>
      <trkpt lat="46.07039" lon="4.62159">
        <ele>375.279937744</ele>
        <time>2015-09-10T14:06:39.053Z</time>
      </trkpt>
      <trkpt lat="46.07035" lon="4.62169">
        <ele>375.209594727</ele>
        <time>2015-09-10T14:06:46.08Z</time>
      </trkpt>
      <trkpt lat="46.07034" lon="4.6217">
        <ele>375.194702148</ele>
        <time>2015-09-10T14:06:47.075Z</time>
      </trkpt>
      <trkpt lat="46.07028" lon="4.62179">
        <ele>375.182830811</ele>
        <time>2015-09-10T14:06:54.125Z</time>
      </trkpt>
      <trkpt lat="46.07027" lon="4.6218">
        <ele>375.174835205</ele>
        <time>2015-09-10T14:06:55.074Z</time>
      </trkpt>
      <trkpt lat="46.0702" lon="4.62188">
        <ele>375.015075684</ele>
        <time>2015-09-10T14:07:01.261Z</time>
      </trkpt>
      <trkpt lat="46.07018" lon="4.6219">
        <ele>374.964080811</ele>
        <time>2015-09-10T14:07:02.068Z</time>
      </trkpt>
      <trkpt lat="46.07012" lon="4.62198">
        <ele>374.801116943</ele>
        <time>2015-09-10T14:07:10.227Z</time>
      </trkpt>
      <trkpt lat="46.07011" lon="4.622">
        <ele>374.795257568</ele>
        <time>2015-09-10T14:07:11.055Z</time>
      </trkpt>
      <trkpt lat="46.07006" lon="4.6221">
        <ele>374.726745605</ele>
        <time>2015-09-10T14:07:18.13Z</time>
      </trkpt>
      <trkpt lat="46.07005" lon="4.62212">
        <ele>374.713867188</ele>
        <time>2015-09-10T14:07:19.084Z</time>
      </trkpt>
      <trkpt lat="46.07001" lon="4.62222">
        <ele>374.706878662</ele>
        <time>2015-09-10T14:07:26.087Z</time>
      </trkpt>
      <trkpt lat="46.07001" lon="4.62224">
        <ele>374.70324707</ele>
        <time>2015-09-10T14:07:27.076Z</time>
      </trkpt>
      <trkpt lat="46.06998" lon="4.62235">
        <ele>374.783416748</ele>
        <time>2015-09-10T14:07:34.132Z</time>
      </trkpt>
      <trkpt lat="46.06998" lon="4.62237">
        <ele>374.802215576</ele>
        <time>2015-09-10T14:07:35.072Z</time>
      </trkpt>
      <trkpt lat="46.06996" lon="4.62248">
        <ele>374.992462158</ele>
        <time>2015-09-10T14:07:42.128Z</time>
      </trkpt>
      <trkpt lat="46.06996" lon="4.6225">
        <ele>375.026519775</ele>
        <time>2015-09-10T14:07:43.091Z</time>
      </trkpt>
      <trkpt lat="46.06996" lon="4.62262">
        <ele>375.206085205</ele>
        <time>2015-09-10T14:07:49.103Z</time>
      </trkpt>
      <trkpt lat="46.06997" lon="4.62263">
        <ele>375.21295166</ele>
        <time>2015-09-10T14:07:50.061Z</time>
      </trkpt>
      <trkpt lat="46.06996" lon="4.62275">
        <ele>375.455413818</ele>
        <time>2015-09-10T14:07:57.104Z</time>
      </trkpt>
      <trkpt lat="46.06996" lon="4.62277">
        <ele>375.49331665</ele>
        <time>2015-09-10T14:07:58.076Z</time>
      </trkpt>
      <trkpt lat="46.06997" lon="4.62288">
        <ele>375.675262451</ele>
        <time>2015-09-10T14:08:04.119Z</time>
      </trkpt>
      <trkpt lat="46.06997" lon="4.6229">
        <ele>375.69921875</ele>
        <time>2015-09-10T14:08:05.075Z</time>
      </trkpt>
      <trkpt lat="46.06998" lon="4.62302">
        <ele>375.68927002</ele>
        <time>2015-09-10T14:08:11.109Z</time>
      </trkpt>
      <trkpt lat="46.06998" lon="4.62303">
        <ele>375.677642822</ele>
        <time>2015-09-10T14:08:12.088Z</time>
      </trkpt>
      <trkpt lat="46.06999" lon="4.62316">
        <ele>375.648132324</ele>
        <time>2015-09-10T14:08:20.112Z</time>
      </trkpt>
      <trkpt lat="46.06999" lon="4.62318">
        <ele>375.666473389</ele>
        <time>2015-09-10T14:08:21.091Z</time>
      </trkpt>
      <trkpt lat="46.06998" lon="4.62329">
        <ele>375.904388428</ele>
        <time>2015-09-10T14:08:26.112Z</time>
      </trkpt>
      <trkpt lat="46.06998" lon="4.62331">
        <ele>375.961334229</ele>
        <time>2015-09-10T14:08:27.094Z</time>
      </trkpt>
      <trkpt lat="46.07" lon="4.62342">
        <ele>376.242858887</ele>
        <time>2015-09-10T14:08:33.103Z</time>
      </trkpt>
      <trkpt lat="46.07" lon="4.62344">
        <ele>376.288970947</ele>
        <time>2015-09-10T14:08:34.078Z</time>
      </trkpt>
      <trkpt lat="46.07002" lon="4.62356">
        <ele>376.447509766</ele>
        <time>2015-09-10T14:09:01.113Z</time>
      </trkpt>
      <trkpt lat="46.07002" lon="4.62357">
        <ele>376.445007324</ele>
        <time>2015-09-10T14:09:02.092Z</time>
      </trkpt>
      <trkpt lat="46.07001" lon="4.62369">
        <ele>376.763885498</ele>
        <time>2015-09-10T14:09:18.136Z</time>
      </trkpt>
      <trkpt lat="46.07001" lon="4.6237">
        <ele>376.770751953</ele>
        <time>2015-09-10T14:09:19.079Z</time>
      </trkpt>
      <trkpt lat="46.07002" lon="4.62382">
        <ele>376.773254395</ele>
        <time>2015-09-10T14:09:27.114Z</time>
      </trkpt>
      <trkpt lat="46.07002" lon="4.62383">
        <ele>376.763458252</ele>
        <time>2015-09-10T14:09:28.08Z</time>
      </trkpt>
      <trkpt lat="46.07003" lon="4.62396">
        <ele>376.718444824</ele>
        <time>2015-09-10T14:09:37.137Z</time>
      </trkpt>
      <trkpt lat="46.07003" lon="4.62397">
        <ele>376.716247559</ele>
        <time>2015-09-10T14:09:38.096Z</time>
      </trkpt>
      <trkpt lat="46.07004" lon="4.6241">
        <ele>376.619384766</ele>
        <time>2015-09-10T14:09:47.115Z</time>
      </trkpt>
      <trkpt lat="46.07003" lon="4.62412">
        <ele>376.626739502</ele>
        <time>2015-09-10T14:09:48.086Z</time>
      </trkpt>
      <trkpt lat="46.07004" lon="4.62424">
        <ele>376.664001465</ele>
        <time>2015-09-10T14:09:56.093Z</time>
      </trkpt>
      <trkpt lat="46.07004" lon="4.62426">
        <ele>376.651580811</ele>
        <time>2015-09-10T14:09:57.076Z</time>
      </trkpt>
      <trkpt lat="46.07005" lon="4.62438">
        <ele>376.752288818</ele>
        <time>2015-09-10T14:10:04.098Z</time>
      </trkpt>
      <trkpt lat="46.07005" lon="4.6244">
        <ele>376.801147461</ele>
        <time>2015-09-10T14:10:05.085Z</time>
      </trkpt>
      <trkpt lat="46.07005" lon="4.62452">
        <ele>377.032318115</ele>
        <time>2015-09-10T14:10:11.129Z</time>
      </trkpt>
      <trkpt lat="46.07005" lon="4.62454">
        <ele>377.060028076</ele>
        <time>2015-09-10T14:10:12.067Z</time>
      </trkpt>
      <trkpt lat="46.07005" lon="4.62467">
        <ele>377.266387939</ele>
        <time>2015-09-10T14:10:20.11Z</time>
      </trkpt>
      <trkpt lat="46.07005" lon="4.62469">
        <ele>377.293487549</ele>
        <time>2015-09-10T14:10:21.093Z</time>
      </trkpt>
      <trkpt lat="46.07006" lon="4.62481">
        <ele>377.522827148</ele>
        <time>2015-09-10T14:10:29.124Z</time>
      </trkpt>
      <trkpt lat="46.07006" lon="4.62482">
        <ele>377.528686523</ele>
        <time>2015-09-10T14:10:30.073Z</time>
      </trkpt>
      <trkpt lat="46.07008" lon="4.62493">
        <ele>377.406036377</ele>
        <time>2015-09-10T14:10:36.105Z</time>
      </trkpt>
      <trkpt lat="46.07008" lon="4.62495">
        <ele>377.387176514</ele>
        <time>2015-09-10T14:10:37.079Z</time>
      </trkpt>
      <trkpt lat="46.07009" lon="4.62507">
        <ele>377.203094482</ele>
        <time>2015-09-10T14:10:44.192Z</time>
      </trkpt>
      <trkpt lat="46.07009" lon="4.62508">
        <ele>377.174926758</ele>
        <time>2015-09-10T14:10:45.085Z</time>
      </trkpt>
      <trkpt lat="46.0701" lon="4.62521">
        <ele>376.959136963</ele>
        <time>2015-09-10T14:10:52.12Z</time>
      </trkpt>
      <trkpt lat="46.07011" lon="4.62522">
        <ele>376.916351318</ele>
        <time>2015-09-10T14:10:53.084Z</time>
      </trkpt>
      <trkpt lat="46.07012" lon="4.62533">
        <ele>376.931945801</ele>
        <time>2015-09-10T14:11:00.12Z</time>
      </trkpt>
      <trkpt lat="46.07012" lon="4.62535">
        <ele>376.92855835</ele>
        <time>2015-09-10T14:11:01.097Z</time>
      </trkpt>
      <trkpt lat="46.07013" lon="4.62547">
        <ele>377.085296631</ele>
        <time>2015-09-10T14:11:10.167Z</time>
      </trkpt>
      <trkpt lat="46.07013" lon="4.62549">
        <ele>377.090911865</ele>
        <time>2015-09-10T14:11:11.076Z</time>
      </trkpt>
      <trkpt lat="46.07015" lon="4.62562">
        <ele>377.257568359</ele>
        <time>2015-09-10T14:11:18.128Z</time>
      </trkpt>
      <trkpt lat="46.07015" lon="4.62563">
        <ele>377.255401611</ele>
        <time>2015-09-10T14:11:19.068Z</time>
      </trkpt>
      <trkpt lat="46.07016" lon="4.62575">
        <ele>377.331359863</ele>
        <time>2015-09-10T14:11:25.075Z</time>
      </trkpt>
      <trkpt lat="46.07016" lon="4.62576">
        <ele>377.327270508</ele>
        <time>2015-09-10T14:11:26.075Z</time>
      </trkpt>
      <trkpt lat="46.07019" lon="4.62587">
        <ele>377.328063965</ele>
        <time>2015-09-10T14:11:34.091Z</time>
      </trkpt>
      <trkpt lat="46.07019" lon="4.62589">
        <ele>377.342559814</ele>
        <time>2015-09-10T14:11:35.073Z</time>
      </trkpt>
      <trkpt lat="46.0702" lon="4.62601">
        <ele>377.581634521</ele>
        <time>2015-09-10T14:11:43.114Z</time>
      </trkpt>
      <trkpt lat="46.0702" lon="4.62603">
        <ele>377.613952637</ele>
        <time>2015-09-10T14:11:44.076Z</time>
      </trkpt>
      <trkpt lat="46.07021" lon="4.62615">
        <ele>377.406494141</ele>
        <time>2015-09-10T14:11:50.1Z</time>
      </trkpt>
      <trkpt lat="46.07022" lon="4.62617">
        <ele>377.37588501</ele>
        <time>2015-09-10T14:11:51.051Z</time>
      </trkpt>
      <trkpt lat="46.07023" lon="4.62629">
        <ele>376.906341553</ele>
        <time>2015-09-10T14:11:58.11Z</time>
      </trkpt>
      <trkpt lat="46.07023" lon="4.6263">
        <ele>376.870910645</ele>
        <time>2015-09-10T14:11:59.068Z</time>
      </trkpt>
      <trkpt lat="46.07025" lon="4.62641">
        <ele>376.557189941</ele>
        <time>2015-09-10T14:12:06.084Z</time>
      </trkpt>
      <trkpt lat="46.07025" lon="4.62643">
        <ele>376.492675781</ele>
        <time>2015-09-10T14:12:07.07Z</time>
      </trkpt>
      <trkpt lat="46.07025" lon="4.62656">
        <ele>375.897705078</ele>
        <time>2015-09-10T14:12:15.107Z</time>
      </trkpt>
      <trkpt lat="46.07026" lon="4.62658">
        <ele>375.80645752</ele>
        <time>2015-09-10T14:12:16.065Z</time>
      </trkpt>
      <trkpt lat="46.07027" lon="4.62671">
        <ele>375.343841553</ele>
        <time>2015-09-10T14:12:23.102Z</time>
      </trkpt>
      <trkpt lat="46.07027" lon="4.62672">
        <ele>375.30178833</ele>
        <time>2015-09-10T14:12:24.083Z</time>
      </trkpt>
      <trkpt lat="46.07029" lon="4.62682">
        <ele>375.005828857</ele>
        <time>2015-09-10T14:12:29.105Z</time>
      </trkpt>
      <trkpt lat="46.0703" lon="4.62685">
        <ele>374.911529541</ele>
        <time>2015-09-10T14:12:30.053Z</time>
      </trkpt>
      <trkpt lat="46.07033" lon="4.62695">
        <ele>373.914489746</ele>
        <time>2015-09-10T14:12:42.116Z</time>
      </trkpt>
      <trkpt lat="46.07033" lon="4.62698">
        <ele>373.816650391</ele>
        <time>2015-09-10T14:12:43.067Z</time>
      </trkpt>
      <trkpt lat="46.07036" lon="4.62709">
        <ele>373.29901123</ele>
        <time>2015-09-10T14:12:50.083Z</time>
      </trkpt>
      <trkpt lat="46.07036" lon="4.6271">
        <ele>373.239105225</ele>
        <time>2015-09-10T14:12:51.06Z</time>
      </trkpt>
      <trkpt lat="46.07039" lon="4.62722">
        <ele>372.695587158</ele>
        <time>2015-09-10T14:12:59.099Z</time>
      </trkpt>
      <trkpt lat="46.07039" lon="4.62724">
        <ele>372.6328125</ele>
        <time>2015-09-10T14:13:00.067Z</time>
      </trkpt>
      <trkpt lat="46.07042" lon="4.62736">
        <ele>372.146728516</ele>
        <time>2015-09-10T14:13:06.114Z</time>
      </trkpt>
      <trkpt lat="46.07042" lon="4.62736">
        <ele>372.071716309</ele>
        <time>2015-09-10T14:13:07.07Z</time>
      </trkpt>
      <trkpt lat="46.07045" lon="4.62748">
        <ele>371.617614746</ele>
        <time>2015-09-10T14:13:14.096Z</time>
      </trkpt>
      <trkpt lat="46.07045" lon="4.62749">
        <ele>371.54776001</ele>
        <time>2015-09-10T14:13:15.076Z</time>
      </trkpt>
      <trkpt lat="46.07048" lon="4.62761">
        <ele>371.18737793</ele>
        <time>2015-09-10T14:13:21.127Z</time>
      </trkpt>
      <trkpt lat="46.07048" lon="4.62762">
        <ele>371.137329102</ele>
        <time>2015-09-10T14:13:22.07Z</time>
      </trkpt>
      <trkpt lat="46.0705" lon="4.62774">
        <ele>370.686401367</ele>
        <time>2015-09-10T14:13:29.106Z</time>
      </trkpt>
      <trkpt lat="46.0705" lon="4.62775">
        <ele>370.620605469</ele>
        <time>2015-09-10T14:13:30.065Z</time>
      </trkpt>
      <trkpt lat="46.07052" lon="4.62786">
        <ele>370.297607422</ele>
        <time>2015-09-10T14:13:36.089Z</time>
      </trkpt>
      <trkpt lat="46.07053" lon="4.62788">
        <ele>370.243377686</ele>
        <time>2015-09-10T14:13:37.074Z</time>
      </trkpt>
      <trkpt lat="46.07055" lon="4.628">
        <ele>369.877410889</ele>
        <time>2015-09-10T14:13:44.102Z</time>
      </trkpt>
      <trkpt lat="46.07055" lon="4.62802">
        <ele>369.823028564</ele>
        <time>2015-09-10T14:13:45.083Z</time>
      </trkpt>
      <trkpt lat="46.07057" lon="4.62813">
        <ele>369.544128418</ele>
        <time>2015-09-10T14:13:51.113Z</time>
      </trkpt>
      <trkpt lat="46.07057" lon="4.62815">
        <ele>369.489227295</ele>
        <time>2015-09-10T14:13:52.073Z</time>
      </trkpt>
      <trkpt lat="46.07059" lon="4.62827">
        <ele>369.21987915</ele>
        <time>2015-09-10T14:13:59.122Z</time>
      </trkpt>
      <trkpt lat="46.07059" lon="4.62829">
        <ele>369.181060791</ele>
        <time>2015-09-10T14:14:00.076Z</time>
      </trkpt>
      <trkpt lat="46.07061" lon="4.62841">
        <ele>368.869781494</ele>
        <time>2015-09-10T14:14:07.125Z</time>
      </trkpt>
      <trkpt lat="46.07061" lon="4.62843">
        <ele>368.849945068</ele>
        <time>2015-09-10T14:14:08.088Z</time>
      </trkpt>
      <trkpt lat="46.07069" lon="4.62849">
        <ele>366.476196289</ele>
        <time>2015-09-10T14:15:07.118Z</time>
      </trkpt>
      <trkpt lat="46.07069" lon="4.62849">
        <ele>366.432159424</ele>
        <time>2015-09-10T14:15:08.078Z</time>
      </trkpt>
      <trkpt lat="46.07076" lon="4.62844">
        <ele>365.819458008</ele>
        <time>2015-09-10T14:15:26.108Z</time>
      </trkpt>
      <trkpt lat="46.07077" lon="4.62842">
        <ele>365.823791504</ele>
        <time>2015-09-10T14:15:27.079Z</time>
      </trkpt>
      <trkpt lat="46.07082" lon="4.62833">
        <ele>365.534301758</ele>
        <time>2015-09-10T14:15:34.149Z</time>
      </trkpt>
      <trkpt lat="46.07083" lon="4.62832">
        <ele>365.484924316</ele>
        <time>2015-09-10T14:15:35.067Z</time>
      </trkpt>
      <trkpt lat="46.07088" lon="4.62822">
        <ele>365.146118164</ele>
        <time>2015-09-10T14:15:42.112Z</time>
      </trkpt>
      <trkpt lat="46.07089" lon="4.62821">
        <ele>365.091766357</ele>
        <time>2015-09-10T14:15:43.082Z</time>
      </trkpt>
      <trkpt lat="46.07093" lon="4.62811">
        <ele>364.769561768</ele>
        <time>2015-09-10T14:15:51.136Z</time>
      </trkpt>
      <trkpt lat="46.07094" lon="4.62809">
        <ele>364.711791992</ele>
        <time>2015-09-10T14:15:52.086Z</time>
      </trkpt>
      <trkpt lat="46.071" lon="4.62801">
        <ele>364.512145996</ele>
        <time>2015-09-10T14:16:00.125Z</time>
      </trkpt>
      <trkpt lat="46.07101" lon="4.62799">
        <ele>364.505096436</ele>
        <time>2015-09-10T14:16:01.08Z</time>
      </trkpt>
      <trkpt lat="46.07106" lon="4.6279">
        <ele>364.685241699</ele>
        <time>2015-09-10T14:16:09.111Z</time>
      </trkpt>
      <trkpt lat="46.07107" lon="4.62789">
        <ele>364.744537354</ele>
        <time>2015-09-10T14:16:10.085Z</time>
      </trkpt>
      <trkpt lat="46.07111" lon="4.6278">
        <ele>364.944152832</ele>
        <time>2015-09-10T14:16:17.118Z</time>
      </trkpt>
      <trkpt lat="46.07112" lon="4.62778">
        <ele>364.960723877</ele>
        <time>2015-09-10T14:16:18.085Z</time>
      </trkpt>
      <trkpt lat="46.07117" lon="4.6277">
        <ele>365.239257812</ele>
        <time>2015-09-10T14:16:25.074Z</time>
      </trkpt>
      <trkpt lat="46.07118" lon="4.62768">
        <ele>365.261993408</ele>
        <time>2015-09-10T14:16:26.067Z</time>
      </trkpt>
      <trkpt lat="46.07124" lon="4.62759">
        <ele>365.222167969</ele>
        <time>2015-09-10T14:16:33.067Z</time>
      </trkpt>
      <trkpt lat="46.07124" lon="4.62757">
        <ele>365.234161377</ele>
        <time>2015-09-10T14:16:34.074Z</time>
      </trkpt>
      <trkpt lat="46.0713" lon="4.62749">
        <ele>365.272827148</ele>
        <time>2015-09-10T14:16:40.071Z</time>
      </trkpt>
      <trkpt lat="46.0713" lon="4.62748">
        <ele>365.270019531</ele>
        <time>2015-09-10T14:16:41.046Z</time>
      </trkpt>
      <trkpt lat="46.07136" lon="4.6274">
        <ele>365.249481201</ele>
        <time>2015-09-10T14:16:47.115Z</time>
      </trkpt>
      <trkpt lat="46.07137" lon="4.62738">
        <ele>365.26071167</ele>
        <time>2015-09-10T14:16:48.081Z</time>
      </trkpt>
      <trkpt lat="46.07143" lon="4.62729">
        <ele>365.23059082</ele>
        <time>2015-09-10T14:16:55.261Z</time>
      </trkpt>
      <trkpt lat="46.07144" lon="4.62728">
        <ele>365.239959717</ele>
        <time>2015-09-10T14:16:56.079Z</time>
      </trkpt>
      <trkpt lat="46.07149" lon="4.62719">
        <ele>365.383636475</ele>
        <time>2015-09-10T14:17:02.099Z</time>
      </trkpt>
      <trkpt lat="46.0715" lon="4.62717">
        <ele>365.443023682</ele>
        <time>2015-09-10T14:17:03.085Z</time>
      </trkpt>
      <trkpt lat="46.07155" lon="4.62708">
        <ele>365.901672363</ele>
        <time>2015-09-10T14:17:10.077Z</time>
      </trkpt>
      <trkpt lat="46.07156" lon="4.62706">
        <ele>365.946166992</ele>
        <time>2015-09-10T14:17:11.068Z</time>
      </trkpt>
      <trkpt lat="46.07162" lon="4.62698">
        <ele>366.133300781</ele>
        <time>2015-09-10T14:17:18.08Z</time>
      </trkpt>
      <trkpt lat="46.07163" lon="4.62696">
        <ele>366.156219482</ele>
        <time>2015-09-10T14:17:19.074Z</time>
      </trkpt>
      <trkpt lat="46.07169" lon="4.62688">
        <ele>366.332458496</ele>
        <time>2015-09-10T14:17:25.114Z</time>
      </trkpt>
      <trkpt lat="46.0717" lon="4.62687">
        <ele>366.359771729</ele>
        <time>2015-09-10T14:17:26.088Z</time>
      </trkpt>
      <trkpt lat="46.07175" lon="4.62678">
        <ele>366.577087402</ele>
        <time>2015-09-10T14:17:33.098Z</time>
      </trkpt>
      <trkpt lat="46.07176" lon="4.62677">
        <ele>366.590270996</ele>
        <time>2015-09-10T14:17:34.077Z</time>
      </trkpt>
      <trkpt lat="46.07181" lon="4.62669">
        <ele>366.754882812</ele>
        <time>2015-09-10T14:17:40.108Z</time>
      </trkpt>
      <trkpt lat="46.07182" lon="4.62666">
        <ele>366.779541016</ele>
        <time>2015-09-10T14:17:41.067Z</time>
      </trkpt>
      <trkpt lat="46.07188" lon="4.62658">
        <ele>367.040222168</ele>
        <time>2015-09-10T14:17:48.102Z</time>
      </trkpt>
      <trkpt lat="46.07189" lon="4.62657">
        <ele>367.089538574</ele>
        <time>2015-09-10T14:17:49.092Z</time>
      </trkpt>
      <trkpt lat="46.07196" lon="4.62649">
        <ele>367.502471924</ele>
        <time>2015-09-10T14:17:56.111Z</time>
      </trkpt>
      <trkpt lat="46.07196" lon="4.62648">
        <ele>367.557769775</ele>
        <time>2015-09-10T14:17:57.073Z</time>
      </trkpt>
      <trkpt lat="46.07204" lon="4.62643">
        <ele>367.648925781</ele>
        <time>2015-09-10T14:18:03.135Z</time>
      </trkpt>
      <trkpt lat="46.07205" lon="4.62642">
        <ele>367.644439697</ele>
        <time>2015-09-10T14:18:04.082Z</time>
      </trkpt>
      <trkpt lat="46.07213" lon="4.6264">
        <ele>367.837982178</ele>
        <time>2015-09-10T14:18:11.102Z</time>
      </trkpt>
      <trkpt lat="46.07214" lon="4.6264">
        <ele>367.892974854</ele>
        <time>2015-09-10T14:18:12.068Z</time>
      </trkpt>
      <trkpt lat="46.07221" lon="4.62637">
        <ele>368.073577881</ele>
        <time>2015-09-10T14:18:19.123Z</time>
      </trkpt>
      <trkpt lat="46.07222" lon="4.62636">
        <ele>368.092834473</ele>
        <time>2015-09-10T14:18:20.076Z</time>
      </trkpt>
      <trkpt lat="46.0723" lon="4.62633">
        <ele>368.475250244</ele>
        <time>2015-09-10T14:18:26.091Z</time>
      </trkpt>
      <trkpt lat="46.07231" lon="4.62633">
        <ele>368.526794434</ele>
        <time>2015-09-10T14:18:27.067Z</time>
      </trkpt>
      <trkpt lat="46.07239" lon="4.62631">
        <ele>369.030426025</ele>
        <time>2015-09-10T14:18:34.11Z</time>
      </trkpt>
      <trkpt lat="46.07241" lon="4.62631">
        <ele>369.092132568</ele>
        <time>2015-09-10T14:18:35.072Z</time>
      </trkpt>
      <trkpt lat="46.07248" lon="4.62625">
        <ele>369.336791992</ele>
        <time>2015-09-10T14:18:41.113Z</time>
      </trkpt>
      <trkpt lat="46.07249" lon="4.62625">
        <ele>369.42779541</ele>
        <time>2015-09-10T14:18:42.074Z</time>
      </trkpt>
      <trkpt lat="46.07257" lon="4.62619">
        <ele>370.332336426</ele>
        <time>2015-09-10T14:18:50.104Z</time>
      </trkpt>
      <trkpt lat="46.07259" lon="4.62618">
        <ele>370.50100708</ele>
        <time>2015-09-10T14:18:51.056Z</time>
      </trkpt>
      <trkpt lat="46.07266" lon="4.6261">
        <ele>371.107635498</ele>
        <time>2015-09-10T14:18:57.109Z</time>
      </trkpt>
      <trkpt lat="46.07267" lon="4.62609">
        <ele>371.159423828</ele>
        <time>2015-09-10T14:18:58.072Z</time>
      </trkpt>
      <trkpt lat="46.07272" lon="4.626">
        <ele>371.95413208</ele>
        <time>2015-09-10T14:19:07.099Z</time>
      </trkpt>
      <trkpt lat="46.07274" lon="4.62598">
        <ele>372.099121094</ele>
        <time>2015-09-10T14:19:08.095Z</time>
      </trkpt>
      <trkpt lat="46.07279" lon="4.6259">
        <ele>373.538787842</ele>
        <time>2015-09-10T14:19:16.098Z</time>
      </trkpt>
      <trkpt lat="46.0728" lon="4.62589">
        <ele>373.685302734</ele>
        <time>2015-09-10T14:19:17.074Z</time>
      </trkpt>
      <trkpt lat="46.07286" lon="4.62582">
        <ele>374.171539307</ele>
        <time>2015-09-10T14:19:21.113Z</time>
      </trkpt>
      <trkpt lat="46.07287" lon="4.6258">
        <ele>374.290039062</ele>
        <time>2015-09-10T14:19:22.071Z</time>
      </trkpt>
      <trkpt lat="46.07293" lon="4.62571">
        <ele>374.689056396</ele>
        <time>2015-09-10T14:19:27.104Z</time>
      </trkpt>
      <trkpt lat="46.07293" lon="4.6257">
        <ele>374.764862061</ele>
        <time>2015-09-10T14:19:28.082Z</time>
      </trkpt>
      <trkpt lat="46.07299" lon="4.6256">
        <ele>375.442718506</ele>
        <time>2015-09-10T14:19:35.109Z</time>
      </trkpt>
      <trkpt lat="46.073" lon="4.62558">
        <ele>375.553314209</ele>
        <time>2015-09-10T14:19:36.078Z</time>
      </trkpt>
      <trkpt lat="46.07305" lon="4.62549">
        <ele>376.03515625</ele>
        <time>2015-09-10T14:19:43.098Z</time>
      </trkpt>
      <trkpt lat="46.07306" lon="4.62547">
        <ele>376.077209473</ele>
        <time>2015-09-10T14:19:44.076Z</time>
      </trkpt>
      <trkpt lat="46.07311" lon="4.62538">
        <ele>376.373321533</ele>
        <time>2015-09-10T14:19:51.117Z</time>
      </trkpt>
      <trkpt lat="46.07311" lon="4.62537">
        <ele>376.387298584</ele>
        <time>2015-09-10T14:19:52.059Z</time>
      </trkpt>
      <trkpt lat="46.07317" lon="4.62529">
        <ele>376.496063232</ele>
        <time>2015-09-10T14:19:59.237Z</time>
      </trkpt>
      <trkpt lat="46.07319" lon="4.62527">
        <ele>376.512512207</ele>
        <time>2015-09-10T14:20:00.083Z</time>
      </trkpt>
      <trkpt lat="46.07325" lon="4.6252">
        <ele>376.681518555</ele>
        <time>2015-09-10T14:20:07.11Z</time>
      </trkpt>
      <trkpt lat="46.07326" lon="4.62519">
        <ele>376.700317383</ele>
        <time>2015-09-10T14:20:08.075Z</time>
      </trkpt>
      <trkpt lat="46.07332" lon="4.62511">
        <ele>376.914001465</ele>
        <time>2015-09-10T14:20:13.106Z</time>
      </trkpt>
      <trkpt lat="46.07333" lon="4.6251">
        <ele>376.977935791</ele>
        <time>2015-09-10T14:20:14.084Z</time>
      </trkpt>
      <trkpt lat="46.07339" lon="4.62502">
        <ele>377.168609619</ele>
        <time>2015-09-10T14:20:23.125Z</time>
      </trkpt>
      <trkpt lat="46.0734" lon="4.62502">
        <ele>377.163696289</ele>
        <time>2015-09-10T14:20:24.084Z</time>
      </trkpt>
      <trkpt lat="46.07347" lon="4.62495">
        <ele>377.565856934</ele>
        <time>2015-09-10T14:20:31.252Z</time>
      </trkpt>
      <trkpt lat="46.07348" lon="4.62493">
        <ele>377.679260254</ele>
        <time>2015-09-10T14:20:32.089Z</time>
      </trkpt>
      <trkpt lat="46.07355" lon="4.62487">
        <ele>378.082244873</ele>
        <time>2015-09-10T14:20:36.105Z</time>
      </trkpt>
      <trkpt lat="46.07356" lon="4.62485">
        <ele>378.099578857</ele>
        <time>2015-09-10T14:20:37.078Z</time>
      </trkpt>
      <trkpt lat="46.07363" lon="4.62478">
        <ele>378.316223145</ele>
        <time>2015-09-10T14:20:43.085Z</time>
      </trkpt>
      <trkpt lat="46.07363" lon="4.62477">
        <ele>378.370269775</ele>
        <time>2015-09-10T14:20:44.078Z</time>
      </trkpt>
      <trkpt lat="46.07368" lon="4.62466">
        <ele>378.784576416</ele>
        <time>2015-09-10T14:21:03.125Z</time>
      </trkpt>
      <trkpt lat="46.07369" lon="4.62465">
        <ele>378.813995361</ele>
        <time>2015-09-10T14:21:04.079Z</time>
      </trkpt>
      <trkpt lat="46.07374" lon="4.62457">
        <ele>379.012969971</ele>
        <time>2015-09-10T14:21:11.111Z</time>
      </trkpt>
      <trkpt lat="46.07376" lon="4.62455">
        <ele>379.080291748</ele>
        <time>2015-09-10T14:21:12.086Z</time>
      </trkpt>
      <trkpt lat="46.07381" lon="4.62444">
        <ele>379.395812988</ele>
        <time>2015-09-10T14:21:18.101Z</time>
      </trkpt>
      <trkpt lat="46.07381" lon="4.62443">
        <ele>379.45425415</ele>
        <time>2015-09-10T14:21:19.081Z</time>
      </trkpt>
      <trkpt lat="46.07386" lon="4.62433">
        <ele>379.99987793</ele>
        <time>2015-09-10T14:21:27.131Z</time>
      </trkpt>
      <trkpt lat="46.07387" lon="4.62431">
        <ele>380.058746338</ele>
        <time>2015-09-10T14:21:28.081Z</time>
      </trkpt>
      <trkpt lat="46.07392" lon="4.62423">
        <ele>380.418457031</ele>
        <time>2015-09-10T14:21:34.116Z</time>
      </trkpt>
      <trkpt lat="46.07393" lon="4.62421">
        <ele>380.464477539</ele>
        <time>2015-09-10T14:21:35.074Z</time>
      </trkpt>
      <trkpt lat="46.07398" lon="4.62412">
        <ele>380.650970459</ele>
        <time>2015-09-10T14:21:41.101Z</time>
      </trkpt>
      <trkpt lat="46.07399" lon="4.62411">
        <ele>380.720672607</ele>
        <time>2015-09-10T14:21:42.073Z</time>
      </trkpt>
      <trkpt lat="46.07405" lon="4.62403">
        <ele>381.076690674</ele>
        <time>2015-09-10T14:21:48.093Z</time>
      </trkpt>
      <trkpt lat="46.07405" lon="4.62402">
        <ele>381.16317749</ele>
        <time>2015-09-10T14:21:49.066Z</time>
      </trkpt>
      <trkpt lat="46.07412" lon="4.62395">
        <ele>381.507110596</ele>
        <time>2015-09-10T14:21:55.148Z</time>
      </trkpt>
      <trkpt lat="46.07413" lon="4.62393">
        <ele>381.561828613</ele>
        <time>2015-09-10T14:21:56.067Z</time>
      </trkpt>
      <trkpt lat="46.07419" lon="4.62386">
        <ele>381.812011719</ele>
        <time>2015-09-10T14:22:02.11Z</time>
      </trkpt>
      <trkpt lat="46.0742" lon="4.62385">
        <ele>381.831726074</ele>
        <time>2015-09-10T14:22:03.073Z</time>
      </trkpt>
      <trkpt lat="46.07426" lon="4.62378">
        <ele>382.200683594</ele>
        <time>2015-09-10T14:22:09.095Z</time>
      </trkpt>
      <trkpt lat="46.07427" lon="4.62377">
        <ele>382.270812988</ele>
        <time>2015-09-10T14:22:10.044Z</time>
      </trkpt>
      <trkpt lat="46.07435" lon="4.62369">
        <ele>382.578094482</ele>
        <time>2015-09-10T14:22:17.106Z</time>
      </trkpt>
      <trkpt lat="46.07436" lon="4.62368">
        <ele>382.639434814</ele>
        <time>2015-09-10T14:22:18.081Z</time>
      </trkpt>
      <trkpt lat="46.07442" lon="4.62362">
        <ele>383.122192383</ele>
        <time>2015-09-10T14:22:25.098Z</time>
      </trkpt>
      <trkpt lat="46.07443" lon="4.62361">
        <ele>383.181030273</ele>
        <time>2015-09-10T14:22:26.061Z</time>
      </trkpt>
      <trkpt lat="46.07449" lon="4.62354">
        <ele>383.525939941</ele>
        <time>2015-09-10T14:22:32.079Z</time>
      </trkpt>
      <trkpt lat="46.0745" lon="4.62353">
        <ele>383.632720947</ele>
        <time>2015-09-10T14:22:33.047Z</time>
      </trkpt>
      <trkpt lat="46.07457" lon="4.62346">
        <ele>384.250854492</ele>
        <time>2015-09-10T14:22:40.155Z</time>
      </trkpt>
      <trkpt lat="46.07458" lon="4.62345">
        <ele>384.355560303</ele>
        <time>2015-09-10T14:22:41.081Z</time>
      </trkpt>
      <trkpt lat="46.07465" lon="4.62337">
        <ele>384.772979736</ele>
        <time>2015-09-10T14:22:47.07Z</time>
      </trkpt>
      <trkpt lat="46.07465" lon="4.62336">
        <ele>384.841918945</ele>
        <time>2015-09-10T14:22:48.052Z</time>
      </trkpt>
      <trkpt lat="46.07472" lon="4.62329">
        <ele>385.132843018</ele>
        <time>2015-09-10T14:22:55.101Z</time>
      </trkpt>
      <trkpt lat="46.07473" lon="4.62328">
        <ele>385.18371582</ele>
        <time>2015-09-10T14:22:56.066Z</time>
      </trkpt>
      <trkpt lat="46.07479" lon="4.62321">
        <ele>385.670074463</ele>
        <time>2015-09-10T14:23:03.076Z</time>
      </trkpt>
      <trkpt lat="46.0748" lon="4.6232">
        <ele>385.748168945</ele>
        <time>2015-09-10T14:23:04.095Z</time>
      </trkpt>
      <trkpt lat="46.07487" lon="4.62312">
        <ele>386.562530518</ele>
        <time>2015-09-10T14:23:18.094Z</time>
      </trkpt>
      <trkpt lat="46.07488" lon="4.62312">
        <ele>386.704650879</ele>
        <time>2015-09-10T14:23:19.052Z</time>
      </trkpt>
      <trkpt lat="46.07494" lon="4.62303">
        <ele>388.135406494</ele>
        <time>2015-09-10T14:23:32.135Z</time>
      </trkpt>
      <trkpt lat="46.07495" lon="4.62302">
        <ele>388.229675293</ele>
        <time>2015-09-10T14:23:33.069Z</time>
      </trkpt>
      <trkpt lat="46.07502" lon="4.62296">
        <ele>389.234863281</ele>
        <time>2015-09-10T14:23:42.104Z</time>
      </trkpt>
      <trkpt lat="46.07503" lon="4.62296">
        <ele>389.345733643</ele>
        <time>2015-09-10T14:23:43.051Z</time>
      </trkpt>
      <trkpt lat="46.07511" lon="4.62291">
        <ele>390.093292236</ele>
        <time>2015-09-10T14:23:52.095Z</time>
      </trkpt>
      <trkpt lat="46.07511" lon="4.6229">
        <ele>390.169494629</ele>
        <time>2015-09-10T14:23:53.083Z</time>
      </trkpt>
      <trkpt lat="46.07519" lon="4.62284">
        <ele>391.121398926</ele>
        <time>2015-09-10T14:24:04.097Z</time>
      </trkpt>
      <trkpt lat="46.0752" lon="4.62284">
        <ele>391.182739258</ele>
        <time>2015-09-10T14:24:05.082Z</time>
      </trkpt>
      <trkpt lat="46.07528" lon="4.62279">
        <ele>391.785644531</ele>
        <time>2015-09-10T14:24:13.079Z</time>
      </trkpt>
      <trkpt lat="46.07529" lon="4.62279">
        <ele>391.927978516</ele>
        <time>2015-09-10T14:24:14.066Z</time>
      </trkpt>
      <trkpt lat="46.07537" lon="4.62274">
        <ele>392.772613525</ele>
        <time>2015-09-10T14:24:22.093Z</time>
      </trkpt>
      <trkpt lat="46.07538" lon="4.62273">
        <ele>392.847503662</ele>
        <time>2015-09-10T14:24:23.073Z</time>
      </trkpt>
      <trkpt lat="46.07545" lon="4.62268">
        <ele>393.30178833</ele>
        <time>2015-09-10T14:24:30.101Z</time>
      </trkpt>
      <trkpt lat="46.07546" lon="4.62267">
        <ele>393.350250244</ele>
        <time>2015-09-10T14:24:31.075Z</time>
      </trkpt>
      <trkpt lat="46.07554" lon="4.62262">
        <ele>393.974090576</ele>
        <time>2015-09-10T14:24:38.105Z</time>
      </trkpt>
      <trkpt lat="46.07555" lon="4.62261">
        <ele>394.052825928</ele>
        <time>2015-09-10T14:24:39.086Z</time>
      </trkpt>
      <trkpt lat="46.07563" lon="4.62256">
        <ele>394.784820557</ele>
        <time>2015-09-10T14:24:47.109Z</time>
      </trkpt>
      <trkpt lat="46.07564" lon="4.62255">
        <ele>394.895477295</ele>
        <time>2015-09-10T14:24:48.064Z</time>
      </trkpt>
      <trkpt lat="46.07571" lon="4.62251">
        <ele>395.591918945</ele>
        <time>2015-09-10T14:24:55.103Z</time>
      </trkpt>
      <trkpt lat="46.07572" lon="4.6225">
        <ele>395.679656982</ele>
        <time>2015-09-10T14:24:56.057Z</time>
      </trkpt>
      <trkpt lat="46.0758" lon="4.62243">
        <ele>396.389709473</ele>
        <time>2015-09-10T14:25:04.108Z</time>
      </trkpt>
      <trkpt lat="46.07581" lon="4.62242">
        <ele>396.517608643</ele>
        <time>2015-09-10T14:25:05.083Z</time>
      </trkpt>
      <trkpt lat="46.07589" lon="4.62237">
        <ele>397.298370361</ele>
        <time>2015-09-10T14:25:12.097Z</time>
      </trkpt>
      <trkpt lat="46.0759" lon="4.62236">
        <ele>397.408935547</ele>
        <time>2015-09-10T14:25:13.076Z</time>
      </trkpt>
      <trkpt lat="46.07598" lon="4.62231">
        <ele>398.264556885</ele>
        <time>2015-09-10T14:25:20.102Z</time>
      </trkpt>
      <trkpt lat="46.07599" lon="4.62231">
        <ele>398.404785156</ele>
        <time>2015-09-10T14:25:21.077Z</time>
      </trkpt>
      <trkpt lat="46.07606" lon="4.62227">
        <ele>399.352630615</ele>
        <time>2015-09-10T14:25:28.125Z</time>
      </trkpt>
      <trkpt lat="46.07607" lon="4.62226">
        <ele>399.494018555</ele>
        <time>2015-09-10T14:25:29.084Z</time>
      </trkpt>
      <trkpt lat="46.07616" lon="4.62223">
        <ele>400.727935791</ele>
        <time>2015-09-10T14:25:37.101Z</time>
      </trkpt>
      <trkpt lat="46.07617" lon="4.62222">
        <ele>400.869506836</ele>
        <time>2015-09-10T14:25:38.084Z</time>
      </trkpt>
      <trkpt lat="46.07625" lon="4.62218">
        <ele>402.099639893</ele>
        <time>2015-09-10T14:25:46.111Z</time>
      </trkpt>
      <trkpt lat="46.07626" lon="4.62218">
        <ele>402.267852783</ele>
        <time>2015-09-10T14:25:47.068Z</time>
      </trkpt>
      <trkpt lat="46.07634" lon="4.62215">
        <ele>403.605743408</ele>
        <time>2015-09-10T14:25:55.112Z</time>
      </trkpt>
      <trkpt lat="46.07636" lon="4.62215">
        <ele>403.761260986</ele>
        <time>2015-09-10T14:25:56.073Z</time>
      </trkpt>
      <trkpt lat="46.07643" lon="4.62212">
        <ele>405.036956787</ele>
        <time>2015-09-10T14:26:04.139Z</time>
      </trkpt>
      <trkpt lat="46.07644" lon="4.62211">
        <ele>405.171081543</ele>
        <time>2015-09-10T14:26:05.073Z</time>
      </trkpt>
      <trkpt lat="46.07653" lon="4.62208">
        <ele>406.228881836</ele>
        <time>2015-09-10T14:26:13.087Z</time>
      </trkpt>
      <trkpt lat="46.07654" lon="4.62208">
        <ele>406.375640869</ele>
        <time>2015-09-10T14:26:14.071Z</time>
      </trkpt>
      <trkpt lat="46.07662" lon="4.62205">
        <ele>407.337921143</ele>
        <time>2015-09-10T14:26:21.115Z</time>
      </trkpt>
      <trkpt lat="46.07663" lon="4.62204">
        <ele>407.47088623</ele>
        <time>2015-09-10T14:26:22.081Z</time>
      </trkpt>
      <trkpt lat="46.07671" lon="4.62202">
        <ele>408.335479736</ele>
        <time>2015-09-10T14:26:29.117Z</time>
      </trkpt>
      <trkpt lat="46.07672" lon="4.62201">
        <ele>408.494537354</ele>
        <time>2015-09-10T14:26:30.065Z</time>
      </trkpt>
      <trkpt lat="46.07681" lon="4.62199">
        <ele>409.634765625</ele>
        <time>2015-09-10T14:26:36.084Z</time>
      </trkpt>
      <trkpt lat="46.07682" lon="4.62199">
        <ele>409.831237793</ele>
        <time>2015-09-10T14:26:37.074Z</time>
      </trkpt>
      <trkpt lat="46.0769" lon="4.62196">
        <ele>411.081176758</ele>
        <time>2015-09-10T14:26:44.113Z</time>
      </trkpt>
      <trkpt lat="46.07691" lon="4.62195">
        <ele>411.237060547</ele>
        <time>2015-09-10T14:26:45.088Z</time>
      </trkpt>
      <trkpt lat="46.07698" lon="4.62192">
        <ele>412.073181152</ele>
        <time>2015-09-10T14:26:51.069Z</time>
      </trkpt>
      <trkpt lat="46.077" lon="4.62192">
        <ele>412.24407959</ele>
        <time>2015-09-10T14:26:52.075Z</time>
      </trkpt>
      <trkpt lat="46.07708" lon="4.6219">
        <ele>413.309020996</ele>
        <time>2015-09-10T14:26:59.116Z</time>
      </trkpt>
      <trkpt lat="46.07709" lon="4.6219">
        <ele>413.429412842</ele>
        <time>2015-09-10T14:27:00.065Z</time>
      </trkpt>
      <trkpt lat="46.07718" lon="4.62191">
        <ele>414.163024902</ele>
        <time>2015-09-10T14:27:07.102Z</time>
      </trkpt>
      <trkpt lat="46.07719" lon="4.62192">
        <ele>414.280883789</ele>
        <time>2015-09-10T14:27:08.078Z</time>
      </trkpt>
      <trkpt lat="46.07727" lon="4.62198">
        <ele>415.291320801</ele>
        <time>2015-09-10T14:27:16.1Z</time>
      </trkpt>
      <trkpt lat="46.07727" lon="4.62199">
        <ele>415.461578369</ele>
        <time>2015-09-10T14:27:17.072Z</time>
      </trkpt>
      <trkpt lat="46.07734" lon="4.62207">
        <ele>416.566589355</ele>
        <time>2015-09-10T14:27:24.094Z</time>
      </trkpt>
      <trkpt lat="46.07735" lon="4.62209">
        <ele>416.704101562</ele>
        <time>2015-09-10T14:27:25.066Z</time>
      </trkpt>
      <trkpt lat="46.0774" lon="4.62217">
        <ele>417.35723877</ele>
        <time>2015-09-10T14:27:31.262Z</time>
      </trkpt>
      <trkpt lat="46.07741" lon="4.62218">
        <ele>417.441680908</ele>
        <time>2015-09-10T14:27:32.044Z</time>
      </trkpt>
      <trkpt lat="46.07748" lon="4.62226">
        <ele>418.233459473</ele>
        <time>2015-09-10T14:27:39.097Z</time>
      </trkpt>
      <trkpt lat="46.07749" lon="4.62227">
        <ele>418.338256836</ele>
        <time>2015-09-10T14:27:40.063Z</time>
      </trkpt>
      <trkpt lat="46.07755" lon="4.62236">
        <ele>419.005981445</ele>
        <time>2015-09-10T14:27:47.107Z</time>
      </trkpt>
      <trkpt lat="46.07756" lon="4.62238">
        <ele>419.08581543</ele>
        <time>2015-09-10T14:27:48.043Z</time>
      </trkpt>
      <trkpt lat="46.07762" lon="4.62245">
        <ele>419.547790527</ele>
        <time>2015-09-10T14:27:54.101Z</time>
      </trkpt>
      <trkpt lat="46.07763" lon="4.62246">
        <ele>419.646026611</ele>
        <time>2015-09-10T14:27:55.076Z</time>
      </trkpt>
      <trkpt lat="46.07769" lon="4.62256">
        <ele>420.229278564</ele>
        <time>2015-09-10T14:28:02.098Z</time>
      </trkpt>
      <trkpt lat="46.07769" lon="4.62257">
        <ele>420.320739746</ele>
        <time>2015-09-10T14:28:03.075Z</time>
      </trkpt>
      <trkpt lat="46.07774" lon="4.62267">
        <ele>421.006622314</ele>
        <time>2015-09-10T14:28:11.09Z</time>
      </trkpt>
      <trkpt lat="46.07775" lon="4.62267">
        <ele>421.115234375</ele>
        <time>2015-09-10T14:28:12.057Z</time>
      </trkpt>
      <trkpt lat="46.0778" lon="4.62277">
        <ele>421.550354004</ele>
        <time>2015-09-10T14:28:18.096Z</time>
      </trkpt>
      <trkpt lat="46.07781" lon="4.62279">
        <ele>421.588226318</ele>
        <time>2015-09-10T14:28:19.081Z</time>
      </trkpt>
      <trkpt lat="46.07786" lon="4.62289">
        <ele>421.696990967</ele>
        <time>2015-09-10T14:28:25.09Z</time>
      </trkpt>
      <trkpt lat="46.07786" lon="4.6229">
        <ele>421.696289062</ele>
        <time>2015-09-10T14:28:26.082Z</time>
      </trkpt>
      <trkpt lat="46.07792" lon="4.623">
        <ele>421.55380249</ele>
        <time>2015-09-10T14:28:33.114Z</time>
      </trkpt>
      <trkpt lat="46.07792" lon="4.62301">
        <ele>421.496673584</ele>
        <time>2015-09-10T14:28:34.061Z</time>
      </trkpt>
      <trkpt lat="46.07797" lon="4.6231">
        <ele>421.016296387</ele>
        <time>2015-09-10T14:28:40.093Z</time>
      </trkpt>
      <trkpt lat="46.07798" lon="4.62311">
        <ele>420.937469482</ele>
        <time>2015-09-10T14:28:41.053Z</time>
      </trkpt>
      <trkpt lat="46.07804" lon="4.62321">
        <ele>420.561737061</ele>
        <time>2015-09-10T14:28:47.101Z</time>
      </trkpt>
      <trkpt lat="46.07804" lon="4.62322">
        <ele>420.50213623</ele>
        <time>2015-09-10T14:28:48.092Z</time>
      </trkpt>
      <trkpt lat="46.0781" lon="4.62332">
        <ele>420.106536865</ele>
        <time>2015-09-10T14:28:55.106Z</time>
      </trkpt>
      <trkpt lat="46.07811" lon="4.62334">
        <ele>420.042327881</ele>
        <time>2015-09-10T14:28:56.068Z</time>
      </trkpt>
      <trkpt lat="46.07816" lon="4.62343">
        <ele>419.550506592</ele>
        <time>2015-09-10T14:29:03.071Z</time>
      </trkpt>
      <trkpt lat="46.07817" lon="4.62345">
        <ele>419.486175537</ele>
        <time>2015-09-10T14:29:04.064Z</time>
      </trkpt>
      <trkpt lat="46.07821" lon="4.62354">
        <ele>419.053100586</ele>
        <time>2015-09-10T14:29:10.093Z</time>
      </trkpt>
      <trkpt lat="46.07822" lon="4.62356">
        <ele>418.989868164</ele>
        <time>2015-09-10T14:29:11.073Z</time>
      </trkpt>
      <trkpt lat="46.07826" lon="4.62366">
        <ele>418.719329834</ele>
        <time>2015-09-10T14:29:16.092Z</time>
      </trkpt>
      <trkpt lat="46.07826" lon="4.62368">
        <ele>418.659606934</ele>
        <time>2015-09-10T14:29:17.05Z</time>
      </trkpt>
      <trkpt lat="46.07831" lon="4.62378">
        <ele>418.367919922</ele>
        <time>2015-09-10T14:29:24.103Z</time>
      </trkpt>
      <trkpt lat="46.07831" lon="4.62379">
        <ele>418.349945068</ele>
        <time>2015-09-10T14:29:25.059Z</time>
      </trkpt>
      <trkpt lat="46.07835" lon="4.62389">
        <ele>418.075531006</ele>
        <time>2015-09-10T14:29:30.078Z</time>
      </trkpt>
      <trkpt lat="46.07836" lon="4.62391">
        <ele>418.01083374</ele>
        <time>2015-09-10T14:29:31.077Z</time>
      </trkpt>
      <trkpt lat="46.0784" lon="4.624">
        <ele>417.690063477</ele>
        <time>2015-09-10T14:29:37.074Z</time>
      </trkpt>
      <trkpt lat="46.07841" lon="4.62402">
        <ele>417.643981934</ele>
        <time>2015-09-10T14:29:38.071Z</time>
      </trkpt>
      <trkpt lat="46.07845" lon="4.62413">
        <ele>417.353485107</ele>
        <time>2015-09-10T14:29:44.106Z</time>
      </trkpt>
      <trkpt lat="46.07846" lon="4.62415">
        <ele>417.310852051</ele>
        <time>2015-09-10T14:29:45.059Z</time>
      </trkpt>
      <trkpt lat="46.07851" lon="4.62424">
        <ele>417.028900146</ele>
        <time>2015-09-10T14:29:52.105Z</time>
      </trkpt>
      <trkpt lat="46.07852" lon="4.62425">
        <ele>416.990264893</ele>
        <time>2015-09-10T14:29:53.056Z</time>
      </trkpt>
      <trkpt lat="46.07857" lon="4.62433">
        <ele>416.795806885</ele>
        <time>2015-09-10T14:29:59.095Z</time>
      </trkpt>
      <trkpt lat="46.07858" lon="4.62435">
        <ele>416.76385498</ele>
        <time>2015-09-10T14:30:00.068Z</time>
      </trkpt>
      <trkpt lat="46.07863" lon="4.62443">
        <ele>416.508392334</ele>
        <time>2015-09-10T14:30:06.125Z</time>
      </trkpt>
      <trkpt lat="46.07864" lon="4.62445">
        <ele>416.453704834</ele>
        <time>2015-09-10T14:30:07.075Z</time>
      </trkpt>
      <trkpt lat="46.07869" lon="4.62454">
        <ele>416.087310791</ele>
        <time>2015-09-10T14:30:13.099Z</time>
      </trkpt>
      <trkpt lat="46.0787" lon="4.62455">
        <ele>416.02911377</ele>
        <time>2015-09-10T14:30:14.082Z</time>
      </trkpt>
      <trkpt lat="46.07877" lon="4.62464">
        <ele>415.612579346</ele>
        <time>2015-09-10T14:30:21.12Z</time>
      </trkpt>
      <trkpt lat="46.07878" lon="4.62465">
        <ele>415.566955566</ele>
        <time>2015-09-10T14:30:22.068Z</time>
      </trkpt>
      <trkpt lat="46.07883" lon="4.62472">
        <ele>415.237762451</ele>
        <time>2015-09-10T14:30:28.115Z</time>
      </trkpt>
      <trkpt lat="46.07884" lon="4.62474">
        <ele>415.159362793</ele>
        <time>2015-09-10T14:30:29.091Z</time>
      </trkpt>
      <trkpt lat="46.07891" lon="4.62481">
        <ele>414.638580322</ele>
        <time>2015-09-10T14:30:36.117Z</time>
      </trkpt>
      <trkpt lat="46.07892" lon="4.62482">
        <ele>414.564056396</ele>
        <time>2015-09-10T14:30:37.075Z</time>
      </trkpt>
      <trkpt lat="46.07898" lon="4.6249">
        <ele>414.008850098</ele>
        <time>2015-09-10T14:30:45.132Z</time>
      </trkpt>
      <trkpt lat="46.07899" lon="4.62491">
        <ele>413.955688477</ele>
        <time>2015-09-10T14:30:46.057Z</time>
      </trkpt>
      <trkpt lat="46.07903" lon="4.62501">
        <ele>413.234222412</ele>
        <time>2015-09-10T14:30:54.103Z</time>
      </trkpt>
      <trkpt lat="46.07904" lon="4.62502">
        <ele>413.161834717</ele>
        <time>2015-09-10T14:30:55.073Z</time>
      </trkpt>
      <trkpt lat="46.07907" lon="4.62514">
        <ele>412.676635742</ele>
        <time>2015-09-10T14:31:04.149Z</time>
      </trkpt>
      <trkpt lat="46.07907" lon="4.62515">
        <ele>412.599700928</ele>
        <time>2015-09-10T14:31:05.087Z</time>
      </trkpt>
      <trkpt lat="46.07909" lon="4.62527">
        <ele>411.891052246</ele>
        <time>2015-09-10T14:31:12.102Z</time>
      </trkpt>
      <trkpt lat="46.07909" lon="4.62529">
        <ele>411.805877686</ele>
        <time>2015-09-10T14:31:13.082Z</time>
      </trkpt>
      <trkpt lat="46.07912" lon="4.6254">
        <ele>411.286254883</ele>
        <time>2015-09-10T14:31:19.1Z</time>
      </trkpt>
      <trkpt lat="46.07912" lon="4.62542">
        <ele>411.212554932</ele>
        <time>2015-09-10T14:31:20.086Z</time>
      </trkpt>
      <trkpt lat="46.07916" lon="4.62554">
        <ele>411.016815186</ele>
        <time>2015-09-10T14:31:27.121Z</time>
      </trkpt>
      <trkpt lat="46.07916" lon="4.62556">
        <ele>410.975738525</ele>
        <time>2015-09-10T14:31:28.083Z</time>
      </trkpt>
      <trkpt lat="46.07918" lon="4.62567">
        <ele>410.668304443</ele>
        <time>2015-09-10T14:31:34.105Z</time>
      </trkpt>
      <trkpt lat="46.07918" lon="4.6257">
        <ele>410.570465088</ele>
        <time>2015-09-10T14:31:35.088Z</time>
      </trkpt>
      <trkpt lat="46.0792" lon="4.6258">
        <ele>409.807647705</ele>
        <time>2015-09-10T14:31:42.109Z</time>
      </trkpt>
      <trkpt lat="46.07921" lon="4.62582">
        <ele>409.698608398</ele>
        <time>2015-09-10T14:31:43.075Z</time>
      </trkpt>
      <trkpt lat="46.07923" lon="4.62594">
        <ele>409.030090332</ele>
        <time>2015-09-10T14:31:49.131Z</time>
      </trkpt>
      <trkpt lat="46.07923" lon="4.62595">
        <ele>408.934356689</ele>
        <time>2015-09-10T14:31:50.072Z</time>
      </trkpt>
      <trkpt lat="46.07926" lon="4.62607">
        <ele>408.343902588</ele>
        <time>2015-09-10T14:31:56.105Z</time>
      </trkpt>
      <trkpt lat="46.07926" lon="4.62609">
        <ele>408.226348877</ele>
        <time>2015-09-10T14:31:57.073Z</time>
      </trkpt>
      <trkpt lat="46.07929" lon="4.6262">
        <ele>407.400756836</ele>
        <time>2015-09-10T14:32:05.088Z</time>
      </trkpt>
      <trkpt lat="46.07929" lon="4.62621">
        <ele>407.307159424</ele>
        <time>2015-09-10T14:32:06.065Z</time>
      </trkpt>
      <trkpt lat="46.07932" lon="4.62631">
        <ele>406.67288208</ele>
        <time>2015-09-10T14:32:12.138Z</time>
      </trkpt>
      <trkpt lat="46.07933" lon="4.62633">
        <ele>406.560760498</ele>
        <time>2015-09-10T14:32:13.07Z</time>
      </trkpt>
      <trkpt lat="46.07938" lon="4.62643">
        <ele>405.916625977</ele>
        <time>2015-09-10T14:32:19.088Z</time>
      </trkpt>
      <trkpt lat="46.07938" lon="4.62645">
        <ele>405.832458496</ele>
        <time>2015-09-10T14:32:20.061Z</time>
      </trkpt>
      <trkpt lat="46.07941" lon="4.62655">
        <ele>405.372161865</ele>
        <time>2015-09-10T14:32:27.101Z</time>
      </trkpt>
      <trkpt lat="46.07941" lon="4.62657">
        <ele>405.311889648</ele>
        <time>2015-09-10T14:32:28.061Z</time>
      </trkpt>
      <trkpt lat="46.07943" lon="4.62668">
        <ele>405.025268555</ele>
        <time>2015-09-10T14:32:36.088Z</time>
      </trkpt>
      <trkpt lat="46.07943" lon="4.6267">
        <ele>404.982788086</ele>
        <time>2015-09-10T14:32:37.062Z</time>
      </trkpt>
      <trkpt lat="46.07945" lon="4.62681">
        <ele>405.141998291</ele>
        <time>2015-09-10T14:32:43.103Z</time>
      </trkpt>
      <trkpt lat="46.07945" lon="4.62683">
        <ele>405.290618896</ele>
        <time>2015-09-10T14:32:44.061Z</time>
      </trkpt>
      <trkpt lat="46.07946" lon="4.62695">
        <ele>405.782470703</ele>
        <time>2015-09-10T14:32:51.084Z</time>
      </trkpt>
      <trkpt lat="46.07946" lon="4.62697">
        <ele>405.786102295</ele>
        <time>2015-09-10T14:32:52.071Z</time>
      </trkpt>
      <trkpt lat="46.07946" lon="4.6271">
        <ele>405.668029785</ele>
        <time>2015-09-10T14:32:59.227Z</time>
      </trkpt>
      <trkpt lat="46.07945" lon="4.62712">
        <ele>405.64630127</ele>
        <time>2015-09-10T14:33:00.074Z</time>
      </trkpt>
      <trkpt lat="46.07941" lon="4.62724">
        <ele>405.352264404</ele>
        <time>2015-09-10T14:33:06.1Z</time>
      </trkpt>
      <trkpt lat="46.07941" lon="4.62725">
        <ele>405.326873779</ele>
        <time>2015-09-10T14:33:07.073Z</time>
      </trkpt>
      <trkpt lat="46.07934" lon="4.62733">
        <ele>405.212738037</ele>
        <time>2015-09-10T14:33:14.106Z</time>
      </trkpt>
      <trkpt lat="46.07933" lon="4.62735">
        <ele>405.204620361</ele>
        <time>2015-09-10T14:33:15.065Z</time>
      </trkpt>
      <trkpt lat="46.07928" lon="4.62744">
        <ele>405.039550781</ele>
        <time>2015-09-10T14:33:22.088Z</time>
      </trkpt>
      <trkpt lat="46.07927" lon="4.62746">
        <ele>405.019195557</ele>
        <time>2015-09-10T14:33:23.072Z</time>
      </trkpt>
      <trkpt lat="46.07923" lon="4.62756">
        <ele>404.921325684</ele>
        <time>2015-09-10T14:33:30.078Z</time>
      </trkpt>
      <trkpt lat="46.07922" lon="4.62758">
        <ele>404.937286377</ele>
        <time>2015-09-10T14:33:31.072Z</time>
      </trkpt>
      <trkpt lat="46.07918" lon="4.62768">
        <ele>404.842041016</ele>
        <time>2015-09-10T14:33:38.103Z</time>
      </trkpt>
      <trkpt lat="46.07917" lon="4.6277">
        <ele>404.825469971</ele>
        <time>2015-09-10T14:33:39.074Z</time>
      </trkpt>
      <trkpt lat="46.07912" lon="4.6278">
        <ele>404.844360352</ele>
        <time>2015-09-10T14:33:47.149Z</time>
      </trkpt>
      <trkpt lat="46.07912" lon="4.62782">
        <ele>404.822143555</ele>
        <time>2015-09-10T14:33:48.055Z</time>
      </trkpt>
      <trkpt lat="46.07908" lon="4.62793">
        <ele>404.758972168</ele>
        <time>2015-09-10T14:33:55.084Z</time>
      </trkpt>
      <trkpt lat="46.07908" lon="4.62794">
        <ele>404.741149902</ele>
        <time>2015-09-10T14:33:56.061Z</time>
      </trkpt>
      <trkpt lat="46.07903" lon="4.62803">
        <ele>404.602905273</ele>
        <time>2015-09-10T14:34:04.101Z</time>
      </trkpt>
      <trkpt lat="46.07902" lon="4.62805">
        <ele>404.643341064</ele>
        <time>2015-09-10T14:34:05.059Z</time>
      </trkpt>
      <trkpt lat="46.07896" lon="4.62813">
        <ele>405.034118652</ele>
        <time>2015-09-10T14:34:13.105Z</time>
      </trkpt>
      <trkpt lat="46.07896" lon="4.62814">
        <ele>405.112518311</ele>
        <time>2015-09-10T14:34:14.064Z</time>
      </trkpt>
      <trkpt lat="46.07889" lon="4.62823">
        <ele>405.51071167</ele>
        <time>2015-09-10T14:34:22.106Z</time>
      </trkpt>
      <trkpt lat="46.07888" lon="4.62824">
        <ele>405.585418701</ele>
        <time>2015-09-10T14:34:23.064Z</time>
      </trkpt>
      <trkpt lat="46.07882" lon="4.62833">
        <ele>406.401031494</ele>
        <time>2015-09-10T14:34:32.118Z</time>
      </trkpt>
      <trkpt lat="46.07881" lon="4.62834">
        <ele>406.509887695</ele>
        <time>2015-09-10T14:34:33.048Z</time>
      </trkpt>
      <trkpt lat="46.07876" lon="4.62843">
        <ele>407.322601318</ele>
        <time>2015-09-10T14:34:41.188Z</time>
      </trkpt>
      <trkpt lat="46.07875" lon="4.62843">
        <ele>407.423095703</ele>
        <time>2015-09-10T14:34:42.083Z</time>
      </trkpt>
      <trkpt lat="46.07868" lon="4.62852">
        <ele>408.110809326</ele>
        <time>2015-09-10T14:34:50.117Z</time>
      </trkpt>
      <trkpt lat="46.07868" lon="4.62853">
        <ele>408.190795898</ele>
        <time>2015-09-10T14:34:51.067Z</time>
      </trkpt>
      <trkpt lat="46.07861" lon="4.62861">
        <ele>408.889801025</ele>
        <time>2015-09-10T14:34:59.11Z</time>
      </trkpt>
      <trkpt lat="46.07861" lon="4.62862">
        <ele>408.986694336</ele>
        <time>2015-09-10T14:35:00.067Z</time>
      </trkpt>
      <trkpt lat="46.07855" lon="4.62871">
        <ele>409.949584961</ele>
        <time>2015-09-10T14:35:09.109Z</time>
      </trkpt>
      <trkpt lat="46.07854" lon="4.62872">
        <ele>410.059112549</ele>
        <time>2015-09-10T14:35:10.082Z</time>
      </trkpt>
      <trkpt lat="46.07848" lon="4.6288">
        <ele>411.181854248</ele>
        <time>2015-09-10T14:35:19.105Z</time>
      </trkpt>
      <trkpt lat="46.07847" lon="4.62881">
        <ele>411.307006836</ele>
        <time>2015-09-10T14:35:20.067Z</time>
      </trkpt>
      <trkpt lat="46.0784" lon="4.62888">
        <ele>412.546356201</ele>
        <time>2015-09-10T14:35:29.105Z</time>
      </trkpt>
      <trkpt lat="46.07839" lon="4.62889">
        <ele>412.727172852</ele>
        <time>2015-09-10T14:35:30.072Z</time>
      </trkpt>
      <trkpt lat="46.07832" lon="4.62897">
        <ele>414.333862305</ele>
        <time>2015-09-10T14:35:40.084Z</time>
      </trkpt>
      <trkpt lat="46.07831" lon="4.62897">
        <ele>414.435943604</ele>
        <time>2015-09-10T14:35:41.076Z</time>
      </trkpt>
      <trkpt lat="46.07822" lon="4.62902">
        <ele>415.031158447</ele>
        <time>2015-09-10T14:35:49.096Z</time>
      </trkpt>
      <trkpt lat="46.07821" lon="4.62903">
        <ele>415.080566406</ele>
        <time>2015-09-10T14:35:50.068Z</time>
      </trkpt>
      <trkpt lat="46.07814" lon="4.62907">
        <ele>415.52835083</ele>
        <time>2015-09-10T14:35:58.103Z</time>
      </trkpt>
      <trkpt lat="46.07813" lon="4.62908">
        <ele>415.584594727</ele>
        <time>2015-09-10T14:35:59.068Z</time>
      </trkpt>
      <trkpt lat="46.07805" lon="4.62914">
        <ele>416.021697998</ele>
        <time>2015-09-10T14:36:07.107Z</time>
      </trkpt>
      <trkpt lat="46.07805" lon="4.62914">
        <ele>416.080932617</ele>
        <time>2015-09-10T14:36:08.069Z</time>
      </trkpt>
      <trkpt lat="46.07797" lon="4.62921">
        <ele>416.750701904</ele>
        <time>2015-09-10T14:36:17.125Z</time>
      </trkpt>
      <trkpt lat="46.07796" lon="4.62922">
        <ele>416.832092285</ele>
        <time>2015-09-10T14:36:18.067Z</time>
      </trkpt>
      <trkpt lat="46.07789" lon="4.62928">
        <ele>417.658477783</ele>
        <time>2015-09-10T14:36:27.096Z</time>
      </trkpt>
      <trkpt lat="46.07788" lon="4.62929">
        <ele>417.759552002</ele>
        <time>2015-09-10T14:36:28.085Z</time>
      </trkpt>
      <trkpt lat="46.07781" lon="4.62936">
        <ele>418.625427246</ele>
        <time>2015-09-10T14:36:36.151Z</time>
      </trkpt>
      <trkpt lat="46.0778" lon="4.62936">
        <ele>418.741455078</ele>
        <time>2015-09-10T14:36:37.07Z</time>
      </trkpt>
      <trkpt lat="46.07773" lon="4.62944">
        <ele>419.786773682</ele>
        <time>2015-09-10T14:36:46.099Z</time>
      </trkpt>
      <trkpt lat="46.07772" lon="4.62945">
        <ele>419.908447266</ele>
        <time>2015-09-10T14:36:47.058Z</time>
      </trkpt>
      <trkpt lat="46.07766" lon="4.62954">
        <ele>421.422424316</ele>
        <time>2015-09-10T14:36:58.115Z</time>
      </trkpt>
      <trkpt lat="46.07766" lon="4.62955">
        <ele>421.570343018</ele>
        <time>2015-09-10T14:36:59.072Z</time>
      </trkpt>
      <trkpt lat="46.07758" lon="4.6296">
        <ele>423.029174805</ele>
        <time>2015-09-10T14:37:09.123Z</time>
      </trkpt>
      <trkpt lat="46.07757" lon="4.62961">
        <ele>423.184661865</ele>
        <time>2015-09-10T14:37:10.077Z</time>
      </trkpt>
      <trkpt lat="46.07749" lon="4.62962">
        <ele>423.943786621</ele>
        <time>2015-09-10T14:37:16.107Z</time>
      </trkpt>
      <trkpt lat="46.07748" lon="4.62962">
        <ele>424.054168701</ele>
        <time>2015-09-10T14:37:17.078Z</time>
      </trkpt>
      <trkpt lat="46.0774" lon="4.62966">
        <ele>424.936798096</ele>
        <time>2015-09-10T14:37:25.115Z</time>
      </trkpt>
      <trkpt lat="46.07739" lon="4.62967">
        <ele>425.045410156</ele>
        <time>2015-09-10T14:37:26.057Z</time>
      </trkpt>
      <trkpt lat="46.07731" lon="4.62972">
        <ele>425.94519043</ele>
        <time>2015-09-10T14:37:34.087Z</time>
      </trkpt>
      <trkpt lat="46.0773" lon="4.62973">
        <ele>426.047393799</ele>
        <time>2015-09-10T14:37:35.039Z</time>
      </trkpt>
      <trkpt lat="46.07722" lon="4.62976">
        <ele>426.943450928</ele>
        <time>2015-09-10T14:37:43.09Z</time>
      </trkpt>
      <trkpt lat="46.07721" lon="4.62977">
        <ele>427.044494629</ele>
        <time>2015-09-10T14:37:44.054Z</time>
      </trkpt>
      <trkpt lat="46.07713" lon="4.62981">
        <ele>427.954925537</ele>
        <time>2015-09-10T14:37:53.102Z</time>
      </trkpt>
      <trkpt lat="46.07713" lon="4.62981">
        <ele>428.064697266</ele>
        <time>2015-09-10T14:37:54.053Z</time>
      </trkpt>
      <trkpt lat="46.07707" lon="4.6299">
        <ele>428.601715088</ele>
        <time>2015-09-10T14:38:00.067Z</time>
      </trkpt>
      <trkpt lat="46.07706" lon="4.62992">
        <ele>428.677307129</ele>
        <time>2015-09-10T14:38:01.058Z</time>
      </trkpt>
      <trkpt lat="46.077" lon="4.63002">
        <ele>429.280059814</ele>
        <time>2015-09-10T14:38:09.105Z</time>
      </trkpt>
      <trkpt lat="46.077" lon="4.63003">
        <ele>429.322235107</ele>
        <time>2015-09-10T14:38:10.084Z</time>
      </trkpt>
      <trkpt lat="46.07697" lon="4.63015">
        <ele>430.147216797</ele>
        <time>2015-09-10T14:38:22.091Z</time>
      </trkpt>
      <trkpt lat="46.07697" lon="4.63017">
        <ele>430.270568848</ele>
        <time>2015-09-10T14:38:23.061Z</time>
      </trkpt>
      <trkpt lat="46.07695" lon="4.63029">
        <ele>431.144714355</ele>
        <time>2015-09-10T14:38:30.087Z</time>
      </trkpt>
      <trkpt lat="46.07694" lon="4.63031">
        <ele>431.241760254</ele>
        <time>2015-09-10T14:38:31.065Z</time>
      </trkpt>
      <trkpt lat="46.07694" lon="4.63042">
        <ele>431.634185791</ele>
        <time>2015-09-10T14:38:37.109Z</time>
      </trkpt>
      <trkpt lat="46.07695" lon="4.63045">
        <ele>431.647583008</ele>
        <time>2015-09-10T14:38:38.06Z</time>
      </trkpt>
      <trkpt lat="46.07693" lon="4.63057">
        <ele>432.117462158</ele>
        <time>2015-09-10T14:38:47.103Z</time>
      </trkpt>
      <trkpt lat="46.07692" lon="4.63059">
        <ele>432.166259766</ele>
        <time>2015-09-10T14:38:48.043Z</time>
      </trkpt>
      <trkpt lat="46.07691" lon="4.63072">
        <ele>432.570739746</ele>
        <time>2015-09-10T14:38:56.065Z</time>
      </trkpt>
      <trkpt lat="46.07691" lon="4.63074">
        <ele>432.539031982</ele>
        <time>2015-09-10T14:38:57.076Z</time>
      </trkpt>
      <trkpt lat="46.0769" lon="4.63086">
        <ele>432.245056152</ele>
        <time>2015-09-10T14:39:04.097Z</time>
      </trkpt>
      <trkpt lat="46.0769" lon="4.63087">
        <ele>432.195404053</ele>
        <time>2015-09-10T14:39:05.064Z</time>
      </trkpt>
      <trkpt lat="46.07697" lon="4.63095">
        <ele>432.092468262</ele>
        <time>2015-09-10T14:39:17.109Z</time>
      </trkpt>
      <trkpt lat="46.07698" lon="4.63096">
        <ele>432.172241211</ele>
        <time>2015-09-10T14:39:18.063Z</time>
      </trkpt>
      <trkpt lat="46.07706" lon="4.63097">
        <ele>432.932006836</ele>
        <time>2015-09-10T14:39:27.093Z</time>
      </trkpt>
      <trkpt lat="46.07707" lon="4.63097">
        <ele>433.036590576</ele>
        <time>2015-09-10T14:39:28.047Z</time>
      </trkpt>
      <trkpt lat="46.07714" lon="4.63093">
        <ele>432.595825195</ele>
        <time>2015-09-10T14:40:04.484Z</time>
      </trkpt>
    </trkseg>
  </trk>
</gpx>